<?xml version='1.0' encoding='UTF-8'?><gpx version="1.1" creator="JPX - https://github.com/jenetics/jpx" xmlns="http://www.topografix.com/GPX/1/1"><trk><trkseg><trkpt lat="44.87634149484614" lon="10.08397434722259"><ele>62.0</ele><time>2026-04-11T11:51:17Z</time></trkpt><trkpt lat="44.876161419702655" lon="10.083884320510316"><ele>62.0</ele><time>2026-04-11T11:51:18Z</time></trkpt><trkpt lat="44.87597879512279" lon="10.083795358240646"><ele>62.0</ele><time>2026-04-11T11:51:19Z</time></trkpt><trkpt lat="44.87579730650177" lon="10.083700440145082"><ele>61.66666666666667</ele><time>2026-04-11T11:51:20Z</time></trkpt><trkpt lat="44.87561758590298" lon="10.083602434962302"><ele>61.33333333333333</ele><time>2026-04-11T11:51:21Z</time></trkpt><trkpt lat="44.87543636741309" lon="10.08350636679363"><ele>61.0</ele><time>2026-04-11T11:51:22Z</time></trkpt><trkpt lat="44.87525470728736" lon="10.083402704861316"><ele>61.0</ele><time>2026-04-11T11:51:23Z</time></trkpt><trkpt lat="44.875078021097025" lon="10.083294203167982"><ele>61.0</ele><time>2026-04-11T11:51:24Z</time></trkpt><trkpt lat="44.874916570632685" lon="10.08319294519655"><ele>61.0</ele><time>2026-04-11T11:51:25Z</time></trkpt><trkpt lat="44.87472863781707" lon="10.08310381955602"><ele>60.5</ele><time>2026-04-11T11:51:26Z</time></trkpt><trkpt lat="44.87459446925558" lon="10.083015672985642"><ele>60.0</ele><time>2026-04-11T11:51:27Z</time></trkpt><trkpt lat="44.87448165275759" lon="10.082910686688464"><ele>59.5</ele><time>2026-04-11T11:51:28Z</time></trkpt><trkpt lat="44.87440844761605" lon="10.082806232358967"><ele>59.0</ele><time>2026-04-11T11:51:29Z</time></trkpt><trkpt lat="44.87433881556816" lon="10.082683062605819"><ele>59.00000000000001</ele><time>2026-04-11T11:51:30Z</time></trkpt><trkpt lat="44.87428788607323" lon="10.08256185642689"><ele>59.0</ele><time>2026-04-11T11:51:31Z</time></trkpt><trkpt lat="44.87429187546524" lon="10.082429489214844"><ele>59.0</ele><time>2026-04-11T11:51:32Z</time></trkpt><trkpt lat="44.874267658757304" lon="10.082340784164838"><ele>59.0</ele><time>2026-04-11T11:51:33Z</time></trkpt><trkpt lat="44.87424478943677" lon="10.082240201376923"><ele>59.00000000000001</ele><time>2026-04-11T11:51:34Z</time></trkpt><trkpt lat="44.874213689730155" lon="10.082158775544418"><ele>59.0</ele><time>2026-04-11T11:51:35Z</time></trkpt><trkpt lat="44.87400842254662" lon="10.082204800501072"><ele>59.75</ele><time>2026-04-11T11:51:36Z</time></trkpt><trkpt lat="44.8739126094547" lon="10.082240963177954"><ele>60.5</ele><time>2026-04-11T11:51:37Z</time></trkpt><trkpt lat="44.87380845958111" lon="10.082292582554038"><ele>61.25</ele><time>2026-04-11T11:51:38Z</time></trkpt><trkpt lat="44.873690646177344" lon="10.082327659911902"><ele>62.0</ele><time>2026-04-11T11:51:39Z</time></trkpt><trkpt lat="44.8735640744708" lon="10.082357862795522"><ele>61.333333333333336</ele><time>2026-04-11T11:51:40Z</time></trkpt><trkpt lat="44.873408326168644" lon="10.082285408120924"><ele>60.66666666666667</ele><time>2026-04-11T11:51:41Z</time></trkpt><trkpt lat="44.873241166277396" lon="10.082228040036073"><ele>60.0</ele><time>2026-04-11T11:51:42Z</time></trkpt><trkpt lat="44.873086603898926" lon="10.082119659492658"><ele>60.0</ele><time>2026-04-11T11:51:43Z</time></trkpt><trkpt lat="44.87291639682779" lon="10.082017788386276"><ele>60.0</ele><time>2026-04-11T11:51:44Z</time></trkpt><trkpt lat="44.87273012571966" lon="10.08192759357542"><ele>60.0</ele><time>2026-04-11T11:51:45Z</time></trkpt><trkpt lat="44.87253700475322" lon="10.081801546581993"><ele>60.33333333333333</ele><time>2026-04-11T11:51:46Z</time></trkpt><trkpt lat="44.87233546437382" lon="10.081688624084016"><ele>60.666666666666664</ele><time>2026-04-11T11:51:47Z</time></trkpt><trkpt lat="44.87212244871936" lon="10.081576680851217"><ele>61.0</ele><time>2026-04-11T11:51:48Z</time></trkpt><trkpt lat="44.87189876653446" lon="10.081476673174697"><ele>61.5</ele><time>2026-04-11T11:51:49Z</time></trkpt><trkpt lat="44.871670138740974" lon="10.081390757545027"><ele>62.0</ele><time>2026-04-11T11:51:50Z</time></trkpt><trkpt lat="44.871433171139266" lon="10.08132628566771"><ele>62.0</ele><time>2026-04-11T11:51:51Z</time></trkpt><trkpt lat="44.8711931344926" lon="10.08128800434783"><ele>62.0</ele><time>2026-04-11T11:51:52Z</time></trkpt><trkpt lat="44.870948440586" lon="10.081272376506217"><ele>63.0</ele><time>2026-04-11T11:51:53Z</time></trkpt><trkpt lat="44.87070461822687" lon="10.081272015481092"><ele>64.0</ele><time>2026-04-11T11:51:54Z</time></trkpt><trkpt lat="44.87045590408884" lon="10.08126806916972"><ele>64.0</ele><time>2026-04-11T11:51:55Z</time></trkpt><trkpt lat="44.87018745219509" lon="10.08124978448845"><ele>64.0</ele><time>2026-04-11T11:51:56Z</time></trkpt><trkpt lat="44.869904989009946" lon="10.081225081881112"><ele>64.5</ele><time>2026-04-11T11:51:57Z</time></trkpt><trkpt lat="44.86965647193246" lon="10.081205174302031"><ele>65.0</ele><time>2026-04-11T11:51:58Z</time></trkpt><trkpt lat="44.869432564735426" lon="10.081187631998503"><ele>66.0</ele><time>2026-04-11T11:51:59Z</time></trkpt><trkpt lat="44.86920939171627" lon="10.081165895279234"><ele>67.0</ele><time>2026-04-11T11:52:00Z</time></trkpt><trkpt lat="44.86899764297287" lon="10.081126722782836"><ele>68.0</ele><time>2026-04-11T11:52:01Z</time></trkpt><trkpt lat="44.86881691949012" lon="10.081040802173991"><ele>68.0</ele><time>2026-04-11T11:52:02Z</time></trkpt><trkpt lat="44.86865160423198" lon="10.08093429113535"><ele>68.0</ele><time>2026-04-11T11:52:03Z</time></trkpt><trkpt lat="44.86848197945742" lon="10.08082152014296"><ele>68.0</ele><time>2026-04-11T11:52:04Z</time></trkpt><trkpt lat="44.86831067064851" lon="10.080699037967406"><ele>68.0</ele><time>2026-04-11T11:52:05Z</time></trkpt><trkpt lat="44.86816381668635" lon="10.080551687530408"><ele>68.0</ele><time>2026-04-11T11:52:06.001Z</time></trkpt><trkpt lat="44.868037135094326" lon="10.080388201990248"><ele>68.0</ele><time>2026-04-11T11:52:07.001Z</time></trkpt><trkpt lat="44.867938838002395" lon="10.080203408322703"><ele>68.0</ele><time>2026-04-11T11:52:08.001Z</time></trkpt><trkpt lat="44.867857140429855" lon="10.080000671271343"><ele>68.0</ele><time>2026-04-11T11:52:09.001Z</time></trkpt><trkpt lat="44.86779176236112" lon="10.079781423643299"><ele>68.0</ele><time>2026-04-11T11:52:10.001Z</time></trkpt><trkpt lat="44.8677192662538" lon="10.079525502261214"><ele>67.66666666666667</ele><time>2026-04-11T11:52:11.001Z</time></trkpt><trkpt lat="44.86763688406542" lon="10.079246931408392"><ele>67.33333333333333</ele><time>2026-04-11T11:52:12.001Z</time></trkpt><trkpt lat="44.86755459149204" lon="10.078965133368422"><ele>67.0</ele><time>2026-04-11T11:52:13.001Z</time></trkpt><trkpt lat="44.86748635717782" lon="10.078699662406933"><ele>66.66666666666666</ele><time>2026-04-11T11:52:14.001Z</time></trkpt><trkpt lat="44.86741479470403" lon="10.078457368294194"><ele>66.33333333333333</ele><time>2026-04-11T11:52:15.001Z</time></trkpt><trkpt lat="44.8673570639828" lon="10.078236445592202"><ele>66.0</ele><time>2026-04-11T11:52:16.001Z</time></trkpt><trkpt lat="44.86731125493936" lon="10.078041791305626"><ele>65.8</ele><time>2026-04-11T11:52:17.001Z</time></trkpt><trkpt lat="44.86728798332549" lon="10.077885644776385"><ele>65.6</ele><time>2026-04-11T11:52:18.001Z</time></trkpt><trkpt lat="44.867289456226025" lon="10.077730713569567"><ele>65.4</ele><time>2026-04-11T11:52:19.001Z</time></trkpt><trkpt lat="44.867264011760795" lon="10.077631594909354"><ele>65.2</ele><time>2026-04-11T11:52:20.001Z</time></trkpt><trkpt lat="44.8671415093532" lon="10.077545049844367"><ele>65.0</ele><time>2026-04-11T11:52:22.001Z</time></trkpt><trkpt lat="44.867057857191995" lon="10.077571622481717"><ele>65.0</ele><time>2026-04-11T11:52:23.001Z</time></trkpt><trkpt lat="44.866985295048664" lon="10.07762413402919"><ele>65.0</ele><time>2026-04-11T11:52:24.001Z</time></trkpt><trkpt lat="44.86693677336138" lon="10.07771605627521"><ele>65.0</ele><time>2026-04-11T11:52:25.001Z</time></trkpt><trkpt lat="44.8669201378688" lon="10.077830678898097"><ele>65.0</ele><time>2026-04-11T11:52:26.001Z</time></trkpt><trkpt lat="44.86694533188461" lon="10.077941068844233"><ele>65.0</ele><time>2026-04-11T11:52:27.001Z</time></trkpt><trkpt lat="44.86700371479407" lon="10.078030399836546"><ele>65.0</ele><time>2026-04-11T11:52:28.001Z</time></trkpt><trkpt lat="44.8670949845141" lon="10.078104103294812"><ele>65.0</ele><time>2026-04-11T11:52:29.001Z</time></trkpt><trkpt lat="44.86720120260737" lon="10.078181738440106"><ele>65.0</ele><time>2026-04-11T11:52:30.001Z</time></trkpt><trkpt lat="44.867273853689305" lon="10.07828883322561"><ele>65.0</ele><time>2026-04-11T11:52:31.001Z</time></trkpt><trkpt lat="44.8673145427066" lon="10.078441739761816"><ele>65.0</ele><time>2026-04-11T11:52:32.001Z</time></trkpt><trkpt lat="44.86733677774847" lon="10.078626375970606"><ele>65.33333333333334</ele><time>2026-04-11T11:52:33.001Z</time></trkpt><trkpt lat="44.86735748516761" lon="10.078841310147606"><ele>65.66666666666667</ele><time>2026-04-11T11:52:34.001Z</time></trkpt><trkpt lat="44.86737098264907" lon="10.079081980028628"><ele>66.0</ele><time>2026-04-11T11:52:35.001Z</time></trkpt><trkpt lat="44.86738276417215" lon="10.079349396832699"><ele>66.66666666666667</ele><time>2026-04-11T11:52:36.001Z</time></trkpt><trkpt lat="44.867415157387924" lon="10.079643814005"><ele>67.33333333333334</ele><time>2026-04-11T11:52:37.001Z</time></trkpt><trkpt lat="44.867420737129" lon="10.079951573754302"><ele>68.0</ele><time>2026-04-11T11:52:38.001Z</time></trkpt><trkpt lat="44.867448368063165" lon="10.080249226323907"><ele>68.0</ele><time>2026-04-11T11:52:39.001Z</time></trkpt><trkpt lat="44.867475652580374" lon="10.08050409757237"><ele>68.0</ele><time>2026-04-11T11:52:40.001Z</time></trkpt><trkpt lat="44.86750999448472" lon="10.080736837480766"><ele>68.0</ele><time>2026-04-11T11:52:41.001Z</time></trkpt><trkpt lat="44.86755314789387" lon="10.080958092978715"><ele>68.0</ele><time>2026-04-11T11:52:42.001Z</time></trkpt><trkpt lat="44.86760065240523" lon="10.08116088876804"><ele>68.0</ele><time>2026-04-11T11:52:43.001Z</time></trkpt><trkpt lat="44.867649183990125" lon="10.081350403140554"><ele>68.0</ele><time>2026-04-11T11:52:44.001Z</time></trkpt><trkpt lat="44.86769774323188" lon="10.081536019730327"><ele>68.0</ele><time>2026-04-11T11:52:45.001Z</time></trkpt><trkpt lat="44.86774029632009" lon="10.081707340275488"><ele>67.25</ele><time>2026-04-11T11:52:46.001Z</time></trkpt><trkpt lat="44.867779321010865" lon="10.081870408119617"><ele>66.5</ele><time>2026-04-11T11:52:47.001Z</time></trkpt><trkpt lat="44.86781146886138" lon="10.082030699087966"><ele>65.75</ele><time>2026-04-11T11:52:48.001Z</time></trkpt><trkpt lat="44.86783273801676" lon="10.082187783954577"><ele>65.0</ele><time>2026-04-11T11:52:49.001Z</time></trkpt><trkpt lat="44.86783711250753" lon="10.082344645440072"><ele>65.0</ele><time>2026-04-11T11:52:50.001Z</time></trkpt><trkpt lat="44.86781807446809" lon="10.082520736965634"><ele>65.0</ele><time>2026-04-11T11:52:51.001Z</time></trkpt><trkpt lat="44.86777462213534" lon="10.082706312656512"><ele>65.0</ele><time>2026-04-11T11:52:52.001Z</time></trkpt><trkpt lat="44.86771227786727" lon="10.082899345827613"><ele>65.0</ele><time>2026-04-11T11:52:53.001Z</time></trkpt><trkpt lat="44.86765221448298" lon="10.083101785261636"><ele>65.0</ele><time>2026-04-11T11:52:54.001Z</time></trkpt><trkpt lat="44.86758707187161" lon="10.083306954176145"><ele>65.0</ele><time>2026-04-11T11:52:55.001Z</time></trkpt><trkpt lat="44.86741829311391" lon="10.083451530898266"><ele>65.0</ele><time>2026-04-11T11:52:56.001Z</time></trkpt><trkpt lat="44.867303794952036" lon="10.083626908094555"><ele>65.0</ele><time>2026-04-11T11:52:57.001Z</time></trkpt><trkpt lat="44.86720027923805" lon="10.08378534550978"><ele>65.0</ele><time>2026-04-11T11:52:58.001Z</time></trkpt><trkpt lat="44.8670935619245" lon="10.083942192929088"><ele>65.0</ele><time>2026-04-11T11:52:59.001Z</time></trkpt><trkpt lat="44.86697738219968" lon="10.084091114724338"><ele>65.0</ele><time>2026-04-11T11:53:00.001Z</time></trkpt><trkpt lat="44.86685173880066" lon="10.084235814268306"><ele>65.0</ele><time>2026-04-11T11:53:01.001Z</time></trkpt><trkpt lat="44.8667256626267" lon="10.084376729755663"><ele>65.0</ele><time>2026-04-11T11:53:02.001Z</time></trkpt><trkpt lat="44.86659534862161" lon="10.084517403595681"><ele>65.0</ele><time>2026-04-11T11:53:03.001Z</time></trkpt><trkpt lat="44.86645900147615" lon="10.08465251991197"><ele>65.0</ele><time>2026-04-11T11:53:04.001Z</time></trkpt><trkpt lat="44.86631900200412" lon="10.08478468436686"><ele>65.0</ele><time>2026-04-11T11:53:04.999Z</time></trkpt><trkpt lat="44.86618216166766" lon="10.084905805609946"><ele>65.0</ele><time>2026-04-11T11:53:05.999Z</time></trkpt><trkpt lat="44.86604225798464" lon="10.085026073404908"><ele>65.0</ele><time>2026-04-11T11:53:06.999Z</time></trkpt><trkpt lat="44.8658969451639" lon="10.085133033690518"><ele>65.0</ele><time>2026-04-11T11:53:07.999Z</time></trkpt><trkpt lat="44.86575067487551" lon="10.085231239791122"><ele>65.0</ele><time>2026-04-11T11:53:08.999Z</time></trkpt><trkpt lat="44.86560162939371" lon="10.08532273852342"><ele>65.0</ele><time>2026-04-11T11:53:09.999Z</time></trkpt><trkpt lat="44.865450446435126" lon="10.08541797339065"><ele>65.0</ele><time>2026-04-11T11:53:10.999Z</time></trkpt><trkpt lat="44.86529787473986" lon="10.085503599862987"><ele>65.0</ele><time>2026-04-11T11:53:11.999Z</time></trkpt><trkpt lat="44.86514493338064" lon="10.085586636446774"><ele>65.0</ele><time>2026-04-11T11:53:12.999Z</time></trkpt><trkpt lat="44.86498513615444" lon="10.085669599431107"><ele>65.0</ele><time>2026-04-11T11:53:13.999Z</time></trkpt><trkpt lat="44.8648292974453" lon="10.085752224776094"><ele>65.66666666666667</ele><time>2026-04-11T11:53:14.999Z</time></trkpt><trkpt lat="44.8646696921341" lon="10.08584241075511"><ele>66.33333333333333</ele><time>2026-04-11T11:53:15.999Z</time></trkpt><trkpt lat="44.864509847664955" lon="10.085932927414113"><ele>67.0</ele><time>2026-04-11T11:53:16.999Z</time></trkpt><trkpt lat="44.86435310635273" lon="10.08601891248661"><ele>66.33333333333333</ele><time>2026-04-11T11:53:17.999Z</time></trkpt><trkpt lat="44.86419466473045" lon="10.086103898215217"><ele>65.66666666666667</ele><time>2026-04-11T11:53:18.999Z</time></trkpt><trkpt lat="44.86402987312834" lon="10.086184406792862"><ele>65.0</ele><time>2026-04-11T11:53:19.999Z</time></trkpt><trkpt lat="44.8638632969131" lon="10.086271493949702"><ele>65.0</ele><time>2026-04-11T11:53:20.999Z</time></trkpt><trkpt lat="44.86369970841089" lon="10.086357600958177"><ele>65.0</ele><time>2026-04-11T11:53:21.999Z</time></trkpt><trkpt lat="44.86353136085737" lon="10.086448299815592"><ele>65.0</ele><time>2026-04-11T11:53:22.999Z</time></trkpt><trkpt lat="44.86336132974325" lon="10.086537840699181"><ele>65.66666666666667</ele><time>2026-04-11T11:53:23.999Z</time></trkpt><trkpt lat="44.863192174139506" lon="10.086627511010013"><ele>66.33333333333333</ele><time>2026-04-11T11:53:24.999Z</time></trkpt><trkpt lat="44.863014064816014" lon="10.086723825879632"><ele>67.0</ele><time>2026-04-11T11:53:26Z</time></trkpt><trkpt lat="44.862826042030015" lon="10.086822012277876"><ele>67.0</ele><time>2026-04-11T11:53:27Z</time></trkpt><trkpt lat="44.86263627773557" lon="10.086917275794478"><ele>67.0</ele><time>2026-04-11T11:53:28Z</time></trkpt><trkpt lat="44.86245005339553" lon="10.087013073241035"><ele>67.0</ele><time>2026-04-11T11:53:29Z</time></trkpt><trkpt lat="44.86226957945195" lon="10.087110110030357"><ele>67.33333333333333</ele><time>2026-04-11T11:53:30Z</time></trkpt><trkpt lat="44.86208974450422" lon="10.087207084081845"><ele>67.66666666666667</ele><time>2026-04-11T11:53:31Z</time></trkpt><trkpt lat="44.86191302381104" lon="10.087302357526413"><ele>68.0</ele><time>2026-04-11T11:53:32Z</time></trkpt><trkpt lat="44.86173924354811" lon="10.087394221168584"><ele>67.66666666666667</ele><time>2026-04-11T11:53:33Z</time></trkpt><trkpt lat="44.861562322905705" lon="10.087491588529986"><ele>67.33333333333333</ele><time>2026-04-11T11:53:34Z</time></trkpt><trkpt lat="44.861386345041524" lon="10.087583700620492"><ele>67.0</ele><time>2026-04-11T11:53:35Z</time></trkpt><trkpt lat="44.86120457109873" lon="10.087675302622667"><ele>67.0</ele><time>2026-04-11T11:53:36Z</time></trkpt><trkpt lat="44.86102544065777" lon="10.087766101069466"><ele>67.0</ele><time>2026-04-11T11:53:37Z</time></trkpt><trkpt lat="44.860851831161256" lon="10.087856833566995"><ele>67.0</ele><time>2026-04-11T11:53:38Z</time></trkpt><trkpt lat="44.8606818337943" lon="10.087950979656462"><ele>67.0</ele><time>2026-04-11T11:53:39Z</time></trkpt><trkpt lat="44.86050866628249" lon="10.088044909017178"><ele>67.0</ele><time>2026-04-11T11:53:40Z</time></trkpt><trkpt lat="44.86034039247433" lon="10.088145579927906"><ele>67.0</ele><time>2026-04-11T11:53:41Z</time></trkpt><trkpt lat="44.86017430385026" lon="10.088268852812162"><ele>67.66666666666666</ele><time>2026-04-11T11:53:42Z</time></trkpt><trkpt lat="44.860016650653606" lon="10.08841586105289"><ele>68.33333333333333</ele><time>2026-04-11T11:53:43Z</time></trkpt><trkpt lat="44.8598465383825" lon="10.088607825607165"><ele>69.0</ele><time>2026-04-11T11:53:44Z</time></trkpt><trkpt lat="44.859664120875536" lon="10.08881959804092"><ele>69.0</ele><time>2026-04-11T11:53:45Z</time></trkpt><trkpt lat="44.859479139671166" lon="10.08903013315828"><ele>69.0</ele><time>2026-04-11T11:53:46Z</time></trkpt><trkpt lat="44.85932116902885" lon="10.089206951795191"><ele>69.0</ele><time>2026-04-11T11:53:47Z</time></trkpt><trkpt lat="44.859176659706684" lon="10.089358503889185"><ele>69.0</ele><time>2026-04-11T11:53:48Z</time></trkpt><trkpt lat="44.85904724851742" lon="10.089494107166978"><ele>69.0</ele><time>2026-04-11T11:53:49Z</time></trkpt><trkpt lat="44.85893120039838" lon="10.08961436829026"><ele>69.0</ele><time>2026-04-11T11:53:50Z</time></trkpt><trkpt lat="44.85884006775022" lon="10.08971142578547"><ele>69.0</ele><time>2026-04-11T11:53:51Z</time></trkpt><trkpt lat="44.85875934311186" lon="10.089796033965674"><ele>69.0</ele><time>2026-04-11T11:53:52Z</time></trkpt><trkpt lat="44.858680746659545" lon="10.089860393901658"><ele>69.0</ele><time>2026-04-11T11:53:53Z</time></trkpt><trkpt lat="44.858584439976916" lon="10.089938506936182"><ele>69.0</ele><time>2026-04-11T11:53:54Z</time></trkpt><trkpt lat="44.85844002458929" lon="10.089887939572817"><ele>69.0</ele><time>2026-04-11T11:53:55Z</time></trkpt><trkpt lat="44.858313086498846" lon="10.089957070886205"><ele>68.33333333333333</ele><time>2026-04-11T11:53:56Z</time></trkpt><trkpt lat="44.85817948155726" lon="10.090030718044948"><ele>67.66666666666666</ele><time>2026-04-11T11:53:57Z</time></trkpt><trkpt lat="44.85805429972894" lon="10.090151847804231"><ele>67.0</ele><time>2026-04-11T11:53:58Z</time></trkpt><trkpt lat="44.857952836468904" lon="10.09032913505694"><ele>67.0</ele><time>2026-04-11T11:53:59Z</time></trkpt><trkpt lat="44.85783712819298" lon="10.090518921122998"><ele>67.0</ele><time>2026-04-11T11:54:00Z</time></trkpt><trkpt lat="44.85768522632307" lon="10.09061415243523"><ele>67.0</ele><time>2026-04-11T11:54:01Z</time></trkpt><trkpt lat="44.85753914031346" lon="10.090695726098962"><ele>67.66666666666666</ele><time>2026-04-11T11:54:02Z</time></trkpt><trkpt lat="44.857361014035135" lon="10.090670901142085"><ele>68.33333333333333</ele><time>2026-04-11T11:54:03Z</time></trkpt><trkpt lat="44.85718214249506" lon="10.09066858572973"><ele>69.0</ele><time>2026-04-11T11:54:04Z</time></trkpt><trkpt lat="44.8569938221733" lon="10.0906510495696"><ele>69.0</ele><time>2026-04-11T11:54:05Z</time></trkpt><trkpt lat="44.85679261755701" lon="10.090626109257743"><ele>69.0</ele><time>2026-04-11T11:54:06Z</time></trkpt><trkpt lat="44.85659334504373" lon="10.090610259944347"><ele>69.0</ele><time>2026-04-11T11:54:07Z</time></trkpt><trkpt lat="44.856403593802014" lon="10.090605418459601"><ele>69.0</ele><time>2026-04-11T11:54:08Z</time></trkpt><trkpt lat="44.85621776175382" lon="10.09060075886788"><ele>69.0</ele><time>2026-04-11T11:54:09Z</time></trkpt><trkpt lat="44.85604601370446" lon="10.090584937703708"><ele>69.0</ele><time>2026-04-11T11:54:10Z</time></trkpt><trkpt lat="44.85588318516406" lon="10.090558954921399"><ele>69.66666666666667</ele><time>2026-04-11T11:54:11Z</time></trkpt><trkpt lat="44.8557225874217" lon="10.09050744512277"><ele>70.33333333333334</ele><time>2026-04-11T11:54:12Z</time></trkpt><trkpt lat="44.855577709590754" lon="10.090422636030535"><ele>71.0</ele><time>2026-04-11T11:54:13.001Z</time></trkpt><trkpt lat="44.85544773354823" lon="10.090304208891023"><ele>71.0</ele><time>2026-04-11T11:54:14.001Z</time></trkpt><trkpt lat="44.85533272957396" lon="10.090168874075852"><ele>71.0</ele><time>2026-04-11T11:54:15.001Z</time></trkpt><trkpt lat="44.85523211349171" lon="10.090011759858145"><ele>71.0</ele><time>2026-04-11T11:54:16.001Z</time></trkpt><trkpt lat="44.85514926881458" lon="10.08984520064799"><ele>71.0</ele><time>2026-04-11T11:54:17.001Z</time></trkpt><trkpt lat="44.85508676632919" lon="10.089679547213509"><ele>70.6</ele><time>2026-04-11T11:54:18.001Z</time></trkpt><trkpt lat="44.855065928802" lon="10.08951199405818"><ele>70.19999999999999</ele><time>2026-04-11T11:54:19.001Z</time></trkpt><trkpt lat="44.85504844138871" lon="10.089351570080668"><ele>69.80000000000001</ele><time>2026-04-11T11:54:20.001Z</time></trkpt><trkpt lat="44.85504567643136" lon="10.08921333125805"><ele>69.4</ele><time>2026-04-11T11:54:21.001Z</time></trkpt><trkpt lat="44.85505817469329" lon="10.089085693234093"><ele>69.0</ele><time>2026-04-11T11:54:22.001Z</time></trkpt><trkpt lat="44.85508179605049" lon="10.088969774125147"><ele>69.0</ele><time>2026-04-11T11:54:23.001Z</time></trkpt><trkpt lat="44.85512815997071" lon="10.088871013194936"><ele>69.0</ele><time>2026-04-11T11:54:24.001Z</time></trkpt><trkpt lat="44.85516119074117" lon="10.08874875262662"><ele>69.0</ele><time>2026-04-11T11:54:25.001Z</time></trkpt><trkpt lat="44.855169559166875" lon="10.088605713013866"><ele>69.0</ele><time>2026-04-11T11:54:26.001Z</time></trkpt><trkpt lat="44.855143796728356" lon="10.088480645472902"><ele>69.0</ele><time>2026-04-11T11:54:27.001Z</time></trkpt><trkpt lat="44.8550994825207" lon="10.088372846148184"><ele>69.0</ele><time>2026-04-11T11:54:28.001Z</time></trkpt><trkpt lat="44.854991618613326" lon="10.088302569576872"><ele>69.0</ele><time>2026-04-11T11:54:29.001Z</time></trkpt><trkpt lat="44.854886141459744" lon="10.088271989986433"><ele>69.0</ele><time>2026-04-11T11:54:30.001Z</time></trkpt><trkpt lat="44.85477316888236" lon="10.088318773832338"><ele>69.0</ele><time>2026-04-11T11:54:31.001Z</time></trkpt><trkpt lat="44.85466901699618" lon="10.088394734733948"><ele>69.0</ele><time>2026-04-11T11:54:32.001Z</time></trkpt><trkpt lat="44.85460317495725" lon="10.088563201883224"><ele>69.0</ele><time>2026-04-11T11:54:33.001Z</time></trkpt><trkpt lat="44.85443068539211" lon="10.08859482703341"><ele>69.0</ele><time>2026-04-11T11:54:34.001Z</time></trkpt><trkpt lat="44.85426725181235" lon="10.088602733100739"><ele>68.66666666666667</ele><time>2026-04-11T11:54:35.001Z</time></trkpt><trkpt lat="44.85409767017225" lon="10.088689379805938"><ele>68.33333333333334</ele><time>2026-04-11T11:54:36.001Z</time></trkpt><trkpt lat="44.85390587501969" lon="10.088768663528715"><ele>68.0</ele><time>2026-04-11T11:54:37.001Z</time></trkpt><trkpt lat="44.853695350857606" lon="10.088869768120553"><ele>68.0</ele><time>2026-04-11T11:54:38.001Z</time></trkpt><trkpt lat="44.85347673953874" lon="10.088970206400909"><ele>68.0</ele><time>2026-04-11T11:54:39.001Z</time></trkpt><trkpt lat="44.85323885813334" lon="10.089064151775268"><ele>68.0</ele><time>2026-04-11T11:54:40.001Z</time></trkpt><trkpt lat="44.85300562318235" lon="10.089144786567878"><ele>68.0</ele><time>2026-04-11T11:54:41.001Z</time></trkpt><trkpt lat="44.852770180832124" lon="10.089213473386174"><ele>68.0</ele><time>2026-04-11T11:54:42.001Z</time></trkpt><trkpt lat="44.852526815763625" lon="10.089280407857558"><ele>68.0</ele><time>2026-04-11T11:54:43.001Z</time></trkpt><trkpt lat="44.852289245659584" lon="10.089345761561626"><ele>68.0</ele><time>2026-04-11T11:54:44.001Z</time></trkpt><trkpt lat="44.85204856631854" lon="10.0894105766118"><ele>68.0</ele><time>2026-04-11T11:54:45.001Z</time></trkpt><trkpt lat="44.85181155544728" lon="10.089477269394846"><ele>68.5</ele><time>2026-04-11T11:54:46.001Z</time></trkpt><trkpt lat="44.85157554515217" lon="10.089541101286622"><ele>69.0</ele><time>2026-04-11T11:54:47.001Z</time></trkpt><trkpt lat="44.85133990249094" lon="10.089603577917124"><ele>69.0</ele><time>2026-04-11T11:54:48.001Z</time></trkpt><trkpt lat="44.8511059506088" lon="10.089652077825873"><ele>69.0</ele><time>2026-04-11T11:54:49.001Z</time></trkpt><trkpt lat="44.85087722176893" lon="10.089687082477825"><ele>69.0</ele><time>2026-04-11T11:54:50.001Z</time></trkpt><trkpt lat="44.85066910355175" lon="10.089713007356556"><ele>69.0</ele><time>2026-04-11T11:54:51.001Z</time></trkpt><trkpt lat="44.85047955073796" lon="10.089726528261972"><ele>69.0</ele><time>2026-04-11T11:54:52.001Z</time></trkpt><trkpt lat="44.85030543464055" lon="10.089718174377577"><ele>69.0</ele><time>2026-04-11T11:54:53.001Z</time></trkpt><trkpt lat="44.85013965119267" lon="10.08964056753986"><ele>69.0</ele><time>2026-04-11T11:54:54.001Z</time></trkpt><trkpt lat="44.84995324525508" lon="10.089550713686906"><ele>69.0</ele><time>2026-04-11T11:54:55.001Z</time></trkpt><trkpt lat="44.849750190036836" lon="10.089478808104609"><ele>68.66666666666667</ele><time>2026-04-11T11:54:56.001Z</time></trkpt><trkpt lat="44.849552118159856" lon="10.089420392542774"><ele>68.33333333333334</ele><time>2026-04-11T11:54:57.001Z</time></trkpt><trkpt lat="44.84933268176781" lon="10.089415908533281"><ele>68.0</ele><time>2026-04-11T11:54:58.001Z</time></trkpt><trkpt lat="44.8491082867828" lon="10.089434397167272"><ele>69.0</ele><time>2026-04-11T11:54:59.001Z</time></trkpt><trkpt lat="44.84890747266692" lon="10.089434161780162"><ele>70.0</ele><time>2026-04-11T11:55:00.001Z</time></trkpt><trkpt lat="44.848728268789436" lon="10.089370038136988"><ele>71.0</ele><time>2026-04-11T11:55:01.001Z</time></trkpt><trkpt lat="44.84856054364918" lon="10.089309834712761"><ele>71.33333333333334</ele><time>2026-04-11T11:55:02.001Z</time></trkpt><trkpt lat="44.84839262925717" lon="10.089256756075736"><ele>71.66666666666667</ele><time>2026-04-11T11:55:03.001Z</time></trkpt><trkpt lat="44.848224336842286" lon="10.08917623472145"><ele>72.0</ele><time>2026-04-11T11:55:04.001Z</time></trkpt><trkpt lat="44.848052114209956" lon="10.089096893615634"><ele>72.0</ele><time>2026-04-11T11:55:05.001Z</time></trkpt><trkpt lat="44.84789214551017" lon="10.089004720622189"><ele>72.0</ele><time>2026-04-11T11:55:06.001Z</time></trkpt><trkpt lat="44.84773359887039" lon="10.088931126970508"><ele>72.0</ele><time>2026-04-11T11:55:07.001Z</time></trkpt><trkpt lat="44.84756733111537" lon="10.0888829741679"><ele>72.0</ele><time>2026-04-11T11:55:08.001Z</time></trkpt><trkpt lat="44.84740431017873" lon="10.088819986676357"><ele>72.0</ele><time>2026-04-11T11:55:09.001Z</time></trkpt><trkpt lat="44.84723596905009" lon="10.088783502227955"><ele>72.0</ele><time>2026-04-11T11:55:10.001Z</time></trkpt><trkpt lat="44.84707376674736" lon="10.088772219970378"><ele>72.0</ele><time>2026-04-11T11:55:10.999Z</time></trkpt><trkpt lat="44.846913837150325" lon="10.088779327264268"><ele>72.0</ele><time>2026-04-11T11:55:11.999Z</time></trkpt><trkpt lat="44.8467507095575" lon="10.088800714509638"><ele>72.0</ele><time>2026-04-11T11:55:12.999Z</time></trkpt><trkpt lat="44.84658477668" lon="10.088833917818265"><ele>72.0</ele><time>2026-04-11T11:55:13.999Z</time></trkpt><trkpt lat="44.846409557686" lon="10.088866899922355"><ele>72.0</ele><time>2026-04-11T11:55:14.999Z</time></trkpt><trkpt lat="44.846236471762445" lon="10.08889879215728"><ele>72.0</ele><time>2026-04-11T11:55:15.999Z</time></trkpt><trkpt lat="44.846068563590244" lon="10.088930525821986"><ele>72.0</ele><time>2026-04-11T11:55:16.999Z</time></trkpt><trkpt lat="44.84589472265573" lon="10.088966209156299"><ele>72.0</ele><time>2026-04-11T11:55:17.999Z</time></trkpt><trkpt lat="44.84571488821207" lon="10.089000474263242"><ele>72.0</ele><time>2026-04-11T11:55:18.999Z</time></trkpt><trkpt lat="44.845531844866194" lon="10.089038147694314"><ele>72.0</ele><time>2026-04-11T11:55:19.999Z</time></trkpt><trkpt lat="44.84535746128244" lon="10.08907198455589"><ele>72.0</ele><time>2026-04-11T11:55:20.999Z</time></trkpt><trkpt lat="44.845183915828486" lon="10.089108364614342"><ele>72.0</ele><time>2026-04-11T11:55:22Z</time></trkpt><trkpt lat="44.845001152205995" lon="10.089151085879621"><ele>72.0</ele><time>2026-04-11T11:55:23Z</time></trkpt><trkpt lat="44.84479390250594" lon="10.089157448879249"><ele>72.0</ele><time>2026-04-11T11:55:24Z</time></trkpt><trkpt lat="44.84456958505235" lon="10.089169894877456"><ele>72.0</ele><time>2026-04-11T11:55:25Z</time></trkpt><trkpt lat="44.84432843201373" lon="10.089172106355214"><ele>73.0</ele><time>2026-04-11T11:55:26Z</time></trkpt><trkpt lat="44.84408238238976" lon="10.089160621799968"><ele>74.0</ele><time>2026-04-11T11:55:27Z</time></trkpt><trkpt lat="44.843820429465474" lon="10.089155060359627"><ele>74.0</ele><time>2026-04-11T11:55:28Z</time></trkpt><trkpt lat="44.84355894935866" lon="10.089123407836071"><ele>74.0</ele><time>2026-04-11T11:55:29Z</time></trkpt><trkpt lat="44.84331533060312" lon="10.08910076320483"><ele>74.33333333333334</ele><time>2026-04-11T11:55:30Z</time></trkpt><trkpt lat="44.84309325972783" lon="10.089075965280136"><ele>74.66666666666667</ele><time>2026-04-11T11:55:31Z</time></trkpt><trkpt lat="44.84287818320187" lon="10.089044330399048"><ele>75.0</ele><time>2026-04-11T11:55:32Z</time></trkpt><trkpt lat="44.84265492159092" lon="10.088997831648756"><ele>75.5</ele><time>2026-04-11T11:55:33Z</time></trkpt><trkpt lat="44.84243530014007" lon="10.088915509184327"><ele>76.0</ele><time>2026-04-11T11:55:34Z</time></trkpt><trkpt lat="44.84222881324315" lon="10.088779729649632"><ele>76.0</ele><time>2026-04-11T11:55:35Z</time></trkpt><trkpt lat="44.84203456363421" lon="10.088702511528087"><ele>76.0</ele><time>2026-04-11T11:55:36Z</time></trkpt><trkpt lat="44.841850187682624" lon="10.088636155387478"><ele>76.0</ele><time>2026-04-11T11:55:37Z</time></trkpt><trkpt lat="44.841661981400144" lon="10.088621065561195"><ele>76.66666666666666</ele><time>2026-04-11T11:55:38Z</time></trkpt><trkpt lat="44.84146149569563" lon="10.088650942986295"><ele>77.33333333333333</ele><time>2026-04-11T11:55:39Z</time></trkpt><trkpt lat="44.84124577879096" lon="10.088701230615559"><ele>78.0</ele><time>2026-04-11T11:55:40Z</time></trkpt><trkpt lat="44.841028630238675" lon="10.088750578841108"><ele>78.66666666666667</ele><time>2026-04-11T11:55:41Z</time></trkpt><trkpt lat="44.84081364881604" lon="10.08879663944945"><ele>79.33333333333334</ele><time>2026-04-11T11:55:42Z</time></trkpt><trkpt lat="44.84060186618198" lon="10.088834219444184"><ele>80.0</ele><time>2026-04-11T11:55:43Z</time></trkpt><trkpt lat="44.8404032095882" lon="10.088869631355795"><ele>80.0</ele><time>2026-04-11T11:55:44Z</time></trkpt><trkpt lat="44.840204533535534" lon="10.088904678334437"><ele>80.0</ele><time>2026-04-11T11:55:45Z</time></trkpt><trkpt lat="44.84001404903111" lon="10.088943602741745"><ele>80.0</ele><time>2026-04-11T11:55:46Z</time></trkpt><trkpt lat="44.83982659247647" lon="10.088978874249307"><ele>81.0</ele><time>2026-04-11T11:55:47Z</time></trkpt><trkpt lat="44.83964417519987" lon="10.089009923638821"><ele>82.0</ele><time>2026-04-11T11:55:48Z</time></trkpt><trkpt lat="44.839464471821884" lon="10.089041491155841"><ele>83.0</ele><time>2026-04-11T11:55:49Z</time></trkpt><trkpt lat="44.83928083923323" lon="10.08907627612849"><ele>83.0</ele><time>2026-04-11T11:55:50Z</time></trkpt><trkpt lat="44.839112110309124" lon="10.089122933557297"><ele>83.0</ele><time>2026-04-11T11:55:51Z</time></trkpt><trkpt lat="44.83893232447739" lon="10.08918652771242"><ele>83.0</ele><time>2026-04-11T11:55:52Z</time></trkpt><trkpt lat="44.83876564585853" lon="10.089259667855078"><ele>83.0</ele><time>2026-04-11T11:55:53Z</time></trkpt><trkpt lat="44.838596768186804" lon="10.089334786356144"><ele>83.0</ele><time>2026-04-11T11:55:54Z</time></trkpt><trkpt lat="44.83842329741447" lon="10.089407004028345"><ele>83.0</ele><time>2026-04-11T11:55:55Z</time></trkpt><trkpt lat="44.838253203486374" lon="10.089473263989813"><ele>84.0</ele><time>2026-04-11T11:55:56Z</time></trkpt><trkpt lat="44.83808295188144" lon="10.08954577802947"><ele>85.0</ele><time>2026-04-11T11:55:57Z</time></trkpt><trkpt lat="44.83791903728407" lon="10.08961153193637"><ele>86.0</ele><time>2026-04-11T11:55:58Z</time></trkpt><trkpt lat="44.8377527264802" lon="10.089672552138392"><ele>86.0</ele><time>2026-04-11T11:55:59Z</time></trkpt><trkpt lat="44.837586092480365" lon="10.08973767700493"><ele>86.0</ele><time>2026-04-11T11:56:00Z</time></trkpt><trkpt lat="44.837423903083995" lon="10.089806035165319"><ele>86.0</ele><time>2026-04-11T11:56:01Z</time></trkpt><trkpt lat="44.837260884782026" lon="10.089877260521844"><ele>86.0</ele><time>2026-04-11T11:56:02Z</time></trkpt><trkpt lat="44.83709467815671" lon="10.089951989930169"><ele>86.0</ele><time>2026-04-11T11:56:03Z</time></trkpt><trkpt lat="44.83693264143532" lon="10.09002333975492"><ele>86.0</ele><time>2026-04-11T11:56:04Z</time></trkpt><trkpt lat="44.83676573751248" lon="10.090093764123518"><ele>86.0</ele><time>2026-04-11T11:56:05.001Z</time></trkpt><trkpt lat="44.83659857796749" lon="10.090163821469734"><ele>86.0</ele><time>2026-04-11T11:56:06.001Z</time></trkpt><trkpt lat="44.836433948090374" lon="10.090232333676225"><ele>86.0</ele><time>2026-04-11T11:56:07.001Z</time></trkpt><trkpt lat="44.83626821493878" lon="10.090308028327575"><ele>86.0</ele><time>2026-04-11T11:56:08.001Z</time></trkpt><trkpt lat="44.83609766889574" lon="10.090382353555954"><ele>86.0</ele><time>2026-04-11T11:56:09.001Z</time></trkpt><trkpt lat="44.8359223609293" lon="10.090456049442624"><ele>86.0</ele><time>2026-04-11T11:56:10.001Z</time></trkpt><trkpt lat="44.8357418878755" lon="10.090530825864018"><ele>86.66666666666667</ele><time>2026-04-11T11:56:11.001Z</time></trkpt><trkpt lat="44.83557284019134" lon="10.090603135345543"><ele>87.33333333333333</ele><time>2026-04-11T11:56:12.001Z</time></trkpt><trkpt lat="44.83541994281965" lon="10.090667558050248"><ele>88.0</ele><time>2026-04-11T11:56:13.001Z</time></trkpt><trkpt lat="44.835275664305136" lon="10.09072146926858"><ele>88.25</ele><time>2026-04-11T11:56:14.001Z</time></trkpt><trkpt lat="44.835128802206356" lon="10.090761324945614"><ele>88.5</ele><time>2026-04-11T11:56:15.001Z</time></trkpt><trkpt lat="44.83498342169157" lon="10.09078403314425"><ele>88.75</ele><time>2026-04-11T11:56:16.001Z</time></trkpt><trkpt lat="44.83484705141104" lon="10.090781272325152"><ele>89.0</ele><time>2026-04-11T11:56:17.001Z</time></trkpt><trkpt lat="44.83472919670035" lon="10.090761493444058"><ele>89.0</ele><time>2026-04-11T11:56:18.001Z</time></trkpt><trkpt lat="44.83462953994583" lon="10.090729370546057"><ele>89.0</ele><time>2026-04-11T11:56:19.001Z</time></trkpt><trkpt lat="44.834513291339704" lon="10.090707400217546"><ele>89.0</ele><time>2026-04-11T11:56:20.001Z</time></trkpt><trkpt lat="44.83436960070721" lon="10.090692966007806"><ele>89.0</ele><time>2026-04-11T11:56:21.001Z</time></trkpt><trkpt lat="44.83419721225514" lon="10.09067838466395"><ele>89.33333333333334</ele><time>2026-04-11T11:56:22.001Z</time></trkpt><trkpt lat="44.83401324607074" lon="10.090641297214063"><ele>89.66666666666667</ele><time>2026-04-11T11:56:23.001Z</time></trkpt><trkpt lat="44.83381850631516" lon="10.090605869832105"><ele>90.0</ele><time>2026-04-11T11:56:24.001Z</time></trkpt><trkpt lat="44.83360720238217" lon="10.090570487303404"><ele>90.0</ele><time>2026-04-11T11:56:25.001Z</time></trkpt><trkpt lat="44.83338483572532" lon="10.090541498951513"><ele>90.0</ele><time>2026-04-11T11:56:26.001Z</time></trkpt><trkpt lat="44.83315962164166" lon="10.090507551196751"><ele>90.0</ele><time>2026-04-11T11:56:27.001Z</time></trkpt><trkpt lat="44.83292286031985" lon="10.090462608120923"><ele>90.0</ele><time>2026-04-11T11:56:28.001Z</time></trkpt><trkpt lat="44.83267750402191" lon="10.090418829815517"><ele>90.5</ele><time>2026-04-11T11:56:29.001Z</time></trkpt><trkpt lat="44.83242469376729" lon="10.090380378643372"><ele>91.0</ele><time>2026-04-11T11:56:30.001Z</time></trkpt><trkpt lat="44.83216440667344" lon="10.090355489736861"><ele>91.0</ele><time>2026-04-11T11:56:31.001Z</time></trkpt><trkpt lat="44.83190419734291" lon="10.090338849682615"><ele>91.0</ele><time>2026-04-11T11:56:32.001Z</time></trkpt><trkpt lat="44.83164340075493" lon="10.090320006615794"><ele>92.0</ele><time>2026-04-11T11:56:33.001Z</time></trkpt><trkpt lat="44.831387222197954" lon="10.090279829876716"><ele>93.0</ele><time>2026-04-11T11:56:34.001Z</time></trkpt><trkpt lat="44.831131042349085" lon="10.090237048760018"><ele>93.0</ele><time>2026-04-11T11:56:35.001Z</time></trkpt><trkpt lat="44.83089602205194" lon="10.090187441784645"><ele>93.0</ele><time>2026-04-11T11:56:36.001Z</time></trkpt><trkpt lat="44.83067563913473" lon="10.090144188314651"><ele>93.0</ele><time>2026-04-11T11:56:37.001Z</time></trkpt><trkpt lat="44.83046705987258" lon="10.090102754658949"><ele>93.0</ele><time>2026-04-11T11:56:38.001Z</time></trkpt><trkpt lat="44.83025502445715" lon="10.090048034187811"><ele>93.0</ele><time>2026-04-11T11:56:39.001Z</time></trkpt><trkpt lat="44.83005674370125" lon="10.089926650529044"><ele>93.5</ele><time>2026-04-11T11:56:40.001Z</time></trkpt><trkpt lat="44.829845445599425" lon="10.089793293166492"><ele>94.0</ele><time>2026-04-11T11:56:41.001Z</time></trkpt><trkpt lat="44.82961760795108" lon="10.089663897653669"><ele>94.0</ele><time>2026-04-11T11:56:42.001Z</time></trkpt><trkpt lat="44.82939639430977" lon="10.089520180191451"><ele>94.0</ele><time>2026-04-11T11:56:43.001Z</time></trkpt><trkpt lat="44.82915781422484" lon="10.089414205625145"><ele>95.5</ele><time>2026-04-11T11:56:44.001Z</time></trkpt><trkpt lat="44.82889601834236" lon="10.089330667572472"><ele>97.0</ele><time>2026-04-11T11:56:45.001Z</time></trkpt><trkpt lat="44.82861258339873" lon="10.089259796569536"><ele>97.5</ele><time>2026-04-11T11:56:46.001Z</time></trkpt><trkpt lat="44.82832578596764" lon="10.089184684347957"><ele>98.0</ele><time>2026-04-11T11:56:47.001Z</time></trkpt><trkpt lat="44.82807519757405" lon="10.089107834513422"><ele>97.5</ele><time>2026-04-11T11:56:48.001Z</time></trkpt><trkpt lat="44.82784409807358" lon="10.089040185938973"><ele>97.0</ele><time>2026-04-11T11:56:49.001Z</time></trkpt><trkpt lat="44.827626459207096" lon="10.088973497331525"><ele>97.0</ele><time>2026-04-11T11:56:50.001Z</time></trkpt><trkpt lat="44.827423986619266" lon="10.088910919513488"><ele>97.0</ele><time>2026-04-11T11:56:51.001Z</time></trkpt><trkpt lat="44.82724378873168" lon="10.08886280898594"><ele>97.0</ele><time>2026-04-11T11:56:52.001Z</time></trkpt><trkpt lat="44.82708461703438" lon="10.088812279230366"><ele>97.0</ele><time>2026-04-11T11:56:53.001Z</time></trkpt><trkpt lat="44.82694563475589" lon="10.088774156537717"><ele>97.0</ele><time>2026-04-11T11:56:54.001Z</time></trkpt><trkpt lat="44.82684155019334" lon="10.088749624807086"><ele>97.0</ele><time>2026-04-11T11:56:55.001Z</time></trkpt><trkpt lat="44.82676156751593" lon="10.088753434035024"><ele>97.0</ele><time>2026-04-11T11:56:56.001Z</time></trkpt><trkpt lat="44.82668903871498" lon="10.088806144772395"><ele>97.0</ele><time>2026-04-11T11:56:57.001Z</time></trkpt><trkpt lat="44.82663624420986" lon="10.088921889820261"><ele>97.0</ele><time>2026-04-11T11:56:58.001Z</time></trkpt><trkpt lat="44.82659944045689" lon="10.089080195375416"><ele>97.0</ele><time>2026-04-11T11:56:59.001Z</time></trkpt><trkpt lat="44.826574932588656" lon="10.089295309978914"><ele>97.0</ele><time>2026-04-11T11:57:00.001Z</time></trkpt><trkpt lat="44.826554409216754" lon="10.089551515744482"><ele>97.0</ele><time>2026-04-11T11:57:01.002Z</time></trkpt><trkpt lat="44.82649794791831" lon="10.089756003657284"><ele>97.0</ele><time>2026-04-11T11:57:02.002Z</time></trkpt><trkpt lat="44.82643278958838" lon="10.089916078402283"><ele>97.0</ele><time>2026-04-11T11:57:03.002Z</time></trkpt><trkpt lat="44.82635669139542" lon="10.090058089876402"><ele>97.0</ele><time>2026-04-11T11:57:04.002Z</time></trkpt><trkpt lat="44.82623359024374" lon="10.090107651661393"><ele>96.66666666666667</ele><time>2026-04-11T11:57:05.002Z</time></trkpt><trkpt lat="44.82610731568833" lon="10.090141033539764"><ele>96.33333333333334</ele><time>2026-04-11T11:57:06.002Z</time></trkpt><trkpt lat="44.825959771009806" lon="10.09016781922323"><ele>96.0</ele><time>2026-04-11T11:57:07.002Z</time></trkpt><trkpt lat="44.82578881389016" lon="10.09019899123953"><ele>96.0</ele><time>2026-04-11T11:57:08.002Z</time></trkpt><trkpt lat="44.82560644252649" lon="10.09024752596021"><ele>96.0</ele><time>2026-04-11T11:57:09.002Z</time></trkpt><trkpt lat="44.82541809221957" lon="10.090269236006725"><ele>96.0</ele><time>2026-04-11T11:57:10.002Z</time></trkpt><trkpt lat="44.82520742548159" lon="10.09028216447095"><ele>96.66666666666666</ele><time>2026-04-11T11:57:11.002Z</time></trkpt><trkpt lat="44.82498243171169" lon="10.09027809695782"><ele>97.33333333333333</ele><time>2026-04-11T11:57:12.002Z</time></trkpt><trkpt lat="44.824758475459404" lon="10.090264151982097"><ele>98.0</ele><time>2026-04-11T11:57:13.002Z</time></trkpt><trkpt lat="44.824526717736084" lon="10.090246584881774"><ele>98.0</ele><time>2026-04-11T11:57:14.002Z</time></trkpt><trkpt lat="44.82428694199612" lon="10.09022771064936"><ele>98.0</ele><time>2026-04-11T11:57:15.002Z</time></trkpt><trkpt lat="44.82403086540574" lon="10.09020407244301"><ele>98.0</ele><time>2026-04-11T11:57:16.002Z</time></trkpt><trkpt lat="44.82376685714319" lon="10.090182024123292"><ele>98.0</ele><time>2026-04-11T11:57:17Z</time></trkpt><trkpt lat="44.82349741362359" lon="10.090156786791907"><ele>97.0</ele><time>2026-04-11T11:57:18Z</time></trkpt><trkpt lat="44.8232255524675" lon="10.090130922599677"><ele>96.0</ele><time>2026-04-11T11:57:19Z</time></trkpt><trkpt lat="44.82294569654047" lon="10.090107917821353"><ele>96.0</ele><time>2026-04-11T11:57:20Z</time></trkpt><trkpt lat="44.82265831453866" lon="10.090079173977337"><ele>96.0</ele><time>2026-04-11T11:57:21Z</time></trkpt><trkpt lat="44.82235969613773" lon="10.090017025310694"><ele>97.5</ele><time>2026-04-11T11:57:22Z</time></trkpt><trkpt lat="44.822042662850095" lon="10.089944712642852"><ele>99.0</ele><time>2026-04-11T11:57:23Z</time></trkpt><trkpt lat="44.8217330735321" lon="10.0898746149547"><ele>99.5</ele><time>2026-04-11T11:57:24Z</time></trkpt><trkpt lat="44.821433223754624" lon="10.08982737514764"><ele>100.0</ele><time>2026-04-11T11:57:25Z</time></trkpt><trkpt lat="44.821140660144295" lon="10.08975937150021"><ele>99.5</ele><time>2026-04-11T11:57:26Z</time></trkpt><trkpt lat="44.820849685999654" lon="10.089695713142122"><ele>99.0</ele><time>2026-04-11T11:57:27Z</time></trkpt><trkpt lat="44.820561717137615" lon="10.089628068471269"><ele>99.0</ele><time>2026-04-11T11:57:28Z</time></trkpt><trkpt lat="44.82027552094715" lon="10.08956215774519"><ele>99.0</ele><time>2026-04-11T11:57:29Z</time></trkpt><trkpt lat="44.819991944224505" lon="10.089501435858883"><ele>98.5</ele><time>2026-04-11T11:57:30Z</time></trkpt><trkpt lat="44.81971365385487" lon="10.089440820954284"><ele>98.0</ele><time>2026-04-11T11:57:31Z</time></trkpt><trkpt lat="44.819434605924" lon="10.089378879651273"><ele>97.5</ele><time>2026-04-11T11:57:32Z</time></trkpt><trkpt lat="44.819152218800845" lon="10.089316497650374"><ele>97.0</ele><time>2026-04-11T11:57:33Z</time></trkpt><trkpt lat="44.81887346772003" lon="10.089253899420937"><ele>97.0</ele><time>2026-04-11T11:57:34Z</time></trkpt><trkpt lat="44.818595714856045" lon="10.089191188148913"><ele>97.0</ele><time>2026-04-11T11:57:35Z</time></trkpt><trkpt lat="44.81831949910028" lon="10.089127666125608"><ele>99.0</ele><time>2026-04-11T11:57:36Z</time></trkpt><trkpt lat="44.8180417649839" lon="10.089062535364643"><ele>101.0</ele><time>2026-04-11T11:57:37Z</time></trkpt><trkpt lat="44.81776584781203" lon="10.088998135977157"><ele>102.0</ele><time>2026-04-11T11:57:38Z</time></trkpt><trkpt lat="44.81749053987036" lon="10.088935509726229"><ele>103.0</ele><time>2026-04-11T11:57:39Z</time></trkpt><trkpt lat="44.8172160581402" lon="10.088878630251495"><ele>103.0</ele><time>2026-04-11T11:57:40Z</time></trkpt><trkpt lat="44.81693700527362" lon="10.088837134040308"><ele>103.0</ele><time>2026-04-11T11:57:41Z</time></trkpt><trkpt lat="44.81666000127015" lon="10.088827663553678"><ele>104.5</ele><time>2026-04-11T11:57:42Z</time></trkpt><trkpt lat="44.81635778875752" lon="10.088850403969923"><ele>106.0</ele><time>2026-04-11T11:57:43Z</time></trkpt><trkpt lat="44.816056321313894" lon="10.088889926594915"><ele>106.5</ele><time>2026-04-11T11:57:44Z</time></trkpt><trkpt lat="44.815782863196006" lon="10.088908226617793"><ele>107.0</ele><time>2026-04-11T11:57:45Z</time></trkpt><trkpt lat="44.81552937485535" lon="10.088849284166256"><ele>107.0</ele><time>2026-04-11T11:57:46Z</time></trkpt><trkpt lat="44.815268193073685" lon="10.088773810811556"><ele>107.0</ele><time>2026-04-11T11:57:47Z</time></trkpt><trkpt lat="44.81498853132403" lon="10.088690400742404"><ele>107.5</ele><time>2026-04-11T11:57:48Z</time></trkpt><trkpt lat="44.814697313807955" lon="10.088604059106137"><ele>108.0</ele><time>2026-04-11T11:57:49Z</time></trkpt><trkpt lat="44.8144087187117" lon="10.088541304875118"><ele>107.0</ele><time>2026-04-11T11:57:50Z</time></trkpt><trkpt lat="44.814129580233924" lon="10.088456420701784"><ele>106.0</ele><time>2026-04-11T11:57:51Z</time></trkpt><trkpt lat="44.81385038809388" lon="10.08837380961188"><ele>106.0</ele><time>2026-04-11T11:57:52Z</time></trkpt><trkpt lat="44.81357944836567" lon="10.088292757061227"><ele>106.0</ele><time>2026-04-11T11:57:53Z</time></trkpt><trkpt lat="44.8133075150054" lon="10.088211560132118"><ele>110.0</ele><time>2026-04-11T11:57:54Z</time></trkpt><trkpt lat="44.81304435062656" lon="10.088134932525852"><ele>114.0</ele><time>2026-04-11T11:57:55Z</time></trkpt><trkpt lat="44.81278118593045" lon="10.088067883927275"><ele>111.5</ele><time>2026-04-11T11:57:56Z</time></trkpt><trkpt lat="44.81251673379263" lon="10.08801704210986"><ele>109.0</ele><time>2026-04-11T11:57:57Z</time></trkpt><trkpt lat="44.812255697872324" lon="10.087962819781952"><ele>109.0</ele><time>2026-04-11T11:57:58Z</time></trkpt><trkpt lat="44.81199434199463" lon="10.087919093918002"><ele>109.0</ele><time>2026-04-11T11:57:59Z</time></trkpt><trkpt lat="44.8117359907706" lon="10.087874674282842"><ele>111.0</ele><time>2026-04-11T11:58:00Z</time></trkpt><trkpt lat="44.81147885825187" lon="10.087830900564358"><ele>113.0</ele><time>2026-04-11T11:58:01.001Z</time></trkpt><trkpt lat="44.81122157890099" lon="10.087800998970291"><ele>114.0</ele><time>2026-04-11T11:58:02.001Z</time></trkpt><trkpt lat="44.81095863073847" lon="10.087750185800155"><ele>115.0</ele><time>2026-04-11T11:58:03.001Z</time></trkpt><trkpt lat="44.81067806884343" lon="10.087703855982484"><ele>115.0</ele><time>2026-04-11T11:58:04.001Z</time></trkpt><trkpt lat="44.81037931212883" lon="10.087652472330406"><ele>115.0</ele><time>2026-04-11T11:58:05.001Z</time></trkpt><trkpt lat="44.810070775142776" lon="10.087585292480783"><ele>115.0</ele><time>2026-04-11T11:58:06.001Z</time></trkpt><trkpt lat="44.8097794082066" lon="10.087497173522065"><ele>115.0</ele><time>2026-04-11T11:58:07.001Z</time></trkpt><trkpt lat="44.80952622928087" lon="10.087399035230051"><ele>118.5</ele><time>2026-04-11T11:58:08.001Z</time></trkpt><trkpt lat="44.80928953418795" lon="10.08729991670928"><ele>122.0</ele><time>2026-04-11T11:58:09.001Z</time></trkpt><trkpt lat="44.8090720592317" lon="10.087211999009389"><ele>122.0</ele><time>2026-04-11T11:58:10.001Z</time></trkpt><trkpt lat="44.80887481650853" lon="10.087133750061241"><ele>122.0</ele><time>2026-04-11T11:58:11.001Z</time></trkpt><trkpt lat="44.808698845153465" lon="10.087059350978995"><ele>122.0</ele><time>2026-04-11T11:58:12.001Z</time></trkpt><trkpt lat="44.80855724024399" lon="10.086940044600231"><ele>122.0</ele><time>2026-04-11T11:58:13.001Z</time></trkpt><trkpt lat="44.80842138751111" lon="10.086792955695781"><ele>122.0</ele><time>2026-04-11T11:58:14.001Z</time></trkpt><trkpt lat="44.80827839426019" lon="10.08661758666405"><ele>122.0</ele><time>2026-04-11T11:58:15.001Z</time></trkpt><trkpt lat="44.80812691404557" lon="10.086423152613673"><ele>122.0</ele><time>2026-04-11T11:58:16.001Z</time></trkpt><trkpt lat="44.80795631586866" lon="10.086224042983531"><ele>122.0</ele><time>2026-04-11T11:58:17.001Z</time></trkpt><trkpt lat="44.807798313106325" lon="10.086023630642789"><ele>122.0</ele><time>2026-04-11T11:58:18.001Z</time></trkpt><trkpt lat="44.80765653658441" lon="10.085843440465329"><ele>121.66666666666666</ele><time>2026-04-11T11:58:19.001Z</time></trkpt><trkpt lat="44.807556219928095" lon="10.085650317907424"><ele>121.33333333333334</ele><time>2026-04-11T11:58:20.001Z</time></trkpt><trkpt lat="44.80748614227188" lon="10.085460161197739"><ele>121.0</ele><time>2026-04-11T11:58:21.001Z</time></trkpt><trkpt lat="44.807430576879696" lon="10.085243988863503"><ele>121.0</ele><time>2026-04-11T11:58:22.001Z</time></trkpt><trkpt lat="44.807365324637495" lon="10.084991496754277"><ele>121.0</ele><time>2026-04-11T11:58:23.001Z</time></trkpt><trkpt lat="44.80729579434899" lon="10.084726816990143"><ele>121.0</ele><time>2026-04-11T11:58:24.001Z</time></trkpt><trkpt lat="44.80720619220842" lon="10.084461082268286"><ele>123.66666666666667</ele><time>2026-04-11T11:58:25.001Z</time></trkpt><trkpt lat="44.807119311163454" lon="10.084181297211789"><ele>126.33333333333334</ele><time>2026-04-11T11:58:26.001Z</time></trkpt><trkpt lat="44.80702733497854" lon="10.083898075004303"><ele>129.0</ele><time>2026-04-11T11:58:27.001Z</time></trkpt><trkpt lat="44.80692730291781" lon="10.083621675039733"><ele>128.0</ele><time>2026-04-11T11:58:28.001Z</time></trkpt><trkpt lat="44.8068145023315" lon="10.083348311533522"><ele>127.0</ele><time>2026-04-11T11:58:29.001Z</time></trkpt><trkpt lat="44.806693073709496" lon="10.083085300372002"><ele>126.0</ele><time>2026-04-11T11:58:30.001Z</time></trkpt><trkpt lat="44.80654559860353" lon="10.082848925409976"><ele>126.0</ele><time>2026-04-11T11:58:31.001Z</time></trkpt><trkpt lat="44.806374884023676" lon="10.082613284574926"><ele>126.0</ele><time>2026-04-11T11:58:32.001Z</time></trkpt><trkpt lat="44.80620397738121" lon="10.08234999761785"><ele>125.0</ele><time>2026-04-11T11:58:33.001Z</time></trkpt><trkpt lat="44.80601772689026" lon="10.082105870692137"><ele>124.0</ele><time>2026-04-11T11:58:34.001Z</time></trkpt><trkpt lat="44.80584952453467" lon="10.08185835335394"><ele>124.0</ele><time>2026-04-11T11:58:35.001Z</time></trkpt><trkpt lat="44.80569381432228" lon="10.081643682439978"><ele>124.0</ele><time>2026-04-11T11:58:36.001Z</time></trkpt><trkpt lat="44.80554129002304" lon="10.081453176573147"><ele>124.0</ele><time>2026-04-11T11:58:37.001Z</time></trkpt><trkpt lat="44.80539090525188" lon="10.08129949036394"><ele>125.66666666666667</ele><time>2026-04-11T11:58:38.001Z</time></trkpt><trkpt lat="44.80522884067694" lon="10.081186063550815"><ele>127.33333333333334</ele><time>2026-04-11T11:58:39.001Z</time></trkpt><trkpt lat="44.80505791233538" lon="10.081099222198793"><ele>129.0</ele><time>2026-04-11T11:58:40.001Z</time></trkpt><trkpt lat="44.804891012178736" lon="10.081012006232216"><ele>129.0</ele><time>2026-04-11T11:58:41.001Z</time></trkpt><trkpt lat="44.80473030897137" lon="10.080922145765328"><ele>129.0</ele><time>2026-04-11T11:58:42.001Z</time></trkpt><trkpt lat="44.80459779976846" lon="10.080808047811738"><ele>129.0</ele><time>2026-04-11T11:58:43.001Z</time></trkpt><trkpt lat="44.804467565717516" lon="10.080708819406032"><ele>130.0</ele><time>2026-04-11T11:58:44.001Z</time></trkpt><trkpt lat="44.80434728587981" lon="10.080589395823875"><ele>131.0</ele><time>2026-04-11T11:58:45.001Z</time></trkpt><trkpt lat="44.80422423273468" lon="10.080463111297105"><ele>132.0</ele><time>2026-04-11T11:58:46.001Z</time></trkpt><trkpt lat="44.80408370400554" lon="10.080316830270931"><ele>130.66666666666666</ele><time>2026-04-11T11:58:47.001Z</time></trkpt><trkpt lat="44.803948486228805" lon="10.080139780534164"><ele>129.33333333333331</ele><time>2026-04-11T11:58:48.001Z</time></trkpt><trkpt lat="44.803809240939046" lon="10.079966920398363"><ele>128.0</ele><time>2026-04-11T11:58:49.001Z</time></trkpt><trkpt lat="44.80367452442065" lon="10.079813999241692"><ele>128.0</ele><time>2026-04-11T11:58:50.001Z</time></trkpt><trkpt lat="44.80353924660166" lon="10.07967060010616"><ele>128.0</ele><time>2026-04-11T11:58:51.001Z</time></trkpt><trkpt lat="44.803408486383084" lon="10.079512769991492"><ele>128.0</ele><time>2026-04-11T11:58:52.001Z</time></trkpt><trkpt lat="44.80328916535095" lon="10.079321681208885"><ele>128.33333333333331</ele><time>2026-04-11T11:58:53.001Z</time></trkpt><trkpt lat="44.80318538071013" lon="10.079091501198944"><ele>128.66666666666666</ele><time>2026-04-11T11:58:54.001Z</time></trkpt><trkpt lat="44.803156609983" lon="10.078794000299155"><ele>129.0</ele><time>2026-04-11T11:58:55.001Z</time></trkpt><trkpt lat="44.803078680234414" lon="10.078472125656186"><ele>131.5</ele><time>2026-04-11T11:58:56.001Z</time></trkpt><trkpt lat="44.80294163790436" lon="10.078171705243957"><ele>134.0</ele><time>2026-04-11T11:58:57.002Z</time></trkpt><trkpt lat="44.80280061374429" lon="10.077873539063061"><ele>133.5</ele><time>2026-04-11T11:58:58.002Z</time></trkpt><trkpt lat="44.80262743661658" lon="10.077566010156028"><ele>133.0</ele><time>2026-04-11T11:58:59.002Z</time></trkpt><trkpt lat="44.802444240493486" lon="10.077256305190355"><ele>133.0</ele><time>2026-04-11T11:59:00.002Z</time></trkpt><trkpt lat="44.80227203689641" lon="10.076917632709229"><ele>133.0</ele><time>2026-04-11T11:59:01.002Z</time></trkpt><trkpt lat="44.802083090367475" lon="10.076643342632693"><ele>132.5</ele><time>2026-04-11T11:59:02.002Z</time></trkpt><trkpt lat="44.8018756667301" lon="10.076427432456535"><ele>132.0</ele><time>2026-04-11T11:59:03.002Z</time></trkpt><trkpt lat="44.801656314385816" lon="10.076217768174708"><ele>132.0</ele><time>2026-04-11T11:59:04.002Z</time></trkpt><trkpt lat="44.80140883363868" lon="10.076022741881058"><ele>132.0</ele><time>2026-04-11T11:59:05.002Z</time></trkpt><trkpt lat="44.80117252040006" lon="10.075798005195436"><ele>130.5</ele><time>2026-04-11T11:59:06.002Z</time></trkpt><trkpt lat="44.80094788935933" lon="10.075613143924862"><ele>129.0</ele><time>2026-04-11T11:59:07.002Z</time></trkpt><trkpt lat="44.80073354195814" lon="10.075452604386744"><ele>129.0</ele><time>2026-04-11T11:59:08.002Z</time></trkpt><trkpt lat="44.800550914565754" lon="10.075219125922658"><ele>129.0</ele><time>2026-04-11T11:59:09.002Z</time></trkpt><trkpt lat="44.80037263472566" lon="10.074955949039806"><ele>130.0</ele><time>2026-04-11T11:59:10.002Z</time></trkpt><trkpt lat="44.800191340722" lon="10.074676142016896"><ele>131.0</ele><time>2026-04-11T11:59:11.002Z</time></trkpt><trkpt lat="44.79998239707835" lon="10.074409187018087"><ele>131.0</ele><time>2026-04-11T11:59:12.002Z</time></trkpt><trkpt lat="44.7997409743328" lon="10.074188193193672"><ele>131.0</ele><time>2026-04-11T11:59:13.002Z</time></trkpt><trkpt lat="44.79948501112156" lon="10.073951956629276"><ele>132.0</ele><time>2026-04-11T11:59:14.002Z</time></trkpt><trkpt lat="44.79924629016642" lon="10.073737017628892"><ele>133.0</ele><time>2026-04-11T11:59:15.002Z</time></trkpt><trkpt lat="44.799032644619984" lon="10.07353764170634"><ele>133.0</ele><time>2026-04-11T11:59:16.002Z</time></trkpt><trkpt lat="44.798837075834804" lon="10.073349484327432"><ele>133.0</ele><time>2026-04-11T11:59:17.002Z</time></trkpt><trkpt lat="44.79865995109893" lon="10.073172678165884"><ele>134.66666666666669</ele><time>2026-04-11T11:59:18.002Z</time></trkpt><trkpt lat="44.79850696210532" lon="10.073009929275344"><ele>136.33333333333334</ele><time>2026-04-11T11:59:19.002Z</time></trkpt><trkpt lat="44.798376320081104" lon="10.072852203736499"><ele>138.0</ele><time>2026-04-11T11:59:20.002Z</time></trkpt><trkpt lat="44.79832303601842" lon="10.072657237619213"><ele>138.25</ele><time>2026-04-11T11:59:21.002Z</time></trkpt><trkpt lat="44.79829487485877" lon="10.072476162681504"><ele>138.5</ele><time>2026-04-11T11:59:22.002Z</time></trkpt><trkpt lat="44.79826980089818" lon="10.0722701062393"><ele>138.75</ele><time>2026-04-11T11:59:23Z</time></trkpt><trkpt lat="44.79824542520688" lon="10.0720485240186"><ele>139.0</ele><time>2026-04-11T11:59:24Z</time></trkpt><trkpt lat="44.79820536480023" lon="10.071848776293079"><ele>140.0</ele><time>2026-04-11T11:59:25Z</time></trkpt><trkpt lat="44.7981967244264" lon="10.071659669352734"><ele>141.0</ele><time>2026-04-11T11:59:26Z</time></trkpt><trkpt lat="44.79816426572793" lon="10.071440999658716"><ele>142.0</ele><time>2026-04-11T11:59:27Z</time></trkpt><trkpt lat="44.79810983695205" lon="10.071181149918202"><ele>143.33333333333334</ele><time>2026-04-11T11:59:28Z</time></trkpt><trkpt lat="44.79807184389532" lon="10.070906132228355"><ele>144.66666666666666</ele><time>2026-04-11T11:59:29Z</time></trkpt><trkpt lat="44.79803930124656" lon="10.070681705346836"><ele>146.0</ele><time>2026-04-11T11:59:30Z</time></trkpt><trkpt lat="44.798008557384215" lon="10.070472949199267"><ele>147.25</ele><time>2026-04-11T11:59:31Z</time></trkpt><trkpt lat="44.79798005933348" lon="10.070295379453453"><ele>148.5</ele><time>2026-04-11T11:59:32Z</time></trkpt><trkpt lat="44.79795389299042" lon="10.070131758765704"><ele>149.75</ele><time>2026-04-11T11:59:33Z</time></trkpt><trkpt lat="44.79793198781653" lon="10.069980874457377"><ele>151.0</ele><time>2026-04-11T11:59:34Z</time></trkpt><trkpt lat="44.797908736368235" lon="10.069844222709555"><ele>150.4</ele><time>2026-04-11T11:59:35Z</time></trkpt><trkpt lat="44.79789874346595" lon="10.069708746135301"><ele>149.8</ele><time>2026-04-11T11:59:36Z</time></trkpt><trkpt lat="44.79788068192947" lon="10.069593861597879"><ele>149.20000000000002</ele><time>2026-04-11T11:59:37Z</time></trkpt><trkpt lat="44.797765224844305" lon="10.06954090427981"><ele>148.6</ele><time>2026-04-11T11:59:38Z</time></trkpt><trkpt lat="44.79768555319656" lon="10.06948235628748"><ele>148.0</ele><time>2026-04-11T11:59:39Z</time></trkpt><trkpt lat="44.79759089291377" lon="10.069452631697812"><ele>148.0</ele><time>2026-04-11T11:59:40Z</time></trkpt><trkpt lat="44.79750815098241" lon="10.069411317742608"><ele>148.0</ele><time>2026-04-11T11:59:41Z</time></trkpt><trkpt lat="44.79746000252341" lon="10.069269358273203"><ele>148.0</ele><time>2026-04-11T11:59:42Z</time></trkpt><trkpt lat="44.79738089853914" lon="10.06912769222017"><ele>148.0</ele><time>2026-04-11T11:59:43Z</time></trkpt><trkpt lat="44.79728969747905" lon="10.068980826974471"><ele>149.25</ele><time>2026-04-11T11:59:44Z</time></trkpt><trkpt lat="44.79722488041881" lon="10.068817844344819"><ele>150.5</ele><time>2026-04-11T11:59:45Z</time></trkpt><trkpt lat="44.79714496339076" lon="10.068700520434417"><ele>151.75</ele><time>2026-04-11T11:59:46Z</time></trkpt><trkpt lat="44.79708318949353" lon="10.068556807986415"><ele>153.0</ele><time>2026-04-11T11:59:47Z</time></trkpt><trkpt lat="44.79698503642097" lon="10.068414016648955"><ele>153.0</ele><time>2026-04-11T11:59:48Z</time></trkpt><trkpt lat="44.796863635891455" lon="10.068319168188133"><ele>153.0</ele><time>2026-04-11T11:59:49Z</time></trkpt><trkpt lat="44.796780983799856" lon="10.068176753597344"><ele>153.0</ele><time>2026-04-11T11:59:50Z</time></trkpt><trkpt lat="44.796708359522576" lon="10.06804179172481"><ele>153.0</ele><time>2026-04-11T11:59:51Z</time></trkpt><trkpt lat="44.7966341779648" lon="10.067904545160067"><ele>152.4</ele><time>2026-04-11T11:59:52Z</time></trkpt><trkpt lat="44.79656298195898" lon="10.067772822070996"><ele>151.8</ele><time>2026-04-11T11:59:53Z</time></trkpt><trkpt lat="44.79649725050081" lon="10.067651209471677"><ele>151.2</ele><time>2026-04-11T11:59:54Z</time></trkpt><trkpt lat="44.79642340377245" lon="10.067552157119412"><ele>150.6</ele><time>2026-04-11T11:59:55Z</time></trkpt><trkpt lat="44.79637798915556" lon="10.067446593898424"><ele>150.0</ele><time>2026-04-11T11:59:56Z</time></trkpt><trkpt lat="44.79634228780582" lon="10.067361272889316"><ele>150.0</ele><time>2026-04-11T11:59:57Z</time></trkpt><trkpt lat="44.79627658853916" lon="10.06723722053015"><ele>150.0</ele><time>2026-04-11T11:59:59.001Z</time></trkpt><trkpt lat="44.79623187881101" lon="10.06715280031662"><ele>150.0</ele><time>2026-04-11T12:00:01.001Z</time></trkpt><trkpt lat="44.796076195979346" lon="10.067328796551882"><ele>150.0</ele><time>2026-04-11T12:00:03.001Z</time></trkpt><trkpt lat="44.796026077025275" lon="10.06742435798199"><ele>148.16666666666666</ele><time>2026-04-11T12:00:04.001Z</time></trkpt><trkpt lat="44.795988006041114" lon="10.067522752975169"><ele>146.33333333333334</ele><time>2026-04-11T12:00:05.001Z</time></trkpt><trkpt lat="44.79592965579604" lon="10.067673223990436"><ele>144.5</ele><time>2026-04-11T12:00:07.001Z</time></trkpt><trkpt lat="44.79588452420075" lon="10.0677665292154"><ele>142.66666666666669</ele><time>2026-04-11T12:00:08.001Z</time></trkpt><trkpt lat="44.795838478101786" lon="10.06783615192004"><ele>140.83333333333334</ele><time>2026-04-11T12:00:09.001Z</time></trkpt><trkpt lat="44.79577778272302" lon="10.06790621550515"><ele>139.0</ele><time>2026-04-11T12:00:10.001Z</time></trkpt><trkpt lat="44.79570742454845" lon="10.067969555104352"><ele>139.0</ele><time>2026-04-11T12:00:11.001Z</time></trkpt><trkpt lat="44.79563012981364" lon="10.068009613366664"><ele>139.0</ele><time>2026-04-11T12:00:12.001Z</time></trkpt><trkpt lat="44.79555125053394" lon="10.068045715036417"><ele>139.0</ele><time>2026-04-11T12:00:13.001Z</time></trkpt><trkpt lat="44.795462450879945" lon="10.068073480899528"><ele>139.0</ele><time>2026-04-11T12:00:14.001Z</time></trkpt><trkpt lat="44.7953878858781" lon="10.068068178271567"><ele>139.0</ele><time>2026-04-11T12:00:15.001Z</time></trkpt><trkpt lat="44.795312634938846" lon="10.068048861122014"><ele>139.0</ele><time>2026-04-11T12:00:16.001Z</time></trkpt><trkpt lat="44.795241324988055" lon="10.068017159159346"><ele>139.0</ele><time>2026-04-11T12:00:17.001Z</time></trkpt><trkpt lat="44.79517228286045" lon="10.067975693726956"><ele>139.0</ele><time>2026-04-11T12:00:18.001Z</time></trkpt><trkpt lat="44.79511018808962" lon="10.067921819124606"><ele>139.0</ele><time>2026-04-11T12:00:19.001Z</time></trkpt><trkpt lat="44.79505608769621" lon="10.067862024453763"><ele>139.0</ele><time>2026-04-11T12:00:20.001Z</time></trkpt><trkpt lat="44.795004564115246" lon="10.067790026259942"><ele>139.0</ele><time>2026-04-11T12:00:21.001Z</time></trkpt><trkpt lat="44.79496307256082" lon="10.06770488383059"><ele>139.0</ele><time>2026-04-11T12:00:22.001Z</time></trkpt><trkpt lat="44.794933455967396" lon="10.067613399806728"><ele>139.0</ele><time>2026-04-11T12:00:23.001Z</time></trkpt><trkpt lat="44.79489609333736" lon="10.067521204266727"><ele>138.5</ele><time>2026-04-11T12:00:24.001Z</time></trkpt><trkpt lat="44.794855330585534" lon="10.067426450126991"><ele>138.0</ele><time>2026-04-11T12:00:25.001Z</time></trkpt><trkpt lat="44.794811127355125" lon="10.067326964714338"><ele>137.5</ele><time>2026-04-11T12:00:26.001Z</time></trkpt><trkpt lat="44.794775244908486" lon="10.067226685495395"><ele>137.0</ele><time>2026-04-11T12:00:27.001Z</time></trkpt><trkpt lat="44.794734324768456" lon="10.06710717243397"><ele>136.5</ele><time>2026-04-11T12:00:28.001Z</time></trkpt><trkpt lat="44.794699081420866" lon="10.066989885138105"><ele>136.0</ele><time>2026-04-11T12:00:29.001Z</time></trkpt><trkpt lat="44.79466628919408" lon="10.066885944023694"><ele>136.0</ele><time>2026-04-11T12:00:30.001Z</time></trkpt><trkpt lat="44.794626677451134" lon="10.06676912965058"><ele>136.0</ele><time>2026-04-11T12:00:31.001Z</time></trkpt><trkpt lat="44.79459376382719" lon="10.066661026623649"><ele>136.0</ele><time>2026-04-11T12:00:32.001Z</time></trkpt><trkpt lat="44.79456214215829" lon="10.066548899393103"><ele>136.0</ele><time>2026-04-11T12:00:33.001Z</time></trkpt><trkpt lat="44.79453028730803" lon="10.066416264404833"><ele>136.0</ele><time>2026-04-11T12:00:34.001Z</time></trkpt><trkpt lat="44.79449247197106" lon="10.066261192369753"><ele>136.75</ele><time>2026-04-11T12:00:35.001Z</time></trkpt><trkpt lat="44.79444144670538" lon="10.066069823538617"><ele>137.5</ele><time>2026-04-11T12:00:36.001Z</time></trkpt><trkpt lat="44.79439917657361" lon="10.06588754973082"><ele>138.25</ele><time>2026-04-11T12:00:37.001Z</time></trkpt><trkpt lat="44.79436695495734" lon="10.065732947389872"><ele>139.0</ele><time>2026-04-11T12:00:38.001Z</time></trkpt><trkpt lat="44.7943417756204" lon="10.065611296625624"><ele>138.83333333333334</ele><time>2026-04-11T12:00:39.001Z</time></trkpt><trkpt lat="44.79431539782302" lon="10.065504460954946"><ele>138.66666666666669</ele><time>2026-04-11T12:00:40.001Z</time></trkpt><trkpt lat="44.79428917167804" lon="10.065405087809546"><ele>138.5</ele><time>2026-04-11T12:00:41.001Z</time></trkpt><trkpt lat="44.79426335030529" lon="10.065293838585442"><ele>138.33333333333334</ele><time>2026-04-11T12:00:42.001Z</time></trkpt><trkpt lat="44.794231461463504" lon="10.065172010140278"><ele>138.16666666666666</ele><time>2026-04-11T12:00:43.001Z</time></trkpt><trkpt lat="44.794195945346274" lon="10.065058399949294"><ele>138.0</ele><time>2026-04-11T12:00:44.001Z</time></trkpt><trkpt lat="44.794156309986576" lon="10.064935120967993"><ele>138.0</ele><time>2026-04-11T12:00:45.001Z</time></trkpt><trkpt lat="44.79412589794596" lon="10.064843396691273"><ele>138.0</ele><time>2026-04-11T12:00:46.001Z</time></trkpt><trkpt lat="44.79409013260995" lon="10.064759697898692"><ele>138.0</ele><time>2026-04-11T12:00:47.001Z</time></trkpt><trkpt lat="44.79405288363128" lon="10.064677854304449"><ele>138.0</ele><time>2026-04-11T12:00:48.001Z</time></trkpt><trkpt lat="44.79400654097835" lon="10.064603904909541"><ele>138.0</ele><time>2026-04-11T12:00:49.001Z</time></trkpt><trkpt lat="44.79393951024215" lon="10.064549403751352"><ele>138.0</ele><time>2026-04-11T12:00:51.001Z</time></trkpt><trkpt lat="44.79381021166529" lon="10.064539366915607"><ele>138.0</ele><time>2026-04-11T12:00:53.001Z</time></trkpt><trkpt lat="44.79373386536816" lon="10.064500079542322"><ele>138.0</ele><time>2026-04-11T12:00:54.001Z</time></trkpt><trkpt lat="44.793643822940155" lon="10.064444076939473"><ele>138.0</ele><time>2026-04-11T12:00:55.002Z</time></trkpt><trkpt lat="44.7935679214232" lon="10.06438232401107"><ele>138.0</ele><time>2026-04-11T12:00:56.002Z</time></trkpt><trkpt lat="44.793505788213885" lon="10.064300538944135"><ele>138.0</ele><time>2026-04-11T12:00:57.002Z</time></trkpt><trkpt lat="44.7934602913323" lon="10.064212526226529"><ele>138.0</ele><time>2026-04-11T12:00:58.002Z</time></trkpt><trkpt lat="44.79342109597843" lon="10.064043194967198"><ele>139.66666666666666</ele><time>2026-04-11T12:01:00.002Z</time></trkpt><trkpt lat="44.7934196417892" lon="10.063939859328997"><ele>141.33333333333334</ele><time>2026-04-11T12:01:01.002Z</time></trkpt><trkpt lat="44.79343426943808" lon="10.0638190864123"><ele>143.0</ele><time>2026-04-11T12:01:02.002Z</time></trkpt><trkpt lat="44.793451128279685" lon="10.06369482962087"><ele>144.66666666666669</ele><time>2026-04-11T12:01:03.002Z</time></trkpt><trkpt lat="44.793465314948406" lon="10.063567766150978"><ele>146.33333333333334</ele><time>2026-04-11T12:01:04.002Z</time></trkpt><trkpt lat="44.79346871667854" lon="10.06342480974439"><ele>148.0</ele><time>2026-04-11T12:01:05.002Z</time></trkpt><trkpt lat="44.79345991724919" lon="10.063269434390415"><ele>148.20000000000002</ele><time>2026-04-11T12:01:06.002Z</time></trkpt><trkpt lat="44.79346591809314" lon="10.063107794240604"><ele>148.4</ele><time>2026-04-11T12:01:07.002Z</time></trkpt><trkpt lat="44.79348022228953" lon="10.062955751069072"><ele>148.60000000000002</ele><time>2026-04-11T12:01:08.002Z</time></trkpt><trkpt lat="44.793494446992675" lon="10.062807214449139"><ele>148.8</ele><time>2026-04-11T12:01:09.002Z</time></trkpt><trkpt lat="44.7935222337933" lon="10.062680814238764"><ele>149.0</ele><time>2026-04-11T12:01:10.002Z</time></trkpt><trkpt lat="44.793546233941875" lon="10.06257628878901"><ele>148.0</ele><time>2026-04-11T12:01:11.002Z</time></trkpt><trkpt lat="44.79356766443046" lon="10.062466688439118"><ele>147.0</ele><time>2026-04-11T12:01:12.002Z</time></trkpt><trkpt lat="44.793590628139455" lon="10.062339570538052"><ele>146.0</ele><time>2026-04-11T12:01:13.002Z</time></trkpt><trkpt lat="44.79361318939299" lon="10.062212334630793"><ele>145.0</ele><time>2026-04-11T12:01:14.002Z</time></trkpt><trkpt lat="44.79363299624167" lon="10.062087789937992"><ele>144.0</ele><time>2026-04-11T12:01:15.002Z</time></trkpt><trkpt lat="44.79364772750958" lon="10.061977529993207"><ele>143.0</ele><time>2026-04-11T12:01:16.002Z</time></trkpt><trkpt lat="44.79365948478656" lon="10.061859109309175"><ele>143.0</ele><time>2026-04-11T12:01:17.002Z</time></trkpt><trkpt lat="44.79367980412192" lon="10.061748592063882"><ele>143.0</ele><time>2026-04-11T12:01:18.002Z</time></trkpt><trkpt lat="44.793703440840865" lon="10.061644586748239"><ele>143.0</ele><time>2026-04-11T12:01:19.002Z</time></trkpt><trkpt lat="44.793729792915265" lon="10.0615362756246"><ele>143.0</ele><time>2026-04-11T12:01:20.002Z</time></trkpt><trkpt lat="44.79374926007359" lon="10.06142623844304"><ele>143.0</ele><time>2026-04-11T12:01:21.002Z</time></trkpt><trkpt lat="44.79376521181223" lon="10.061317194659757"><ele>143.0</ele><time>2026-04-11T12:01:22.002Z</time></trkpt><trkpt lat="44.79379750903899" lon="10.06119861775179"><ele>143.4</ele><time>2026-04-11T12:01:23.002Z</time></trkpt><trkpt lat="44.793839937067894" lon="10.061092854788965"><ele>143.8</ele><time>2026-04-11T12:01:24.002Z</time></trkpt><trkpt lat="44.7938883333428" lon="10.060999961035911"><ele>144.2</ele><time>2026-04-11T12:01:25.002Z</time></trkpt><trkpt lat="44.79393054315325" lon="10.060913318175889"><ele>144.6</ele><time>2026-04-11T12:01:26.002Z</time></trkpt><trkpt lat="44.79399810041857" lon="10.060736133543998"><ele>145.0</ele><time>2026-04-11T12:01:28.002Z</time></trkpt><trkpt lat="44.79401459071745" lon="10.060626842027677"><ele>145.33333333333334</ele><time>2026-04-11T12:01:29.001Z</time></trkpt><trkpt lat="44.79401035424572" lon="10.060513847825533"><ele>145.66666666666669</ele><time>2026-04-11T12:01:30.001Z</time></trkpt><trkpt lat="44.79399787427615" lon="10.060403250667944"><ele>146.0</ele><time>2026-04-11T12:01:31.001Z</time></trkpt><trkpt lat="44.79399927609588" lon="10.060295815873653"><ele>146.33333333333334</ele><time>2026-04-11T12:01:32.001Z</time></trkpt><trkpt lat="44.794000007047316" lon="10.060182289368557"><ele>146.66666666666666</ele><time>2026-04-11T12:01:33.001Z</time></trkpt><trkpt lat="44.79399991415383" lon="10.06006935780737"><ele>147.0</ele><time>2026-04-11T12:01:34.001Z</time></trkpt><trkpt lat="44.79400959953274" lon="10.059964558354336"><ele>147.14285714285714</ele><time>2026-04-11T12:01:35.001Z</time></trkpt><trkpt lat="44.79402131429078" lon="10.059870025620041"><ele>147.28571428571428</ele><time>2026-04-11T12:01:36.001Z</time></trkpt><trkpt lat="44.79402099718603" lon="10.059773834191756"><ele>147.42857142857144</ele><time>2026-04-11T12:01:37.001Z</time></trkpt><trkpt lat="44.794013687570754" lon="10.059670515985205"><ele>147.57142857142856</ele><time>2026-04-11T12:01:38.001Z</time></trkpt><trkpt lat="44.794003531933654" lon="10.059556850811456"><ele>147.71428571428572</ele><time>2026-04-11T12:01:39Z</time></trkpt><trkpt lat="44.79398912614218" lon="10.059455810321792"><ele>147.85714285714286</ele><time>2026-04-11T12:01:40Z</time></trkpt><trkpt lat="44.79397842837349" lon="10.059362174677645"><ele>148.0</ele><time>2026-04-11T12:01:41Z</time></trkpt><trkpt lat="44.79396688868561" lon="10.05920615290281"><ele>148.0</ele><time>2026-04-11T12:01:43Z</time></trkpt><trkpt lat="44.79401272505132" lon="10.059135935515677"><ele>148.0</ele><time>2026-04-11T12:01:45Z</time></trkpt><trkpt lat="44.79410475387322" lon="10.05910837620077"><ele>148.0</ele><time>2026-04-11T12:01:47Z</time></trkpt><trkpt lat="44.794186175031065" lon="10.059080834941751"><ele>148.0</ele><time>2026-04-11T12:01:49Z</time></trkpt><trkpt lat="44.79420553170115" lon="10.05896988751912"><ele>148.0</ele><time>2026-04-11T12:01:51Z</time></trkpt><trkpt lat="44.79422484447604" lon="10.058803926875136"><ele>148.0</ele><time>2026-04-11T12:01:53Z</time></trkpt><trkpt lat="44.79422152107867" lon="10.058628222831716"><ele>148.0</ele><time>2026-04-11T12:01:55.001Z</time></trkpt><trkpt lat="44.79420729341307" lon="10.058455074878093"><ele>148.0</ele><time>2026-04-11T12:01:57.001Z</time></trkpt><trkpt lat="44.7941838001721" lon="10.058287944590763"><ele>148.0</ele><time>2026-04-11T12:01:59.001Z</time></trkpt><trkpt lat="44.79414878832636" lon="10.058149905624909"><ele>148.0</ele><time>2026-04-11T12:02:01.001Z</time></trkpt><trkpt lat="44.79412581865551" lon="10.058062561128795"><ele>148.0</ele><time>2026-04-11T12:02:03.001Z</time></trkpt><trkpt lat="44.793966257013416" lon="10.058120912201204"><ele>150.0</ele><time>2026-04-11T12:02:05.001Z</time></trkpt><trkpt lat="44.793883035891824" lon="10.058185381245357"><ele>150.0</ele><time>2026-04-11T12:02:07.001Z</time></trkpt><trkpt lat="44.79381931730664" lon="10.058215413553324"><ele>150.0</ele><time>2026-04-11T12:02:09.001Z</time></trkpt></trkseg><trkseg><trkpt lat="44.793754175216684" lon="10.058314608892672"><ele>148.0</ele><time>2026-04-11T12:37:05.003Z</time></trkpt><trkpt lat="44.79368319914121" lon="10.05837850092709"><ele>148.0</ele><time>2026-04-11T12:37:07.003Z</time></trkpt><trkpt lat="44.79362195717099" lon="10.058427849585849"><ele>148.0</ele><time>2026-04-11T12:37:09.002Z</time></trkpt><trkpt lat="44.7935590597795" lon="10.058470409459817"><ele>148.0</ele><time>2026-04-11T12:37:11.002Z</time></trkpt><trkpt lat="44.793475019454" lon="10.058480031936956"><ele>148.0</ele><time>2026-04-11T12:37:14.002Z</time></trkpt><trkpt lat="44.793433116139816" lon="10.058410051370188"><ele>148.0</ele><time>2026-04-11T12:37:16.002Z</time></trkpt><trkpt lat="44.793435648754304" lon="10.058268753598874"><ele>147.6</ele><time>2026-04-11T12:37:19.001Z</time></trkpt><trkpt lat="44.79345117555751" lon="10.058174270617645"><ele>147.20000000000002</ele><time>2026-04-11T12:37:21.001Z</time></trkpt><trkpt lat="44.7934620336992" lon="10.058030857855925"><ele>146.8</ele><time>2026-04-11T12:37:24.001Z</time></trkpt><trkpt lat="44.79349109773204" lon="10.05787347704658"><ele>146.4</ele><time>2026-04-11T12:37:26.001Z</time></trkpt><trkpt lat="44.793550741104674" lon="10.057753340965535"><ele>146.0</ele><time>2026-04-11T12:37:28.001Z</time></trkpt><trkpt lat="44.7936149203988" lon="10.05768366150888"><ele>146.0</ele><time>2026-04-11T12:37:30.001Z</time></trkpt><trkpt lat="44.79353526798943" lon="10.057726092193905"><ele>146.0</ele><time>2026-04-11T12:39:01.001Z</time></trkpt><trkpt lat="44.79347588645282" lon="10.057802475817665"><ele>146.0</ele><time>2026-04-11T12:39:02.001Z</time></trkpt><trkpt lat="44.793375524670076" lon="10.057788038078293"><ele>146.0</ele><time>2026-04-11T12:39:04.001Z</time></trkpt><trkpt lat="44.793310442694754" lon="10.05773698208974"><ele>146.0</ele><time>2026-04-11T12:39:05.001Z</time></trkpt><trkpt lat="44.793246175399005" lon="10.057665320492625"><ele>146.0</ele><time>2026-04-11T12:39:06.001Z</time></trkpt><trkpt lat="44.793183326601" lon="10.05757377822794"><ele>146.0</ele><time>2026-04-11T12:39:07.001Z</time></trkpt><trkpt lat="44.79308760183393" lon="10.057477577092419"><ele>146.0</ele><time>2026-04-11T12:39:08.001Z</time></trkpt><trkpt lat="44.79297853219007" lon="10.057398611680076"><ele>146.0</ele><time>2026-04-11T12:39:09Z</time></trkpt><trkpt lat="44.792860656811044" lon="10.057352744706822"><ele>146.0</ele><time>2026-04-11T12:39:10Z</time></trkpt><trkpt lat="44.7927193625632" lon="10.057329747226847"><ele>147.25</ele><time>2026-04-11T12:39:11Z</time></trkpt><trkpt lat="44.79257733918183" lon="10.05730245716901"><ele>148.5</ele><time>2026-04-11T12:39:12Z</time></trkpt><trkpt lat="44.792436154922214" lon="10.057268991346117"><ele>149.75</ele><time>2026-04-11T12:39:13Z</time></trkpt><trkpt lat="44.792307040117734" lon="10.057239328512525"><ele>151.0</ele><time>2026-04-11T12:39:14Z</time></trkpt><trkpt lat="44.79216174239032" lon="10.057219257302217"><ele>151.0</ele><time>2026-04-11T12:39:15Z</time></trkpt><trkpt lat="44.79199477061636" lon="10.057194312644683"><ele>151.0</ele><time>2026-04-11T12:39:16Z</time></trkpt><trkpt lat="44.791840951808126" lon="10.057176110978789"><ele>151.0</ele><time>2026-04-11T12:39:17Z</time></trkpt><trkpt lat="44.79169683712293" lon="10.057152526341214"><ele>155.25</ele><time>2026-04-11T12:39:18Z</time></trkpt><trkpt lat="44.79158210813986" lon="10.057144998418877"><ele>159.5</ele><time>2026-04-11T12:39:19Z</time></trkpt><trkpt lat="44.79144747118651" lon="10.057138314681534"><ele>163.75</ele><time>2026-04-11T12:39:20Z</time></trkpt><trkpt lat="44.79129651637292" lon="10.057128759696964"><ele>168.0</ele><time>2026-04-11T12:39:21Z</time></trkpt><trkpt lat="44.79113184552816" lon="10.05711096208661"><ele>173.33333333333334</ele><time>2026-04-11T12:39:22Z</time></trkpt><trkpt lat="44.79094461063226" lon="10.05710771124027"><ele>178.66666666666669</ele><time>2026-04-11T12:39:23Z</time></trkpt><trkpt lat="44.79076987706528" lon="10.057104566154115"><ele>184.0</ele><time>2026-04-11T12:39:24Z</time></trkpt><trkpt lat="44.79061928629263" lon="10.057114831697623"><ele>184.0</ele><time>2026-04-11T12:39:25Z</time></trkpt><trkpt lat="44.790500705478934" lon="10.057123727199391"><ele>184.0</ele><time>2026-04-11T12:39:26Z</time></trkpt><trkpt lat="44.790407251675106" lon="10.057145196812087"><ele>184.0</ele><time>2026-04-11T12:39:27Z</time></trkpt><trkpt lat="44.79033186004766" lon="10.057167253425167"><ele>184.0</ele><time>2026-04-11T12:39:28Z</time></trkpt><trkpt lat="44.790240331193594" lon="10.057182186672573"><ele>184.0</ele><time>2026-04-11T12:39:29Z</time></trkpt><trkpt lat="44.79012216878295" lon="10.057192771178263"><ele>188.0</ele><time>2026-04-11T12:39:30Z</time></trkpt><trkpt lat="44.79000432204222" lon="10.057218753514215"><ele>192.0</ele><time>2026-04-11T12:39:31.001Z</time></trkpt><trkpt lat="44.78988189383326" lon="10.057249048709037"><ele>196.0</ele><time>2026-04-11T12:39:32.001Z</time></trkpt><trkpt lat="44.78976313973492" lon="10.057268428361764"><ele>200.0</ele><time>2026-04-11T12:39:33.001Z</time></trkpt><trkpt lat="44.789638061951244" lon="10.057276658320136"><ele>200.0</ele><time>2026-04-11T12:39:34.001Z</time></trkpt><trkpt lat="44.7895005087497" lon="10.057292545550046"><ele>200.0</ele><time>2026-04-11T12:39:35.001Z</time></trkpt><trkpt lat="44.789332982246265" lon="10.057316253240257"><ele>200.0</ele><time>2026-04-11T12:39:36.001Z</time></trkpt><trkpt lat="44.78915706236072" lon="10.057339447484946"><ele>203.50000000000003</ele><time>2026-04-11T12:39:37.001Z</time></trkpt><trkpt lat="44.78905247893906" lon="10.057349276214195"><ele>207.0</ele><time>2026-04-11T12:39:38.001Z</time></trkpt><trkpt lat="44.78898078016803" lon="10.057358946148252"><ele>210.5</ele><time>2026-04-11T12:39:39.001Z</time></trkpt><trkpt lat="44.78890079441429" lon="10.057368840359384"><ele>214.0</ele><time>2026-04-11T12:39:40.001Z</time></trkpt><trkpt lat="44.788837399372504" lon="10.057369518314765"><ele>217.50000000000003</ele><time>2026-04-11T12:39:41.001Z</time></trkpt><trkpt lat="44.78875801014425" lon="10.057356697084565"><ele>221.0</ele><time>2026-04-11T12:39:50.001Z</time></trkpt><trkpt lat="44.78874199468921" lon="10.05723201790733"><ele>221.00000000000003</ele><time>2026-04-11T12:39:52.001Z</time></trkpt><trkpt lat="44.78877067865354" lon="10.057100610923854"><ele>221.0</ele><time>2026-04-11T12:39:54.001Z</time></trkpt><trkpt lat="44.788764714386176" lon="10.05699874375309"><ele>221.0</ele><time>2026-04-11T12:39:56.001Z</time></trkpt><trkpt lat="44.78873746132024" lon="10.056876615977727"><ele>221.0</ele><time>2026-04-11T12:39:58.001Z</time></trkpt><trkpt lat="44.78868070394049" lon="10.056763850033276"><ele>221.00000000000003</ele><time>2026-04-11T12:40:00.001Z</time></trkpt><trkpt lat="44.78861583258221" lon="10.056697084516392"><ele>221.0</ele><time>2026-04-11T12:40:02.001Z</time></trkpt><trkpt lat="44.78853586709277" lon="10.056632136256567"><ele>222.66666666666669</ele><time>2026-04-11T12:40:04.001Z</time></trkpt><trkpt lat="44.788475075232654" lon="10.056604996633792"><ele>224.33333333333334</ele><time>2026-04-11T12:40:05.001Z</time></trkpt><trkpt lat="44.78837655347154" lon="10.056535707250315"><ele>226.0</ele><time>2026-04-11T12:40:07.001Z</time></trkpt><trkpt lat="44.78828378796112" lon="10.056535081784123"><ele>227.66666666666669</ele><time>2026-04-11T12:40:09.001Z</time></trkpt><trkpt lat="44.788193259794326" lon="10.05652251735122"><ele>229.33333333333334</ele><time>2026-04-11T12:40:11.001Z</time></trkpt><trkpt lat="44.788120007111736" lon="10.056505889563933"><ele>231.0</ele><time>2026-04-11T12:40:12.001Z</time></trkpt><trkpt lat="44.78804503380873" lon="10.05647193614022"><ele>231.0</ele><time>2026-04-11T12:40:13.001Z</time></trkpt><trkpt lat="44.787965549829764" lon="10.056454963210085"><ele>231.0</ele><time>2026-04-11T12:40:15.001Z</time></trkpt><trkpt lat="44.787890636601816" lon="10.056435675910665"><ele>231.0</ele><time>2026-04-11T12:40:17.001Z</time></trkpt><trkpt lat="44.78783000771742" lon="10.056405818212005"><ele>231.0</ele><time>2026-04-11T12:40:18.001Z</time></trkpt><trkpt lat="44.787741252094214" lon="10.056319790973763"><ele>231.0</ele><time>2026-04-11T12:40:20.001Z</time></trkpt><trkpt lat="44.78767216318791" lon="10.056195156010183"><ele>231.0</ele><time>2026-04-11T12:40:22.001Z</time></trkpt><trkpt lat="44.787605820007116" lon="10.056058007059136"><ele>234.20000000000002</ele><time>2026-04-11T12:40:24.001Z</time></trkpt><trkpt lat="44.78753990268774" lon="10.055912921620651"><ele>237.40000000000003</ele><time>2026-04-11T12:40:26.001Z</time></trkpt><trkpt lat="44.787492484148935" lon="10.055849021300682"><ele>240.6</ele><time>2026-04-11T12:40:27.001Z</time></trkpt><trkpt lat="44.78743072948795" lon="10.055708149925671"><ele>243.8</ele><time>2026-04-11T12:40:29.001Z</time></trkpt><trkpt lat="44.78738907221743" lon="10.055588131469632"><ele>247.0</ele><time>2026-04-11T12:40:30.001Z</time></trkpt><trkpt lat="44.787314818887836" lon="10.055484098308943"><ele>247.6</ele><time>2026-04-11T12:40:31.001Z</time></trkpt><trkpt lat="44.78725245495642" lon="10.055389324541148"><ele>248.2</ele><time>2026-04-11T12:40:33.001Z</time></trkpt><trkpt lat="44.787289846841716" lon="10.05518744815054"><ele>248.8</ele><time>2026-04-11T12:40:36.001Z</time></trkpt><trkpt lat="44.78728940418259" lon="10.055074700849483"><ele>249.4</ele><time>2026-04-11T12:40:37.001Z</time></trkpt><trkpt lat="44.78728723519539" lon="10.054945738588872"><ele>250.0</ele><time>2026-04-11T12:40:38.001Z</time></trkpt><trkpt lat="44.78727929584546" lon="10.054822122979008"><ele>250.2</ele><time>2026-04-11T12:40:39.001Z</time></trkpt><trkpt lat="44.787260904686015" lon="10.054692271365997"><ele>250.4</ele><time>2026-04-11T12:40:40.001Z</time></trkpt><trkpt lat="44.78722887107428" lon="10.054565249705425"><ele>250.60000000000002</ele><time>2026-04-11T12:40:41.001Z</time></trkpt><trkpt lat="44.78717586316656" lon="10.054433126358763"><ele>250.8</ele><time>2026-04-11T12:40:42.001Z</time></trkpt><trkpt lat="44.78711599133073" lon="10.054300873014407"><ele>251.0</ele><time>2026-04-11T12:40:43.001Z</time></trkpt><trkpt lat="44.78705029888801" lon="10.05417337691627"><ele>252.60000000000002</ele><time>2026-04-11T12:40:44.001Z</time></trkpt><trkpt lat="44.78698155714158" lon="10.054056975578293"><ele>254.20000000000002</ele><time>2026-04-11T12:40:45.001Z</time></trkpt><trkpt lat="44.786912618501994" lon="10.053959107894828"><ele>255.79999999999998</ele><time>2026-04-11T12:40:46.001Z</time></trkpt><trkpt lat="44.786847036972375" lon="10.053882130270862"><ele>257.4</ele><time>2026-04-11T12:40:47.001Z</time></trkpt><trkpt lat="44.78676459457697" lon="10.05384956033611"><ele>259.0</ele><time>2026-04-11T12:40:48.001Z</time></trkpt><trkpt lat="44.786691548197396" lon="10.053792643033477"><ele>259.0</ele><time>2026-04-11T12:40:49.001Z</time></trkpt><trkpt lat="44.78659001557806" lon="10.053776841477166"><ele>259.0</ele><time>2026-04-11T12:40:50.001Z</time></trkpt><trkpt lat="44.786502272281496" lon="10.053742336240026"><ele>259.0</ele><time>2026-04-11T12:40:51.001Z</time></trkpt><trkpt lat="44.78642621552329" lon="10.053706017092598"><ele>259.0</ele><time>2026-04-11T12:40:52.001Z</time></trkpt><trkpt lat="44.78636620016756" lon="10.053668087393541"><ele>259.0</ele><time>2026-04-11T12:40:53.001Z</time></trkpt><trkpt lat="44.78630727963091" lon="10.05361238683715"><ele>259.0</ele><time>2026-04-11T12:40:54.001Z</time></trkpt><trkpt lat="44.786246899705695" lon="10.053541262235388"><ele>259.0</ele><time>2026-04-11T12:40:55.001Z</time></trkpt><trkpt lat="44.78618031690829" lon="10.05345450282823"><ele>259.0</ele><time>2026-04-11T12:40:56.001Z</time></trkpt><trkpt lat="44.78612241256331" lon="10.05335768526289"><ele>259.0</ele><time>2026-04-11T12:40:57.001Z</time></trkpt><trkpt lat="44.7860780991986" lon="10.05324951425082"><ele>259.0</ele><time>2026-04-11T12:40:58.001Z</time></trkpt><trkpt lat="44.786053715276665" lon="10.053140669013885"><ele>259.0</ele><time>2026-04-11T12:40:59.001Z</time></trkpt><trkpt lat="44.78603929818212" lon="10.053024104785397"><ele>259.0</ele><time>2026-04-11T12:41:00.001Z</time></trkpt><trkpt lat="44.786041995302206" lon="10.052885992454131"><ele>259.0</ele><time>2026-04-11T12:41:01.001Z</time></trkpt><trkpt lat="44.78604562189202" lon="10.052731746593462"><ele>259.0</ele><time>2026-04-11T12:41:02.001Z</time></trkpt><trkpt lat="44.786053666159795" lon="10.052530389091192"><ele>259.0</ele><time>2026-04-11T12:41:03Z</time></trkpt><trkpt lat="44.786043274243895" lon="10.052307728063303"><ele>259.0</ele><time>2026-04-11T12:41:04Z</time></trkpt><trkpt lat="44.78603924435542" lon="10.05212212774696"><ele>259.0</ele><time>2026-04-11T12:41:05Z</time></trkpt><trkpt lat="44.78601948181671" lon="10.051965675711317"><ele>259.0</ele><time>2026-04-11T12:41:06Z</time></trkpt><trkpt lat="44.78599182463658" lon="10.051827736695806"><ele>259.0</ele><time>2026-04-11T12:41:07Z</time></trkpt><trkpt lat="44.785949993869856" lon="10.051701233012002"><ele>259.0</ele><time>2026-04-11T12:41:08Z</time></trkpt><trkpt lat="44.78589617707675" lon="10.051572975406316"><ele>259.0</ele><time>2026-04-11T12:41:09Z</time></trkpt><trkpt lat="44.785840996768535" lon="10.051419776714775"><ele>259.2</ele><time>2026-04-11T12:41:10Z</time></trkpt><trkpt lat="44.78578720883156" lon="10.051295535203844"><ele>259.4</ele><time>2026-04-11T12:41:11Z</time></trkpt><trkpt lat="44.78573873947439" lon="10.051182231146628"><ele>259.6</ele><time>2026-04-11T12:41:12Z</time></trkpt><trkpt lat="44.785682597245156" lon="10.051067664718513"><ele>259.8</ele><time>2026-04-11T12:41:13Z</time></trkpt><trkpt lat="44.78562164102558" lon="10.050926612140293"><ele>260.0</ele><time>2026-04-11T12:41:14Z</time></trkpt><trkpt lat="44.78558219235326" lon="10.050809843332274"><ele>257.4</ele><time>2026-04-11T12:41:15Z</time></trkpt><trkpt lat="44.7855381087715" lon="10.050697982756297"><ele>254.8</ele><time>2026-04-11T12:41:16Z</time></trkpt><trkpt lat="44.785494892267025" lon="10.050593018412474"><ele>252.2</ele><time>2026-04-11T12:41:17Z</time></trkpt><trkpt lat="44.78543929780219" lon="10.050491511704296"><ele>249.6</ele><time>2026-04-11T12:41:18Z</time></trkpt><trkpt lat="44.785384757038884" lon="10.050377438539476"><ele>247.0</ele><time>2026-04-11T12:41:19Z</time></trkpt><trkpt lat="44.7853396944836" lon="10.050254862621765"><ele>247.0</ele><time>2026-04-11T12:41:20Z</time></trkpt><trkpt lat="44.78527876006759" lon="10.05013518768721"><ele>247.0</ele><time>2026-04-11T12:41:21Z</time></trkpt><trkpt lat="44.785210726955675" lon="10.05000188931285"><ele>247.0</ele><time>2026-04-11T12:41:22Z</time></trkpt><trkpt lat="44.78514699669631" lon="10.049870630661113"><ele>247.0</ele><time>2026-04-11T12:41:23Z</time></trkpt><trkpt lat="44.785087738341005" lon="10.04975205250104"><ele>247.0</ele><time>2026-04-11T12:41:24Z</time></trkpt><trkpt lat="44.785029291313734" lon="10.04964219979067"><ele>246.8</ele><time>2026-04-11T12:41:25Z</time></trkpt><trkpt lat="44.78496787630898" lon="10.049544218132592"><ele>246.6</ele><time>2026-04-11T12:41:26Z</time></trkpt><trkpt lat="44.784897468039375" lon="10.04945013170084"><ele>246.40000000000003</ele><time>2026-04-11T12:41:27Z</time></trkpt><trkpt lat="44.784822769674975" lon="10.049363119721114"><ele>246.20000000000002</ele><time>2026-04-11T12:41:28Z</time></trkpt><trkpt lat="44.7847438330852" lon="10.049279776725525"><ele>246.0</ele><time>2026-04-11T12:41:29Z</time></trkpt><trkpt lat="44.78466350380129" lon="10.049195184536348"><ele>246.60000000000002</ele><time>2026-04-11T12:41:30Z</time></trkpt><trkpt lat="44.78458164736154" lon="10.049108536038332"><ele>247.20000000000002</ele><time>2026-04-11T12:41:31Z</time></trkpt><trkpt lat="44.78450030625973" lon="10.049021080572878"><ele>247.79999999999998</ele><time>2026-04-11T12:41:32Z</time></trkpt><trkpt lat="44.784415680915366" lon="10.048928706467542"><ele>248.39999999999998</ele><time>2026-04-11T12:41:33Z</time></trkpt><trkpt lat="44.7843305609286" lon="10.048835792425109"><ele>249.0</ele><time>2026-04-11T12:41:34Z</time></trkpt><trkpt lat="44.78424421214135" lon="10.048741537059328"><ele>249.0</ele><time>2026-04-11T12:41:35Z</time></trkpt><trkpt lat="44.78416810639933" lon="10.048654322490455"><ele>248.99999999999997</ele><time>2026-04-11T12:41:36Z</time></trkpt><trkpt lat="44.78410235175542" lon="10.048560690567948"><ele>248.99999999999997</ele><time>2026-04-11T12:41:37Z</time></trkpt><trkpt lat="44.78403450964121" lon="10.04845935498184"><ele>249.0</ele><time>2026-04-11T12:41:38Z</time></trkpt><trkpt lat="44.783966360960726" lon="10.048351708572989"><ele>249.0</ele><time>2026-04-11T12:41:39Z</time></trkpt><trkpt lat="44.783896532178304" lon="10.048240354991538"><ele>248.0</ele><time>2026-04-11T12:41:40Z</time></trkpt><trkpt lat="44.78382072037591" lon="10.048116657452622"><ele>246.99999999999997</ele><time>2026-04-11T12:41:41Z</time></trkpt><trkpt lat="44.783760057615744" lon="10.048008100070776"><ele>245.99999999999997</ele><time>2026-04-11T12:41:42Z</time></trkpt><trkpt lat="44.783706292391265" lon="10.047895068392895"><ele>245.0</ele><time>2026-04-11T12:41:43Z</time></trkpt><trkpt lat="44.78365600132589" lon="10.0477861617531"><ele>244.0</ele><time>2026-04-11T12:41:44Z</time></trkpt><trkpt lat="44.783599101764636" lon="10.047683433184886"><ele>244.0</ele><time>2026-04-11T12:41:45Z</time></trkpt><trkpt lat="44.783565658373405" lon="10.047557225847648"><ele>243.99999999999997</ele><time>2026-04-11T12:41:46Z</time></trkpt><trkpt lat="44.78351603462044" lon="10.047451360430317"><ele>243.99999999999997</ele><time>2026-04-11T12:41:47Z</time></trkpt><trkpt lat="44.78347851879205" lon="10.047330585658964"><ele>244.0</ele><time>2026-04-11T12:41:48Z</time></trkpt><trkpt lat="44.78344206749799" lon="10.0472072178603"><ele>244.0</ele><time>2026-04-11T12:41:49Z</time></trkpt><trkpt lat="44.783408332564974" lon="10.047079639891239"><ele>246.0</ele><time>2026-04-11T12:41:50Z</time></trkpt><trkpt lat="44.78337071034366" lon="10.046939690323859"><ele>247.99999999999997</ele><time>2026-04-11T12:41:51Z</time></trkpt><trkpt lat="44.78333508602896" lon="10.046802634403877"><ele>249.99999999999997</ele><time>2026-04-11T12:41:52Z</time></trkpt><trkpt lat="44.78329503264356" lon="10.046663096019312"><ele>252.0</ele><time>2026-04-11T12:41:53Z</time></trkpt><trkpt lat="44.78325052559619" lon="10.046517309354892"><ele>254.0</ele><time>2026-04-11T12:41:54Z</time></trkpt><trkpt lat="44.78321460946401" lon="10.046386092398922"><ele>254.0</ele><time>2026-04-11T12:41:55Z</time></trkpt><trkpt lat="44.78317948613215" lon="10.046251826155315"><ele>253.99999999999997</ele><time>2026-04-11T12:41:56Z</time></trkpt><trkpt lat="44.78315166793966" lon="10.046110262388492"><ele>253.99999999999997</ele><time>2026-04-11T12:41:57Z</time></trkpt><trkpt lat="44.78309880638291" lon="10.04597366543962"><ele>254.0</ele><time>2026-04-11T12:41:58Z</time></trkpt><trkpt lat="44.78306663556661" lon="10.045828110463807"><ele>254.0</ele><time>2026-04-11T12:41:59Z</time></trkpt><trkpt lat="44.783025114416354" lon="10.045686971068495"><ele>252.79999999999998</ele><time>2026-04-11T12:42:00Z</time></trkpt><trkpt lat="44.78298699750776" lon="10.045542287874596"><ele>251.59999999999997</ele><time>2026-04-11T12:42:01Z</time></trkpt><trkpt lat="44.78295496947882" lon="10.045399399244454"><ele>250.4</ele><time>2026-04-11T12:42:02Z</time></trkpt><trkpt lat="44.78293069404836" lon="10.045259152358986"><ele>249.2</ele><time>2026-04-11T12:42:03Z</time></trkpt><trkpt lat="44.78291810482357" lon="10.045114343701853"><ele>248.0</ele><time>2026-04-11T12:42:04Z</time></trkpt><trkpt lat="44.78290098128303" lon="10.044979109064371"><ele>247.2</ele><time>2026-04-11T12:42:05Z</time></trkpt><trkpt lat="44.78289031573036" lon="10.044856756931612"><ele>246.4</ele><time>2026-04-11T12:42:06Z</time></trkpt><trkpt lat="44.782886046851324" lon="10.044722809374885"><ele>245.59999999999997</ele><time>2026-04-11T12:42:07Z</time></trkpt><trkpt lat="44.782888328366695" lon="10.044571816656225"><ele>244.79999999999998</ele><time>2026-04-11T12:42:08Z</time></trkpt><trkpt lat="44.78287555621214" lon="10.044416529993413"><ele>244.0</ele><time>2026-04-11T12:42:09Z</time></trkpt><trkpt lat="44.78288541148363" lon="10.044264426813964"><ele>244.2</ele><time>2026-04-11T12:42:10Z</time></trkpt><trkpt lat="44.782891186154714" lon="10.044110302403311"><ele>244.39999999999998</ele><time>2026-04-11T12:42:11Z</time></trkpt><trkpt lat="44.78289838461077" lon="10.043954844084118"><ele>244.6</ele><time>2026-04-11T12:42:12Z</time></trkpt><trkpt lat="44.782903652394516" lon="10.043794748524148"><ele>244.8</ele><time>2026-04-11T12:42:13Z</time></trkpt><trkpt lat="44.78290809351011" lon="10.043640822643475"><ele>245.0</ele><time>2026-04-11T12:42:14Z</time></trkpt><trkpt lat="44.782915694894356" lon="10.04348608598936"><ele>245.0</ele><time>2026-04-11T12:42:15Z</time></trkpt><trkpt lat="44.782905011381295" lon="10.043336970804747"><ele>245.0</ele><time>2026-04-11T12:42:16Z</time></trkpt><trkpt lat="44.78288231051523" lon="10.043204665228894"><ele>245.0</ele><time>2026-04-11T12:42:17.001Z</time></trkpt><trkpt lat="44.782836624781" lon="10.043079736708764"><ele>245.0</ele><time>2026-04-11T12:42:18.001Z</time></trkpt><trkpt lat="44.78277167098537" lon="10.042967886908876"><ele>245.0</ele><time>2026-04-11T12:42:19.001Z</time></trkpt><trkpt lat="44.78268094612136" lon="10.042877412656729"><ele>251.25</ele><time>2026-04-11T12:42:20.001Z</time></trkpt><trkpt lat="44.78259538403116" lon="10.04274787344948"><ele>257.5</ele><time>2026-04-11T12:42:21.001Z</time></trkpt><trkpt lat="44.7825065677756" lon="10.042603361254258"><ele>263.75</ele><time>2026-04-11T12:42:22.001Z</time></trkpt><trkpt lat="44.782436248682444" lon="10.04246351354793"><ele>270.0</ele><time>2026-04-11T12:42:23.001Z</time></trkpt><trkpt lat="44.78237232196218" lon="10.042304491617958"><ele>270.75</ele><time>2026-04-11T12:42:24.001Z</time></trkpt><trkpt lat="44.7823229021106" lon="10.042129704430883"><ele>271.5</ele><time>2026-04-11T12:42:25.001Z</time></trkpt><trkpt lat="44.7822910504344" lon="10.041955048641878"><ele>272.25</ele><time>2026-04-11T12:42:26.001Z</time></trkpt><trkpt lat="44.78225313399191" lon="10.041793892438447"><ele>273.0</ele><time>2026-04-11T12:42:27.001Z</time></trkpt><trkpt lat="44.78220100261359" lon="10.041649529571526"><ele>273.8</ele><time>2026-04-11T12:42:28.001Z</time></trkpt><trkpt lat="44.78213247315298" lon="10.04154959255871"><ele>274.6</ele><time>2026-04-11T12:42:29.001Z</time></trkpt><trkpt lat="44.7820188070433" lon="10.041529203133395"><ele>275.4</ele><time>2026-04-11T12:42:30.001Z</time></trkpt><trkpt lat="44.78193167831199" lon="10.041483951977096"><ele>276.2</ele><time>2026-04-11T12:42:31.001Z</time></trkpt><trkpt lat="44.78186245199705" lon="10.041437585837887"><ele>277.0</ele><time>2026-04-11T12:42:32.001Z</time></trkpt><trkpt lat="44.78176360374808" lon="10.04139460204421"><ele>277.0</ele><time>2026-04-11T12:42:34.001Z</time></trkpt><trkpt lat="44.78180862478945" lon="10.041172837588173"><ele>277.0</ele><time>2026-04-11T12:42:35.001Z</time></trkpt><trkpt lat="44.781795657166924" lon="10.041030401945484"><ele>277.0</ele><time>2026-04-11T12:42:36.001Z</time></trkpt><trkpt lat="44.78177979783255" lon="10.040860339958526"><ele>277.0</ele><time>2026-04-11T12:42:37.001Z</time></trkpt><trkpt lat="44.78174592023845" lon="10.040659055392993"><ele>278.66666666666663</ele><time>2026-04-11T12:42:38.001Z</time></trkpt><trkpt lat="44.78172800286585" lon="10.040401586734806"><ele>280.3333333333333</ele><time>2026-04-11T12:42:39.001Z</time></trkpt><trkpt lat="44.781697088003334" lon="10.040135210559026"><ele>282.0</ele><time>2026-04-11T12:42:40.001Z</time></trkpt><trkpt lat="44.78168281347686" lon="10.039933775232887"><ele>283.1666666666667</ele><time>2026-04-11T12:42:41.001Z</time></trkpt><trkpt lat="44.78168727582063" lon="10.03979076849072"><ele>284.3333333333333</ele><time>2026-04-11T12:42:42.001Z</time></trkpt><trkpt lat="44.781710125116625" lon="10.039694843946359"><ele>285.5</ele><time>2026-04-11T12:42:43.001Z</time></trkpt><trkpt lat="44.78175861457308" lon="10.039610591495984"><ele>286.66666666666663</ele><time>2026-04-11T12:42:44.001Z</time></trkpt><trkpt lat="44.78180959230855" lon="10.039502250074895"><ele>287.8333333333333</ele><time>2026-04-11T12:42:45.001Z</time></trkpt><trkpt lat="44.78183338645872" lon="10.039377724491796"><ele>289.0</ele><time>2026-04-11T12:42:46.001Z</time></trkpt><trkpt lat="44.781850287653256" lon="10.039232675494857"><ele>293.8</ele><time>2026-04-11T12:42:47.001Z</time></trkpt><trkpt lat="44.78186167836407" lon="10.039089305763738"><ele>298.59999999999997</ele><time>2026-04-11T12:42:48.001Z</time></trkpt><trkpt lat="44.78188131236506" lon="10.038940785999584"><ele>303.4</ele><time>2026-04-11T12:42:49.001Z</time></trkpt><trkpt lat="44.78188732767422" lon="10.038806542008455"><ele>308.2</ele><time>2026-04-11T12:42:50.001Z</time></trkpt><trkpt lat="44.78189528181676" lon="10.038701464598049"><ele>313.0</ele><time>2026-04-11T12:42:51.001Z</time></trkpt><trkpt lat="44.781926541157695" lon="10.038606501231737"><ele>313.0</ele><time>2026-04-11T12:42:52.001Z</time></trkpt><trkpt lat="44.781923979027816" lon="10.038435581256948"><ele>313.0</ele><time>2026-04-11T12:42:54.001Z</time></trkpt><trkpt lat="44.78190592615158" lon="10.03834207627113"><ele>313.0</ele><time>2026-04-11T12:42:55.001Z</time></trkpt><trkpt lat="44.781846502163866" lon="10.038238923677648"><ele>313.0</ele><time>2026-04-11T12:42:56.001Z</time></trkpt><trkpt lat="44.781785145832906" lon="10.038177758292122"><ele>313.0</ele><time>2026-04-11T12:42:57.001Z</time></trkpt><trkpt lat="44.78168674388251" lon="10.03817929357732"><ele>313.6</ele><time>2026-04-11T12:42:58.001Z</time></trkpt><trkpt lat="44.781589827841266" lon="10.038180392244398"><ele>314.20000000000005</ele><time>2026-04-11T12:42:59.001Z</time></trkpt><trkpt lat="44.78147135064235" lon="10.038167759777535"><ele>314.8</ele><time>2026-04-11T12:43:00.001Z</time></trkpt><trkpt lat="44.78137073562495" lon="10.038159640281823"><ele>315.40000000000003</ele><time>2026-04-11T12:43:01.001Z</time></trkpt><trkpt lat="44.78129673872768" lon="10.038139809403406"><ele>316.0</ele><time>2026-04-11T12:43:02.001Z</time></trkpt><trkpt lat="44.78123860568976" lon="10.03809762035446"><ele>316.0</ele><time>2026-04-11T12:43:03.001Z</time></trkpt><trkpt lat="44.781179284660034" lon="10.038040900751431"><ele>316.0</ele><time>2026-04-11T12:43:04.001Z</time></trkpt><trkpt lat="44.7811455280714" lon="10.037965297858008"><ele>316.0</ele><time>2026-04-11T12:43:05.001Z</time></trkpt><trkpt lat="44.78114826854344" lon="10.037874082113918"><ele>316.0</ele><time>2026-04-11T12:43:06.001Z</time></trkpt><trkpt lat="44.78115862527855" lon="10.03777366153965"><ele>316.0</ele><time>2026-04-11T12:43:07.001Z</time></trkpt><trkpt lat="44.78116603204587" lon="10.03763584501089"><ele>316.0</ele><time>2026-04-11T12:43:08.001Z</time></trkpt><trkpt lat="44.78116594003054" lon="10.03746592419254"><ele>319.0</ele><time>2026-04-11T12:43:08.999Z</time></trkpt><trkpt lat="44.781180553018594" lon="10.037264388132261"><ele>322.0</ele><time>2026-04-11T12:43:09.999Z</time></trkpt><trkpt lat="44.78118378654284" lon="10.037027962184363"><ele>325.0</ele><time>2026-04-11T12:43:10.999Z</time></trkpt><trkpt lat="44.78117813564518" lon="10.036748573907161"><ele>326.66666666666663</ele><time>2026-04-11T12:43:11.999Z</time></trkpt><trkpt lat="44.78117684502414" lon="10.036490457716894"><ele>328.3333333333333</ele><time>2026-04-11T12:43:12.999Z</time></trkpt><trkpt lat="44.78115651211133" lon="10.036231419492557"><ele>330.0</ele><time>2026-04-11T12:43:13.999Z</time></trkpt><trkpt lat="44.78113190689829" lon="10.036021244281605"><ele>330.0</ele><time>2026-04-11T12:43:14.999Z</time></trkpt><trkpt lat="44.781111632609594" lon="10.035838057157395"><ele>330.0</ele><time>2026-04-11T12:43:15.999Z</time></trkpt><trkpt lat="44.78108159349746" lon="10.035678403246584"><ele>330.0</ele><time>2026-04-11T12:43:16.999Z</time></trkpt><trkpt lat="44.781033469911826" lon="10.035531601530678"><ele>330.0</ele><time>2026-04-11T12:43:17.999Z</time></trkpt><trkpt lat="44.78097735703826" lon="10.035407529608959"><ele>328.0</ele><time>2026-04-11T12:43:18.999Z</time></trkpt><trkpt lat="44.78089751105351" lon="10.035303334518382"><ele>326.0</ele><time>2026-04-11T12:43:19.999Z</time></trkpt><trkpt lat="44.780819111510056" lon="10.035187660093394"><ele>324.0</ele><time>2026-04-11T12:43:20.999Z</time></trkpt><trkpt lat="44.780731766727136" lon="10.03508133538377"><ele>322.0</ele><time>2026-04-11T12:43:21.999Z</time></trkpt><trkpt lat="44.78064618888745" lon="10.034982054154765"><ele>320.0</ele><time>2026-04-11T12:43:22.999Z</time></trkpt><trkpt lat="44.78057811657851" lon="10.034871022454011"><ele>318.75</ele><time>2026-04-11T12:43:23.999Z</time></trkpt><trkpt lat="44.780514784275894" lon="10.034730769112988"><ele>317.5</ele><time>2026-04-11T12:43:24.999Z</time></trkpt><trkpt lat="44.7804537303293" lon="10.03459599422905"><ele>316.25</ele><time>2026-04-11T12:43:26Z</time></trkpt><trkpt lat="44.780390982396774" lon="10.034461048771798"><ele>315.0</ele><time>2026-04-11T12:43:27Z</time></trkpt><trkpt lat="44.7803175706873" lon="10.034334283161263"><ele>315.0</ele><time>2026-04-11T12:43:28Z</time></trkpt><trkpt lat="44.78024811695284" lon="10.034219965335705"><ele>315.0</ele><time>2026-04-11T12:43:29Z</time></trkpt><trkpt lat="44.780169895089145" lon="10.034097074165128"><ele>315.0</ele><time>2026-04-11T12:43:30Z</time></trkpt><trkpt lat="44.780132782684575" lon="10.033971111234022"><ele>315.0</ele><time>2026-04-11T12:43:31Z</time></trkpt><trkpt lat="44.78011537726348" lon="10.033862953191576"><ele>315.0</ele><time>2026-04-11T12:43:32Z</time></trkpt><trkpt lat="44.78009999285566" lon="10.033746544584396"><ele>319.5</ele><time>2026-04-11T12:43:33Z</time></trkpt><trkpt lat="44.78006796360002" lon="10.03361190192729"><ele>324.0</ele><time>2026-04-11T12:43:34Z</time></trkpt><trkpt lat="44.780042543870486" lon="10.033454053303396"><ele>328.5</ele><time>2026-04-11T12:43:35Z</time></trkpt><trkpt lat="44.780022061858965" lon="10.033278485247243"><ele>333.0</ele><time>2026-04-11T12:43:36Z</time></trkpt><trkpt lat="44.77999042480365" lon="10.033079675621027"><ele>334.25</ele><time>2026-04-11T12:43:37Z</time></trkpt><trkpt lat="44.779959518116556" lon="10.032875561809497"><ele>335.5</ele><time>2026-04-11T12:43:38Z</time></trkpt><trkpt lat="44.7799273637063" lon="10.032684417014595"><ele>336.75</ele><time>2026-04-11T12:43:39Z</time></trkpt><trkpt lat="44.77990121228361" lon="10.032515221003269"><ele>338.0</ele><time>2026-04-11T12:43:40Z</time></trkpt><trkpt lat="44.77988736505893" lon="10.032360869530239"><ele>338.2</ele><time>2026-04-11T12:43:41Z</time></trkpt><trkpt lat="44.779854948182276" lon="10.032242868755311"><ele>338.4</ele><time>2026-04-11T12:43:42Z</time></trkpt><trkpt lat="44.77982610842959" lon="10.032103117748223"><ele>338.59999999999997</ele><time>2026-04-11T12:43:43Z</time></trkpt><trkpt lat="44.77981227502106" lon="10.03198334164593"><ele>338.79999999999995</ele><time>2026-04-11T12:43:44Z</time></trkpt><trkpt lat="44.779784472697536" lon="10.03186330510022"><ele>339.0</ele><time>2026-04-11T12:43:45Z</time></trkpt><trkpt lat="44.779767486713936" lon="10.031719164797163"><ele>339.3333333333333</ele><time>2026-04-11T12:43:46Z</time></trkpt><trkpt lat="44.779759108333145" lon="10.03158302903194"><ele>339.6666666666667</ele><time>2026-04-11T12:43:47Z</time></trkpt><trkpt lat="44.77972287104399" lon="10.031447852229924"><ele>340.0</ele><time>2026-04-11T12:43:48Z</time></trkpt><trkpt lat="44.77971873174265" lon="10.031303677572406"><ele>340.33333333333337</ele><time>2026-04-11T12:43:49Z</time></trkpt><trkpt lat="44.77968479935836" lon="10.03119581778875"><ele>340.6666666666667</ele><time>2026-04-11T12:43:50Z</time></trkpt><trkpt lat="44.779686148834514" lon="10.031106501410319"><ele>341.0</ele><time>2026-04-11T12:43:51Z</time></trkpt><trkpt lat="44.779665517637675" lon="10.0309602122262"><ele>341.4</ele><time>2026-04-11T12:43:53Z</time></trkpt><trkpt lat="44.779670224620055" lon="10.030801213708111"><ele>341.8</ele><time>2026-04-11T12:43:55Z</time></trkpt><trkpt lat="44.779678758296974" lon="10.030695704440413"><ele>342.2</ele><time>2026-04-11T12:43:56Z</time></trkpt><trkpt lat="44.77969897264369" lon="10.030587465583006"><ele>342.59999999999997</ele><time>2026-04-11T12:43:57Z</time></trkpt><trkpt lat="44.779727131658184" lon="10.030457772705521"><ele>343.0</ele><time>2026-04-11T12:43:58Z</time></trkpt><trkpt lat="44.77975743955983" lon="10.030331897996339"><ele>343.0</ele><time>2026-04-11T12:43:59Z</time></trkpt><trkpt lat="44.779784283576426" lon="10.030222909843653"><ele>343.0</ele><time>2026-04-11T12:44:00Z</time></trkpt><trkpt lat="44.77980874841617" lon="10.030123586299773"><ele>343.0</ele><time>2026-04-11T12:44:01Z</time></trkpt><trkpt lat="44.77983385906707" lon="10.030021640861674"><ele>343.0</ele><time>2026-04-11T12:44:02Z</time></trkpt><trkpt lat="44.77986143753716" lon="10.02990967644797"><ele>343.0</ele><time>2026-04-11T12:44:03Z</time></trkpt><trkpt lat="44.77963526221438" lon="10.029674472874143"><ele>342.2</ele><time>2026-04-11T12:44:04Z</time></trkpt><trkpt lat="44.77962131762678" lon="10.0295412768367"><ele>341.4</ele><time>2026-04-11T12:44:05Z</time></trkpt><trkpt lat="44.779605006219505" lon="10.02939087060814"><ele>340.59999999999997</ele><time>2026-04-11T12:44:06Z</time></trkpt><trkpt lat="44.77959526881828" lon="10.029238432007313"><ele>339.79999999999995</ele><time>2026-04-11T12:44:07Z</time></trkpt><trkpt lat="44.77958951218341" lon="10.029082208457734"><ele>339.0</ele><time>2026-04-11T12:44:08Z</time></trkpt><trkpt lat="44.779583211333936" lon="10.028928103059796"><ele>336.6</ele><time>2026-04-11T12:44:09Z</time></trkpt><trkpt lat="44.77957534837057" lon="10.028781478189856"><ele>334.2</ele><time>2026-04-11T12:44:10Z</time></trkpt><trkpt lat="44.77955389267492" lon="10.028651013357422"><ele>331.8</ele><time>2026-04-11T12:44:11Z</time></trkpt><trkpt lat="44.77951912262131" lon="10.028532426966695"><ele>329.40000000000003</ele><time>2026-04-11T12:44:12Z</time></trkpt><trkpt lat="44.77947831594949" lon="10.028417945773901"><ele>327.0</ele><time>2026-04-11T12:44:13Z</time></trkpt><trkpt lat="44.77942596742831" lon="10.028311630234931"><ele>328.25</ele><time>2026-04-11T12:44:14Z</time></trkpt><trkpt lat="44.77935212834303" lon="10.02818451051385"><ele>329.5</ele><time>2026-04-11T12:44:15Z</time></trkpt><trkpt lat="44.779248960683006" lon="10.028043621380862"><ele>330.75</ele><time>2026-04-11T12:44:16Z</time></trkpt><trkpt lat="44.77912242081881" lon="10.027864016432716"><ele>332.0</ele><time>2026-04-11T12:44:17Z</time></trkpt><trkpt lat="44.779031197061975" lon="10.02770657407382"><ele>332.0</ele><time>2026-04-11T12:44:18Z</time></trkpt><trkpt lat="44.778973962676176" lon="10.027578670875668"><ele>332.0</ele><time>2026-04-11T12:44:19.001Z</time></trkpt><trkpt lat="44.77891470407707" lon="10.027486618008787"><ele>332.0</ele><time>2026-04-11T12:44:20.001Z</time></trkpt><trkpt lat="44.77883448625612" lon="10.027406672153505"><ele>332.0</ele><time>2026-04-11T12:44:21.001Z</time></trkpt><trkpt lat="44.77874067639286" lon="10.027351269712954"><ele>332.0</ele><time>2026-04-11T12:44:22.001Z</time></trkpt><trkpt lat="44.77863308851213" lon="10.027306130835626"><ele>333.40000000000003</ele><time>2026-04-11T12:44:23.001Z</time></trkpt><trkpt lat="44.778530017869755" lon="10.027300102009933"><ele>334.8</ele><time>2026-04-11T12:44:24.001Z</time></trkpt><trkpt lat="44.77843648928162" lon="10.027266572523525"><ele>336.2</ele><time>2026-04-11T12:44:25.001Z</time></trkpt><trkpt lat="44.778348818304124" lon="10.027200831628537"><ele>337.6</ele><time>2026-04-11T12:44:26.001Z</time></trkpt><trkpt lat="44.77827070275783" lon="10.0271091300693"><ele>339.0</ele><time>2026-04-11T12:44:27.001Z</time></trkpt><trkpt lat="44.778191297566245" lon="10.027015614205451"><ele>344.0</ele><time>2026-04-11T12:44:28.001Z</time></trkpt><trkpt lat="44.77810849857182" lon="10.02691741917172"><ele>349.0</ele><time>2026-04-11T12:44:29.001Z</time></trkpt><trkpt lat="44.77803463294564" lon="10.02680831886817"><ele>354.0</ele><time>2026-04-11T12:44:30.001Z</time></trkpt><trkpt lat="44.77795856037283" lon="10.026679244538844"><ele>359.0</ele><time>2026-04-11T12:44:31.001Z</time></trkpt><trkpt lat="44.777865443758415" lon="10.026560700893803"><ele>359.79999999999995</ele><time>2026-04-11T12:44:32.001Z</time></trkpt><trkpt lat="44.777777047547175" lon="10.026453142098395"><ele>360.59999999999997</ele><time>2026-04-11T12:44:33.001Z</time></trkpt><trkpt lat="44.777707652805475" lon="10.026347322304867"><ele>361.4</ele><time>2026-04-11T12:44:34.001Z</time></trkpt><trkpt lat="44.77764266166812" lon="10.026212878413233"><ele>362.2</ele><time>2026-04-11T12:44:35.001Z</time></trkpt><trkpt lat="44.77757862266976" lon="10.026080719201335"><ele>363.0</ele><time>2026-04-11T12:44:36.001Z</time></trkpt><trkpt lat="44.777524309081855" lon="10.025972061160514"><ele>363.0</ele><time>2026-04-11T12:44:37.001Z</time></trkpt><trkpt lat="44.77747927091284" lon="10.025865884325274"><ele>363.0</ele><time>2026-04-11T12:44:38.001Z</time></trkpt><trkpt lat="44.77742660757441" lon="10.025762941609836"><ele>363.0</ele><time>2026-04-11T12:44:39.001Z</time></trkpt><trkpt lat="44.777370298921404" lon="10.025676747019588"><ele>363.0</ele><time>2026-04-11T12:44:40.001Z</time></trkpt><trkpt lat="44.77731914457104" lon="10.025576738354292"><ele>363.0</ele><time>2026-04-11T12:44:41.001Z</time></trkpt><trkpt lat="44.77728723660479" lon="10.025458384967328"><ele>363.0</ele><time>2026-04-11T12:44:42.001Z</time></trkpt><trkpt lat="44.77726016434304" lon="10.025323410734924"><ele>361.79999999999995</ele><time>2026-04-11T12:44:43.001Z</time></trkpt><trkpt lat="44.77723783845756" lon="10.025197996699646"><ele>360.6</ele><time>2026-04-11T12:44:44.001Z</time></trkpt><trkpt lat="44.777223358288516" lon="10.025047983121361"><ele>359.4</ele><time>2026-04-11T12:44:45.001Z</time></trkpt><trkpt lat="44.7772069642885" lon="10.024908080110627"><ele>358.20000000000005</ele><time>2026-04-11T12:44:46.001Z</time></trkpt><trkpt lat="44.77719472381562" lon="10.024778773134294"><ele>357.0</ele><time>2026-04-11T12:44:47.001Z</time></trkpt><trkpt lat="44.77718500667511" lon="10.024622849459282"><ele>354.6</ele><time>2026-04-11T12:44:48.001Z</time></trkpt><trkpt lat="44.77716277345943" lon="10.024460504689806"><ele>352.20000000000005</ele><time>2026-04-11T12:44:49.001Z</time></trkpt><trkpt lat="44.777140487580716" lon="10.024301803353113"><ele>349.8</ele><time>2026-04-11T12:44:50.001Z</time></trkpt><trkpt lat="44.77711776154142" lon="10.02415047892741"><ele>347.4</ele><time>2026-04-11T12:44:51.001Z</time></trkpt><trkpt lat="44.777096284940356" lon="10.024023108594102"><ele>345.0</ele><time>2026-04-11T12:44:52.001Z</time></trkpt><trkpt lat="44.77706938598247" lon="10.023898575009282"><ele>344.2</ele><time>2026-04-11T12:44:53.001Z</time></trkpt><trkpt lat="44.7770286378993" lon="10.023789085844037"><ele>343.4</ele><time>2026-04-11T12:44:54.001Z</time></trkpt><trkpt lat="44.77698209875222" lon="10.023678775347548"><ele>342.6</ele><time>2026-04-11T12:44:55.001Z</time></trkpt><trkpt lat="44.776913159509455" lon="10.02356849976367"><ele>341.8</ele><time>2026-04-11T12:44:56.001Z</time></trkpt><trkpt lat="44.77683107557904" lon="10.023446485706486"><ele>341.0</ele><time>2026-04-11T12:44:57.001Z</time></trkpt><trkpt lat="44.77674955824404" lon="10.023344810127464"><ele>340.6</ele><time>2026-04-11T12:44:58.001Z</time></trkpt><trkpt lat="44.77665168911816" lon="10.023264804597808"><ele>340.20000000000005</ele><time>2026-04-11T12:44:59.001Z</time></trkpt><trkpt lat="44.77655937832575" lon="10.023189853171802"><ele>339.79999999999995</ele><time>2026-04-11T12:45:00.001Z</time></trkpt><trkpt lat="44.77649035437995" lon="10.023118915781732"><ele>339.4</ele><time>2026-04-11T12:45:01.001Z</time></trkpt><trkpt lat="44.776436905002804" lon="10.023023752694087"><ele>339.0</ele><time>2026-04-11T12:45:02.001Z</time></trkpt><trkpt lat="44.77637865955752" lon="10.022878685336789"><ele>339.0</ele><time>2026-04-11T12:45:03.001Z</time></trkpt><trkpt lat="44.7763341060517" lon="10.022736711696174"><ele>339.0</ele><time>2026-04-11T12:45:04.001Z</time></trkpt><trkpt lat="44.776313261336064" lon="10.022611120283107"><ele>339.0</ele><time>2026-04-11T12:45:05.001Z</time></trkpt><trkpt lat="44.776308818221594" lon="10.022484663851545"><ele>339.0</ele><time>2026-04-11T12:45:06.001Z</time></trkpt><trkpt lat="44.77633188897908" lon="10.022348613457053"><ele>339.0</ele><time>2026-04-11T12:45:07.001Z</time></trkpt><trkpt lat="44.7763667124252" lon="10.022228756431597"><ele>338.1666666666667</ele><time>2026-04-11T12:45:08.001Z</time></trkpt><trkpt lat="44.77638073197034" lon="10.022114260189944"><ele>337.3333333333333</ele><time>2026-04-11T12:45:09.001Z</time></trkpt><trkpt lat="44.77637501459261" lon="10.021990028127128"><ele>336.5</ele><time>2026-04-11T12:45:10.001Z</time></trkpt><trkpt lat="44.77633265786817" lon="10.021885663433268"><ele>335.66666666666663</ele><time>2026-04-11T12:45:11.001Z</time></trkpt><trkpt lat="44.77628298851062" lon="10.021802420307067"><ele>334.8333333333333</ele><time>2026-04-11T12:45:12.001Z</time></trkpt><trkpt lat="44.77621965952395" lon="10.021741056568137"><ele>334.0</ele><time>2026-04-11T12:45:13.001Z</time></trkpt><trkpt lat="44.776137161373306" lon="10.021694402979595"><ele>336.5</ele><time>2026-04-11T12:45:14.001Z</time></trkpt><trkpt lat="44.77601486274131" lon="10.02166108166677"><ele>339.0</ele><time>2026-04-11T12:45:15Z</time></trkpt><trkpt lat="44.775877552690496" lon="10.021616533785416"><ele>341.5</ele><time>2026-04-11T12:45:16Z</time></trkpt><trkpt lat="44.775753907058586" lon="10.021558732666506"><ele>344.0</ele><time>2026-04-11T12:45:17Z</time></trkpt><trkpt lat="44.7756604004022" lon="10.021499275344022"><ele>344.0</ele><time>2026-04-11T12:45:18Z</time></trkpt><trkpt lat="44.7755730080894" lon="10.02143721482353"><ele>344.0</ele><time>2026-04-11T12:45:19Z</time></trkpt><trkpt lat="44.775490406642085" lon="10.021348627928093"><ele>344.0</ele><time>2026-04-11T12:45:20Z</time></trkpt><trkpt lat="44.77540945901631" lon="10.021253086847523"><ele>344.0</ele><time>2026-04-11T12:45:21Z</time></trkpt><trkpt lat="44.77532908162499" lon="10.021154419763898"><ele>344.0</ele><time>2026-04-11T12:45:22Z</time></trkpt><trkpt lat="44.77526345700915" lon="10.021059160190427"><ele>344.0</ele><time>2026-04-11T12:45:23Z</time></trkpt><trkpt lat="44.77521140512068" lon="10.020938588330791"><ele>344.0</ele><time>2026-04-11T12:45:24Z</time></trkpt><trkpt lat="44.7751489560037" lon="10.020812886429361"><ele>344.0</ele><time>2026-04-11T12:45:25Z</time></trkpt><trkpt lat="44.77509614938616" lon="10.02074902365052"><ele>344.0</ele><time>2026-04-11T12:45:26Z</time></trkpt><trkpt lat="44.77510554878108" lon="10.020659362199538"><ele>344.0</ele><time>2026-04-11T12:45:28Z</time></trkpt><trkpt lat="44.77511556542009" lon="10.020453825164081"><ele>345.6666666666667</ele><time>2026-04-11T12:45:30Z</time></trkpt><trkpt lat="44.77510902911957" lon="10.02033408654018"><ele>347.33333333333337</ele><time>2026-04-11T12:45:31Z</time></trkpt><trkpt lat="44.77510060168149" lon="10.020204038592711"><ele>349.0</ele><time>2026-04-11T12:45:32Z</time></trkpt><trkpt lat="44.77509310679806" lon="10.020095490008599"><ele>350.6666666666667</ele><time>2026-04-11T12:45:33Z</time></trkpt><trkpt lat="44.77508441021808" lon="10.019973143777577"><ele>352.3333333333333</ele><time>2026-04-11T12:45:34Z</time></trkpt><trkpt lat="44.77508251055652" lon="10.0198332811474"><ele>354.0</ele><time>2026-04-11T12:45:35Z</time></trkpt><trkpt lat="44.77509064521942" lon="10.019726683613266"><ele>354.0</ele><time>2026-04-11T12:45:36Z</time></trkpt><trkpt lat="44.775136414386" lon="10.019535968133619"><ele>354.0</ele><time>2026-04-11T12:45:38Z</time></trkpt><trkpt lat="44.775163751557" lon="10.019440532615931"><ele>354.0</ele><time>2026-04-11T12:45:39Z</time></trkpt><trkpt lat="44.77520893942063" lon="10.019324703647248"><ele>354.0</ele><time>2026-04-11T12:45:40Z</time></trkpt><trkpt lat="44.77524669639063" lon="10.019217559302566"><ele>354.0</ele><time>2026-04-11T12:45:41Z</time></trkpt><trkpt lat="44.77526981563046" lon="10.019123949575754"><ele>351.79999999999995</ele><time>2026-04-11T12:45:42Z</time></trkpt><trkpt lat="44.77524121662977" lon="10.018984850931568"><ele>349.59999999999997</ele><time>2026-04-11T12:45:44Z</time></trkpt><trkpt lat="44.77518731529431" lon="10.018841096530407"><ele>347.4</ele><time>2026-04-11T12:45:46Z</time></trkpt><trkpt lat="44.77513060131675" lon="10.018697624721492"><ele>345.2</ele><time>2026-04-11T12:45:48Z</time></trkpt><trkpt lat="44.77506776455291" lon="10.01859163956138"><ele>343.0</ele><time>2026-04-11T12:45:50Z</time></trkpt><trkpt lat="44.77501038944435" lon="10.018506431314814"><ele>343.0</ele><time>2026-04-11T12:45:52Z</time></trkpt><trkpt lat="44.77495683074774" lon="10.018441144153401"><ele>343.0</ele><time>2026-04-11T12:45:53Z</time></trkpt><trkpt lat="44.774869766275266" lon="10.018344468175592"><ele>343.0</ele><time>2026-04-11T12:45:55Z</time></trkpt><trkpt lat="44.77481546734459" lon="10.01828727701493"><ele>343.0</ele><time>2026-04-11T12:45:56Z</time></trkpt><trkpt lat="44.774763421416274" lon="10.018233713541564"><ele>343.0</ele><time>2026-04-11T12:45:57Z</time></trkpt><trkpt lat="44.77471250884032" lon="10.018180732669364"><ele>343.0</ele><time>2026-04-11T12:45:58Z</time></trkpt><trkpt lat="44.774661267577095" lon="10.018127034439344"><ele>343.0</ele><time>2026-04-11T12:45:59Z</time></trkpt><trkpt lat="44.77456047644995" lon="10.01802715026325"><ele>338.79999999999995</ele><time>2026-04-11T12:46:01Z</time></trkpt><trkpt lat="44.77449449097762" lon="10.017926771355077"><ele>334.6</ele><time>2026-04-11T12:46:03Z</time></trkpt><trkpt lat="44.77446504911515" lon="10.01778395616585"><ele>330.4</ele><time>2026-04-11T12:46:05Z</time></trkpt><trkpt lat="44.77443268139046" lon="10.017649900394654"><ele>326.20000000000005</ele><time>2026-04-11T12:46:07Z</time></trkpt><trkpt lat="44.774407103836644" lon="10.017517968778638"><ele>322.0</ele><time>2026-04-11T12:46:09Z</time></trkpt><trkpt lat="44.774388159943925" lon="10.017430591212866"><ele>321.3333333333333</ele><time>2026-04-11T12:46:10Z</time></trkpt><trkpt lat="44.7743713853848" lon="10.01732246375014"><ele>320.66666666666663</ele><time>2026-04-11T12:46:11Z</time></trkpt><trkpt lat="44.77435778066497" lon="10.017203138267885"><ele>320.0</ele><time>2026-04-11T12:46:12.001Z</time></trkpt><trkpt lat="44.774342943410105" lon="10.017091588384117"><ele>319.3333333333333</ele><time>2026-04-11T12:46:13.001Z</time></trkpt><trkpt lat="44.774328029354244" lon="10.016981937257482"><ele>318.6666666666667</ele><time>2026-04-11T12:46:14.001Z</time></trkpt><trkpt lat="44.774313466738484" lon="10.016873254700986"><ele>318.0</ele><time>2026-04-11T12:46:15.001Z</time></trkpt><trkpt lat="44.77429849057725" lon="10.01677070387649"><ele>318.0</ele><time>2026-04-11T12:46:16.001Z</time></trkpt><trkpt lat="44.774295303658505" lon="10.016669724463025"><ele>318.0</ele><time>2026-04-11T12:46:17.001Z</time></trkpt><trkpt lat="44.774293684182716" lon="10.016572307194352"><ele>318.0</ele><time>2026-04-11T12:46:18.001Z</time></trkpt><trkpt lat="44.77428864300254" lon="10.016461940390684"><ele>318.0</ele><time>2026-04-11T12:46:19.001Z</time></trkpt><trkpt lat="44.77430388685153" lon="10.016354126071265"><ele>318.0</ele><time>2026-04-11T12:46:20.001Z</time></trkpt><trkpt lat="44.774322299152196" lon="10.016251546204698"><ele>318.0</ele><time>2026-04-11T12:46:21.001Z</time></trkpt><trkpt lat="44.77434017147212" lon="10.01615313532893"><ele>318.0</ele><time>2026-04-11T12:46:22.001Z</time></trkpt><trkpt lat="44.7743580714502" lon="10.016054572147985"><ele>317.1666666666667</ele><time>2026-04-11T12:46:23.001Z</time></trkpt><trkpt lat="44.7743767971861" lon="10.015962838315916"><ele>316.3333333333333</ele><time>2026-04-11T12:46:24.001Z</time></trkpt><trkpt lat="44.77440168880432" lon="10.01586671206271"><ele>315.5</ele><time>2026-04-11T12:46:25.001Z</time></trkpt><trkpt lat="44.77443628444121" lon="10.015701398985303"><ele>314.66666666666663</ele><time>2026-04-11T12:46:27.001Z</time></trkpt><trkpt lat="44.7744564471623" lon="10.015616026224528"><ele>313.8333333333333</ele><time>2026-04-11T12:46:28.001Z</time></trkpt><trkpt lat="44.774496609644096" lon="10.015518877873214"><ele>313.0</ele><time>2026-04-11T12:46:29.001Z</time></trkpt><trkpt lat="44.77449757277236" lon="10.015421573978886"><ele>313.0</ele><time>2026-04-11T12:46:30.001Z</time></trkpt><trkpt lat="44.77449607513738" lon="10.01524837723917"><ele>313.0</ele><time>2026-04-11T12:46:32.001Z</time></trkpt><trkpt lat="44.77453960897251" lon="10.015095789687978"><ele>313.0</ele><time>2026-04-11T12:46:34.001Z</time></trkpt><trkpt lat="44.77455557622688" lon="10.01498531712781"><ele>313.0</ele><time>2026-04-11T12:46:35.001Z</time></trkpt><trkpt lat="44.77458236618023" lon="10.014867439905357"><ele>313.0</ele><time>2026-04-11T12:46:36.001Z</time></trkpt><trkpt lat="44.774612443161466" lon="10.01472844493572"><ele>316.0</ele><time>2026-04-11T12:46:37.001Z</time></trkpt><trkpt lat="44.77463581511806" lon="10.014586353791938"><ele>319.0</ele><time>2026-04-11T12:46:38.001Z</time></trkpt><trkpt lat="44.774650715561044" lon="10.014450966836986"><ele>322.0</ele><time>2026-04-11T12:46:39.001Z</time></trkpt><trkpt lat="44.77468884228255" lon="10.014324133098304"><ele>325.0</ele><time>2026-04-11T12:46:40.001Z</time></trkpt><trkpt lat="44.77474108472047" lon="10.01419786895933"><ele>328.0</ele><time>2026-04-11T12:46:41.001Z</time></trkpt><trkpt lat="44.7747870016906" lon="10.014080856677623"><ele>328.3333333333333</ele><time>2026-04-11T12:46:42.001Z</time></trkpt><trkpt lat="44.77483483602618" lon="10.013979919983907"><ele>328.66666666666663</ele><time>2026-04-11T12:46:43.001Z</time></trkpt><trkpt lat="44.774867760720106" lon="10.01384825861588"><ele>329.0</ele><time>2026-04-11T12:46:44.001Z</time></trkpt><trkpt lat="44.77487198332059" lon="10.013724581050342"><ele>329.3333333333333</ele><time>2026-04-11T12:46:45.001Z</time></trkpt><trkpt lat="44.77485876653681" lon="10.013630478031134"><ele>329.6666666666667</ele><time>2026-04-11T12:46:46.001Z</time></trkpt><trkpt lat="44.77483059277656" lon="10.013511748161285"><ele>330.0</ele><time>2026-04-11T12:46:48.001Z</time></trkpt><trkpt lat="44.77479119913763" lon="10.013375654035057"><ele>327.0</ele><time>2026-04-11T12:46:50.001Z</time></trkpt><trkpt lat="44.774756744670555" lon="10.013244777371877"><ele>324.0</ele><time>2026-04-11T12:46:52.001Z</time></trkpt><trkpt lat="44.774726989451054" lon="10.01310384002856"><ele>321.0</ele><time>2026-04-11T12:46:54.001Z</time></trkpt><trkpt lat="44.77469720582975" lon="10.012977769553926"><ele>318.0</ele><time>2026-04-11T12:46:56.001Z</time></trkpt><trkpt lat="44.77466872960406" lon="10.012850383377696"><ele>315.0</ele><time>2026-04-11T12:46:58.001Z</time></trkpt><trkpt lat="44.77461904828369" lon="10.012709703870703"><ele>315.0</ele><time>2026-04-11T12:47:00.001Z</time></trkpt><trkpt lat="44.77455367139178" lon="10.012590667596688"><ele>315.0</ele><time>2026-04-11T12:47:02.001Z</time></trkpt><trkpt lat="44.77447130690336" lon="10.012462470992075"><ele>315.0</ele><time>2026-04-11T12:47:04.001Z</time></trkpt><trkpt lat="44.77442697754224" lon="10.012391017330998"><ele>315.0</ele><time>2026-04-11T12:47:05.001Z</time></trkpt><trkpt lat="44.77438884738587" lon="10.012301845384247"><ele>315.0</ele><time>2026-04-11T12:47:06.001Z</time></trkpt><trkpt lat="44.77434652620429" lon="10.01213654032361"><ele>313.6</ele><time>2026-04-11T12:47:08.001Z</time></trkpt><trkpt lat="44.77434097473387" lon="10.011956611134663"><ele>312.2</ele><time>2026-04-11T12:47:10.001Z</time></trkpt><trkpt lat="44.77435277268524" lon="10.011837564198444"><ele>310.8</ele><time>2026-04-11T12:47:11.001Z</time></trkpt><trkpt lat="44.77436240897565" lon="10.011712116680997"><ele>309.4</ele><time>2026-04-11T12:47:12.001Z</time></trkpt><trkpt lat="44.77436278282089" lon="10.011604017968374"><ele>308.0</ele><time>2026-04-11T12:47:13.001Z</time></trkpt><trkpt lat="44.77436584777731" lon="10.011501297381786"><ele>303.6</ele><time>2026-04-11T12:47:14.001Z</time></trkpt><trkpt lat="44.774370121441834" lon="10.01139397193077"><ele>299.20000000000005</ele><time>2026-04-11T12:47:15.001Z</time></trkpt><trkpt lat="44.77435693861173" lon="10.011229778576865"><ele>294.8</ele><time>2026-04-11T12:47:17.002Z</time></trkpt><trkpt lat="44.7743875128289" lon="10.011092354650753"><ele>290.40000000000003</ele><time>2026-04-11T12:47:19.002Z</time></trkpt><trkpt lat="44.774400103590395" lon="10.010924051481537"><ele>286.0</ele><time>2026-04-11T12:47:21Z</time></trkpt><trkpt lat="44.77443513943357" lon="10.01076878738212"><ele>286.0</ele><time>2026-04-11T12:47:23Z</time></trkpt><trkpt lat="44.77443358459837" lon="10.010665865657234"><ele>286.0</ele><time>2026-04-11T12:47:24Z</time></trkpt><trkpt lat="44.77444969557918" lon="10.010560688149647"><ele>286.0</ele><time>2026-04-11T12:47:25Z</time></trkpt><trkpt lat="44.77439524788322" lon="10.010477820178886"><ele>286.0</ele><time>2026-04-11T12:47:26Z</time></trkpt><trkpt lat="44.77435366046215" lon="10.010360944668042"><ele>286.0</ele><time>2026-04-11T12:47:28Z</time></trkpt><trkpt lat="44.774310786386664" lon="10.010196768132767"><ele>286.0</ele><time>2026-04-11T12:47:30Z</time></trkpt><trkpt lat="44.77462473410648" lon="10.009864698679428"><ele>285.8333333333333</ele><time>2026-04-11T12:47:31Z</time></trkpt><trkpt lat="44.77465376083122" lon="10.009732890181965"><ele>285.66666666666663</ele><time>2026-04-11T12:47:32Z</time></trkpt><trkpt lat="44.77467630498482" lon="10.009619464799494"><ele>285.5</ele><time>2026-04-11T12:47:33Z</time></trkpt><trkpt lat="44.77469763124965" lon="10.009506356135015"><ele>285.3333333333333</ele><time>2026-04-11T12:47:34Z</time></trkpt><trkpt lat="44.774710126238126" lon="10.009411767110269"><ele>285.1666666666667</ele><time>2026-04-11T12:47:35Z</time></trkpt><trkpt lat="44.77473199411227" lon="10.00930880973362"><ele>285.0</ele><time>2026-04-11T12:47:36Z</time></trkpt><trkpt lat="44.774746898356995" lon="10.009216835114131"><ele>282.6666666666667</ele><time>2026-04-11T12:47:37Z</time></trkpt><trkpt lat="44.77475274527544" lon="10.00906809709434"><ele>280.3333333333333</ele><time>2026-04-11T12:47:39Z</time></trkpt><trkpt lat="44.77473491210125" lon="10.008980175729551"><ele>278.0</ele><time>2026-04-11T12:47:40Z</time></trkpt><trkpt lat="44.77469755704555" lon="10.008908204785904"><ele>275.66666666666663</ele><time>2026-04-11T12:47:41Z</time></trkpt><trkpt lat="44.77464362481466" lon="10.008859441960183"><ele>273.3333333333333</ele><time>2026-04-11T12:47:42Z</time></trkpt><trkpt lat="44.77457125909229" lon="10.008813482041944"><ele>271.0</ele><time>2026-04-11T12:47:43Z</time></trkpt><trkpt lat="44.774482591952975" lon="10.008783079668953"><ele>271.0</ele><time>2026-04-11T12:47:44Z</time></trkpt><trkpt lat="44.77439594328693" lon="10.008744966123151"><ele>271.0</ele><time>2026-04-11T12:47:45Z</time></trkpt><trkpt lat="44.77430547148764" lon="10.008682272879375"><ele>271.0</ele><time>2026-04-11T12:47:46Z</time></trkpt><trkpt lat="44.77421172575522" lon="10.008633497013548"><ele>271.0</ele><time>2026-04-11T12:47:47Z</time></trkpt><trkpt lat="44.774105926513045" lon="10.008595774407445"><ele>271.0</ele><time>2026-04-11T12:47:48Z</time></trkpt><trkpt lat="44.77399804967201" lon="10.00856079200966"><ele>274.2</ele><time>2026-04-11T12:47:49Z</time></trkpt><trkpt lat="44.7738777585639" lon="10.008539958551008"><ele>277.40000000000003</ele><time>2026-04-11T12:47:50Z</time></trkpt><trkpt lat="44.77377087550243" lon="10.008534760658721"><ele>280.6</ele><time>2026-04-11T12:47:51Z</time></trkpt><trkpt lat="44.773664295778204" lon="10.008509877428558"><ele>283.8</ele><time>2026-04-11T12:47:52Z</time></trkpt><trkpt lat="44.77356465566902" lon="10.008471492310786"><ele>287.0</ele><time>2026-04-11T12:47:53Z</time></trkpt><trkpt lat="44.7734685001413" lon="10.008441513317068"><ele>288.2</ele><time>2026-04-11T12:47:54Z</time></trkpt><trkpt lat="44.77336035439001" lon="10.008400147838733"><ele>289.4</ele><time>2026-04-11T12:47:55Z</time></trkpt><trkpt lat="44.773267099713564" lon="10.008353915094322"><ele>290.6</ele><time>2026-04-11T12:47:56Z</time></trkpt><trkpt lat="44.7731785729028" lon="10.008302390833572"><ele>291.8</ele><time>2026-04-11T12:47:57Z</time></trkpt><trkpt lat="44.773103276891455" lon="10.008248207207307"><ele>293.0</ele><time>2026-04-11T12:47:58Z</time></trkpt><trkpt lat="44.77302444001001" lon="10.00819459606544"><ele>293.6666666666667</ele><time>2026-04-11T12:47:59Z</time></trkpt><trkpt lat="44.77294736040257" lon="10.00814911441328"><ele>294.33333333333337</ele><time>2026-04-11T12:48:00Z</time></trkpt><trkpt lat="44.77287267597568" lon="10.008100730093021"><ele>295.0</ele><time>2026-04-11T12:48:01Z</time></trkpt><trkpt lat="44.77280774835486" lon="10.008052734856836"><ele>295.6666666666667</ele><time>2026-04-11T12:48:02Z</time></trkpt><trkpt lat="44.77274028080855" lon="10.008004559343396"><ele>296.3333333333333</ele><time>2026-04-11T12:48:03Z</time></trkpt><trkpt lat="44.77268237279836" lon="10.007969037462512"><ele>297.0</ele><time>2026-04-11T12:48:04Z</time></trkpt><trkpt lat="44.772614911283476" lon="10.007923752864633"><ele>297.0</ele><time>2026-04-11T12:48:05Z</time></trkpt><trkpt lat="44.77255752035043" lon="10.007880743813212"><ele>297.0</ele><time>2026-04-11T12:48:06.001Z</time></trkpt><trkpt lat="44.77249432090675" lon="10.007836251067722"><ele>297.0</ele><time>2026-04-11T12:48:07.001Z</time></trkpt><trkpt lat="44.772381440359275" lon="10.007751128492435"><ele>297.0</ele><time>2026-04-11T12:48:09.001Z</time></trkpt><trkpt lat="44.772316798546555" lon="10.007684277528544"><ele>297.0</ele><time>2026-04-11T12:48:10.001Z</time></trkpt><trkpt lat="44.7722436253555" lon="10.007587964249916"><ele>297.0</ele><time>2026-04-11T12:48:11.001Z</time></trkpt><trkpt lat="44.77217747169097" lon="10.007517852417257"><ele>297.0</ele><time>2026-04-11T12:48:12.001Z</time></trkpt><trkpt lat="44.77209284163157" lon="10.007503360340566"><ele>297.0</ele><time>2026-04-11T12:48:13.001Z</time></trkpt><trkpt lat="44.77198696387982" lon="10.007485312922224"><ele>297.0</ele><time>2026-04-11T12:48:14.001Z</time></trkpt><trkpt lat="44.771886879987825" lon="10.007460731872202"><ele>297.0</ele><time>2026-04-11T12:48:15.001Z</time></trkpt><trkpt lat="44.77179443468886" lon="10.00743100874677"><ele>297.0</ele><time>2026-04-11T12:48:16.001Z</time></trkpt><trkpt lat="44.77171682532109" lon="10.0073959923282"><ele>297.4</ele><time>2026-04-11T12:48:17.001Z</time></trkpt><trkpt lat="44.771653450380505" lon="10.007339386001808"><ele>297.79999999999995</ele><time>2026-04-11T12:48:18.001Z</time></trkpt><trkpt lat="44.77158245823486" lon="10.007257880956747"><ele>298.2</ele><time>2026-04-11T12:48:19.001Z</time></trkpt><trkpt lat="44.77151836181921" lon="10.007162378793714"><ele>298.59999999999997</ele><time>2026-04-11T12:48:20.001Z</time></trkpt><trkpt lat="44.771454585059914" lon="10.007047753047217"><ele>299.0</ele><time>2026-04-11T12:48:21.001Z</time></trkpt><trkpt lat="44.7713798355734" lon="10.006932896407513"><ele>299.0</ele><time>2026-04-11T12:48:22.001Z</time></trkpt><trkpt lat="44.771291059277374" lon="10.006821707257995"><ele>299.0</ele><time>2026-04-11T12:48:23.001Z</time></trkpt><trkpt lat="44.77121262364556" lon="10.006722759873458"><ele>299.0</ele><time>2026-04-11T12:48:24.001Z</time></trkpt><trkpt lat="44.77116105768772" lon="10.00663102740383"><ele>299.0</ele><time>2026-04-11T12:48:25.001Z</time></trkpt><trkpt lat="44.77113890699947" lon="10.006476297644197"><ele>299.0</ele><time>2026-04-11T12:48:27.001Z</time></trkpt><trkpt lat="44.7711418428083" lon="10.006373155469596"><ele>298.4</ele><time>2026-04-11T12:48:28.001Z</time></trkpt><trkpt lat="44.77112925906653" lon="10.006246332159941"><ele>297.79999999999995</ele><time>2026-04-11T12:48:29.001Z</time></trkpt><trkpt lat="44.77110973786421" lon="10.006106864732141"><ele>297.20000000000005</ele><time>2026-04-11T12:48:30.001Z</time></trkpt><trkpt lat="44.77108538980971" lon="10.005957058558554"><ele>296.6</ele><time>2026-04-11T12:48:31.001Z</time></trkpt><trkpt lat="44.77107911157033" lon="10.005824773691863"><ele>296.0</ele><time>2026-04-11T12:48:32.001Z</time></trkpt><trkpt lat="44.771081434314254" lon="10.005688280746"><ele>298.33333333333337</ele><time>2026-04-11T12:48:33.001Z</time></trkpt><trkpt lat="44.7710833326995" lon="10.005556219774025"><ele>300.6666666666667</ele><time>2026-04-11T12:48:34.001Z</time></trkpt><trkpt lat="44.77107935591152" lon="10.00544336916567"><ele>303.0</ele><time>2026-04-11T12:48:35.001Z</time></trkpt><trkpt lat="44.77107984911124" lon="10.005328456422466"><ele>305.3333333333333</ele><time>2026-04-11T12:48:36.001Z</time></trkpt><trkpt lat="44.77107345994359" lon="10.00522586776004"><ele>307.66666666666663</ele><time>2026-04-11T12:48:37.001Z</time></trkpt><trkpt lat="44.7710770241079" lon="10.005103338866956"><ele>310.0</ele><time>2026-04-11T12:48:38.001Z</time></trkpt><trkpt lat="44.77111097233355" lon="10.00500081572798"><ele>311.0</ele><time>2026-04-11T12:48:39.001Z</time></trkpt><trkpt lat="44.77121477560848" lon="10.004878594354677"><ele>312.0</ele><time>2026-04-11T12:48:41.001Z</time></trkpt><trkpt lat="44.77125964743982" lon="10.004789368749996"><ele>313.0</ele><time>2026-04-11T12:48:42.001Z</time></trkpt><trkpt lat="44.77130591729166" lon="10.004701283215443"><ele>314.0</ele><time>2026-04-11T12:48:43.001Z</time></trkpt><trkpt lat="44.771363058473334" lon="10.004627793607963"><ele>315.0</ele><time>2026-04-11T12:48:44.001Z</time></trkpt><trkpt lat="44.77142044115942" lon="10.004580102534888"><ele>316.0</ele><time>2026-04-11T12:48:45.001Z</time></trkpt><trkpt lat="44.77147225852368" lon="10.004468387160074"><ele>316.0</ele><time>2026-04-11T12:48:47.001Z</time></trkpt><trkpt lat="44.771459703296" lon="10.004354782654728"><ele>316.0</ele><time>2026-04-11T12:48:49.001Z</time></trkpt><trkpt lat="44.77135163891627" lon="10.004249167453384"><ele>316.0</ele><time>2026-04-11T12:48:51.001Z</time></trkpt><trkpt lat="44.771274000261535" lon="10.004145903222833"><ele>316.0</ele><time>2026-04-11T12:48:52.001Z</time></trkpt><trkpt lat="44.7712224965201" lon="10.004048370073628"><ele>316.0</ele><time>2026-04-11T12:48:53.001Z</time></trkpt><trkpt lat="44.771165745508114" lon="10.00394982668074"><ele>314.8</ele><time>2026-04-11T12:48:54.001Z</time></trkpt><trkpt lat="44.771089475695916" lon="10.003836115169655"><ele>313.6</ele><time>2026-04-11T12:48:55.001Z</time></trkpt><trkpt lat="44.77099439493176" lon="10.003745788979423"><ele>312.4</ele><time>2026-04-11T12:48:56.001Z</time></trkpt><trkpt lat="44.770926984980164" lon="10.003676368874048"><ele>311.2</ele><time>2026-04-11T12:48:57.001Z</time></trkpt><trkpt lat="44.7708698795035" lon="10.003498574626505"><ele>310.0</ele><time>2026-04-11T12:48:59.001Z</time></trkpt><trkpt lat="44.7708347992735" lon="10.003374744334923"><ele>319.4</ele><time>2026-04-11T12:49:00.001Z</time></trkpt><trkpt lat="44.77079153242589" lon="10.003269443930439"><ele>328.8</ele><time>2026-04-11T12:49:01.001Z</time></trkpt><trkpt lat="44.77071888698646" lon="10.00315428026886"><ele>338.20000000000005</ele><time>2026-04-11T12:49:03.001Z</time></trkpt><trkpt lat="44.770697499236974" lon="10.003018912828077"><ele>347.6</ele><time>2026-04-11T12:49:05.001Z</time></trkpt><trkpt lat="44.77064795758529" lon="10.002919696102886"><ele>357.0</ele><time>2026-04-11T12:49:07.001Z</time></trkpt><trkpt lat="44.77060237549311" lon="10.002830181515192"><ele>357.0</ele><time>2026-04-11T12:49:08.001Z</time></trkpt><trkpt lat="44.770551598889554" lon="10.002731626837937"><ele>357.0</ele><time>2026-04-11T12:49:09.001Z</time></trkpt><trkpt lat="44.77047793384661" lon="10.002616336993981"><ele>357.0</ele><time>2026-04-11T12:49:10.002Z</time></trkpt><trkpt lat="44.77039084289637" lon="10.002536050098199"><ele>357.0</ele><time>2026-04-11T12:49:11.002Z</time></trkpt><trkpt lat="44.77032257706697" lon="10.002426416848666"><ele>357.0</ele><time>2026-04-11T12:49:13.002Z</time></trkpt><trkpt lat="44.7702932056163" lon="10.002325647262568"><ele>359.40000000000003</ele><time>2026-04-11T12:49:15.002Z</time></trkpt><trkpt lat="44.77029347120812" lon="10.00219661148044"><ele>361.8</ele><time>2026-04-11T12:49:17.002Z</time></trkpt><trkpt lat="44.770293215944996" lon="10.002021899599187"><ele>364.2</ele><time>2026-04-11T12:49:19.002Z</time></trkpt><trkpt lat="44.770292642448915" lon="10.001919421900094"><ele>366.6</ele><time>2026-04-11T12:49:20.002Z</time></trkpt><trkpt lat="44.7702912045991" lon="10.001755408570993"><ele>369.0</ele><time>2026-04-11T12:49:22.002Z</time></trkpt><trkpt lat="44.770266637586296" lon="10.001615320698205"><ele>369.6666666666667</ele><time>2026-04-11T12:49:24.002Z</time></trkpt><trkpt lat="44.770246279025606" lon="10.001527644397887"><ele>370.3333333333333</ele><time>2026-04-11T12:49:25.002Z</time></trkpt><trkpt lat="44.77021671999041" lon="10.001392887581131"><ele>371.0</ele><time>2026-04-11T12:49:27Z</time></trkpt><trkpt lat="44.770225566598434" lon="10.001205981718819"><ele>371.66666666666663</ele><time>2026-04-11T12:49:29Z</time></trkpt><trkpt lat="44.7702344708396" lon="10.001107746715492"><ele>372.3333333333333</ele><time>2026-04-11T12:49:30Z</time></trkpt><trkpt lat="44.77024549225228" lon="10.001009613186861"><ele>373.0</ele><time>2026-04-11T12:49:31Z</time></trkpt><trkpt lat="44.770264220580984" lon="10.000911673440209"><ele>373.16666666666663</ele><time>2026-04-11T12:49:32Z</time></trkpt><trkpt lat="44.77029503642186" lon="10.000798213958927"><ele>373.3333333333333</ele><time>2026-04-11T12:49:33Z</time></trkpt><trkpt lat="44.770325409330255" lon="10.000699022656844"><ele>373.5</ele><time>2026-04-11T12:49:34Z</time></trkpt><trkpt lat="44.77033898600037" lon="10.000600827297744"><ele>373.6666666666667</ele><time>2026-04-11T12:49:35Z</time></trkpt><trkpt lat="44.77034062212909" lon="10.000499325151686"><ele>373.83333333333337</ele><time>2026-04-11T12:49:36Z</time></trkpt><trkpt lat="44.77031439035365" lon="10.00038519903284"><ele>374.0</ele><time>2026-04-11T12:49:37Z</time></trkpt><trkpt lat="44.770356775123936" lon="10.000181457408187"><ele>374.0</ele><time>2026-04-11T12:49:38Z</time></trkpt><trkpt lat="44.770319095422096" lon="10.000075743328027"><ele>374.0</ele><time>2026-04-11T12:49:39Z</time></trkpt><trkpt lat="44.770286900360745" lon="9.99997199726063"><ele>374.0</ele><time>2026-04-11T12:49:40Z</time></trkpt><trkpt lat="44.77026016604653" lon="9.999886234403226"><ele>374.0</ele><time>2026-04-11T12:49:41Z</time></trkpt><trkpt lat="44.77022917071695" lon="9.999790040406175"><ele>374.0</ele><time>2026-04-11T12:49:42Z</time></trkpt><trkpt lat="44.77019904196445" lon="9.999697076356302"><ele>374.0</ele><time>2026-04-11T12:49:43Z</time></trkpt><trkpt lat="44.770161504107904" lon="9.999603486606286"><ele>369.5</ele><time>2026-04-11T12:49:44Z</time></trkpt><trkpt lat="44.770136817222294" lon="9.999472279378843"><ele>365.0</ele><time>2026-04-11T12:49:45Z</time></trkpt><trkpt lat="44.770097192779126" lon="9.99930851429309"><ele>360.5</ele><time>2026-04-11T12:49:46Z</time></trkpt><trkpt lat="44.77004419896014" lon="9.999141311530794"><ele>356.0</ele><time>2026-04-11T12:49:47Z</time></trkpt><trkpt lat="44.76999640363809" lon="9.99901612546533"><ele>355.99999999999994</ele><time>2026-04-11T12:49:48Z</time></trkpt><trkpt lat="44.769952769702726" lon="9.99892169185697"><ele>356.0</ele><time>2026-04-11T12:49:49Z</time></trkpt><trkpt lat="44.76990401431088" lon="9.998841677006247"><ele>356.0</ele><time>2026-04-11T12:49:50Z</time></trkpt><trkpt lat="44.769850390361476" lon="9.998779122083093"><ele>356.0</ele><time>2026-04-11T12:49:51Z</time></trkpt><trkpt lat="44.76979670249276" lon="9.998724641632753"><ele>356.0</ele><time>2026-04-11T12:49:52Z</time></trkpt><trkpt lat="44.76973095481296" lon="9.998687858647905"><ele>355.99999999999994</ele><time>2026-04-11T12:49:53Z</time></trkpt><trkpt lat="44.76965838797308" lon="9.998666410395742"><ele>356.0</ele><time>2026-04-11T12:49:54Z</time></trkpt><trkpt lat="44.76957857697424" lon="9.998627866449013"><ele>356.0</ele><time>2026-04-11T12:49:55Z</time></trkpt><trkpt lat="44.7695032982696" lon="9.99858985899868"><ele>356.0</ele><time>2026-04-11T12:49:56Z</time></trkpt><trkpt lat="44.76942914046276" lon="9.99854987998805"><ele>356.0</ele><time>2026-04-11T12:49:57Z</time></trkpt><trkpt lat="44.769358412153984" lon="9.998506753283706"><ele>356.0</ele><time>2026-04-11T12:49:58Z</time></trkpt><trkpt lat="44.769292433428454" lon="9.998446293303939"><ele>356.0</ele><time>2026-04-11T12:49:59Z</time></trkpt><trkpt lat="44.76922534547004" lon="9.99843758386009"><ele>356.0</ele><time>2026-04-11T12:50:00Z</time></trkpt><trkpt lat="44.76915439875373" lon="9.99841188896233"><ele>353.85714285714283</ele><time>2026-04-11T12:50:01Z</time></trkpt><trkpt lat="44.76908881802678" lon="9.998394864541801"><ele>351.7142857142857</ele><time>2026-04-11T12:50:02Z</time></trkpt><trkpt lat="44.76903250551271" lon="9.99835365533745"><ele>349.57142857142856</ele><time>2026-04-11T12:50:03Z</time></trkpt><trkpt lat="44.768959187666795" lon="9.998331031383346"><ele>347.42857142857144</ele><time>2026-04-11T12:50:04Z</time></trkpt><trkpt lat="44.76889072034798" lon="9.998309833313725"><ele>345.2857142857143</ele><time>2026-04-11T12:50:05Z</time></trkpt><trkpt lat="44.76882382534062" lon="9.998311448309757"><ele>343.1428571428571</ele><time>2026-04-11T12:50:06Z</time></trkpt><trkpt lat="44.76876134096605" lon="9.998290763010372"><ele>341.0</ele><time>2026-04-11T12:50:07Z</time></trkpt><trkpt lat="44.76869469845378" lon="9.998278521411656"><ele>344.0</ele><time>2026-04-11T12:50:08Z</time></trkpt><trkpt lat="44.76863021699508" lon="9.998268626233743"><ele>347.0</ele><time>2026-04-11T12:50:09Z</time></trkpt><trkpt lat="44.7685660657094" lon="9.998262521717109"><ele>350.0</ele><time>2026-04-11T12:50:10Z</time></trkpt><trkpt lat="44.76850225363377" lon="9.998258592622037"><ele>353.0</ele><time>2026-04-11T12:50:11Z</time></trkpt><trkpt lat="44.768436950638055" lon="9.99825554461325"><ele>356.0</ele><time>2026-04-11T12:50:12Z</time></trkpt><trkpt lat="44.768309953152944" lon="9.998231331303733"><ele>359.0</ele><time>2026-04-11T12:50:14.001Z</time></trkpt><trkpt lat="44.76824734539904" lon="9.998256416812401"><ele>359.0</ele><time>2026-04-11T12:50:15.001Z</time></trkpt><trkpt lat="44.76813496563559" lon="9.998262855565915"><ele>359.0</ele><time>2026-04-11T12:50:17.001Z</time></trkpt><trkpt lat="44.76807033423797" lon="9.998269753809893"><ele>359.0</ele><time>2026-04-11T12:50:18.001Z</time></trkpt><trkpt lat="44.76800430573115" lon="9.998279208768537"><ele>359.0</ele><time>2026-04-11T12:50:19.001Z</time></trkpt><trkpt lat="44.76792890264871" lon="9.998266900371815"><ele>359.0</ele><time>2026-04-11T12:50:20.001Z</time></trkpt><trkpt lat="44.767851201323765" lon="9.998276180643282"><ele>359.0</ele><time>2026-04-11T12:50:21.001Z</time></trkpt><trkpt lat="44.76776107850196" lon="9.998286944455476"><ele>358.0</ele><time>2026-04-11T12:50:22.001Z</time></trkpt><trkpt lat="44.7676663226597" lon="9.998318389711569"><ele>357.0</ele><time>2026-04-11T12:50:23.001Z</time></trkpt><trkpt lat="44.767566848448055" lon="9.998338458275443"><ele>356.0</ele><time>2026-04-11T12:50:24.001Z</time></trkpt><trkpt lat="44.767478950890585" lon="9.998349877768787"><ele>355.0</ele><time>2026-04-11T12:50:25.001Z</time></trkpt><trkpt lat="44.767407822867646" lon="9.998360217499416"><ele>354.0</ele><time>2026-04-11T12:50:26.001Z</time></trkpt><trkpt lat="44.76734307847109" lon="9.998360988198502"><ele>353.0</ele><time>2026-04-11T12:50:27.001Z</time></trkpt><trkpt lat="44.76723647082935" lon="9.998333821196193"><ele>353.0</ele><time>2026-04-11T12:50:29.001Z</time></trkpt><trkpt lat="44.767165833140375" lon="9.998246186850512"><ele>353.0</ele><time>2026-04-11T12:50:31.001Z</time></trkpt><trkpt lat="44.76715086039472" lon="9.99810675228042"><ele>353.0</ele><time>2026-04-11T12:50:33.001Z</time></trkpt><trkpt lat="44.76718648318368" lon="9.997950536377157"><ele>353.0</ele><time>2026-04-11T12:50:35.001Z</time></trkpt><trkpt lat="44.76717828083841" lon="9.997860668232748"><ele>353.0</ele><time>2026-04-11T12:50:36.001Z</time></trkpt><trkpt lat="44.76719284594573" lon="9.997764700807034"><ele>353.0</ele><time>2026-04-11T12:50:37.001Z</time></trkpt><trkpt lat="44.767214121029305" lon="9.997661644580818"><ele>353.0</ele><time>2026-04-11T12:50:38.001Z</time></trkpt><trkpt lat="44.76723704987728" lon="9.997554284404268"><ele>353.0</ele><time>2026-04-11T12:50:39.001Z</time></trkpt><trkpt lat="44.767258172493705" lon="9.997457267031129"><ele>353.0</ele><time>2026-04-11T12:50:40.001Z</time></trkpt><trkpt lat="44.767277701537935" lon="9.997357371462305"><ele>353.0</ele><time>2026-04-11T12:50:41.001Z</time></trkpt><trkpt lat="44.767298130618315" lon="9.99725203199586"><ele>353.0</ele><time>2026-04-11T12:50:42.001Z</time></trkpt><trkpt lat="44.76732383932273" lon="9.997148580659166"><ele>353.0</ele><time>2026-04-11T12:50:43.001Z</time></trkpt><trkpt lat="44.76734632371565" lon="9.997041335535428"><ele>352.59999999999997</ele><time>2026-04-11T12:50:44.001Z</time></trkpt><trkpt lat="44.767368856597834" lon="9.996933173711204"><ele>352.2</ele><time>2026-04-11T12:50:45.001Z</time></trkpt><trkpt lat="44.76739755515642" lon="9.996819602946942"><ele>351.8</ele><time>2026-04-11T12:50:46.001Z</time></trkpt><trkpt lat="44.76742136572126" lon="9.996702377551077"><ele>351.4</ele><time>2026-04-11T12:50:47.001Z</time></trkpt><trkpt lat="44.76745799543536" lon="9.996571115137433"><ele>351.0</ele><time>2026-04-11T12:50:48.001Z</time></trkpt><trkpt lat="44.76748849239569" lon="9.99643944056974"><ele>351.0</ele><time>2026-04-11T12:50:49.001Z</time></trkpt><trkpt lat="44.76751792832434" lon="9.996317016804346"><ele>351.0</ele><time>2026-04-11T12:50:50.001Z</time></trkpt><trkpt lat="44.767542755234444" lon="9.996184783233097"><ele>351.0</ele><time>2026-04-11T12:50:51.001Z</time></trkpt><trkpt lat="44.767565465576325" lon="9.996044790977612"><ele>351.0</ele><time>2026-04-11T12:50:52.001Z</time></trkpt><trkpt lat="44.76758640380328" lon="9.995883604905453"><ele>351.0</ele><time>2026-04-11T12:50:53.001Z</time></trkpt><trkpt lat="44.76760543217415" lon="9.995726911022675"><ele>349.4</ele><time>2026-04-11T12:50:54.001Z</time></trkpt><trkpt lat="44.76762240535163" lon="9.995587403572024"><ele>347.8</ele><time>2026-04-11T12:50:55.001Z</time></trkpt><trkpt lat="44.76763967656939" lon="9.995456128108877"><ele>346.2</ele><time>2026-04-11T12:50:56.001Z</time></trkpt><trkpt lat="44.767668199513956" lon="9.99532481812835"><ele>344.59999999999997</ele><time>2026-04-11T12:50:57.001Z</time></trkpt><trkpt lat="44.76769815483727" lon="9.995183741751974"><ele>343.0</ele><time>2026-04-11T12:50:58.001Z</time></trkpt><trkpt lat="44.76773062703921" lon="9.995039019193824"><ele>345.4</ele><time>2026-04-11T12:50:59.001Z</time></trkpt><trkpt lat="44.76776230360317" lon="9.99489675474944"><ele>347.79999999999995</ele><time>2026-04-11T12:51:00.001Z</time></trkpt><trkpt lat="44.76779262851917" lon="9.99475434502319"><ele>350.2</ele><time>2026-04-11T12:51:01.001Z</time></trkpt><trkpt lat="44.76782169257343" lon="9.994613614651929"><ele>352.6</ele><time>2026-04-11T12:51:02.001Z</time></trkpt><trkpt lat="44.76784555692564" lon="9.994468188195118"><ele>355.0</ele><time>2026-04-11T12:51:03.001Z</time></trkpt><trkpt lat="44.767866613771126" lon="9.994317226980634"><ele>353.25</ele><time>2026-04-11T12:51:04.001Z</time></trkpt><trkpt lat="44.76788230094802" lon="9.99416393956167"><ele>351.5</ele><time>2026-04-11T12:51:05.001Z</time></trkpt><trkpt lat="44.7679026164088" lon="9.994003365775177"><ele>349.75</ele><time>2026-04-11T12:51:06.001Z</time></trkpt><trkpt lat="44.76792754800578" lon="9.993828520965113"><ele>348.0</ele><time>2026-04-11T12:51:07.001Z</time></trkpt><trkpt lat="44.7679590124126" lon="9.99363599378844"><ele>348.0</ele><time>2026-04-11T12:51:08.001Z</time></trkpt><trkpt lat="44.76800035906709" lon="9.993428977268408"><ele>348.0</ele><time>2026-04-11T12:51:09.001Z</time></trkpt><trkpt lat="44.76804404504135" lon="9.993231918467362"><ele>348.0</ele><time>2026-04-11T12:51:10.001Z</time></trkpt><trkpt lat="44.76808671430174" lon="9.993046792644506"><ele>348.0</ele><time>2026-04-11T12:51:11.001Z</time></trkpt><trkpt lat="44.76812624757846" lon="9.992868530478747"><ele>345.25</ele><time>2026-04-11T12:51:12.001Z</time></trkpt><trkpt lat="44.768166394537694" lon="9.992698918897833"><ele>342.5</ele><time>2026-04-11T12:51:13.001Z</time></trkpt><trkpt lat="44.76820679457562" lon="9.992533812091706"><ele>339.75</ele><time>2026-04-11T12:51:14.001Z</time></trkpt><trkpt lat="44.76824149296323" lon="9.992385758409275"><ele>337.0</ele><time>2026-04-11T12:51:15.001Z</time></trkpt><trkpt lat="44.768270162312106" lon="9.99223404312172"><ele>335.40000000000003</ele><time>2026-04-11T12:51:16.001Z</time></trkpt><trkpt lat="44.768284835608426" lon="9.992088011491568"><ele>333.8</ele><time>2026-04-11T12:51:17.001Z</time></trkpt><trkpt lat="44.76828404210194" lon="9.991938794208671"><ele>332.2</ele><time>2026-04-11T12:51:18.002Z</time></trkpt><trkpt lat="44.76826211128808" lon="9.991800692839016"><ele>330.6</ele><time>2026-04-11T12:51:19.002Z</time></trkpt><trkpt lat="44.76823498688959" lon="9.991668158737442"><ele>329.0</ele><time>2026-04-11T12:51:20.002Z</time></trkpt><trkpt lat="44.768217289217006" lon="9.9915411302768"><ele>328.33333333333337</ele><time>2026-04-11T12:51:21.002Z</time></trkpt><trkpt lat="44.768215698396766" lon="9.991402658912044"><ele>327.6666666666667</ele><time>2026-04-11T12:51:22.002Z</time></trkpt><trkpt lat="44.76821747472365" lon="9.991267227744146"><ele>327.0</ele><time>2026-04-11T12:51:23.002Z</time></trkpt><trkpt lat="44.76821456420475" lon="9.991156239688799"><ele>326.3333333333333</ele><time>2026-04-11T12:51:24.002Z</time></trkpt><trkpt lat="44.76819355561628" lon="9.991051423763452"><ele>325.66666666666663</ele><time>2026-04-11T12:51:25.002Z</time></trkpt><trkpt lat="44.76815410228033" lon="9.990969620699692"><ele>325.0</ele><time>2026-04-11T12:51:26.002Z</time></trkpt><trkpt lat="44.76810456195052" lon="9.990881972169936"><ele>324.6</ele><time>2026-04-11T12:51:27.002Z</time></trkpt><trkpt lat="44.7680637927046" lon="9.990788261947724"><ele>324.2</ele><time>2026-04-11T12:51:28.002Z</time></trkpt><trkpt lat="44.76798980389431" lon="9.990696777529557"><ele>323.79999999999995</ele><time>2026-04-11T12:51:29.002Z</time></trkpt><trkpt lat="44.767910940676686" lon="9.99060666810149"><ele>323.4</ele><time>2026-04-11T12:51:30.002Z</time></trkpt><trkpt lat="44.7678439353367" lon="9.990529677443732"><ele>323.0</ele><time>2026-04-11T12:51:31.002Z</time></trkpt><trkpt lat="44.76776066451719" lon="9.990451316100412"><ele>322.2</ele><time>2026-04-11T12:51:32.002Z</time></trkpt><trkpt lat="44.767686346118886" lon="9.990369545179638"><ele>321.4</ele><time>2026-04-11T12:51:33Z</time></trkpt><trkpt lat="44.767610131656724" lon="9.990276552856118"><ele>320.59999999999997</ele><time>2026-04-11T12:51:34Z</time></trkpt><trkpt lat="44.76753639272678" lon="9.990190185758204"><ele>319.79999999999995</ele><time>2026-04-11T12:51:35Z</time></trkpt><trkpt lat="44.767438521111245" lon="9.990078684823207"><ele>319.0</ele><time>2026-04-11T12:51:36Z</time></trkpt><trkpt lat="44.767334882858" lon="9.989953007864644"><ele>319.0</ele><time>2026-04-11T12:51:37Z</time></trkpt><trkpt lat="44.7672317129062" lon="9.989814915696595"><ele>319.0</ele><time>2026-04-11T12:51:38Z</time></trkpt><trkpt lat="44.76712429159682" lon="9.989674779829976"><ele>319.0</ele><time>2026-04-11T12:51:39Z</time></trkpt><trkpt lat="44.76702328327441" lon="9.98956065976116"><ele>319.0</ele><time>2026-04-11T12:51:40Z</time></trkpt><trkpt lat="44.76693005505713" lon="9.989474413495516"><ele>318.8</ele><time>2026-04-11T12:51:41Z</time></trkpt><trkpt lat="44.766837951000966" lon="9.9894231335781"><ele>318.59999999999997</ele><time>2026-04-11T12:51:42Z</time></trkpt><trkpt lat="44.76675386856584" lon="9.989397370343852"><ele>318.4</ele><time>2026-04-11T12:51:43Z</time></trkpt><trkpt lat="44.766661029366354" lon="9.98937390945012"><ele>318.2</ele><time>2026-04-11T12:51:44Z</time></trkpt><trkpt lat="44.76656089991219" lon="9.989315904652704"><ele>318.0</ele><time>2026-04-11T12:51:45Z</time></trkpt><trkpt lat="44.7664563783188" lon="9.98926174699557"><ele>318.0</ele><time>2026-04-11T12:51:46Z</time></trkpt><trkpt lat="44.76636087023744" lon="9.989191902752811"><ele>318.0</ele><time>2026-04-11T12:51:47Z</time></trkpt><trkpt lat="44.76627008773232" lon="9.98910799504785"><ele>318.0</ele><time>2026-04-11T12:51:48Z</time></trkpt><trkpt lat="44.76617841225598" lon="9.989019085771904"><ele>318.0</ele><time>2026-04-11T12:51:49Z</time></trkpt><trkpt lat="44.76608533630428" lon="9.988956178567225"><ele>318.0</ele><time>2026-04-11T12:51:50Z</time></trkpt><trkpt lat="44.76600988192036" lon="9.988871279700895"><ele>321.8</ele><time>2026-04-11T12:51:51Z</time></trkpt><trkpt lat="44.76592466324704" lon="9.988797253718545"><ele>325.6</ele><time>2026-04-11T12:51:52Z</time></trkpt><trkpt lat="44.76585255839619" lon="9.988723258669287"><ele>329.40000000000003</ele><time>2026-04-11T12:51:53Z</time></trkpt><trkpt lat="44.76577697280764" lon="9.988661030213821"><ele>333.20000000000005</ele><time>2026-04-11T12:51:54Z</time></trkpt><trkpt lat="44.765691859477975" lon="9.988595474432119"><ele>337.0</ele><time>2026-04-11T12:51:55Z</time></trkpt><trkpt lat="44.76561273388894" lon="9.988535956610008"><ele>337.00000000000006</ele><time>2026-04-11T12:51:56Z</time></trkpt><trkpt lat="44.765524755905346" lon="9.988498776429982"><ele>337.0</ele><time>2026-04-11T12:51:57Z</time></trkpt><trkpt lat="44.76545139004593" lon="9.988442102555192"><ele>337.0</ele><time>2026-04-11T12:51:58Z</time></trkpt><trkpt lat="44.76539016335986" lon="9.988393895371482"><ele>337.0</ele><time>2026-04-11T12:51:59Z</time></trkpt><trkpt lat="44.765332785294355" lon="9.988354657017117"><ele>337.0</ele><time>2026-04-11T12:52:00Z</time></trkpt><trkpt lat="44.76527354661862" lon="9.988305227811495"><ele>337.00000000000006</ele><time>2026-04-11T12:52:01Z</time></trkpt><trkpt lat="44.76521640113338" lon="9.988256247793242"><ele>337.0</ele><time>2026-04-11T12:52:02Z</time></trkpt><trkpt lat="44.765136844643706" lon="9.988178646415879"><ele>337.75</ele><time>2026-04-11T12:52:04Z</time></trkpt><trkpt lat="44.76509607544724" lon="9.988092310674556"><ele>338.5</ele><time>2026-04-11T12:52:09Z</time></trkpt><trkpt lat="44.76492932626265" lon="9.988102038991792"><ele>339.25</ele><time>2026-04-11T12:53:40.999Z</time></trkpt><trkpt lat="44.7648342765508" lon="9.98807552133009"><ele>340.0</ele><time>2026-04-11T12:53:41.999Z</time></trkpt><trkpt lat="44.764734364659525" lon="9.987981968663094"><ele>340.0</ele><time>2026-04-11T12:53:42.999Z</time></trkpt><trkpt lat="44.76462713008958" lon="9.987945647842748"><ele>340.0</ele><time>2026-04-11T12:53:43.999Z</time></trkpt><trkpt lat="44.76453478207207" lon="9.987902042838385"><ele>340.0</ele><time>2026-04-11T12:53:44.999Z</time></trkpt><trkpt lat="44.764429728318646" lon="9.987883421310679"><ele>340.0</ele><time>2026-04-11T12:53:45.999Z</time></trkpt><trkpt lat="44.76430650024473" lon="9.987890936536061"><ele>340.0</ele><time>2026-04-11T12:53:46.999Z</time></trkpt><trkpt lat="44.76419128776423" lon="9.987892092459026"><ele>338.5</ele><time>2026-04-11T12:53:47.999Z</time></trkpt><trkpt lat="44.764087938046245" lon="9.98790971431939"><ele>337.0</ele><time>2026-04-11T12:53:48.999Z</time></trkpt><trkpt lat="44.763992704427594" lon="9.987948541410747"><ele>335.5</ele><time>2026-04-11T12:53:49.999Z</time></trkpt><trkpt lat="44.76390718667944" lon="9.987951524370773"><ele>334.0</ele><time>2026-04-11T12:53:51Z</time></trkpt><trkpt lat="44.76382774596741" lon="9.987935665630113"><ele>332.5</ele><time>2026-04-11T12:53:52Z</time></trkpt><trkpt lat="44.76376526278876" lon="9.987903445611332"><ele>331.0</ele><time>2026-04-11T12:53:53Z</time></trkpt><trkpt lat="44.7637166698064" lon="9.987823907699749"><ele>331.0</ele><time>2026-04-11T12:53:54Z</time></trkpt><trkpt lat="44.763684178362595" lon="9.987700044119416"><ele>331.0</ele><time>2026-04-11T12:53:55Z</time></trkpt><trkpt lat="44.763720797256454" lon="9.987559261929677"><ele>331.0</ele><time>2026-04-11T12:53:56Z</time></trkpt><trkpt lat="44.76376131030428" lon="9.987415597559425"><ele>331.0</ele><time>2026-04-11T12:53:57Z</time></trkpt><trkpt lat="44.763798684987485" lon="9.987249566996745"><ele>331.0</ele><time>2026-04-11T12:53:58Z</time></trkpt><trkpt lat="44.76384627646332" lon="9.987085332309174"><ele>332.5</ele><time>2026-04-11T12:53:59Z</time></trkpt><trkpt lat="44.76389819362604" lon="9.98690310895699"><ele>334.0</ele><time>2026-04-11T12:54:00Z</time></trkpt><trkpt lat="44.76396081861495" lon="9.98672121968824"><ele>335.5</ele><time>2026-04-11T12:54:01Z</time></trkpt><trkpt lat="44.764030028917475" lon="9.986539026039164"><ele>337.0</ele><time>2026-04-11T12:54:02Z</time></trkpt><trkpt lat="44.76409741873938" lon="9.986385334517111"><ele>337.0</ele><time>2026-04-11T12:54:03Z</time></trkpt><trkpt lat="44.76415112693801" lon="9.98624227793462"><ele>337.0</ele><time>2026-04-11T12:54:04Z</time></trkpt><trkpt lat="44.764178282836845" lon="9.986090643220242"><ele>337.0</ele><time>2026-04-11T12:54:05Z</time></trkpt><trkpt lat="44.764175259566485" lon="9.985920957411189"><ele>337.0</ele><time>2026-04-11T12:54:06Z</time></trkpt><trkpt lat="44.76413653296855" lon="9.985739921058824"><ele>336.5</ele><time>2026-04-11T12:54:07Z</time></trkpt><trkpt lat="44.76408343643747" lon="9.98555409105114"><ele>336.0</ele><time>2026-04-11T12:54:08Z</time></trkpt><trkpt lat="44.76403783220863" lon="9.98536806368675"><ele>335.5</ele><time>2026-04-11T12:54:09Z</time></trkpt><trkpt lat="44.76399982000175" lon="9.985184318832797"><ele>335.0</ele><time>2026-04-11T12:54:10Z</time></trkpt><trkpt lat="44.76392351543173" lon="9.98502885980907"><ele>335.33333333333337</ele><time>2026-04-11T12:54:11Z</time></trkpt><trkpt lat="44.76378841045606" lon="9.984924229182264"><ele>335.6666666666667</ele><time>2026-04-11T12:54:12Z</time></trkpt><trkpt lat="44.76364257245708" lon="9.984818227748384"><ele>336.0</ele><time>2026-04-11T12:54:13Z</time></trkpt><trkpt lat="44.76351863711834" lon="9.984660714021967"><ele>330.6666666666667</ele><time>2026-04-11T12:54:14Z</time></trkpt><trkpt lat="44.763388464656366" lon="9.984522613515086"><ele>325.33333333333337</ele><time>2026-04-11T12:54:15Z</time></trkpt><trkpt lat="44.763247941409176" lon="9.984428590374387"><ele>320.0</ele><time>2026-04-11T12:54:16Z</time></trkpt><trkpt lat="44.763122637640954" lon="9.98433061260244"><ele>320.0</ele><time>2026-04-11T12:54:17Z</time></trkpt><trkpt lat="44.76300809231758" lon="9.984243479733628"><ele>320.0</ele><time>2026-04-11T12:54:18Z</time></trkpt><trkpt lat="44.762912969514716" lon="9.984128232378197"><ele>320.0</ele><time>2026-04-11T12:54:19Z</time></trkpt><trkpt lat="44.76282123042652" lon="9.984013824742794"><ele>320.0</ele><time>2026-04-11T12:54:20Z</time></trkpt><trkpt lat="44.76272540662227" lon="9.983905304062024"><ele>320.2</ele><time>2026-04-11T12:54:21Z</time></trkpt><trkpt lat="44.762641335389056" lon="9.983770867064822"><ele>320.4</ele><time>2026-04-11T12:54:22Z</time></trkpt><trkpt lat="44.76256246298444" lon="9.983659983610638"><ele>320.6</ele><time>2026-04-11T12:54:23Z</time></trkpt><trkpt lat="44.76248011641848" lon="9.983586174546044"><ele>320.8</ele><time>2026-04-11T12:54:24Z</time></trkpt><trkpt lat="44.762385211486254" lon="9.983565426254128"><ele>321.0</ele><time>2026-04-11T12:54:25Z</time></trkpt><trkpt lat="44.762289226707445" lon="9.983611873471055"><ele>321.0</ele><time>2026-04-11T12:54:26Z</time></trkpt><trkpt lat="44.76219708740185" lon="9.983694293771768"><ele>321.0</ele><time>2026-04-11T12:54:27.001Z</time></trkpt><trkpt lat="44.762118205023135" lon="9.983807951969416"><ele>321.0</ele><time>2026-04-11T12:54:28.001Z</time></trkpt><trkpt lat="44.76205609738958" lon="9.983930074783192"><ele>321.0</ele><time>2026-04-11T12:54:29.001Z</time></trkpt><trkpt lat="44.7620141559942" lon="9.984054262906065"><ele>321.0</ele><time>2026-04-11T12:54:30.001Z</time></trkpt><trkpt lat="44.76198490391355" lon="9.98417758026142"><ele>319.6666666666667</ele><time>2026-04-11T12:54:31.001Z</time></trkpt><trkpt lat="44.76194571905935" lon="9.984264269985822"><ele>318.3333333333333</ele><time>2026-04-11T12:54:32.001Z</time></trkpt><trkpt lat="44.76191287574857" lon="9.98436752850582"><ele>317.0</ele><time>2026-04-11T12:54:33.001Z</time></trkpt><trkpt lat="44.76185025502834" lon="9.984426455813493"><ele>315.66666666666663</ele><time>2026-04-11T12:54:34.001Z</time></trkpt><trkpt lat="44.76177100424308" lon="9.984457203689068"><ele>314.3333333333333</ele><time>2026-04-11T12:54:35.001Z</time></trkpt><trkpt lat="44.761692117352894" lon="9.984439266807266"><ele>313.0</ele><time>2026-04-11T12:54:36.001Z</time></trkpt><trkpt lat="44.761616377900005" lon="9.98438179792204"><ele>313.0</ele><time>2026-04-11T12:54:37.001Z</time></trkpt><trkpt lat="44.76154109540423" lon="9.984298776454331"><ele>313.0</ele><time>2026-04-11T12:54:38.001Z</time></trkpt><trkpt lat="44.76146006692847" lon="9.984213698986844"><ele>313.0</ele><time>2026-04-11T12:54:39.001Z</time></trkpt><trkpt lat="44.761389059389906" lon="9.984133317133855"><ele>313.0</ele><time>2026-04-11T12:54:40.001Z</time></trkpt><trkpt lat="44.76131730027655" lon="9.984050537487617"><ele>313.0</ele><time>2026-04-11T12:54:41.001Z</time></trkpt><trkpt lat="44.761247763680615" lon="9.983970748393105"><ele>312.8333333333333</ele><time>2026-04-11T12:54:42.001Z</time></trkpt><trkpt lat="44.761181108888024" lon="9.983890176504534"><ele>312.66666666666663</ele><time>2026-04-11T12:54:43.001Z</time></trkpt><trkpt lat="44.76111862717597" lon="9.983808335504474"><ele>312.5</ele><time>2026-04-11T12:54:44.001Z</time></trkpt><trkpt lat="44.76105944813361" lon="9.98372841212862"><ele>312.3333333333333</ele><time>2026-04-11T12:54:45.001Z</time></trkpt><trkpt lat="44.76099788629041" lon="9.983648345440375"><ele>312.1666666666667</ele><time>2026-04-11T12:54:46.001Z</time></trkpt><trkpt lat="44.760937197968275" lon="9.983572810007397"><ele>312.0</ele><time>2026-04-11T12:54:47.001Z</time></trkpt><trkpt lat="44.76085865516149" lon="9.983526576700275"><ele>312.0</ele><time>2026-04-11T12:54:48.001Z</time></trkpt><trkpt lat="44.760783852695695" lon="9.983508693496653"><ele>312.0</ele><time>2026-04-11T12:54:49.001Z</time></trkpt><trkpt lat="44.76070255591044" lon="9.983525822280864"><ele>312.0</ele><time>2026-04-11T12:54:50.001Z</time></trkpt><trkpt lat="44.76062640987606" lon="9.983587483148408"><ele>312.0</ele><time>2026-04-11T12:54:51.001Z</time></trkpt><trkpt lat="44.760543701829214" lon="9.98368473331333"><ele>312.0</ele><time>2026-04-11T12:54:52.001Z</time></trkpt><trkpt lat="44.760456093097375" lon="9.983790831795167"><ele>312.0</ele><time>2026-04-11T12:54:53.001Z</time></trkpt><trkpt lat="44.760359625552326" lon="9.983891262410946"><ele>312.0</ele><time>2026-04-11T12:54:54.001Z</time></trkpt><trkpt lat="44.760263449161805" lon="9.983988425197264"><ele>312.0</ele><time>2026-04-11T12:54:55.001Z</time></trkpt><trkpt lat="44.760166764092936" lon="9.984075944718963"><ele>312.0</ele><time>2026-04-11T12:54:56.001Z</time></trkpt><trkpt lat="44.76007149108484" lon="9.984167182805246"><ele>310.4</ele><time>2026-04-11T12:54:57.001Z</time></trkpt><trkpt lat="44.75998028996714" lon="9.984256830724618"><ele>308.79999999999995</ele><time>2026-04-11T12:54:58.001Z</time></trkpt><trkpt lat="44.759891433977586" lon="9.984347431072303"><ele>307.2</ele><time>2026-04-11T12:54:59.001Z</time></trkpt><trkpt lat="44.75981473836728" lon="9.984445212626744"><ele>305.59999999999997</ele><time>2026-04-11T12:55:00.001Z</time></trkpt><trkpt lat="44.75975498467984" lon="9.984567717302433"><ele>304.0</ele><time>2026-04-11T12:55:01.001Z</time></trkpt><trkpt lat="44.75972669025856" lon="9.984722392096602"><ele>304.0</ele><time>2026-04-11T12:55:02.001Z</time></trkpt><trkpt lat="44.759724479072375" lon="9.984882027485495"><ele>304.0</ele><time>2026-04-11T12:55:03.001Z</time></trkpt><trkpt lat="44.75974822800674" lon="9.985040984752557"><ele>304.0</ele><time>2026-04-11T12:55:04.001Z</time></trkpt><trkpt lat="44.75980444927421" lon="9.985175880750194"><ele>304.0</ele><time>2026-04-11T12:55:05.001Z</time></trkpt><trkpt lat="44.75983966663205" lon="9.985310707618384"><ele>304.0</ele><time>2026-04-11T12:55:06.001Z</time></trkpt><trkpt lat="44.75988040806298" lon="9.985434035271561"><ele>303.5</ele><time>2026-04-11T12:55:07.001Z</time></trkpt><trkpt lat="44.75990007655868" lon="9.985561510627704"><ele>303.0</ele><time>2026-04-11T12:55:08.001Z</time></trkpt><trkpt lat="44.759898357658884" lon="9.985719882550384"><ele>302.5</ele><time>2026-04-11T12:55:09.001Z</time></trkpt><trkpt lat="44.75987989401803" lon="9.98589213206538"><ele>302.0</ele><time>2026-04-11T12:55:10.001Z</time></trkpt><trkpt lat="44.75984774359123" lon="9.986073158274927"><ele>301.25</ele><time>2026-04-11T12:55:11.001Z</time></trkpt><trkpt lat="44.75980757533079" lon="9.98625417692155"><ele>300.5</ele><time>2026-04-11T12:55:12.001Z</time></trkpt><trkpt lat="44.75976159386379" lon="9.986441735263677"><ele>299.75</ele><time>2026-04-11T12:55:13.001Z</time></trkpt><trkpt lat="44.75971231823837" lon="9.986631645563513"><ele>299.0</ele><time>2026-04-11T12:55:14.001Z</time></trkpt><trkpt lat="44.759671377673506" lon="9.986822333298878"><ele>297.75</ele><time>2026-04-11T12:55:15.001Z</time></trkpt><trkpt lat="44.75966630708961" lon="9.987007632028066"><ele>296.5</ele><time>2026-04-11T12:55:16.001Z</time></trkpt><trkpt lat="44.75966853937558" lon="9.987185691829767"><ele>295.25</ele><time>2026-04-11T12:55:17.001Z</time></trkpt><trkpt lat="44.759683296252355" lon="9.987356041525178"><ele>294.0</ele><time>2026-04-11T12:55:18.001Z</time></trkpt><trkpt lat="44.7596913390284" lon="9.987517038056144"><ele>292.4</ele><time>2026-04-11T12:55:19.001Z</time></trkpt><trkpt lat="44.75968079330558" lon="9.98766619725561"><ele>290.79999999999995</ele><time>2026-04-11T12:55:20.001Z</time></trkpt><trkpt lat="44.75961687549304" lon="9.987766790161087"><ele>289.20000000000005</ele><time>2026-04-11T12:55:21.001Z</time></trkpt><trkpt lat="44.75955711409607" lon="9.987872887843222"><ele>287.6</ele><time>2026-04-11T12:55:22.001Z</time></trkpt><trkpt lat="44.75947159318159" lon="9.987964323484965"><ele>286.0</ele><time>2026-04-11T12:55:23.001Z</time></trkpt><trkpt lat="44.759399524133194" lon="9.988079499117347"><ele>286.75</ele><time>2026-04-11T12:55:24.001Z</time></trkpt><trkpt lat="44.7593477672915" lon="9.988237134476707"><ele>287.5</ele><time>2026-04-11T12:55:25.002Z</time></trkpt><trkpt lat="44.75928778156916" lon="9.988413122030959"><ele>288.25</ele><time>2026-04-11T12:55:26.002Z</time></trkpt><trkpt lat="44.75924350550977" lon="9.988587614722364"><ele>289.0</ele><time>2026-04-11T12:55:27.002Z</time></trkpt><trkpt lat="44.75920624605369" lon="9.988741324871878"><ele>289.0</ele><time>2026-04-11T12:55:28.002Z</time></trkpt><trkpt lat="44.75918474113306" lon="9.98888358866289"><ele>289.0</ele><time>2026-04-11T12:55:29.002Z</time></trkpt><trkpt lat="44.75914345524197" lon="9.988995825003276"><ele>289.0</ele><time>2026-04-11T12:55:30.002Z</time></trkpt><trkpt lat="44.7590866638588" lon="9.98907733611181"><ele>289.0</ele><time>2026-04-11T12:55:31.002Z</time></trkpt><trkpt lat="44.759010089278505" lon="9.989097225502066"><ele>289.0</ele><time>2026-04-11T12:55:32.002Z</time></trkpt><trkpt lat="44.758931109527076" lon="9.98906281307481"><ele>289.0</ele><time>2026-04-11T12:55:33.002Z</time></trkpt><trkpt lat="44.75887484767303" lon="9.98893225519506"><ele>289.0</ele><time>2026-04-11T12:55:34.002Z</time></trkpt><trkpt lat="44.75881293003882" lon="9.98879682397912"><ele>289.0</ele><time>2026-04-11T12:55:35.002Z</time></trkpt><trkpt lat="44.758726076380384" lon="9.988653848020071"><ele>289.0</ele><time>2026-04-11T12:55:36.002Z</time></trkpt><trkpt lat="44.75864783626172" lon="9.988494399155886"><ele>289.0</ele><time>2026-04-11T12:55:37.002Z</time></trkpt><trkpt lat="44.758560386941674" lon="9.988337230674034"><ele>288.25</ele><time>2026-04-11T12:55:38.002Z</time></trkpt><trkpt lat="44.75847397990046" lon="9.988172756515809"><ele>287.5</ele><time>2026-04-11T12:55:39.002Z</time></trkpt><trkpt lat="44.758428933099545" lon="9.987998429237065"><ele>286.75</ele><time>2026-04-11T12:55:40.002Z</time></trkpt><trkpt lat="44.75838269260041" lon="9.987842687951643"><ele>286.0</ele><time>2026-04-11T12:55:41.002Z</time></trkpt><trkpt lat="44.758358796265846" lon="9.987693585840821"><ele>286.0</ele><time>2026-04-11T12:55:42.002Z</time></trkpt><trkpt lat="44.75833912916161" lon="9.98753303885481"><ele>286.0</ele><time>2026-04-11T12:55:43.002Z</time></trkpt><trkpt lat="44.7583124807337" lon="9.987382213367578"><ele>286.0</ele><time>2026-04-11T12:55:44.002Z</time></trkpt><trkpt lat="44.758256328001" lon="9.987257770200998"><ele>286.0</ele><time>2026-04-11T12:55:45Z</time></trkpt><trkpt lat="44.75819099031785" lon="9.987146514132514"><ele>286.0</ele><time>2026-04-11T12:55:46Z</time></trkpt><trkpt lat="44.75809309140393" lon="9.987072420576679"><ele>287.75</ele><time>2026-04-11T12:55:47Z</time></trkpt><trkpt lat="44.75797277466304" lon="9.98701745304836"><ele>289.5</ele><time>2026-04-11T12:55:48Z</time></trkpt><trkpt lat="44.75784128155557" lon="9.98696379375164"><ele>291.25</ele><time>2026-04-11T12:55:49Z</time></trkpt><trkpt lat="44.75772449554196" lon="9.986873604720092"><ele>293.0</ele><time>2026-04-11T12:55:50Z</time></trkpt><trkpt lat="44.75761886960878" lon="9.986811616330137"><ele>288.75</ele><time>2026-04-11T12:55:51Z</time></trkpt><trkpt lat="44.75749868492646" lon="9.986811905007974"><ele>284.5</ele><time>2026-04-11T12:55:52Z</time></trkpt><trkpt lat="44.75737072128542" lon="9.98684124224747"><ele>280.25</ele><time>2026-04-11T12:55:53Z</time></trkpt><trkpt lat="44.75723808056351" lon="9.986931277942585"><ele>276.0</ele><time>2026-04-11T12:55:54Z</time></trkpt><trkpt lat="44.757106606949456" lon="9.987055581938304"><ele>276.0</ele><time>2026-04-11T12:55:55Z</time></trkpt><trkpt lat="44.75699146805216" lon="9.987181473920426"><ele>276.0</ele><time>2026-04-11T12:55:56Z</time></trkpt><trkpt lat="44.75687395813229" lon="9.98727929025975"><ele>276.0</ele><time>2026-04-11T12:55:57Z</time></trkpt><trkpt lat="44.756761012680364" lon="9.987359722417358"><ele>276.0</ele><time>2026-04-11T12:55:58Z</time></trkpt><trkpt lat="44.75664914160934" lon="9.987428522954342"><ele>275.25</ele><time>2026-04-11T12:55:59Z</time></trkpt><trkpt lat="44.756532935489126" lon="9.987487592548376"><ele>274.5</ele><time>2026-04-11T12:56:00Z</time></trkpt><trkpt lat="44.75641380343573" lon="9.987549392555934"><ele>273.75</ele><time>2026-04-11T12:56:01Z</time></trkpt><trkpt lat="44.756290297294875" lon="9.987604709527679"><ele>273.0</ele><time>2026-04-11T12:56:02Z</time></trkpt><trkpt lat="44.756165000350556" lon="9.987644003111702"><ele>270.8</ele><time>2026-04-11T12:56:03Z</time></trkpt><trkpt lat="44.75604781066497" lon="9.987631947166795"><ele>268.6</ele><time>2026-04-11T12:56:04Z</time></trkpt><trkpt lat="44.755934656329394" lon="9.987644364708654"><ele>266.4</ele><time>2026-04-11T12:56:05Z</time></trkpt><trkpt lat="44.75582634095717" lon="9.987614557856576"><ele>264.2</ele><time>2026-04-11T12:56:06Z</time></trkpt><trkpt lat="44.755721831947234" lon="9.987596031164035"><ele>262.0</ele><time>2026-04-11T12:56:07Z</time></trkpt><trkpt lat="44.755617152361616" lon="9.98759740564093"><ele>261.2</ele><time>2026-04-11T12:56:08Z</time></trkpt><trkpt lat="44.755518456256794" lon="9.987625087310064"><ele>260.4</ele><time>2026-04-11T12:56:09Z</time></trkpt><trkpt lat="44.75542416525225" lon="9.98766677779875"><ele>259.6</ele><time>2026-04-11T12:56:10Z</time></trkpt><trkpt lat="44.755330104395526" lon="9.987712639891516"><ele>258.8</ele><time>2026-04-11T12:56:11Z</time></trkpt><trkpt lat="44.755220569802354" lon="9.987734120083372"><ele>258.0</ele><time>2026-04-11T12:56:12Z</time></trkpt><trkpt lat="44.75511000621818" lon="9.98780587649162"><ele>257.75</ele><time>2026-04-11T12:56:13Z</time></trkpt><trkpt lat="44.75498778876892" lon="9.987845403551319"><ele>257.5</ele><time>2026-04-11T12:56:14Z</time></trkpt><trkpt lat="44.7548764218462" lon="9.987894943403138"><ele>257.25</ele><time>2026-04-11T12:56:15Z</time></trkpt><trkpt lat="44.754763874505734" lon="9.987930161908588"><ele>257.0</ele><time>2026-04-11T12:56:16Z</time></trkpt><trkpt lat="44.754649237588296" lon="9.987953873478213"><ele>257.0</ele><time>2026-04-11T12:56:17Z</time></trkpt><trkpt lat="44.754533846104636" lon="9.987957910487607"><ele>257.0</ele><time>2026-04-11T12:56:18Z</time></trkpt><trkpt lat="44.75442348621672" lon="9.987944402181713"><ele>257.0</ele><time>2026-04-11T12:56:19Z</time></trkpt><trkpt lat="44.75431056164211" lon="9.987906856139803"><ele>257.0</ele><time>2026-04-11T12:56:20Z</time></trkpt><trkpt lat="44.75420209754296" lon="9.987840484827645"><ele>255.5</ele><time>2026-04-11T12:56:21Z</time></trkpt><trkpt lat="44.75409917396454" lon="9.987733458824874"><ele>254.0</ele><time>2026-04-11T12:56:22Z</time></trkpt><trkpt lat="44.753978849957726" lon="9.987604214793798"><ele>252.5</ele><time>2026-04-11T12:56:23Z</time></trkpt><trkpt lat="44.75383899367341" lon="9.987467695005954"><ele>251.0</ele><time>2026-04-11T12:56:24Z</time></trkpt><trkpt lat="44.75366087582103" lon="9.987341286280273"><ele>251.33333333333334</ele><time>2026-04-11T12:56:25.001Z</time></trkpt><trkpt lat="44.753473853603225" lon="9.987232961569614"><ele>251.66666666666669</ele><time>2026-04-11T12:56:26.001Z</time></trkpt><trkpt lat="44.75331163887275" lon="9.987137163136682"><ele>252.0</ele><time>2026-04-11T12:56:27.001Z</time></trkpt><trkpt lat="44.75317399614804" lon="9.987037014851307"><ele>252.0</ele><time>2026-04-11T12:56:28.001Z</time></trkpt><trkpt lat="44.753037528888854" lon="9.986907212901265"><ele>252.0</ele><time>2026-04-11T12:56:29.001Z</time></trkpt><trkpt lat="44.75291174649379" lon="9.986761043662561"><ele>252.0</ele><time>2026-04-11T12:56:30.001Z</time></trkpt><trkpt lat="44.75278294612898" lon="9.986612726594535"><ele>251.0</ele><time>2026-04-11T12:56:31.001Z</time></trkpt><trkpt lat="44.75266242444838" lon="9.986480732744665"><ele>250.0</ele><time>2026-04-11T12:56:32.001Z</time></trkpt><trkpt lat="44.75255653288672" lon="9.986364829817028"><ele>249.0</ele><time>2026-04-11T12:56:33.001Z</time></trkpt><trkpt lat="44.75246573411788" lon="9.986282863508533"><ele>248.0</ele><time>2026-04-11T12:56:34.001Z</time></trkpt><trkpt lat="44.75238477904327" lon="9.986225813056768"><ele>248.0</ele><time>2026-04-11T12:56:35.001Z</time></trkpt><trkpt lat="44.752318759367974" lon="9.986166537074437"><ele>248.0</ele><time>2026-04-11T12:56:36.001Z</time></trkpt><trkpt lat="44.75226112403413" lon="9.986118073954731"><ele>248.0</ele><time>2026-04-11T12:56:37.001Z</time></trkpt><trkpt lat="44.75214573662469" lon="9.98622460349487"><ele>248.0</ele><time>2026-04-11T12:56:38.001Z</time></trkpt><trkpt lat="44.75206853286802" lon="9.986268566728604"><ele>248.0</ele><time>2026-04-11T12:56:39.001Z</time></trkpt><trkpt lat="44.751978667466325" lon="9.986284016473961"><ele>248.00000000000003</ele><time>2026-04-11T12:56:40.001Z</time></trkpt><trkpt lat="44.751901310646325" lon="9.986338456739675"><ele>248.0</ele><time>2026-04-11T12:56:41.001Z</time></trkpt><trkpt lat="44.75181773726209" lon="9.9863697345865"><ele>248.0</ele><time>2026-04-11T12:56:42.001Z</time></trkpt><trkpt lat="44.75174531837624" lon="9.986401736877035"><ele>248.0</ele><time>2026-04-11T12:56:43.001Z</time></trkpt><trkpt lat="44.751681256314185" lon="9.986436333822152"><ele>248.00000000000003</ele><time>2026-04-11T12:56:44.001Z</time></trkpt><trkpt lat="44.75162035434825" lon="9.98646550735616"><ele>248.0</ele><time>2026-04-11T12:56:45.001Z</time></trkpt><trkpt lat="44.75150862364221" lon="9.986428757405184"><ele>247.83333333333334</ele><time>2026-04-11T12:56:47.001Z</time></trkpt><trkpt lat="44.75140472269685" lon="9.986386228791527"><ele>247.66666666666669</ele><time>2026-04-11T12:56:49.001Z</time></trkpt><trkpt lat="44.75133757449848" lon="9.98634034203127"><ele>247.5</ele><time>2026-04-11T12:56:50.001Z</time></trkpt><trkpt lat="44.75126696209079" lon="9.986289793570903"><ele>247.33333333333331</ele><time>2026-04-11T12:56:51.001Z</time></trkpt><trkpt lat="44.75118358268618" lon="9.986240339439485"><ele>247.16666666666666</ele><time>2026-04-11T12:56:52.001Z</time></trkpt><trkpt lat="44.75110304135512" lon="9.986174142142223"><ele>247.0</ele><time>2026-04-11T12:56:53.001Z</time></trkpt><trkpt lat="44.751018277540624" lon="9.986099157799867"><ele>247.0</ele><time>2026-04-11T12:56:54.001Z</time></trkpt><trkpt lat="44.75092921866557" lon="9.98600583120474"><ele>247.0</ele><time>2026-04-11T12:56:55.001Z</time></trkpt><trkpt lat="44.75084547776464" lon="9.985899383858337"><ele>247.0</ele><time>2026-04-11T12:56:56.001Z</time></trkpt><trkpt lat="44.75076263554487" lon="9.985839290512205"><ele>247.0</ele><time>2026-04-11T12:56:57.001Z</time></trkpt><trkpt lat="44.75071317879445" lon="9.985742882568564"><ele>247.0</ele><time>2026-04-11T12:56:58.001Z</time></trkpt><trkpt lat="44.750669584740734" lon="9.985651663942933"><ele>247.0</ele><time>2026-04-11T12:56:59.001Z</time></trkpt><trkpt lat="44.750623375865636" lon="9.985547763989961"><ele>247.0</ele><time>2026-04-11T12:57:00.001Z</time></trkpt><trkpt lat="44.75057443163772" lon="9.985429911335727"><ele>247.0</ele><time>2026-04-11T12:57:01.001Z</time></trkpt><trkpt lat="44.75053054399597" lon="9.9853207181798"><ele>247.0</ele><time>2026-04-11T12:57:02.001Z</time></trkpt><trkpt lat="44.75048833880434" lon="9.985213201089913"><ele>247.0</ele><time>2026-04-11T12:57:03.001Z</time></trkpt><trkpt lat="44.75044394324906" lon="9.985100103602516"><ele>247.49999999999997</ele><time>2026-04-11T12:57:04.001Z</time></trkpt><trkpt lat="44.750400744774325" lon="9.984993846199195"><ele>248.0</ele><time>2026-04-11T12:57:05.001Z</time></trkpt><trkpt lat="44.750355491546195" lon="9.984903953872584"><ele>248.5</ele><time>2026-04-11T12:57:06.001Z</time></trkpt><trkpt lat="44.75029963660036" lon="9.984832962671685"><ele>249.0</ele><time>2026-04-11T12:57:07.001Z</time></trkpt><trkpt lat="44.750244837027644" lon="9.984781270901365"><ele>249.49999999999997</ele><time>2026-04-11T12:57:08.001Z</time></trkpt><trkpt lat="44.75014276003814" lon="9.98477859738009"><ele>250.0</ele><time>2026-04-11T12:57:10.001Z</time></trkpt><trkpt lat="44.75007177845698" lon="9.984745524667474"><ele>250.16666666666666</ele><time>2026-04-11T12:57:12.001Z</time></trkpt><trkpt lat="44.74999081239992" lon="9.984745721124714"><ele>250.33333333333331</ele><time>2026-04-11T12:57:14.001Z</time></trkpt><trkpt lat="44.749907857415835" lon="9.984718417055516"><ele>250.5</ele><time>2026-04-11T12:57:16.001Z</time></trkpt><trkpt lat="44.74979765048878" lon="9.984688582257746"><ele>250.66666666666669</ele><time>2026-04-11T12:57:18.002Z</time></trkpt><trkpt lat="44.749735990768066" lon="9.984637265147274"><ele>250.83333333333334</ele><time>2026-04-11T12:57:19.002Z</time></trkpt><trkpt lat="44.7496641068144" lon="9.984587670317593"><ele>251.0</ele><time>2026-04-11T12:57:20.002Z</time></trkpt><trkpt lat="44.74959505613889" lon="9.98453341890054"><ele>251.00000000000003</ele><time>2026-04-11T12:57:21.002Z</time></trkpt><trkpt lat="44.74953134621094" lon="9.984494856656179"><ele>251.0</ele><time>2026-04-11T12:57:22.002Z</time></trkpt><trkpt lat="44.74942895772656" lon="9.984482506648595"><ele>251.0</ele><time>2026-04-11T12:57:24.002Z</time></trkpt><trkpt lat="44.74949323112659" lon="9.984504737827667"><ele>251.0</ele><time>2026-04-11T12:57:53Z</time></trkpt><trkpt lat="44.749564904199545" lon="9.984514076579154"><ele>251.00000000000003</ele><time>2026-04-11T12:57:56Z</time></trkpt><trkpt lat="44.74962526461478" lon="9.984551703293166"><ele>251.0</ele><time>2026-04-11T12:58:00Z</time></trkpt><trkpt lat="44.749719732621315" lon="9.98462552410753"><ele>251.0</ele><time>2026-04-11T12:58:04Z</time></trkpt><trkpt lat="44.74980478210788" lon="9.984680360570202"><ele>251.00000000000003</ele><time>2026-04-11T12:58:06Z</time></trkpt><trkpt lat="44.749867257403736" lon="9.984705083471225"><ele>251.00000000000003</ele><time>2026-04-11T12:58:08Z</time></trkpt><trkpt lat="44.74994583944576" lon="9.984687506365159"><ele>251.0</ele><time>2026-04-11T12:58:12Z</time></trkpt><trkpt lat="44.750048056157176" lon="9.984662534919224"><ele>251.0</ele><time>2026-04-11T12:58:14Z</time></trkpt><trkpt lat="44.750126618613606" lon="9.984791810501536"><ele>250.75</ele><time>2026-04-11T12:58:15Z</time></trkpt><trkpt lat="44.7502709848006" lon="9.984783164475969"><ele>250.5</ele><time>2026-04-11T12:58:17Z</time></trkpt><trkpt lat="44.75035464240116" lon="9.984800590584868"><ele>250.25</ele><time>2026-04-11T12:58:18Z</time></trkpt><trkpt lat="44.75038915342728" lon="9.985000981271249"><ele>250.0</ele><time>2026-04-11T12:58:19Z</time></trkpt><trkpt lat="44.750430972689735" lon="9.98510066689246"><ele>249.49999999999997</ele><time>2026-04-11T12:58:20Z</time></trkpt><trkpt lat="44.75047571961627" lon="9.985227692652211"><ele>249.0</ele><time>2026-04-11T12:58:21Z</time></trkpt><trkpt lat="44.750525843708026" lon="9.98535505652144"><ele>248.5</ele><time>2026-04-11T12:58:22Z</time></trkpt><trkpt lat="44.75057010639923" lon="9.98547204505904"><ele>248.0</ele><time>2026-04-11T12:58:23Z</time></trkpt><trkpt lat="44.750601811562014" lon="9.98555727159668"><ele>247.49999999999997</ele><time>2026-04-11T12:58:24Z</time></trkpt><trkpt lat="44.75063527339753" lon="9.985633193204894"><ele>247.0</ele><time>2026-04-11T12:58:25Z</time></trkpt><trkpt lat="44.75071895867067" lon="9.985769565742093"><ele>247.0</ele><time>2026-04-11T12:58:27Z</time></trkpt><trkpt lat="44.75076970684018" lon="9.985835172013173"><ele>247.0</ele><time>2026-04-11T12:58:28Z</time></trkpt><trkpt lat="44.750838697736214" lon="9.985913759338494"><ele>247.0</ele><time>2026-04-11T12:58:29Z</time></trkpt><trkpt lat="44.75091708758918" lon="9.985992055504841"><ele>247.0</ele><time>2026-04-11T12:58:30Z</time></trkpt><trkpt lat="44.751006824948156" lon="9.986076608380293"><ele>247.0</ele><time>2026-04-11T12:58:31Z</time></trkpt><trkpt lat="44.75108107273303" lon="9.986188492692168"><ele>246.99999999999997</ele><time>2026-04-11T12:58:32Z</time></trkpt><trkpt lat="44.751163959995864" lon="9.986256333186667"><ele>247.0</ele><time>2026-04-11T12:58:33Z</time></trkpt><trkpt lat="44.75124276823377" lon="9.986316504215884"><ele>247.0</ele><time>2026-04-11T12:58:34Z</time></trkpt><trkpt lat="44.751323300611226" lon="9.986374701941662"><ele>247.0</ele><time>2026-04-11T12:58:35Z</time></trkpt><trkpt lat="44.751394804134755" lon="9.986423290640516"><ele>246.99999999999997</ele><time>2026-04-11T12:58:36.001Z</time></trkpt><trkpt lat="44.75146674719291" lon="9.986459706068711"><ele>247.0</ele><time>2026-04-11T12:58:37.001Z</time></trkpt><trkpt lat="44.75153008486312" lon="9.98648469659763"><ele>247.0</ele><time>2026-04-11T12:58:38.001Z</time></trkpt><trkpt lat="44.75160149055911" lon="9.98650305009045"><ele>247.0</ele><time>2026-04-11T12:58:40.001Z</time></trkpt><trkpt lat="44.75169959689654" lon="9.98646118595644"><ele>247.0</ele><time>2026-04-11T12:58:46.001Z</time></trkpt><trkpt lat="44.751823973223" lon="9.98640015426034"><ele>247.0</ele><time>2026-04-11T12:58:48.001Z</time></trkpt><trkpt lat="44.751935106462106" lon="9.986351395264778"><ele>247.0</ele><time>2026-04-11T12:58:50.001Z</time></trkpt><trkpt lat="44.75201974648644" lon="9.986315384815486"><ele>247.2</ele><time>2026-04-11T12:59:47.002Z</time></trkpt><trkpt lat="44.75211558401167" lon="9.98626093129822"><ele>247.39999999999998</ele><time>2026-04-11T12:59:49.002Z</time></trkpt><trkpt lat="44.752220829335904" lon="9.98624736217174"><ele>247.60000000000002</ele><time>2026-04-11T12:59:51.002Z</time></trkpt><trkpt lat="44.752307223416175" lon="9.986225826136591"><ele>247.8</ele><time>2026-04-11T12:59:53.002Z</time></trkpt><trkpt lat="44.752218718433" lon="9.986113032118041"><ele>248.0</ele><time>2026-04-11T13:00:02Z</time></trkpt><trkpt lat="44.75208633499647" lon="9.985990883758433"><ele>248.0</ele><time>2026-04-11T13:00:03Z</time></trkpt><trkpt lat="44.75198661272099" lon="9.985913275324291"><ele>248.0</ele><time>2026-04-11T13:00:04Z</time></trkpt><trkpt lat="44.75189199222165" lon="9.985829385245392"><ele>248.0</ele><time>2026-04-11T13:00:05Z</time></trkpt><trkpt lat="44.75179657069055" lon="9.985726587922661"><ele>248.0</ele><time>2026-04-11T13:00:06Z</time></trkpt><trkpt lat="44.75172473180993" lon="9.985590054779536"><ele>248.60000000000002</ele><time>2026-04-11T13:00:07Z</time></trkpt><trkpt lat="44.751651123925804" lon="9.985454105798077"><ele>249.20000000000002</ele><time>2026-04-11T13:00:08Z</time></trkpt><trkpt lat="44.75158723491839" lon="9.98532285696253"><ele>249.8</ele><time>2026-04-11T13:00:09Z</time></trkpt><trkpt lat="44.75152725936003" lon="9.985194089894296"><ele>250.4</ele><time>2026-04-11T13:00:10Z</time></trkpt><trkpt lat="44.75148539528573" lon="9.985061408736325"><ele>251.0</ele><time>2026-04-11T13:00:11Z</time></trkpt><trkpt lat="44.751463859811295" lon="9.984924878727876"><ele>251.8</ele><time>2026-04-11T13:00:12Z</time></trkpt><trkpt lat="44.75145559471918" lon="9.984794061865145"><ele>252.60000000000002</ele><time>2026-04-11T13:00:13Z</time></trkpt><trkpt lat="44.751447031895495" lon="9.984661366425572"><ele>253.4</ele><time>2026-04-11T13:00:14Z</time></trkpt><trkpt lat="44.75149252988715" lon="9.984539708006176"><ele>254.2</ele><time>2026-04-11T13:00:15Z</time></trkpt><trkpt lat="44.75153593338201" lon="9.984420014543044"><ele>255.0</ele><time>2026-04-11T13:00:16Z</time></trkpt><trkpt lat="44.75158223040524" lon="9.984293700133891"><ele>255.2</ele><time>2026-04-11T13:00:17Z</time></trkpt><trkpt lat="44.75163019466554" lon="9.98416976803918"><ele>255.4</ele><time>2026-04-11T13:00:18Z</time></trkpt><trkpt lat="44.751679364351894" lon="9.984047352574615"><ele>255.60000000000002</ele><time>2026-04-11T13:00:19Z</time></trkpt><trkpt lat="44.75173108478853" lon="9.983919461045154"><ele>255.8</ele><time>2026-04-11T13:00:20Z</time></trkpt><trkpt lat="44.751784613766326" lon="9.983791563968214"><ele>256.0</ele><time>2026-04-11T13:00:21Z</time></trkpt><trkpt lat="44.75183928362203" lon="9.983661458429177"><ele>259.0</ele><time>2026-04-11T13:00:22Z</time></trkpt><trkpt lat="44.751890484043315" lon="9.983520953353036"><ele>262.0</ele><time>2026-04-11T13:00:23Z</time></trkpt><trkpt lat="44.751920476725125" lon="9.983368172959842"><ele>265.0</ele><time>2026-04-11T13:00:24Z</time></trkpt><trkpt lat="44.75196919146608" lon="9.983213378937599"><ele>268.0</ele><time>2026-04-11T13:00:25Z</time></trkpt><trkpt lat="44.751982266339155" lon="9.983041783312013"><ele>268.0</ele><time>2026-04-11T13:00:26Z</time></trkpt><trkpt lat="44.75200512058732" lon="9.9828700289208"><ele>268.0</ele><time>2026-04-11T13:00:27Z</time></trkpt><trkpt lat="44.75204647649949" lon="9.982700270788062"><ele>268.0</ele><time>2026-04-11T13:00:28Z</time></trkpt><trkpt lat="44.75206105730898" lon="9.98252267839649"><ele>268.0</ele><time>2026-04-11T13:00:29Z</time></trkpt><trkpt lat="44.752091851477154" lon="9.982354182426098"><ele>267.0</ele><time>2026-04-11T13:00:30Z</time></trkpt><trkpt lat="44.752124212001846" lon="9.98220551505179"><ele>266.0</ele><time>2026-04-11T13:00:31Z</time></trkpt><trkpt lat="44.752167176356366" lon="9.98206871534548"><ele>265.0</ele><time>2026-04-11T13:00:32Z</time></trkpt><trkpt lat="44.752220662503476" lon="9.981933238200096"><ele>264.0</ele><time>2026-04-11T13:00:33Z</time></trkpt><trkpt lat="44.75227654226578" lon="9.981788612243196"><ele>263.0</ele><time>2026-04-11T13:00:34Z</time></trkpt><trkpt lat="44.75235286797362" lon="9.981646139969152"><ele>261.5</ele><time>2026-04-11T13:00:35Z</time></trkpt><trkpt lat="44.752416341593744" lon="9.981496344509072"><ele>260.0</ele><time>2026-04-11T13:00:36Z</time></trkpt><trkpt lat="44.75247809964127" lon="9.981346573508292"><ele>258.5</ele><time>2026-04-11T13:00:37Z</time></trkpt><trkpt lat="44.75252679154284" lon="9.981179492009232"><ele>257.0</ele><time>2026-04-11T13:00:38Z</time></trkpt><trkpt lat="44.75258799378864" lon="9.981022714412699"><ele>257.0</ele><time>2026-04-11T13:00:39Z</time></trkpt><trkpt lat="44.75264928283111" lon="9.980872162423921"><ele>257.0</ele><time>2026-04-11T13:00:40Z</time></trkpt><trkpt lat="44.75270923784334" lon="9.980723075326296"><ele>257.0</ele><time>2026-04-11T13:00:41Z</time></trkpt><trkpt lat="44.75277327754025" lon="9.980579754199608"><ele>257.0</ele><time>2026-04-11T13:00:42Z</time></trkpt><trkpt lat="44.752853763840925" lon="9.980456119818975"><ele>258.75</ele><time>2026-04-11T13:00:43Z</time></trkpt><trkpt lat="44.75292463291872" lon="9.980329734160634"><ele>260.5</ele><time>2026-04-11T13:00:44Z</time></trkpt><trkpt lat="44.75299100925114" lon="9.980195542332897"><ele>262.25</ele><time>2026-04-11T13:00:45.001Z</time></trkpt><trkpt lat="44.7530626654176" lon="9.980067919718664"><ele>264.0</ele><time>2026-04-11T13:00:46.001Z</time></trkpt><trkpt lat="44.753133425093075" lon="9.97993634816921"><ele>264.0</ele><time>2026-04-11T13:00:47.001Z</time></trkpt><trkpt lat="44.7532000655988" lon="9.979812181243739"><ele>264.0</ele><time>2026-04-11T13:00:48.001Z</time></trkpt><trkpt lat="44.753268689978746" lon="9.979687056789276"><ele>264.0</ele><time>2026-04-11T13:00:49.001Z</time></trkpt><trkpt lat="44.75332263333944" lon="9.979560018410575"><ele>264.0</ele><time>2026-04-11T13:00:50.001Z</time></trkpt><trkpt lat="44.753371781055996" lon="9.979443288768948"><ele>264.0</ele><time>2026-04-11T13:00:51.001Z</time></trkpt><trkpt lat="44.75341022747759" lon="9.979338258860537"><ele>264.0</ele><time>2026-04-11T13:00:52.001Z</time></trkpt><trkpt lat="44.753445689876344" lon="9.979237038617317"><ele>264.0</ele><time>2026-04-11T13:00:53.001Z</time></trkpt><trkpt lat="44.753482659721946" lon="9.979137635221097"><ele>264.0</ele><time>2026-04-11T13:00:54.001Z</time></trkpt><trkpt lat="44.75352103289968" lon="9.979033570592518"><ele>264.0</ele><time>2026-04-11T13:00:55.001Z</time></trkpt><trkpt lat="44.75356021643843" lon="9.9789175765157"><ele>264.0</ele><time>2026-04-11T13:00:56.001Z</time></trkpt><trkpt lat="44.75360104265324" lon="9.97879558702052"><ele>264.0</ele><time>2026-04-11T13:00:57.001Z</time></trkpt><trkpt lat="44.753641647499634" lon="9.97867593197645"><ele>266.2</ele><time>2026-04-11T13:00:58.001Z</time></trkpt><trkpt lat="44.75367085658845" lon="9.978543102167896"><ele>268.4</ele><time>2026-04-11T13:00:59.001Z</time></trkpt><trkpt lat="44.75369452325982" lon="9.978405176747296"><ele>270.6</ele><time>2026-04-11T13:01:00.001Z</time></trkpt><trkpt lat="44.75370969844378" lon="9.97825952678083"><ele>272.8</ele><time>2026-04-11T13:01:01.001Z</time></trkpt><trkpt lat="44.75372255048631" lon="9.978116465153576"><ele>275.0</ele><time>2026-04-11T13:01:02.001Z</time></trkpt><trkpt lat="44.7537433055614" lon="9.97796986090003"><ele>275.0</ele><time>2026-04-11T13:01:03.001Z</time></trkpt><trkpt lat="44.75378877454988" lon="9.977836955207723"><ele>275.0</ele><time>2026-04-11T13:01:04.001Z</time></trkpt><trkpt lat="44.75381162187873" lon="9.977689653488218"><ele>275.0</ele><time>2026-04-11T13:01:05.001Z</time></trkpt><trkpt lat="44.753848356873" lon="9.977542864575375"><ele>275.0</ele><time>2026-04-11T13:01:06.001Z</time></trkpt><trkpt lat="44.753891659519155" lon="9.977392238676417"><ele>275.0</ele><time>2026-04-11T13:01:07.001Z</time></trkpt><trkpt lat="44.753933571927504" lon="9.977236406948053"><ele>274.0</ele><time>2026-04-11T13:01:08.001Z</time></trkpt><trkpt lat="44.753967616619875" lon="9.977073807809566"><ele>273.0</ele><time>2026-04-11T13:01:09.001Z</time></trkpt><trkpt lat="44.75400332645641" lon="9.9769048860056"><ele>272.0</ele><time>2026-04-11T13:01:10.001Z</time></trkpt><trkpt lat="44.75402804483682" lon="9.976738095136588"><ele>271.0</ele><time>2026-04-11T13:01:11.001Z</time></trkpt><trkpt lat="44.7540530875663" lon="9.976587501004989"><ele>270.0</ele><time>2026-04-11T13:01:12.001Z</time></trkpt><trkpt lat="44.754080279971824" lon="9.976452346335542"><ele>269.0</ele><time>2026-04-11T13:01:13.001Z</time></trkpt><trkpt lat="44.75409656524485" lon="9.976326248930924"><ele>268.0</ele><time>2026-04-11T13:01:14.001Z</time></trkpt><trkpt lat="44.75410261464685" lon="9.976210343427224"><ele>267.0</ele><time>2026-04-11T13:01:15.001Z</time></trkpt><trkpt lat="44.75410074916214" lon="9.976102384034402"><ele>266.0</ele><time>2026-04-11T13:01:16.001Z</time></trkpt><trkpt lat="44.75409947075723" lon="9.976005191605214"><ele>265.0</ele><time>2026-04-11T13:01:17.001Z</time></trkpt><trkpt lat="44.754103459990354" lon="9.975864234184954"><ele>265.25</ele><time>2026-04-11T13:01:19.001Z</time></trkpt><trkpt lat="44.75396922951059" lon="9.97573523198424"><ele>265.5</ele><time>2026-04-11T13:01:26.001Z</time></trkpt><trkpt lat="44.754045157199556" lon="9.975733167122742"><ele>265.75</ele><time>2026-04-11T13:01:31.001Z</time></trkpt><trkpt lat="44.75415237954842" lon="9.975781835195972"><ele>266.0</ele><time>2026-04-11T13:01:33.001Z</time></trkpt><trkpt lat="44.754249458440206" lon="9.975751396615117"><ele>267.2</ele><time>2026-04-11T13:01:35.002Z</time></trkpt><trkpt lat="44.75438304101918" lon="9.975735320886015"><ele>268.40000000000003</ele><time>2026-04-11T13:01:37.002Z</time></trkpt><trkpt lat="44.75446260749659" lon="9.975715236186657"><ele>269.6</ele><time>2026-04-11T13:01:38.002Z</time></trkpt><trkpt lat="44.75453968749837" lon="9.975683835416156"><ele>270.8</ele><time>2026-04-11T13:01:39.002Z</time></trkpt><trkpt lat="44.75461904639229" lon="9.975662324336028"><ele>272.0</ele><time>2026-04-11T13:01:40.002Z</time></trkpt><trkpt lat="44.754702925831836" lon="9.975646317829725"><ele>272.0</ele><time>2026-04-11T13:01:41.002Z</time></trkpt><trkpt lat="44.75478047696594" lon="9.975611778096726"><ele>272.0</ele><time>2026-04-11T13:01:42.002Z</time></trkpt><trkpt lat="44.754851306258814" lon="9.975578628575136"><ele>272.0</ele><time>2026-04-11T13:01:43.002Z</time></trkpt><trkpt lat="44.75492728648954" lon="9.975550568919394"><ele>272.0</ele><time>2026-04-11T13:01:44.002Z</time></trkpt><trkpt lat="44.75499529041036" lon="9.975533269360458"><ele>272.0</ele><time>2026-04-11T13:01:45.002Z</time></trkpt><trkpt lat="44.75507765337003" lon="9.97549220432441"><ele>272.0</ele><time>2026-04-11T13:01:46.002Z</time></trkpt><trkpt lat="44.75514985224032" lon="9.975433609726506"><ele>273.5</ele><time>2026-04-11T13:01:47.002Z</time></trkpt><trkpt lat="44.75523129117821" lon="9.975402434052416"><ele>275.0</ele><time>2026-04-11T13:01:48.002Z</time></trkpt><trkpt lat="44.7553043224231" lon="9.975354538033839"><ele>276.5</ele><time>2026-04-11T13:01:49.002Z</time></trkpt><trkpt lat="44.7553816094689" lon="9.975292261140062"><ele>278.0</ele><time>2026-04-11T13:01:50.002Z</time></trkpt><trkpt lat="44.75545611024497" lon="9.975224367675642"><ele>279.5</ele><time>2026-04-11T13:01:51.002Z</time></trkpt><trkpt lat="44.755529387731464" lon="9.975154148852033"><ele>281.0</ele><time>2026-04-11T13:01:52.002Z</time></trkpt><trkpt lat="44.755591577836675" lon="9.975086308480494"><ele>282.40000000000003</ele><time>2026-04-11T13:01:53.002Z</time></trkpt><trkpt lat="44.75569500032436" lon="9.974967375721862"><ele>283.8</ele><time>2026-04-11T13:01:55.002Z</time></trkpt><trkpt lat="44.75575486806489" lon="9.974907739527104"><ele>285.20000000000005</ele><time>2026-04-11T13:01:56.002Z</time></trkpt><trkpt lat="44.75581991124292" lon="9.974842506007542"><ele>286.6</ele><time>2026-04-11T13:01:57.002Z</time></trkpt><trkpt lat="44.75588703847473" lon="9.974779709322648"><ele>288.0</ele><time>2026-04-11T13:01:58.002Z</time></trkpt><trkpt lat="44.755959223092255" lon="9.974708992669385"><ele>288.0</ele><time>2026-04-11T13:01:59.002Z</time></trkpt><trkpt lat="44.75603052110779" lon="9.974633538399685"><ele>288.0</ele><time>2026-04-11T13:02:00.002Z</time></trkpt><trkpt lat="44.75610116622143" lon="9.974558341693562"><ele>288.0</ele><time>2026-04-11T13:02:01.002Z</time></trkpt><trkpt lat="44.75617802698036" lon="9.974480024309502"><ele>288.0</ele><time>2026-04-11T13:02:02.002Z</time></trkpt><trkpt lat="44.7562531476955" lon="9.974412982005122"><ele>288.0</ele><time>2026-04-11T13:02:03Z</time></trkpt><trkpt lat="44.75632065822144" lon="9.974357671185714"><ele>288.0</ele><time>2026-04-11T13:02:04Z</time></trkpt><trkpt lat="44.75639310457044" lon="9.974301445539828"><ele>288.8571428571429</ele><time>2026-04-11T13:02:05Z</time></trkpt><trkpt lat="44.75645509607855" lon="9.97425569536208"><ele>289.7142857142857</ele><time>2026-04-11T13:02:06Z</time></trkpt><trkpt lat="44.75652494065314" lon="9.974262659911899"><ele>290.57142857142856</ele><time>2026-04-11T13:02:07Z</time></trkpt><trkpt lat="44.75659162749012" lon="9.974259348976947"><ele>291.42857142857144</ele><time>2026-04-11T13:02:08Z</time></trkpt><trkpt lat="44.75666246025429" lon="9.974257904498257"><ele>292.2857142857143</ele><time>2026-04-11T13:02:09Z</time></trkpt><trkpt lat="44.756736849992265" lon="9.974252750160453"><ele>293.14285714285717</ele><time>2026-04-11T13:02:10Z</time></trkpt><trkpt lat="44.756808974333815" lon="9.97421672144921"><ele>294.0</ele><time>2026-04-11T13:02:11Z</time></trkpt><trkpt lat="44.75689521560031" lon="9.974193131497136"><ele>298.4</ele><time>2026-04-11T13:02:12Z</time></trkpt><trkpt lat="44.75697535866998" lon="9.9741579950469"><ele>302.79999999999995</ele><time>2026-04-11T13:02:13Z</time></trkpt><trkpt lat="44.75706131665071" lon="9.974111103031195"><ele>307.20000000000005</ele><time>2026-04-11T13:02:14Z</time></trkpt><trkpt lat="44.75715109610524" lon="9.974069818197524"><ele>311.6</ele><time>2026-04-11T13:02:15Z</time></trkpt><trkpt lat="44.757238071026805" lon="9.974030475174004"><ele>316.0</ele><time>2026-04-11T13:02:16Z</time></trkpt><trkpt lat="44.75732815333049" lon="9.973986328542663"><ele>316.0</ele><time>2026-04-11T13:02:17Z</time></trkpt><trkpt lat="44.75742068049311" lon="9.973946495596648"><ele>316.0</ele><time>2026-04-11T13:02:18Z</time></trkpt><trkpt lat="44.75752722801583" lon="9.973927615072576"><ele>316.0</ele><time>2026-04-11T13:02:19Z</time></trkpt><trkpt lat="44.75762451348178" lon="9.973891928350158"><ele>316.0</ele><time>2026-04-11T13:02:20Z</time></trkpt><trkpt lat="44.757708600896066" lon="9.973838739461188"><ele>316.0</ele><time>2026-04-11T13:02:21Z</time></trkpt><trkpt lat="44.75779313187932" lon="9.973810387415302"><ele>318.8333333333333</ele><time>2026-04-11T13:02:22Z</time></trkpt><trkpt lat="44.757882242714174" lon="9.9737825376897"><ele>321.66666666666663</ele><time>2026-04-11T13:02:23Z</time></trkpt><trkpt lat="44.757971753236305" lon="9.973762359963656"><ele>324.5</ele><time>2026-04-11T13:02:24Z</time></trkpt><trkpt lat="44.75805764759495" lon="9.973758253083451"><ele>327.3333333333333</ele><time>2026-04-11T13:02:25Z</time></trkpt><trkpt lat="44.75813799723654" lon="9.973741621242059"><ele>330.1666666666667</ele><time>2026-04-11T13:02:26Z</time></trkpt><trkpt lat="44.75821587575794" lon="9.97372697354779"><ele>333.0</ele><time>2026-04-11T13:02:27Z</time></trkpt><trkpt lat="44.758292518346465" lon="9.973713842929754"><ele>333.0</ele><time>2026-04-11T13:02:28Z</time></trkpt><trkpt lat="44.75836089872657" lon="9.973702127816923"><ele>333.0</ele><time>2026-04-11T13:02:29Z</time></trkpt><trkpt lat="44.75843247209875" lon="9.973689865642045"><ele>333.0</ele><time>2026-04-11T13:02:30Z</time></trkpt><trkpt lat="44.75850788287069" lon="9.97367694592254"><ele>333.0</ele><time>2026-04-11T13:02:31Z</time></trkpt><trkpt lat="44.75857931296836" lon="9.973664288729667"><ele>333.0</ele><time>2026-04-11T13:02:32Z</time></trkpt><trkpt lat="44.758648876607374" lon="9.973653258474716"><ele>333.0</ele><time>2026-04-11T13:02:33Z</time></trkpt><trkpt lat="44.75871260275909" lon="9.973643991918149"><ele>333.0</ele><time>2026-04-11T13:02:34Z</time></trkpt><trkpt lat="44.758826145683" lon="9.973599010831531"><ele>335.2857142857143</ele><time>2026-04-11T13:02:36Z</time></trkpt><trkpt lat="44.75889148754594" lon="9.973586387492654"><ele>337.57142857142856</ele><time>2026-04-11T13:02:37Z</time></trkpt><trkpt lat="44.758955075532455" lon="9.973550053775948"><ele>339.85714285714283</ele><time>2026-04-11T13:02:38Z</time></trkpt><trkpt lat="44.75902656522714" lon="9.973514101974791"><ele>342.1428571428571</ele><time>2026-04-11T13:02:39Z</time></trkpt><trkpt lat="44.759103905436284" lon="9.973484638385223"><ele>344.42857142857144</ele><time>2026-04-11T13:02:40Z</time></trkpt><trkpt lat="44.75916740229257" lon="9.973451377220865"><ele>346.71428571428567</ele><time>2026-04-11T13:02:41Z</time></trkpt><trkpt lat="44.759232438292585" lon="9.973427696670795"><ele>349.0</ele><time>2026-04-11T13:02:42Z</time></trkpt><trkpt lat="44.75929446887495" lon="9.973391039679804"><ele>349.0</ele><time>2026-04-11T13:02:43Z</time></trkpt><trkpt lat="44.75936586212521" lon="9.973368337816604"><ele>349.0</ele><time>2026-04-11T13:02:44Z</time></trkpt><trkpt lat="44.759439819471716" lon="9.973329531223747"><ele>349.0</ele><time>2026-04-11T13:02:45.001Z</time></trkpt><trkpt lat="44.75951397072379" lon="9.973290622408324"><ele>349.0</ele><time>2026-04-11T13:02:46.001Z</time></trkpt><trkpt lat="44.759586595013644" lon="9.97325251490688"><ele>349.0</ele><time>2026-04-11T13:02:47.001Z</time></trkpt><trkpt lat="44.75966670680586" lon="9.97320837904282"><ele>349.0</ele><time>2026-04-11T13:02:48.001Z</time></trkpt><trkpt lat="44.759734333706234" lon="9.973143700255557"><ele>352.2</ele><time>2026-04-11T13:02:49.001Z</time></trkpt><trkpt lat="44.75980693137589" lon="9.973116422741041"><ele>355.4</ele><time>2026-04-11T13:02:50.001Z</time></trkpt><trkpt lat="44.75988542238436" lon="9.9730491115663"><ele>358.6</ele><time>2026-04-11T13:02:51.001Z</time></trkpt><trkpt lat="44.759983516328745" lon="9.972944347592234"><ele>361.8</ele><time>2026-04-11T13:02:52.001Z</time></trkpt><trkpt lat="44.76007373519742" lon="9.97285237793084"><ele>365.0</ele><time>2026-04-11T13:02:53.001Z</time></trkpt><trkpt lat="44.760159462242484" lon="9.972762126525078"><ele>364.8571428571429</ele><time>2026-04-11T13:02:54.001Z</time></trkpt><trkpt lat="44.76022871795642" lon="9.972679814268737"><ele>364.7142857142857</ele><time>2026-04-11T13:02:55.001Z</time></trkpt><trkpt lat="44.760287094308154" lon="9.972594385783573"><ele>364.57142857142856</ele><time>2026-04-11T13:02:56.001Z</time></trkpt><trkpt lat="44.76032351400423" lon="9.972513739420824"><ele>364.42857142857144</ele><time>2026-04-11T13:02:57.001Z</time></trkpt><trkpt lat="44.76033603627291" lon="9.972423709961344"><ele>364.2857142857143</ele><time>2026-04-11T13:02:58.001Z</time></trkpt><trkpt lat="44.76033048848244" lon="9.972334211746626"><ele>364.14285714285717</ele><time>2026-04-11T13:02:59.001Z</time></trkpt><trkpt lat="44.760308845569355" lon="9.972230228666046"><ele>364.0</ele><time>2026-04-11T13:03:00.001Z</time></trkpt><trkpt lat="44.76027453800058" lon="9.972134541892583"><ele>364.0</ele><time>2026-04-11T13:03:01.001Z</time></trkpt><trkpt lat="44.76023358438812" lon="9.972058596503844"><ele>364.0</ele><time>2026-04-11T13:03:02.001Z</time></trkpt><trkpt lat="44.76018908400176" lon="9.971982072774397"><ele>364.0</ele><time>2026-04-11T13:03:03.001Z</time></trkpt><trkpt lat="44.760142550623485" lon="9.971920772864399"><ele>364.0</ele><time>2026-04-11T13:03:04.001Z</time></trkpt><trkpt lat="44.76010219691335" lon="9.971852174005152"><ele>364.0</ele><time>2026-04-11T13:03:05.001Z</time></trkpt><trkpt lat="44.760064825928744" lon="9.9717522734491"><ele>364.0</ele><time>2026-04-11T13:03:07.001Z</time></trkpt><trkpt lat="44.76004286925062" lon="9.971643828333427"><ele>364.0</ele><time>2026-04-11T13:03:56.002Z</time></trkpt><trkpt lat="44.760093847019405" lon="9.971570403755983"><ele>361.0</ele><time>2026-04-11T13:03:58.002Z</time></trkpt><trkpt lat="44.76022201955678" lon="9.971465398694468"><ele>358.0</ele><time>2026-04-11T13:04:00.002Z</time></trkpt><trkpt lat="44.76031726584053" lon="9.971391964797684"><ele>355.0</ele><time>2026-04-11T13:04:01.002Z</time></trkpt><trkpt lat="44.760399998412645" lon="9.971299949260805"><ele>352.0</ele><time>2026-04-11T13:04:02.002Z</time></trkpt><trkpt lat="44.76047292831792" lon="9.971206824227973"><ele>352.0</ele><time>2026-04-11T13:04:03.002Z</time></trkpt><trkpt lat="44.76054397210296" lon="9.971116298437346"><ele>352.0</ele><time>2026-04-11T13:04:04.002Z</time></trkpt><trkpt lat="44.76061658198148" lon="9.971023769511284"><ele>352.0</ele><time>2026-04-11T13:04:05.002Z</time></trkpt><trkpt lat="44.76069697981014" lon="9.970925006233976"><ele>352.0</ele><time>2026-04-11T13:04:06.002Z</time></trkpt><trkpt lat="44.76077445026633" lon="9.970839172304013"><ele>352.0</ele><time>2026-04-11T13:04:07.002Z</time></trkpt><trkpt lat="44.760859342183174" lon="9.970753940417328"><ele>350.5</ele><time>2026-04-11T13:04:08.002Z</time></trkpt><trkpt lat="44.760953597227065" lon="9.970678592954721"><ele>349.0</ele><time>2026-04-11T13:04:09Z</time></trkpt><trkpt lat="44.76106453582584" lon="9.970601141752987"><ele>347.5</ele><time>2026-04-11T13:04:10Z</time></trkpt><trkpt lat="44.761201970070125" lon="9.970507642410077"><ele>346.0</ele><time>2026-04-11T13:04:11Z</time></trkpt><trkpt lat="44.761321377605384" lon="9.970367510961596"><ele>349.75</ele><time>2026-04-11T13:04:12Z</time></trkpt><trkpt lat="44.76143671803185" lon="9.970268739236435"><ele>353.5</ele><time>2026-04-11T13:04:13Z</time></trkpt><trkpt lat="44.76155138142143" lon="9.970220644728881"><ele>357.25</ele><time>2026-04-11T13:04:14Z</time></trkpt><trkpt lat="44.76165922958796" lon="9.970179983390695"><ele>361.0</ele><time>2026-04-11T13:04:15Z</time></trkpt><trkpt lat="44.76177204365542" lon="9.970140337330324"><ele>362.6</ele><time>2026-04-11T13:04:16Z</time></trkpt><trkpt lat="44.761880923041026" lon="9.97010456645365"><ele>364.20000000000005</ele><time>2026-04-11T13:04:17Z</time></trkpt><trkpt lat="44.761989653219615" lon="9.970054456818627"><ele>365.79999999999995</ele><time>2026-04-11T13:04:18Z</time></trkpt><trkpt lat="44.76209784433478" lon="9.970015586901914"><ele>367.4</ele><time>2026-04-11T13:04:19Z</time></trkpt><trkpt lat="44.76218559017146" lon="9.969980733134994"><ele>369.0</ele><time>2026-04-11T13:04:20Z</time></trkpt><trkpt lat="44.76228416966306" lon="9.969949223311529"><ele>369.0</ele><time>2026-04-11T13:04:21Z</time></trkpt><trkpt lat="44.76235797243061" lon="9.96991626287963"><ele>369.0</ele><time>2026-04-11T13:04:22Z</time></trkpt><trkpt lat="44.762426584945565" lon="9.969913867574668"><ele>369.0</ele><time>2026-04-11T13:04:23Z</time></trkpt><trkpt lat="44.76248955179086" lon="9.96989046844982"><ele>369.0</ele><time>2026-04-11T13:04:24Z</time></trkpt><trkpt lat="44.762574795577514" lon="9.969862627714747"><ele>369.0</ele><time>2026-04-11T13:04:26Z</time></trkpt><trkpt lat="44.76265119663619" lon="9.969842490733415"><ele>369.0</ele><time>2026-04-11T13:04:30Z</time></trkpt><trkpt lat="44.76272538350999" lon="9.969827838076469"><ele>369.0</ele><time>2026-04-11T13:04:35Z</time></trkpt><trkpt lat="44.76268079977103" lon="9.969689717259087"><ele>369.0</ele><time>2026-04-11T13:04:36Z</time></trkpt><trkpt lat="44.76270480743351" lon="9.969566905757118"><ele>369.0</ele><time>2026-04-11T13:06:21Z</time></trkpt><trkpt lat="44.76273459033471" lon="9.969455274419094"><ele>369.0</ele><time>2026-04-11T13:06:22Z</time></trkpt><trkpt lat="44.76277940729094" lon="9.969329200995285"><ele>369.0</ele><time>2026-04-11T13:06:23Z</time></trkpt><trkpt lat="44.76283463237143" lon="9.969179420913212"><ele>365.75</ele><time>2026-04-11T13:06:24Z</time></trkpt><trkpt lat="44.762889808127824" lon="9.969024009821137"><ele>362.5</ele><time>2026-04-11T13:06:25Z</time></trkpt><trkpt lat="44.76295468991562" lon="9.968838015813956"><ele>359.25</ele><time>2026-04-11T13:06:26Z</time></trkpt><trkpt lat="44.763028421081955" lon="9.968623877535645"><ele>356.0</ele><time>2026-04-11T13:06:27Z</time></trkpt><trkpt lat="44.763105502758144" lon="9.968423209662799"><ele>356.5</ele><time>2026-04-11T13:06:28Z</time></trkpt><trkpt lat="44.763159410120075" lon="9.968254675574237"><ele>357.0</ele><time>2026-04-11T13:06:29Z</time></trkpt><trkpt lat="44.76322384538565" lon="9.968084761472984"><ele>357.5</ele><time>2026-04-11T13:06:30Z</time></trkpt><trkpt lat="44.76328188008854" lon="9.967892279321909"><ele>358.0</ele><time>2026-04-11T13:06:31Z</time></trkpt><trkpt lat="44.76332133893927" lon="9.967701375322752"><ele>358.75</ele><time>2026-04-11T13:06:32Z</time></trkpt><trkpt lat="44.76334042726847" lon="9.967514878877916"><ele>359.5</ele><time>2026-04-11T13:06:33Z</time></trkpt><trkpt lat="44.7633531407228" lon="9.967293265015055"><ele>360.25</ele><time>2026-04-11T13:06:34Z</time></trkpt><trkpt lat="44.76335279871011" lon="9.967074764615278"><ele>361.0</ele><time>2026-04-11T13:06:35Z</time></trkpt><trkpt lat="44.763358501802394" lon="9.966886141177666"><ele>361.0</ele><time>2026-04-11T13:06:36Z</time></trkpt><trkpt lat="44.76336545067196" lon="9.966703763632122"><ele>361.0</ele><time>2026-04-11T13:06:37Z</time></trkpt><trkpt lat="44.76337184708556" lon="9.966525141817728"><ele>361.0</ele><time>2026-04-11T13:06:38Z</time></trkpt><trkpt lat="44.7633739974044" lon="9.96617495449531"><ele>361.6</ele><time>2026-04-11T13:06:40Z</time></trkpt><trkpt lat="44.76338503458024" lon="9.966003935254843"><ele>362.20000000000005</ele><time>2026-04-11T13:06:41.001Z</time></trkpt><trkpt lat="44.7633963132615" lon="9.96584001210417"><ele>362.79999999999995</ele><time>2026-04-11T13:06:42.001Z</time></trkpt><trkpt lat="44.76339676294759" lon="9.965690600479462"><ele>363.4</ele><time>2026-04-11T13:06:43.001Z</time></trkpt><trkpt lat="44.76340781228366" lon="9.965559548668704"><ele>364.0</ele><time>2026-04-11T13:06:44.001Z</time></trkpt><trkpt lat="44.76343732017266" lon="9.965424935907539"><ele>365.2</ele><time>2026-04-11T13:06:45.001Z</time></trkpt><trkpt lat="44.763510985893035" lon="9.965314739460895"><ele>366.4</ele><time>2026-04-11T13:06:46.001Z</time></trkpt><trkpt lat="44.76357305853074" lon="9.965206740459308"><ele>367.6</ele><time>2026-04-11T13:06:47.001Z</time></trkpt><trkpt lat="44.763627765376775" lon="9.96509115999141"><ele>368.8</ele><time>2026-04-11T13:06:48.001Z</time></trkpt><trkpt lat="44.763702662490374" lon="9.964992858160873"><ele>370.0</ele><time>2026-04-11T13:06:49.001Z</time></trkpt><trkpt lat="44.763771810608006" lon="9.964895960509715"><ele>371.2</ele><time>2026-04-11T13:06:50.001Z</time></trkpt><trkpt lat="44.76383102174477" lon="9.964807077210846"><ele>372.4</ele><time>2026-04-11T13:06:51.001Z</time></trkpt><trkpt lat="44.76391266182761" lon="9.964729015957241"><ele>373.6</ele><time>2026-04-11T13:06:52.001Z</time></trkpt><trkpt lat="44.76399126736135" lon="9.96462553158105"><ele>374.8</ele><time>2026-04-11T13:06:53.001Z</time></trkpt><trkpt lat="44.76406618143847" lon="9.96451878856878"><ele>376.0</ele><time>2026-04-11T13:06:54.001Z</time></trkpt><trkpt lat="44.76413056655536" lon="9.964393223677982"><ele>376.0</ele><time>2026-04-11T13:06:55.001Z</time></trkpt><trkpt lat="44.76420653162926" lon="9.964263515250186"><ele>376.0</ele><time>2026-04-11T13:06:56.001Z</time></trkpt><trkpt lat="44.764274448500494" lon="9.964144072593434"><ele>376.0</ele><time>2026-04-11T13:06:57.001Z</time></trkpt><trkpt lat="44.76433577768507" lon="9.964026404582945"><ele>376.0</ele><time>2026-04-11T13:06:58.001Z</time></trkpt><trkpt lat="44.764386392869525" lon="9.963914089074542"><ele>376.0</ele><time>2026-04-11T13:06:59.001Z</time></trkpt><trkpt lat="44.76443897876518" lon="9.96380785075268"><ele>376.8</ele><time>2026-04-11T13:07:00.001Z</time></trkpt><trkpt lat="44.764502653616844" lon="9.963681550307939"><ele>377.6</ele><time>2026-04-11T13:07:01.001Z</time></trkpt><trkpt lat="44.764555490493464" lon="9.963578914411793"><ele>378.4</ele><time>2026-04-11T13:07:02.001Z</time></trkpt><trkpt lat="44.76461424921169" lon="9.963465406001479"><ele>379.2</ele><time>2026-04-11T13:07:03.001Z</time></trkpt><trkpt lat="44.76466975804327" lon="9.963363399418755"><ele>380.0</ele><time>2026-04-11T13:07:04.001Z</time></trkpt><trkpt lat="44.764727798840994" lon="9.963284481282432"><ele>381.4</ele><time>2026-04-11T13:07:05.001Z</time></trkpt><trkpt lat="44.764809950677936" lon="9.963255543370439"><ele>382.8</ele><time>2026-04-11T13:07:06.001Z</time></trkpt><trkpt lat="44.764890346366286" lon="9.963218887172374"><ele>384.20000000000005</ele><time>2026-04-11T13:07:07.001Z</time></trkpt><trkpt lat="44.764973237183575" lon="9.96316620356386"><ele>385.6</ele><time>2026-04-11T13:07:08.001Z</time></trkpt><trkpt lat="44.76505972766095" lon="9.963085362612677"><ele>387.0</ele><time>2026-04-11T13:07:09.001Z</time></trkpt><trkpt lat="44.76512316726479" lon="9.962953192681002"><ele>388.40000000000003</ele><time>2026-04-11T13:07:10.001Z</time></trkpt><trkpt lat="44.765196616217494" lon="9.962831205628275"><ele>389.8</ele><time>2026-04-11T13:07:11.001Z</time></trkpt><trkpt lat="44.76527045951498" lon="9.962706624784575"><ele>391.2</ele><time>2026-04-11T13:07:12.001Z</time></trkpt><trkpt lat="44.765340712776485" lon="9.962586974829685"><ele>392.6</ele><time>2026-04-11T13:07:13.001Z</time></trkpt><trkpt lat="44.765410877058024" lon="9.96247788597875"><ele>394.0</ele><time>2026-04-11T13:07:14.001Z</time></trkpt><trkpt lat="44.76548320701459" lon="9.962395525518167"><ele>395.79999999999995</ele><time>2026-04-11T13:07:15.001Z</time></trkpt><trkpt lat="44.765547414526" lon="9.962297568008138"><ele>397.59999999999997</ele><time>2026-04-11T13:07:16.001Z</time></trkpt><trkpt lat="44.765600827227196" lon="9.962183703905405"><ele>399.4</ele><time>2026-04-11T13:07:17.001Z</time></trkpt><trkpt lat="44.76566870288817" lon="9.962087326724536"><ele>401.2</ele><time>2026-04-11T13:07:18.001Z</time></trkpt><trkpt lat="44.765738989698875" lon="9.96198579209806"><ele>403.0</ele><time>2026-04-11T13:07:19.001Z</time></trkpt><trkpt lat="44.76580122653332" lon="9.961885353517589"><ele>403.0</ele><time>2026-04-11T13:07:20.001Z</time></trkpt><trkpt lat="44.76587409625824" lon="9.961799173557909"><ele>403.0</ele><time>2026-04-11T13:07:21.001Z</time></trkpt><trkpt lat="44.765930744969374" lon="9.961708907505898"><ele>403.0</ele><time>2026-04-11T13:07:22.001Z</time></trkpt><trkpt lat="44.765973713086225" lon="9.961640093722501"><ele>403.0</ele><time>2026-04-11T13:07:23.001Z</time></trkpt><trkpt lat="44.76606642191565" lon="9.961568617990133"><ele>403.0</ele><time>2026-04-11T13:07:25.001Z</time></trkpt><trkpt lat="44.76618296115697" lon="9.961593770309845"><ele>405.0</ele><time>2026-04-11T13:07:27.001Z</time></trkpt><trkpt lat="44.766237869474665" lon="9.961666436439705"><ele>407.0</ele><time>2026-04-11T13:07:28.001Z</time></trkpt><trkpt lat="44.76631455176737" lon="9.96174373073906"><ele>409.0</ele><time>2026-04-11T13:07:29.001Z</time></trkpt><trkpt lat="44.766381562717704" lon="9.961794529768957"><ele>411.0</ele><time>2026-04-11T13:07:30.001Z</time></trkpt><trkpt lat="44.76646276279402" lon="9.961805395333084"><ele>413.0</ele><time>2026-04-11T13:07:32.001Z</time></trkpt><trkpt lat="44.766375331640816" lon="9.961584296857806"><ele>413.0</ele><time>2026-04-11T13:07:48.002Z</time></trkpt><trkpt lat="44.76629711899431" lon="9.961446903117544"><ele>413.0</ele><time>2026-04-11T13:07:50.002Z</time></trkpt><trkpt lat="44.76626588728277" lon="9.96136597102988"><ele>413.0</ele><time>2026-04-11T13:07:51.002Z</time></trkpt><trkpt lat="44.766247635179774" lon="9.961251737596724"><ele>413.0</ele><time>2026-04-11T13:07:52.002Z</time></trkpt><trkpt lat="44.76625818572921" lon="9.961114057972777"><ele>413.0</ele><time>2026-04-11T13:07:53.002Z</time></trkpt><trkpt lat="44.76627862087045" lon="9.960963194055294"><ele>412.0</ele><time>2026-04-11T13:07:54.002Z</time></trkpt><trkpt lat="44.766300827325196" lon="9.960784968737766"><ele>411.0</ele><time>2026-04-11T13:07:55.002Z</time></trkpt><trkpt lat="44.76631491811242" lon="9.960586664787503"><ele>410.0</ele><time>2026-04-11T13:07:56.002Z</time></trkpt><trkpt lat="44.76632427059832" lon="9.960386434436629"><ele>409.0</ele><time>2026-04-11T13:07:57.002Z</time></trkpt><trkpt lat="44.766328777380274" lon="9.960194730757143"><ele>407.75</ele><time>2026-04-11T13:07:58.002Z</time></trkpt><trkpt lat="44.76633326788267" lon="9.960009168705673"><ele>406.5</ele><time>2026-04-11T13:07:59.002Z</time></trkpt><trkpt lat="44.766333446806435" lon="9.959815750900331"><ele>405.25</ele><time>2026-04-11T13:08:00.002Z</time></trkpt><trkpt lat="44.76631492903268" lon="9.95963233448622"><ele>404.0</ele><time>2026-04-11T13:08:01.002Z</time></trkpt><trkpt lat="44.76628700074459" lon="9.959442361007863"><ele>404.0</ele><time>2026-04-11T13:08:02.002Z</time></trkpt><trkpt lat="44.766242653759534" lon="9.959278840482423"><ele>404.0</ele><time>2026-04-11T13:08:03.002Z</time></trkpt><trkpt lat="44.76618608324951" lon="9.959141294777986"><ele>404.0</ele><time>2026-04-11T13:08:04.002Z</time></trkpt><trkpt lat="44.76611610079347" lon="9.95900670812927"><ele>404.0</ele><time>2026-04-11T13:08:05.002Z</time></trkpt><trkpt lat="44.76605094597651" lon="9.958867549968"><ele>405.75</ele><time>2026-04-11T13:08:06.002Z</time></trkpt><trkpt lat="44.76599374096129" lon="9.958724267450505"><ele>407.5</ele><time>2026-04-11T13:08:07.002Z</time></trkpt><trkpt lat="44.76593450997438" lon="9.958596547438514"><ele>409.25</ele><time>2026-04-11T13:08:08.002Z</time></trkpt><trkpt lat="44.76586148331751" lon="9.958482333636388"><ele>411.0</ele><time>2026-04-11T13:08:09.002Z</time></trkpt><trkpt lat="44.765763901194916" lon="9.95837527006013"><ele>413.0</ele><time>2026-04-11T13:08:10.002Z</time></trkpt><trkpt lat="44.76565927493144" lon="9.95828425128571"><ele>415.0</ele><time>2026-04-11T13:08:11.002Z</time></trkpt><trkpt lat="44.765553785515955" lon="9.958181806873808"><ele>417.0</ele><time>2026-04-11T13:08:12.002Z</time></trkpt><trkpt lat="44.76546788093064" lon="9.958055367408177"><ele>419.0</ele><time>2026-04-11T13:08:13.002Z</time></trkpt><trkpt lat="44.765409607072726" lon="9.957905879734541"><ele>419.0</ele><time>2026-04-11T13:08:14.002Z</time></trkpt><trkpt lat="44.765376936393686" lon="9.957740844541917"><ele>419.0</ele><time>2026-04-11T13:08:15.002Z</time></trkpt><trkpt lat="44.765350753601346" lon="9.957577282809815"><ele>419.0</ele><time>2026-04-11T13:08:16.002Z</time></trkpt><trkpt lat="44.76532098834853" lon="9.95742487681404"><ele>419.0</ele><time>2026-04-11T13:08:17.002Z</time></trkpt><trkpt lat="44.765294822428366" lon="9.95727981990144"><ele>421.0</ele><time>2026-04-11T13:08:18.002Z</time></trkpt><trkpt lat="44.76527976822379" lon="9.95713013240051"><ele>423.0</ele><time>2026-04-11T13:08:19.002Z</time></trkpt><trkpt lat="44.76529578729521" lon="9.956977249272247"><ele>425.0</ele><time>2026-04-11T13:08:20.002Z</time></trkpt><trkpt lat="44.76531853715001" lon="9.956817850261041"><ele>427.0</ele><time>2026-04-11T13:08:21.001Z</time></trkpt><trkpt lat="44.76533710812397" lon="9.95664158284387"><ele>428.20000000000005</ele><time>2026-04-11T13:08:22.001Z</time></trkpt><trkpt lat="44.76537182604696" lon="9.956474409821695"><ele>429.40000000000003</ele><time>2026-04-11T13:08:23.001Z</time></trkpt><trkpt lat="44.76539201511755" lon="9.956315399346972"><ele>430.59999999999997</ele><time>2026-04-11T13:08:24.001Z</time></trkpt><trkpt lat="44.76539644823425" lon="9.956153445943288"><ele>431.79999999999995</ele><time>2026-04-11T13:08:25.001Z</time></trkpt><trkpt lat="44.76538007081316" lon="9.95602514741707"><ele>433.0</ele><time>2026-04-11T13:08:26.001Z</time></trkpt><trkpt lat="44.76533159116584" lon="9.95593772229552"><ele>433.00000000000006</ele><time>2026-04-11T13:08:27.001Z</time></trkpt><trkpt lat="44.76526241215813" lon="9.955883050906941"><ele>433.0</ele><time>2026-04-11T13:08:28.001Z</time></trkpt><trkpt lat="44.76516479686403" lon="9.955878612841296"><ele>433.0</ele><time>2026-04-11T13:08:29.001Z</time></trkpt><trkpt lat="44.765059159431594" lon="9.95589278894105"><ele>433.0</ele><time>2026-04-11T13:08:30.001Z</time></trkpt><trkpt lat="44.76497209663822" lon="9.955890067691408"><ele>433.00000000000006</ele><time>2026-04-11T13:08:31.001Z</time></trkpt><trkpt lat="44.764901574654616" lon="9.955871116767225"><ele>433.0</ele><time>2026-04-11T13:08:32.001Z</time></trkpt><trkpt lat="44.7648047270039" lon="9.955767956869227"><ele>437.1666666666667</ele><time>2026-04-11T13:08:34.001Z</time></trkpt><trkpt lat="44.76476985307607" lon="9.9556714302811"><ele>441.33333333333337</ele><time>2026-04-11T13:08:35.001Z</time></trkpt><trkpt lat="44.764739236368236" lon="9.955572409560963"><ele>445.5</ele><time>2026-04-11T13:08:36.001Z</time></trkpt><trkpt lat="44.76469985437857" lon="9.955464218143979"><ele>449.66666666666663</ele><time>2026-04-11T13:08:37.001Z</time></trkpt><trkpt lat="44.76465428736911" lon="9.955366725501596"><ele>453.8333333333333</ele><time>2026-04-11T13:08:38.001Z</time></trkpt><trkpt lat="44.76460897321829" lon="9.955273798548268"><ele>458.0</ele><time>2026-04-11T13:08:39.001Z</time></trkpt><trkpt lat="44.764562049047505" lon="9.955179065560689"><ele>457.99999999999994</ele><time>2026-04-11T13:08:40.001Z</time></trkpt><trkpt lat="44.764505538103194" lon="9.955085077786908"><ele>458.0</ele><time>2026-04-11T13:08:41.001Z</time></trkpt><trkpt lat="44.76445193810461" lon="9.95499451398891"><ele>458.0</ele><time>2026-04-11T13:08:42.001Z</time></trkpt><trkpt lat="44.76441890582424" lon="9.954888352249764"><ele>458.0</ele><time>2026-04-11T13:08:43.001Z</time></trkpt><trkpt lat="44.76436517326742" lon="9.954787794821636"><ele>457.99999999999994</ele><time>2026-04-11T13:08:44.001Z</time></trkpt><trkpt lat="44.76432387181395" lon="9.95467647645302"><ele>458.0</ele><time>2026-04-11T13:08:45.001Z</time></trkpt><trkpt lat="44.76429262154311" lon="9.954566322298207"><ele>460.66666666666663</ele><time>2026-04-11T13:08:46.001Z</time></trkpt><trkpt lat="44.764249396714156" lon="9.954462680782648"><ele>463.3333333333333</ele><time>2026-04-11T13:08:47.001Z</time></trkpt><trkpt lat="44.76421636503699" lon="9.954349364255407"><ele>466.0</ele><time>2026-04-11T13:08:48.001Z</time></trkpt><trkpt lat="44.76417148272055" lon="9.95424221464978"><ele>468.66666666666663</ele><time>2026-04-11T13:08:49.001Z</time></trkpt><trkpt lat="44.76413340788773" lon="9.954128847155644"><ele>471.3333333333333</ele><time>2026-04-11T13:08:50.001Z</time></trkpt><trkpt lat="44.76410126151119" lon="9.95401962817649"><ele>474.0</ele><time>2026-04-11T13:08:51.001Z</time></trkpt><trkpt lat="44.76406558130547" lon="9.953928355628658"><ele>474.8571428571428</ele><time>2026-04-11T13:08:52.001Z</time></trkpt><trkpt lat="44.764043484319245" lon="9.953834374724511"><ele>475.71428571428567</ele><time>2026-04-11T13:08:53.001Z</time></trkpt><trkpt lat="44.76404307449829" lon="9.953743628276063"><ele>476.57142857142856</ele><time>2026-04-11T13:08:54.001Z</time></trkpt><trkpt lat="44.764060459086174" lon="9.9536486139452"><ele>477.4285714285714</ele><time>2026-04-11T13:08:55.001Z</time></trkpt><trkpt lat="44.764078540849795" lon="9.953552992835602"><ele>478.2857142857142</ele><time>2026-04-11T13:08:56.001Z</time></trkpt><trkpt lat="44.764080677498846" lon="9.953446806190685"><ele>479.14285714285717</ele><time>2026-04-11T13:08:57.001Z</time></trkpt><trkpt lat="44.7640789619006" lon="9.953343024205964"><ele>480.0</ele><time>2026-04-11T13:08:58.001Z</time></trkpt><trkpt lat="44.76402349368019" lon="9.953245866730528"><ele>480.8</ele><time>2026-04-11T13:08:59.001Z</time></trkpt><trkpt lat="44.763971784976846" lon="9.953155306425598"><ele>481.6</ele><time>2026-04-11T13:09:00.001Z</time></trkpt><trkpt lat="44.76390669668783" lon="9.953058024026891"><ele>482.4</ele><time>2026-04-11T13:09:01.001Z</time></trkpt><trkpt lat="44.76383593501622" lon="9.952952525074258"><ele>483.2</ele><time>2026-04-11T13:09:02.001Z</time></trkpt><trkpt lat="44.76377937878599" lon="9.952840990746955"><ele>484.0</ele><time>2026-04-11T13:09:03.001Z</time></trkpt><trkpt lat="44.763755470063025" lon="9.952722259638678"><ele>484.00000000000006</ele><time>2026-04-11T13:09:04.001Z</time></trkpt><trkpt lat="44.76371038868801" lon="9.952626720572848"><ele>484.0</ele><time>2026-04-11T13:09:05.001Z</time></trkpt><trkpt lat="44.76367917714236" lon="9.952534551484995"><ele>484.0</ele><time>2026-04-11T13:09:06.001Z</time></trkpt><trkpt lat="44.763631226219175" lon="9.952451668214062"><ele>484.0</ele><time>2026-04-11T13:09:07.001Z</time></trkpt><trkpt lat="44.76356382573837" lon="9.952380340024227"><ele>484.00000000000006</ele><time>2026-04-11T13:09:08.001Z</time></trkpt><trkpt lat="44.76349526565154" lon="9.952313859196522"><ele>484.0</ele><time>2026-04-11T13:09:09.001Z</time></trkpt><trkpt lat="44.76342905460001" lon="9.952221773979936"><ele>483.00000000000006</ele><time>2026-04-11T13:09:10.001Z</time></trkpt><trkpt lat="44.76337785789122" lon="9.952111983280822"><ele>482.0</ele><time>2026-04-11T13:09:11.001Z</time></trkpt><trkpt lat="44.76334666499995" lon="9.952012298113763"><ele>481.0</ele><time>2026-04-11T13:09:12.001Z</time></trkpt><trkpt lat="44.76333349008447" lon="9.951903748469926"><ele>480.0</ele><time>2026-04-11T13:09:13.001Z</time></trkpt><trkpt lat="44.76336472477594" lon="9.951794197575387"><ele>479.00000000000006</ele><time>2026-04-11T13:09:14.001Z</time></trkpt><trkpt lat="44.7633688488807" lon="9.951651494232406"><ele>478.0</ele><time>2026-04-11T13:09:15.001Z</time></trkpt><trkpt lat="44.763386399146654" lon="9.951489305138713"><ele>481.0</ele><time>2026-04-11T13:09:16.001Z</time></trkpt><trkpt lat="44.763390400295535" lon="9.951332553375165"><ele>483.99999999999994</ele><time>2026-04-11T13:09:17.001Z</time></trkpt><trkpt lat="44.763368028157636" lon="9.951194226592518"><ele>486.99999999999994</ele><time>2026-04-11T13:09:18.001Z</time></trkpt><trkpt lat="44.763339205179584" lon="9.95106402429483"><ele>490.0</ele><time>2026-04-11T13:09:19.001Z</time></trkpt><trkpt lat="44.763344746273866" lon="9.950946676054961"><ele>493.0</ele><time>2026-04-11T13:09:20.001Z</time></trkpt><trkpt lat="44.76338356550359" lon="9.95081903518939"><ele>493.0</ele><time>2026-04-11T13:09:22.001Z</time></trkpt><trkpt lat="44.76341830538802" lon="9.950738863242876"><ele>493.0</ele><time>2026-04-11T13:10:22.002Z</time></trkpt><trkpt lat="44.763397168263666" lon="9.950823000857916"><ele>493.0</ele><time>2026-04-11T13:10:34Z</time></trkpt><trkpt lat="44.763350676525654" lon="9.95089696309441"><ele>493.0</ele><time>2026-04-11T13:10:36Z</time></trkpt><trkpt lat="44.76332698475951" lon="9.951006076804164"><ele>493.0</ele><time>2026-04-11T13:10:39Z</time></trkpt><trkpt lat="44.763340964999436" lon="9.951110781365024"><ele>493.0</ele><time>2026-04-11T13:10:42Z</time></trkpt><trkpt lat="44.76335365342942" lon="9.951200932441651"><ele>493.0</ele><time>2026-04-11T13:10:44Z</time></trkpt><trkpt lat="44.763381151572155" lon="9.951309339935355"><ele>493.0</ele><time>2026-04-11T13:10:46Z</time></trkpt><trkpt lat="44.76340016365522" lon="9.951408018125369"><ele>493.0</ele><time>2026-04-11T13:10:48Z</time></trkpt><trkpt lat="44.76363632040542" lon="9.95131172820273"><ele>493.0</ele><time>2026-04-11T13:10:50Z</time></trkpt><trkpt lat="44.76333356106953" lon="9.951991577459326"><ele>492.0</ele><time>2026-04-11T13:10:57.001Z</time></trkpt><trkpt lat="44.763361282908704" lon="9.952114695994043"><ele>490.99999999999994</ele><time>2026-04-11T13:10:59.001Z</time></trkpt><trkpt lat="44.76339696229369" lon="9.952230113009664"><ele>489.99999999999994</ele><time>2026-04-11T13:11:01.001Z</time></trkpt><trkpt lat="44.763461070663496" lon="9.952341328776766"><ele>489.0</ele><time>2026-04-11T13:11:03.001Z</time></trkpt><trkpt lat="44.76355157292618" lon="9.952399709530747"><ele>488.0</ele><time>2026-04-11T13:11:05.001Z</time></trkpt><trkpt lat="44.76363403856249" lon="9.952476431117542"><ele>487.3333333333333</ele><time>2026-04-11T13:11:07.001Z</time></trkpt><trkpt lat="44.76368844868359" lon="9.95259004794029"><ele>486.66666666666663</ele><time>2026-04-11T13:11:09.001Z</time></trkpt><trkpt lat="44.76371939730377" lon="9.95268699023329"><ele>486.0</ele><time>2026-04-11T13:11:11.001Z</time></trkpt><trkpt lat="44.76375142214649" lon="9.952796771477322"><ele>485.33333333333337</ele><time>2026-04-11T13:11:14.001Z</time></trkpt><trkpt lat="44.763797847983156" lon="9.952916141175086"><ele>484.6666666666667</ele><time>2026-04-11T13:11:17.001Z</time></trkpt><trkpt lat="44.76384973753623" lon="9.95300213043486"><ele>484.0</ele><time>2026-04-11T13:11:19.001Z</time></trkpt><trkpt lat="44.76390407335815" lon="9.953087870142094"><ele>484.00000000000006</ele><time>2026-04-11T13:11:21.001Z</time></trkpt><trkpt lat="44.76396248682311" lon="9.953189757396359"><ele>484.0</ele><time>2026-04-11T13:11:23.001Z</time></trkpt><trkpt lat="44.764009350874275" lon="9.953268873649117"><ele>484.0</ele><time>2026-04-11T13:11:25.001Z</time></trkpt><trkpt lat="44.76403578525755" lon="9.953354315601171"><ele>484.0</ele><time>2026-04-11T13:11:28.001Z</time></trkpt><trkpt lat="44.76402626272837" lon="9.953229671644209"><ele>484.00000000000006</ele><time>2026-04-11T13:11:40.001Z</time></trkpt><trkpt lat="44.76404972780092" lon="9.953107444646264"><ele>484.0</ele><time>2026-04-11T13:11:42.001Z</time></trkpt><trkpt lat="44.76408692264482" lon="9.952980068131861"><ele>484.0</ele><time>2026-04-11T13:11:44.001Z</time></trkpt><trkpt lat="44.76411136864607" lon="9.952883238168761"><ele>483.99999999999994</ele><time>2026-04-11T13:11:47.001Z</time></trkpt><trkpt lat="44.7641285719924" lon="9.95279604225138"><ele>484.0</ele><time>2026-04-11T13:11:50.001Z</time></trkpt><trkpt lat="44.76415967535592" lon="9.95288460981017"><ele>484.0</ele><time>2026-04-11T13:12:00.001Z</time></trkpt><trkpt lat="44.76411552794178" lon="9.95298288417083"><ele>483.99999999999994</ele><time>2026-04-11T13:12:01.001Z</time></trkpt><trkpt lat="44.76405705075691" lon="9.953050630973099"><ele>484.0</ele><time>2026-04-11T13:12:02.002Z</time></trkpt><trkpt lat="44.764029974673825" lon="9.953135580341883"><ele>484.0</ele><time>2026-04-11T13:12:03.002Z</time></trkpt><trkpt lat="44.76401778442744" lon="9.953228376432374"><ele>484.00000000000006</ele><time>2026-04-11T13:12:04.002Z</time></trkpt><trkpt lat="44.76403325401848" lon="9.953340292041421"><ele>484.0</ele><time>2026-04-11T13:12:06.002Z</time></trkpt><trkpt lat="44.76405057344098" lon="9.953448183699296"><ele>484.0</ele><time>2026-04-11T13:12:07.002Z</time></trkpt><trkpt lat="44.764065920589644" lon="9.953558611817"><ele>484.0</ele><time>2026-04-11T13:12:08.002Z</time></trkpt><trkpt lat="44.76404127020706" lon="9.953663734722635"><ele>484.00000000000006</ele><time>2026-04-11T13:12:09.002Z</time></trkpt><trkpt lat="44.76402758487164" lon="9.953773056487384"><ele>484.0</ele><time>2026-04-11T13:12:10.002Z</time></trkpt><trkpt lat="44.76401447925504" lon="9.953865519180622"><ele>483.33333333333337</ele><time>2026-04-11T13:12:11.002Z</time></trkpt><trkpt lat="44.764029334008804" lon="9.95396003960669"><ele>482.6666666666667</ele><time>2026-04-11T13:12:12.002Z</time></trkpt><trkpt lat="44.764061924941984" lon="9.95405324134968"><ele>482.0</ele><time>2026-04-11T13:12:13.002Z</time></trkpt><trkpt lat="44.764100454013956" lon="9.954135451259573"><ele>481.33333333333337</ele><time>2026-04-11T13:12:14.002Z</time></trkpt><trkpt lat="44.7641598727772" lon="9.954281152447564"><ele>480.6666666666667</ele><time>2026-04-11T13:12:16.002Z</time></trkpt><trkpt lat="44.764195397163746" lon="9.954356524627302"><ele>480.0</ele><time>2026-04-11T13:12:17.002Z</time></trkpt><trkpt lat="44.76422537010432" lon="9.954438336191876"><ele>478.8</ele><time>2026-04-11T13:12:18.002Z</time></trkpt><trkpt lat="44.764267125605805" lon="9.95457178042842"><ele>477.6</ele><time>2026-04-11T13:12:20.002Z</time></trkpt><trkpt lat="44.76429954930851" lon="9.954657978479474"><ele>476.4</ele><time>2026-04-11T13:12:23.002Z</time></trkpt><trkpt lat="44.76439602449418" lon="9.9546336384397"><ele>475.2</ele><time>2026-04-11T13:12:25.002Z</time></trkpt><trkpt lat="44.764509757412654" lon="9.954647062426682"><ele>474.0</ele><time>2026-04-11T13:12:27.002Z</time></trkpt><trkpt lat="44.76463210054232" lon="9.954624808621768"><ele>473.2</ele><time>2026-04-11T13:12:29.002Z</time></trkpt><trkpt lat="44.76469626071239" lon="9.954607139643805"><ele>472.4</ele><time>2026-04-11T13:12:30.002Z</time></trkpt><trkpt lat="44.76482069338826" lon="9.954560837466307"><ele>471.6</ele><time>2026-04-11T13:12:32.002Z</time></trkpt><trkpt lat="44.764906419864396" lon="9.954523869513624"><ele>470.8</ele><time>2026-04-11T13:12:33Z</time></trkpt><trkpt lat="44.764991838640576" lon="9.954484916495117"><ele>470.0</ele><time>2026-04-11T13:12:34Z</time></trkpt><trkpt lat="44.76506882989353" lon="9.954447710473959"><ele>469.99999999999994</ele><time>2026-04-11T13:12:35Z</time></trkpt><trkpt lat="44.76512847501344" lon="9.954397571750615"><ele>470.0</ele><time>2026-04-11T13:12:36Z</time></trkpt><trkpt lat="44.765221301660276" lon="9.954389020215654"><ele>470.0</ele><time>2026-04-11T13:12:37Z</time></trkpt><trkpt lat="44.76529647013369" lon="9.954338071932481"><ele>470.0</ele><time>2026-04-11T13:12:38Z</time></trkpt><trkpt lat="44.76536662438409" lon="9.954316898900482"><ele>469.99999999999994</ele><time>2026-04-11T13:12:39Z</time></trkpt><trkpt lat="44.76543890347989" lon="9.954292406187152"><ele>470.0</ele><time>2026-04-11T13:12:40Z</time></trkpt><trkpt lat="44.76550320242542" lon="9.95425168505958"><ele>468.66666666666663</ele><time>2026-04-11T13:12:41Z</time></trkpt><trkpt lat="44.765589196119535" lon="9.954238762791894"><ele>467.3333333333333</ele><time>2026-04-11T13:12:42Z</time></trkpt><trkpt lat="44.76567030442084" lon="9.954213081675832"><ele>466.0</ele><time>2026-04-11T13:12:43Z</time></trkpt><trkpt lat="44.76575982678957" lon="9.95418389073022"><ele>464.66666666666663</ele><time>2026-04-11T13:12:44Z</time></trkpt><trkpt lat="44.76584374559757" lon="9.95415191642392"><ele>463.3333333333333</ele><time>2026-04-11T13:12:45Z</time></trkpt><trkpt lat="44.765908374148395" lon="9.954107060307747"><ele>462.0</ele><time>2026-04-11T13:12:46Z</time></trkpt><trkpt lat="44.76597359478762" lon="9.954106315953968"><ele>461.20000000000005</ele><time>2026-04-11T13:12:47Z</time></trkpt><trkpt lat="44.76604504902285" lon="9.954067418836367"><ele>460.40000000000003</ele><time>2026-04-11T13:12:48Z</time></trkpt><trkpt lat="44.7661016311264" lon="9.954027109625802"><ele>459.59999999999997</ele><time>2026-04-11T13:12:49Z</time></trkpt><trkpt lat="44.76616358303757" lon="9.953940218270402"><ele>458.79999999999995</ele><time>2026-04-11T13:13:14.001Z</time></trkpt><trkpt lat="44.766196966209876" lon="9.953854430767766"><ele>458.0</ele><time>2026-04-11T13:13:16.001Z</time></trkpt><trkpt lat="44.76629516584592" lon="9.953585232474252"><ele>458.0</ele><time>2026-04-11T13:13:17.001Z</time></trkpt><trkpt lat="44.76639318783725" lon="9.95384654185191"><ele>458.0</ele><time>2026-04-11T13:13:18.001Z</time></trkpt><trkpt lat="44.766475467648455" lon="9.953852063243113"><ele>458.0</ele><time>2026-04-11T13:13:19.001Z</time></trkpt><trkpt lat="44.766552676418286" lon="9.953822209759261"><ele>458.0</ele><time>2026-04-11T13:13:20.001Z</time></trkpt><trkpt lat="44.766635021533624" lon="9.953809226650023"><ele>458.0</ele><time>2026-04-11T13:13:21.001Z</time></trkpt><trkpt lat="44.766720164219244" lon="9.953753147011017"><ele>457.99999999999994</ele><time>2026-04-11T13:13:22.001Z</time></trkpt><trkpt lat="44.76681714744387" lon="9.953714675745161"><ele>457.99999999999994</ele><time>2026-04-11T13:13:23.001Z</time></trkpt><trkpt lat="44.76691111848538" lon="9.953677599228328"><ele>458.0</ele><time>2026-04-11T13:13:24.001Z</time></trkpt><trkpt lat="44.76701125866045" lon="9.953661914131862"><ele>458.0</ele><time>2026-04-11T13:13:25.001Z</time></trkpt><trkpt lat="44.767098532362205" lon="9.953671234057632"><ele>454.59999999999997</ele><time>2026-04-11T13:13:26.001Z</time></trkpt><trkpt lat="44.76717009431213" lon="9.953729897366944"><ele>451.19999999999993</ele><time>2026-04-11T13:13:27.001Z</time></trkpt><trkpt lat="44.767244055797185" lon="9.953740204519825"><ele>447.8</ele><time>2026-04-11T13:13:28.001Z</time></trkpt><trkpt lat="44.76734582293504" lon="9.953777583980266"><ele>444.4</ele><time>2026-04-11T13:13:30.001Z</time></trkpt><trkpt lat="44.767464766556685" lon="9.95377948327025"><ele>441.0</ele><time>2026-04-11T13:13:32.001Z</time></trkpt><trkpt lat="44.76757892489432" lon="9.95380763811257"><ele>441.0</ele><time>2026-04-11T13:13:34.001Z</time></trkpt><trkpt lat="44.767650139456215" lon="9.953801617849521"><ele>441.0</ele><time>2026-04-11T13:13:35.001Z</time></trkpt><trkpt lat="44.76771801152466" lon="9.95378389171485"><ele>441.0</ele><time>2026-04-11T13:13:36.001Z</time></trkpt><trkpt lat="44.767790143386875" lon="9.953765277140267"><ele>441.0</ele><time>2026-04-11T13:13:37.001Z</time></trkpt><trkpt lat="44.76786179692578" lon="9.953750083063063"><ele>441.0</ele><time>2026-04-11T13:13:38.001Z</time></trkpt><trkpt lat="44.76792818618541" lon="9.953728409948612"><ele>441.0</ele><time>2026-04-11T13:13:39.001Z</time></trkpt><trkpt lat="44.76798455339624" lon="9.953681059420443"><ele>441.0</ele><time>2026-04-11T13:13:40.001Z</time></trkpt><trkpt lat="44.76804608146029" lon="9.95363639894654"><ele>442.4</ele><time>2026-04-11T13:13:41.001Z</time></trkpt><trkpt lat="44.76814612855828" lon="9.953563121700537"><ele>443.8</ele><time>2026-04-11T13:13:43.001Z</time></trkpt><trkpt lat="44.76822357327468" lon="9.953540786000504"><ele>445.19999999999993</ele><time>2026-04-11T13:13:47.001Z</time></trkpt><trkpt lat="44.76830066419477" lon="9.953414555059084"><ele>446.59999999999997</ele><time>2026-04-11T13:13:49.001Z</time></trkpt><trkpt lat="44.76835191461606" lon="9.953355937322456"><ele>448.0</ele><time>2026-04-11T13:13:50.001Z</time></trkpt><trkpt lat="44.7684093937092" lon="9.953282715715032"><ele>448.0</ele><time>2026-04-11T13:13:51.001Z</time></trkpt><trkpt lat="44.76847225281446" lon="9.953244969614074"><ele>448.0</ele><time>2026-04-11T13:13:52.001Z</time></trkpt><trkpt lat="44.76852554581836" lon="9.953187691475614"><ele>448.0</ele><time>2026-04-11T13:13:53.001Z</time></trkpt><trkpt lat="44.768577736618816" lon="9.953131597979734"><ele>448.0</ele><time>2026-04-11T13:13:54.001Z</time></trkpt><trkpt lat="44.76863019789518" lon="9.953075213790358"><ele>448.0</ele><time>2026-04-11T13:13:55.001Z</time></trkpt><trkpt lat="44.7686855914217" lon="9.95301393160334"><ele>448.0</ele><time>2026-04-11T13:13:56.001Z</time></trkpt><trkpt lat="44.76874382531474" lon="9.952947247765843"><ele>448.0</ele><time>2026-04-11T13:13:57.001Z</time></trkpt><trkpt lat="44.76880254632425" lon="9.95287906436396"><ele>443.1666666666667</ele><time>2026-04-11T13:13:58.001Z</time></trkpt><trkpt lat="44.76885772937319" lon="9.952816693367836"><ele>438.33333333333337</ele><time>2026-04-11T13:13:59.001Z</time></trkpt><trkpt lat="44.76892464866815" lon="9.95274666710206"><ele>433.5</ele><time>2026-04-11T13:14:00.001Z</time></trkpt><trkpt lat="44.768979584570644" lon="9.952695598087363"><ele>428.66666666666663</ele><time>2026-04-11T13:14:01.001Z</time></trkpt><trkpt lat="44.769028807816696" lon="9.952633247997795"><ele>423.8333333333333</ele><time>2026-04-11T13:14:02.001Z</time></trkpt><trkpt lat="44.76913993038417" lon="9.952584174346459"><ele>419.0</ele><time>2026-04-11T13:14:04.001Z</time></trkpt><trkpt lat="44.76921753044983" lon="9.952591296288197"><ele>419.0</ele><time>2026-04-11T13:14:06.001Z</time></trkpt><trkpt lat="44.76929033030838" lon="9.952603439816993"><ele>419.0</ele><time>2026-04-11T13:14:08.001Z</time></trkpt><trkpt lat="44.76936230175186" lon="9.952600069133583"><ele>419.0</ele><time>2026-04-11T13:14:12.001Z</time></trkpt><trkpt lat="44.76945648570524" lon="9.952623820703593"><ele>419.0</ele><time>2026-04-11T13:14:16.001Z</time></trkpt><trkpt lat="44.76953240797614" lon="9.952665843372673"><ele>419.0</ele><time>2026-04-11T13:14:19.001Z</time></trkpt><trkpt lat="44.76958194412636" lon="9.952417394058756"><ele>418.99999999999994</ele><time>2026-04-11T13:14:23.002Z</time></trkpt><trkpt lat="44.76957504779469" lon="9.952275099753999"><ele>419.0</ele><time>2026-04-11T13:14:25.002Z</time></trkpt><trkpt lat="44.76957853410085" lon="9.95237140274796"><ele>419.0</ele><time>2026-04-11T13:14:46Z</time></trkpt><trkpt lat="44.76957472683174" lon="9.952479506501156"><ele>419.0</ele><time>2026-04-11T13:14:48Z</time></trkpt><trkpt lat="44.7694994605352" lon="9.952591631535315"><ele>418.99999999999994</ele><time>2026-04-11T13:14:50Z</time></trkpt><trkpt lat="44.76941399923595" lon="9.9525992708468"><ele>419.0</ele><time>2026-04-11T13:14:52Z</time></trkpt><trkpt lat="44.76931984231479" lon="9.952569042014654"><ele>419.0</ele><time>2026-04-11T13:14:54Z</time></trkpt><trkpt lat="44.769256416697516" lon="9.952570652512138"><ele>419.0</ele><time>2026-04-11T13:14:55Z</time></trkpt><trkpt lat="44.76911333442052" lon="9.952561846208937"><ele>419.0</ele><time>2026-04-11T13:14:57Z</time></trkpt><trkpt lat="44.769034994120325" lon="9.95259823103006"><ele>419.0</ele><time>2026-04-11T13:14:58Z</time></trkpt><trkpt lat="44.76893315838472" lon="9.952688398133098"><ele>419.0</ele><time>2026-04-11T13:14:59Z</time></trkpt><trkpt lat="44.768824352532036" lon="9.952804407866497"><ele>419.0</ele><time>2026-04-11T13:15:00Z</time></trkpt><trkpt lat="44.76870480158165" lon="9.952946478004685"><ele>419.0</ele><time>2026-04-11T13:15:01Z</time></trkpt><trkpt lat="44.76856896081519" lon="9.9530821715644"><ele>419.0</ele><time>2026-04-11T13:15:02Z</time></trkpt><trkpt lat="44.768447140852686" lon="9.953213100282497"><ele>422.25</ele><time>2026-04-11T13:15:03Z</time></trkpt><trkpt lat="44.768331097641635" lon="9.953333172668893"><ele>425.5</ele><time>2026-04-11T13:15:04Z</time></trkpt><trkpt lat="44.76825762783294" lon="9.953438632709931"><ele>428.75</ele><time>2026-04-11T13:15:05Z</time></trkpt><trkpt lat="44.768193864984205" lon="9.953489452915177"><ele>432.0</ele><time>2026-04-11T13:15:07Z</time></trkpt><trkpt lat="44.768321752641526" lon="9.953604483824689"><ele>432.0</ele><time>2026-04-11T13:15:10Z</time></trkpt><trkpt lat="44.7684003955464" lon="9.953671419472379"><ele>432.0</ele><time>2026-04-11T13:15:11Z</time></trkpt><trkpt lat="44.76847619219107" lon="9.953724661498732"><ele>432.0</ele><time>2026-04-11T13:15:12Z</time></trkpt><trkpt lat="44.76853713465268" lon="9.953767567698396"><ele>432.0</ele><time>2026-04-11T13:15:13Z</time></trkpt><trkpt lat="44.76859571289998" lon="9.953817593200355"><ele>432.0</ele><time>2026-04-11T13:15:14Z</time></trkpt><trkpt lat="44.76865690059427" lon="9.95389185462971"><ele>432.0</ele><time>2026-04-11T13:15:15Z</time></trkpt><trkpt lat="44.76871215304385" lon="9.953960769426779"><ele>429.8333333333333</ele><time>2026-04-11T13:15:16Z</time></trkpt><trkpt lat="44.768774547357104" lon="9.954032717633144"><ele>427.66666666666663</ele><time>2026-04-11T13:15:17Z</time></trkpt><trkpt lat="44.7688455391128" lon="9.95411392657687"><ele>425.5</ele><time>2026-04-11T13:15:18Z</time></trkpt><trkpt lat="44.76891673297399" lon="9.954195365973604"><ele>423.3333333333333</ele><time>2026-04-11T13:15:19Z</time></trkpt><trkpt lat="44.76898165124486" lon="9.95428760787004"><ele>421.16666666666663</ele><time>2026-04-11T13:15:20Z</time></trkpt><trkpt lat="44.76903173084175" lon="9.95436853022081"><ele>419.0</ele><time>2026-04-11T13:15:21Z</time></trkpt><trkpt lat="44.769083480785746" lon="9.954475622401544"><ele>418.49999999999994</ele><time>2026-04-11T13:15:22Z</time></trkpt><trkpt lat="44.769136829776514" lon="9.954563651063639"><ele>418.0</ele><time>2026-04-11T13:15:23Z</time></trkpt><trkpt lat="44.76916724474044" lon="9.954698233316188"><ele>417.5</ele><time>2026-04-11T13:15:24Z</time></trkpt><trkpt lat="44.76921798860978" lon="9.954808757516037"><ele>417.0</ele><time>2026-04-11T13:15:25Z</time></trkpt><trkpt lat="44.76924614118555" lon="9.954914343272105"><ele>416.49999999999994</ele><time>2026-04-11T13:15:26Z</time></trkpt><trkpt lat="44.7692824175568" lon="9.955027451434834"><ele>416.0</ele><time>2026-04-11T13:15:27Z</time></trkpt><trkpt lat="44.76930662822243" lon="9.955135313831107"><ele>413.49999999999994</ele><time>2026-04-11T13:15:28Z</time></trkpt><trkpt lat="44.7693772129917" lon="9.955205963825923"><ele>411.0</ele><time>2026-04-11T13:15:29.001Z</time></trkpt><trkpt lat="44.76943837768301" lon="9.955281150049993"><ele>408.5</ele><time>2026-04-11T13:15:30.001Z</time></trkpt><trkpt lat="44.769497684636534" lon="9.955376425336938"><ele>406.0</ele><time>2026-04-11T13:15:31.001Z</time></trkpt><trkpt lat="44.76956150674291" lon="9.955464725213535"><ele>403.49999999999994</ele><time>2026-04-11T13:15:32.001Z</time></trkpt><trkpt lat="44.76962580836157" lon="9.955547433337156"><ele>401.0</ele><time>2026-04-11T13:15:33.001Z</time></trkpt><trkpt lat="44.76969319069748" lon="9.955617265139999"><ele>400.99999999999994</ele><time>2026-04-11T13:15:34.001Z</time></trkpt><trkpt lat="44.76976887358209" lon="9.955662866741587"><ele>401.0</ele><time>2026-04-11T13:15:35.001Z</time></trkpt><trkpt lat="44.76985200994589" lon="9.955698945289665"><ele>401.0</ele><time>2026-04-11T13:15:36.001Z</time></trkpt><trkpt lat="44.769935942217536" lon="9.955733776982923"><ele>401.0</ele><time>2026-04-11T13:15:37.001Z</time></trkpt><trkpt lat="44.770007155101005" lon="9.955744740411534"><ele>400.99999999999994</ele><time>2026-04-11T13:15:38.001Z</time></trkpt><trkpt lat="44.77006493713754" lon="9.95580789575587"><ele>401.0</ele><time>2026-04-11T13:15:39.001Z</time></trkpt><trkpt lat="44.77015247060895" lon="9.955925254921281"><ele>399.57142857142856</ele><time>2026-04-11T13:15:41.001Z</time></trkpt><trkpt lat="44.770197887308974" lon="9.955993525867637"><ele>398.14285714285717</ele><time>2026-04-11T13:15:42.001Z</time></trkpt><trkpt lat="44.7702458558518" lon="9.956067902658805"><ele>396.71428571428567</ele><time>2026-04-11T13:15:43.001Z</time></trkpt><trkpt lat="44.77028744741909" lon="9.956140197311893"><ele>395.2857142857143</ele><time>2026-04-11T13:15:44.001Z</time></trkpt><trkpt lat="44.77033766039675" lon="9.956222941261215"><ele>393.85714285714283</ele><time>2026-04-11T13:15:45.001Z</time></trkpt><trkpt lat="44.77039623077602" lon="9.956285736996191"><ele>392.4285714285714</ele><time>2026-04-11T13:15:46.001Z</time></trkpt><trkpt lat="44.77045246154038" lon="9.956338358558611"><ele>391.0</ele><time>2026-04-11T13:15:47.001Z</time></trkpt><trkpt lat="44.77051937527152" lon="9.956386030962559"><ele>391.00000000000006</ele><time>2026-04-11T13:15:48.001Z</time></trkpt><trkpt lat="44.77058746215269" lon="9.956399267621151"><ele>391.0</ele><time>2026-04-11T13:15:49.001Z</time></trkpt><trkpt lat="44.77068059658197" lon="9.956460530000307"><ele>391.0</ele><time>2026-04-11T13:15:51.001Z</time></trkpt><trkpt lat="44.770748363944605" lon="9.956489253243536"><ele>391.0</ele><time>2026-04-11T13:20:00.001Z</time></trkpt><trkpt lat="44.7708420095656" lon="9.956578181932981"><ele>391.00000000000006</ele><time>2026-04-11T13:20:02.001Z</time></trkpt><trkpt lat="44.77088936742049" lon="9.956665471444957"><ele>391.0</ele><time>2026-04-11T13:20:03.001Z</time></trkpt><trkpt lat="44.77094796086962" lon="9.956731665350691"><ele>389.6</ele><time>2026-04-11T13:20:04.001Z</time></trkpt><trkpt lat="44.77101963258409" lon="9.956791768637446"><ele>388.20000000000005</ele><time>2026-04-11T13:20:05.001Z</time></trkpt><trkpt lat="44.771102480897156" lon="9.956834730258974"><ele>386.79999999999995</ele><time>2026-04-11T13:20:06.001Z</time></trkpt><trkpt lat="44.77120566137315" lon="9.956866128759632"><ele>385.4</ele><time>2026-04-11T13:20:07.001Z</time></trkpt><trkpt lat="44.77128596760099" lon="9.956844176643166"><ele>384.0</ele><time>2026-04-11T13:20:08.001Z</time></trkpt><trkpt lat="44.77139083221058" lon="9.956828122353409"><ele>382.5</ele><time>2026-04-11T13:20:09.001Z</time></trkpt><trkpt lat="44.771493357190096" lon="9.956831074334513"><ele>381.0</ele><time>2026-04-11T13:20:10.001Z</time></trkpt><trkpt lat="44.77157842923589" lon="9.956808785301616"><ele>379.5</ele><time>2026-04-11T13:20:11.001Z</time></trkpt><trkpt lat="44.77165640459969" lon="9.956773398200054"><ele>378.0</ele><time>2026-04-11T13:20:12.001Z</time></trkpt><trkpt lat="44.771730928977455" lon="9.956782614529553"><ele>376.5</ele><time>2026-04-11T13:20:13.001Z</time></trkpt><trkpt lat="44.771804298216" lon="9.956775367665129"><ele>375.0</ele><time>2026-04-11T13:20:14.001Z</time></trkpt><trkpt lat="44.77187739496533" lon="9.956771636809886"><ele>375.6</ele><time>2026-04-11T13:20:15.001Z</time></trkpt><trkpt lat="44.77194383430421" lon="9.956769916081734"><ele>376.2</ele><time>2026-04-11T13:20:16.001Z</time></trkpt><trkpt lat="44.772010960364845" lon="9.956768177567325"><ele>376.79999999999995</ele><time>2026-04-11T13:20:17.001Z</time></trkpt><trkpt lat="44.77212325400123" lon="9.956751544001323"><ele>377.4</ele><time>2026-04-11T13:20:19.001Z</time></trkpt><trkpt lat="44.77219128298688" lon="9.95662859430445"><ele>378.0</ele><time>2026-04-11T13:20:21.001Z</time></trkpt><trkpt lat="44.772147492917625" lon="9.956506075227674"><ele>378.0</ele><time>2026-04-11T13:20:22.001Z</time></trkpt><trkpt lat="44.772183005443885" lon="9.95637260629553"><ele>378.0</ele><time>2026-04-11T13:20:24.001Z</time></trkpt><trkpt lat="44.77232115481111" lon="9.956422730770404"><ele>378.0</ele><time>2026-04-11T13:20:26.001Z</time></trkpt><trkpt lat="44.772425836982556" lon="9.956439162385676"><ele>378.0</ele><time>2026-04-11T13:20:27.001Z</time></trkpt><trkpt lat="44.772518742132135" lon="9.956438166089319"><ele>378.0</ele><time>2026-04-11T13:20:28.001Z</time></trkpt><trkpt lat="44.77261135243286" lon="9.95642279084142"><ele>378.0</ele><time>2026-04-11T13:20:29.001Z</time></trkpt><trkpt lat="44.77267709816948" lon="9.956374433687866"><ele>378.0</ele><time>2026-04-11T13:20:30.001Z</time></trkpt><trkpt lat="44.772740145089315" lon="9.9563596056688"><ele>378.0</ele><time>2026-04-11T13:20:31.001Z</time></trkpt><trkpt lat="44.77279293717357" lon="9.956254124992022"><ele>378.0</ele><time>2026-04-11T13:20:33.001Z</time></trkpt><trkpt lat="44.772727482143345" lon="9.956078790810547"><ele>378.0</ele><time>2026-04-11T13:20:35.001Z</time></trkpt><trkpt lat="44.772617634257415" lon="9.956040567115087"><ele>378.0</ele><time>2026-04-11T13:20:36.001Z</time></trkpt><trkpt lat="44.77252073733687" lon="9.955958720406805"><ele>378.0</ele><time>2026-04-11T13:20:37.001Z</time></trkpt><trkpt lat="44.772421137143844" lon="9.955895964483135"><ele>378.0</ele><time>2026-04-11T13:20:38.001Z</time></trkpt><trkpt lat="44.77234306289784" lon="9.9558454965977"><ele>378.0</ele><time>2026-04-11T13:20:39.001Z</time></trkpt><trkpt lat="44.772279583158294" lon="9.955808764733243"><ele>378.0</ele><time>2026-04-11T13:20:40.001Z</time></trkpt><trkpt lat="44.7722791824531" lon="9.955652231341132"><ele>378.1666666666667</ele><time>2026-04-11T13:20:42.001Z</time></trkpt><trkpt lat="44.772371833968656" lon="9.955551796252633"><ele>378.3333333333333</ele><time>2026-04-11T13:20:44.001Z</time></trkpt><trkpt lat="44.77245043656398" lon="9.955537842949347"><ele>378.5</ele><time>2026-04-11T13:20:45.001Z</time></trkpt><trkpt lat="44.77252941708593" lon="9.955519304087504"><ele>378.66666666666663</ele><time>2026-04-11T13:20:46.001Z</time></trkpt><trkpt lat="44.77260327451801" lon="9.955497245654906"><ele>378.8333333333333</ele><time>2026-04-11T13:20:47.001Z</time></trkpt><trkpt lat="44.77267476445528" lon="9.955471175435056"><ele>379.0</ele><time>2026-04-11T13:20:48.001Z</time></trkpt><trkpt lat="44.77277017533713" lon="9.955391108203226"><ele>379.0</ele><time>2026-04-11T13:20:50.002Z</time></trkpt><trkpt lat="44.77275601299611" lon="9.955231205003473"><ele>379.0</ele><time>2026-04-11T13:20:52.002Z</time></trkpt><trkpt lat="44.77267794831905" lon="9.955205327205807"><ele>379.0</ele><time>2026-04-11T13:20:53.002Z</time></trkpt><trkpt lat="44.77259497204627" lon="9.955129411720712"><ele>379.0</ele><time>2026-04-11T13:20:55.002Z</time></trkpt><trkpt lat="44.77262422979261" lon="9.955001312124773"><ele>379.0</ele><time>2026-04-11T13:20:56.999Z</time></trkpt><trkpt lat="44.77267743940468" lon="9.954861875298425"><ele>373.4</ele><time>2026-04-11T13:20:58.999Z</time></trkpt><trkpt lat="44.77270490172178" lon="9.954702215081516"><ele>367.79999999999995</ele><time>2026-04-11T13:21:00.999Z</time></trkpt><trkpt lat="44.77276412486039" lon="9.95456770263864"><ele>362.20000000000005</ele><time>2026-04-11T13:21:02.999Z</time></trkpt><trkpt lat="44.77283741318426" lon="9.954434346472057"><ele>356.6</ele><time>2026-04-11T13:21:04.999Z</time></trkpt><trkpt lat="44.77293314840796" lon="9.954443471960854"><ele>351.0</ele><time>2026-04-11T13:21:05.999Z</time></trkpt><trkpt lat="44.773010604659355" lon="9.954402830215434"><ele>351.0</ele><time>2026-04-11T13:21:06.999Z</time></trkpt><trkpt lat="44.773075866164405" lon="9.954352438867742"><ele>351.0</ele><time>2026-04-11T13:21:07.999Z</time></trkpt><trkpt lat="44.77314543434652" lon="9.954301003784282"><ele>351.0</ele><time>2026-04-11T13:21:08.999Z</time></trkpt><trkpt lat="44.77321394638076" lon="9.954249634070651"><ele>351.0</ele><time>2026-04-11T13:21:09.999Z</time></trkpt><trkpt lat="44.77328124007279" lon="9.954196766753398"><ele>351.0</ele><time>2026-04-11T13:21:10.999Z</time></trkpt><trkpt lat="44.77335327288834" lon="9.954137326314616"><ele>351.0</ele><time>2026-04-11T13:21:11.999Z</time></trkpt><trkpt lat="44.773416788255176" lon="9.954058928108703"><ele>348.0</ele><time>2026-04-11T13:21:12.999Z</time></trkpt><trkpt lat="44.773500382637" lon="9.95402637178415"><ele>345.0</ele><time>2026-04-11T13:21:13.999Z</time></trkpt><trkpt lat="44.773572966327926" lon="9.953988282730318"><ele>342.0</ele><time>2026-04-11T13:21:14.999Z</time></trkpt><trkpt lat="44.77364663742827" lon="9.953960358019872"><ele>339.0</ele><time>2026-04-11T13:21:15.999Z</time></trkpt><trkpt lat="44.773725986805594" lon="9.953932192531127"><ele>336.0</ele><time>2026-04-11T13:21:16.999Z</time></trkpt><trkpt lat="44.77381139133882" lon="9.953942532383667"><ele>333.0</ele><time>2026-04-11T13:21:17.999Z</time></trkpt><trkpt lat="44.773887829425576" lon="9.953973552859702"><ele>332.3333333333333</ele><time>2026-04-11T13:21:18.999Z</time></trkpt><trkpt lat="44.77396227074288" lon="9.954034988261087"><ele>331.6666666666667</ele><time>2026-04-11T13:21:19.999Z</time></trkpt><trkpt lat="44.774043321223395" lon="9.954054777170908"><ele>331.0</ele><time>2026-04-11T13:21:20.999Z</time></trkpt><trkpt lat="44.77412486076564" lon="9.95409705320881"><ele>330.33333333333337</ele><time>2026-04-11T13:21:21.999Z</time></trkpt><trkpt lat="44.77420864521892" lon="9.954137589311026"><ele>329.6666666666667</ele><time>2026-04-11T13:21:22.999Z</time></trkpt><trkpt lat="44.774291870981465" lon="9.954186614549924"><ele>329.0</ele><time>2026-04-11T13:21:23.999Z</time></trkpt><trkpt lat="44.77438112727562" lon="9.954220715062789"><ele>329.0</ele><time>2026-04-11T13:21:24.999Z</time></trkpt><trkpt lat="44.77446683313192" lon="9.95427105056015"><ele>329.0</ele><time>2026-04-11T13:21:26Z</time></trkpt><trkpt lat="44.77455177846285" lon="9.954297898087189"><ele>329.0</ele><time>2026-04-11T13:21:27Z</time></trkpt><trkpt lat="44.77470166633621" lon="9.954297182920033"><ele>329.0</ele><time>2026-04-11T13:21:29Z</time></trkpt><trkpt lat="44.774768099527485" lon="9.95426888812468"><ele>329.0</ele><time>2026-04-11T13:21:30Z</time></trkpt><trkpt lat="44.77483604816986" lon="9.954230842582918"><ele>326.33333333333337</ele><time>2026-04-11T13:21:31Z</time></trkpt><trkpt lat="44.774897637029014" lon="9.954177100620221"><ele>323.6666666666667</ele><time>2026-04-11T13:21:32Z</time></trkpt><trkpt lat="44.77495728782626" lon="9.954109178328075"><ele>321.0</ele><time>2026-04-11T13:21:33Z</time></trkpt><trkpt lat="44.77503562818965" lon="9.954057792365203"><ele>318.3333333333333</ele><time>2026-04-11T13:21:34Z</time></trkpt><trkpt lat="44.77510666817637" lon="9.953985944500946"><ele>315.66666666666663</ele><time>2026-04-11T13:21:35Z</time></trkpt><trkpt lat="44.775179115450484" lon="9.953912673704242"><ele>313.0</ele><time>2026-04-11T13:21:36Z</time></trkpt><trkpt lat="44.7752412487971" lon="9.953821387132475"><ele>310.66666666666663</ele><time>2026-04-11T13:21:37Z</time></trkpt><trkpt lat="44.775319464996066" lon="9.953756431835613"><ele>308.3333333333333</ele><time>2026-04-11T13:21:38Z</time></trkpt><trkpt lat="44.77539201579333" lon="9.953675127772252"><ele>306.0</ele><time>2026-04-11T13:21:39Z</time></trkpt><trkpt lat="44.775465639506955" lon="9.953611353148384"><ele>303.6666666666667</ele><time>2026-04-11T13:21:40Z</time></trkpt><trkpt lat="44.77553394228124" lon="9.953534716167395"><ele>301.33333333333337</ele><time>2026-04-11T13:21:41Z</time></trkpt><trkpt lat="44.77561312245293" lon="9.953475412563414"><ele>299.0</ele><time>2026-04-11T13:21:42Z</time></trkpt><trkpt lat="44.77570428359795" lon="9.953433403084095"><ele>299.0</ele><time>2026-04-11T13:21:43Z</time></trkpt><trkpt lat="44.775818552220365" lon="9.953412275152644"><ele>299.0</ele><time>2026-04-11T13:21:44Z</time></trkpt><trkpt lat="44.775940106063686" lon="9.953394898512617"><ele>299.0</ele><time>2026-04-11T13:21:45Z</time></trkpt><trkpt lat="44.776048304698534" lon="9.953405155714663"><ele>299.0</ele><time>2026-04-11T13:21:46Z</time></trkpt><trkpt lat="44.776165398569375" lon="9.953390135976916"><ele>296.0</ele><time>2026-04-11T13:21:47Z</time></trkpt><trkpt lat="44.77628495397536" lon="9.953407044594227"><ele>293.0</ele><time>2026-04-11T13:21:48Z</time></trkpt><trkpt lat="44.77640605055836" lon="9.953421167547782"><ele>290.0</ele><time>2026-04-11T13:21:49Z</time></trkpt><trkpt lat="44.77651676173623" lon="9.95344468344629"><ele>287.0</ele><time>2026-04-11T13:21:50Z</time></trkpt><trkpt lat="44.77661853831749" lon="9.953480243046242"><ele>287.0</ele><time>2026-04-11T13:21:51Z</time></trkpt><trkpt lat="44.77670420489749" lon="9.95354880397976"><ele>287.0</ele><time>2026-04-11T13:21:52Z</time></trkpt><trkpt lat="44.7767847667161" lon="9.953616175228287"><ele>287.0</ele><time>2026-04-11T13:21:53Z</time></trkpt><trkpt lat="44.77685211476361" lon="9.953659896074498"><ele>287.0</ele><time>2026-04-11T13:21:54Z</time></trkpt><trkpt lat="44.776921891705484" lon="9.9536566026896"><ele>287.0</ele><time>2026-04-11T13:21:55Z</time></trkpt><trkpt lat="44.77699323770242" lon="9.953660385750814"><ele>287.0</ele><time>2026-04-11T13:21:56Z</time></trkpt><trkpt lat="44.777065142471635" lon="9.953654721780744"><ele>285.8</ele><time>2026-04-11T13:21:57Z</time></trkpt><trkpt lat="44.77718228355214" lon="9.95360046971695"><ele>284.6</ele><time>2026-04-11T13:21:59Z</time></trkpt><trkpt lat="44.77729964851604" lon="9.953579992400353"><ele>283.40000000000003</ele><time>2026-04-11T13:22:01Z</time></trkpt><trkpt lat="44.77736014066763" lon="9.953554501368545"><ele>282.2</ele><time>2026-04-11T13:22:02Z</time></trkpt><trkpt lat="44.777423160856635" lon="9.953519985833427"><ele>281.0</ele><time>2026-04-11T13:22:03Z</time></trkpt><trkpt lat="44.77752902050763" lon="9.953440029222891"><ele>279.0</ele><time>2026-04-11T13:22:05Z</time></trkpt><trkpt lat="44.777583948626834" lon="9.953365864657885"><ele>277.0</ele><time>2026-04-11T13:22:07Z</time></trkpt><trkpt lat="44.7776175084514" lon="9.953257552212484"><ele>275.0</ele><time>2026-04-11T13:22:09Z</time></trkpt><trkpt lat="44.777649779422916" lon="9.953145091202662"><ele>273.0</ele><time>2026-04-11T13:22:11.001Z</time></trkpt><trkpt lat="44.77764849677692" lon="9.95297649601656"><ele>271.0</ele><time>2026-04-11T13:22:13.001Z</time></trkpt><trkpt lat="44.7776743823513" lon="9.952861833935575"><ele>268.8333333333333</ele><time>2026-04-11T13:22:15.001Z</time></trkpt><trkpt lat="44.77770752102708" lon="9.952976853754535"><ele>266.66666666666663</ele><time>2026-04-11T13:22:20.001Z</time></trkpt><trkpt lat="44.77772595078603" lon="9.95309172433204"><ele>264.5</ele><time>2026-04-11T13:22:21.001Z</time></trkpt><trkpt lat="44.77774115239078" lon="9.95318640369013"><ele>262.3333333333333</ele><time>2026-04-11T13:22:22.001Z</time></trkpt><trkpt lat="44.77776100718918" lon="9.95331006495099"><ele>260.1666666666667</ele><time>2026-04-11T13:22:23.001Z</time></trkpt><trkpt lat="44.77779704236181" lon="9.953442538108897"><ele>258.0</ele><time>2026-04-11T13:22:24.001Z</time></trkpt><trkpt lat="44.777812258594544" lon="9.95357324322418"><ele>257.99999999999994</ele><time>2026-04-11T13:22:25.001Z</time></trkpt><trkpt lat="44.77783380180216" lon="9.95367977545588"><ele>258.0</ele><time>2026-04-11T13:22:26.001Z</time></trkpt><trkpt lat="44.77785095579029" lon="9.953778114151135"><ele>258.0</ele><time>2026-04-11T13:22:27.001Z</time></trkpt><trkpt lat="44.777871396794325" lon="9.953879689677816"><ele>258.0</ele><time>2026-04-11T13:22:28.001Z</time></trkpt><trkpt lat="44.77789346142001" lon="9.953979195247376"><ele>258.0</ele><time>2026-04-11T13:22:29.001Z</time></trkpt><trkpt lat="44.77791857345712" lon="9.954073471101104"><ele>257.99999999999994</ele><time>2026-04-11T13:22:30.001Z</time></trkpt><trkpt lat="44.77793445893383" lon="9.954172270607572"><ele>258.0</ele><time>2026-04-11T13:22:31.001Z</time></trkpt><trkpt lat="44.77796526043544" lon="9.954265323030834"><ele>257.8333333333333</ele><time>2026-04-11T13:22:32.001Z</time></trkpt><trkpt lat="44.77798397240108" lon="9.954362353884497"><ele>257.6666666666667</ele><time>2026-04-11T13:22:33.001Z</time></trkpt><trkpt lat="44.777971020794816" lon="9.954466064782249"><ele>257.5</ele><time>2026-04-11T13:22:34.001Z</time></trkpt><trkpt lat="44.77795976460947" lon="9.95456758102377"><ele>257.33333333333337</ele><time>2026-04-11T13:22:35.001Z</time></trkpt><trkpt lat="44.77795255314511" lon="9.954710414185094"><ele>257.1666666666667</ele><time>2026-04-11T13:22:36.001Z</time></trkpt><trkpt lat="44.77795603404437" lon="9.954883184007892"><ele>257.0</ele><time>2026-04-11T13:22:37.001Z</time></trkpt><trkpt lat="44.77796576755796" lon="9.955073590932432"><ele>257.0</ele><time>2026-04-11T13:22:38.001Z</time></trkpt><trkpt lat="44.77797726950279" lon="9.955271564488784"><ele>257.0</ele><time>2026-04-11T13:22:39.001Z</time></trkpt><trkpt lat="44.777999262715156" lon="9.955698762002838"><ele>257.0</ele><time>2026-04-11T13:22:41.001Z</time></trkpt><trkpt lat="44.77799080595264" lon="9.955900472929924"><ele>257.1666666666667</ele><time>2026-04-11T13:22:42.001Z</time></trkpt><trkpt lat="44.778006205247515" lon="9.956037412327118"><ele>257.33333333333337</ele><time>2026-04-11T13:22:43.001Z</time></trkpt><trkpt lat="44.778029133483486" lon="9.956150415596253"><ele>257.5</ele><time>2026-04-11T13:22:44.001Z</time></trkpt><trkpt lat="44.778044159499096" lon="9.956265664254232"><ele>257.6666666666667</ele><time>2026-04-11T13:22:45.001Z</time></trkpt><trkpt lat="44.77804444239085" lon="9.95637895595594"><ele>257.8333333333333</ele><time>2026-04-11T13:22:46.001Z</time></trkpt><trkpt lat="44.77803352579295" lon="9.956504953198777"><ele>258.0</ele><time>2026-04-11T13:22:47.001Z</time></trkpt><trkpt lat="44.77801795371796" lon="9.956636985782021"><ele>258.3333333333333</ele><time>2026-04-11T13:22:48.001Z</time></trkpt><trkpt lat="44.77799988863258" lon="9.956747424672873"><ele>258.6666666666667</ele><time>2026-04-11T13:22:49.001Z</time></trkpt><trkpt lat="44.777973681278276" lon="9.956861487468585"><ele>259.0</ele><time>2026-04-11T13:22:50.001Z</time></trkpt><trkpt lat="44.77794030486577" lon="9.956970929471385"><ele>259.33333333333337</ele><time>2026-04-11T13:22:51.001Z</time></trkpt><trkpt lat="44.777914526529074" lon="9.957054658833451"><ele>259.6666666666667</ele><time>2026-04-11T13:22:52.001Z</time></trkpt><trkpt lat="44.77789370196038" lon="9.957147628893505"><ele>260.0</ele><time>2026-04-11T13:22:53.001Z</time></trkpt><trkpt lat="44.77787890838624" lon="9.957297915039344"><ele>260.0</ele><time>2026-04-11T13:22:55.001Z</time></trkpt><trkpt lat="44.77785728185282" lon="9.957446839767124"><ele>260.0</ele><time>2026-04-11T13:22:57.001Z</time></trkpt><trkpt lat="44.77783800390911" lon="9.957597731625462"><ele>260.0</ele><time>2026-04-11T13:22:59.001Z</time></trkpt><trkpt lat="44.77783232415897" lon="9.957721099983505"><ele>260.0</ele><time>2026-04-11T13:23:01.001Z</time></trkpt><trkpt lat="44.77785015680932" lon="9.957836569453749"><ele>260.0</ele><time>2026-04-11T13:23:02.999Z</time></trkpt><trkpt lat="44.777936369872165" lon="9.95785231165114"><ele>259.0</ele><time>2026-04-11T13:23:03.999Z</time></trkpt><trkpt lat="44.77802274490483" lon="9.957887785627172"><ele>258.0</ele><time>2026-04-11T13:23:04.999Z</time></trkpt><trkpt lat="44.77811403623998" lon="9.957957973217459"><ele>257.0</ele><time>2026-04-11T13:23:05.999Z</time></trkpt><trkpt lat="44.778238971419455" lon="9.958036939709668"><ele>256.0</ele><time>2026-04-11T13:23:06.999Z</time></trkpt><trkpt lat="44.77835816833182" lon="9.958110319053656"><ele>256.0</ele><time>2026-04-11T13:23:07.999Z</time></trkpt><trkpt lat="44.77848110347812" lon="9.958171237695625"><ele>256.0</ele><time>2026-04-11T13:23:08.999Z</time></trkpt><trkpt lat="44.77860506798698" lon="9.958247119117615"><ele>256.0</ele><time>2026-04-11T13:23:09.999Z</time></trkpt><trkpt lat="44.778731699014564" lon="9.958327955483984"><ele>256.0</ele><time>2026-04-11T13:23:10.999Z</time></trkpt><trkpt lat="44.77885703236823" lon="9.958403405340622"><ele>253.25</ele><time>2026-04-11T13:23:11.999Z</time></trkpt><trkpt lat="44.778981028933714" lon="9.958479004543365"><ele>250.5</ele><time>2026-04-11T13:23:12.999Z</time></trkpt><trkpt lat="44.77909577515745" lon="9.958552566547462"><ele>247.75</ele><time>2026-04-11T13:23:13.999Z</time></trkpt><trkpt lat="44.77918722573707" lon="9.958611934001995"><ele>245.0</ele><time>2026-04-11T13:23:14.999Z</time></trkpt><trkpt lat="44.779267657798314" lon="9.958670758529834"><ele>245.0</ele><time>2026-04-11T13:23:15.999Z</time></trkpt><trkpt lat="44.779325593307405" lon="9.958734086938934"><ele>245.0</ele><time>2026-04-11T13:23:16.999Z</time></trkpt><trkpt lat="44.77937261547104" lon="9.958855558730649"><ele>245.0</ele><time>2026-04-11T13:23:18.999Z</time></trkpt><trkpt lat="44.77927917484753" lon="9.958948364951688"><ele>245.0</ele><time>2026-04-11T13:23:21.999Z</time></trkpt><trkpt lat="44.77917249188043" lon="9.9590636768536"><ele>245.0</ele><time>2026-04-11T13:23:24Z</time></trkpt><trkpt lat="44.7791362369182" lon="9.959180462034398"><ele>245.6</ele><time>2026-04-11T13:23:25Z</time></trkpt><trkpt lat="44.77911034996021" lon="9.959295882720726"><ele>246.2</ele><time>2026-04-11T13:23:26Z</time></trkpt><trkpt lat="44.77908829996704" lon="9.959406567322658"><ele>246.8</ele><time>2026-04-11T13:23:27Z</time></trkpt><trkpt lat="44.779000801197554" lon="9.959535547115422"><ele>247.4</ele><time>2026-04-11T13:23:29Z</time></trkpt><trkpt lat="44.778901700799295" lon="9.959545127926113"><ele>248.0</ele><time>2026-04-11T13:23:31Z</time></trkpt><trkpt lat="44.778820624447434" lon="9.959435571856082"><ele>248.0</ele><time>2026-04-11T13:23:33Z</time></trkpt><trkpt lat="44.77874981359355" lon="9.959394807829757"><ele>248.0</ele><time>2026-04-11T13:23:34Z</time></trkpt><trkpt lat="44.77866494717935" lon="9.959360215851783"><ele>248.0</ele><time>2026-04-11T13:23:35Z</time></trkpt><trkpt lat="44.778557159558765" lon="9.95933020668011"><ele>248.0</ele><time>2026-04-11T13:23:36Z</time></trkpt><trkpt lat="44.7784399214839" lon="9.959307305501506"><ele>248.0</ele><time>2026-04-11T13:23:37Z</time></trkpt><trkpt lat="44.778316116416946" lon="9.959286752672272"><ele>251.0</ele><time>2026-04-11T13:23:38Z</time></trkpt><trkpt lat="44.77818199446948" lon="9.959270451273603"><ele>254.0</ele><time>2026-04-11T13:23:39Z</time></trkpt><trkpt lat="44.778051275112674" lon="9.959275264094433"><ele>257.0</ele><time>2026-04-11T13:23:40Z</time></trkpt><trkpt lat="44.77794199113971" lon="9.959271799375616"><ele>260.0</ele><time>2026-04-11T13:23:41Z</time></trkpt><trkpt lat="44.77785502823774" lon="9.959285941741822"><ele>260.0</ele><time>2026-04-11T13:23:42Z</time></trkpt><trkpt lat="44.77778417183315" lon="9.959332290059846"><ele>260.0</ele><time>2026-04-11T13:23:43Z</time></trkpt><trkpt lat="44.77771175445017" lon="9.9594019010415"><ele>260.0</ele><time>2026-04-11T13:23:44Z</time></trkpt><trkpt lat="44.777642020905404" lon="9.959492625792477"><ele>260.0</ele><time>2026-04-11T13:23:45Z</time></trkpt><trkpt lat="44.77756815890701" lon="9.959614746295438"><ele>260.0</ele><time>2026-04-11T13:23:46Z</time></trkpt><trkpt lat="44.77750393423097" lon="9.959737528178078"><ele>261.0</ele><time>2026-04-11T13:23:47Z</time></trkpt><trkpt lat="44.77743618924456" lon="9.959886685012366"><ele>262.0</ele><time>2026-04-11T13:23:48Z</time></trkpt><trkpt lat="44.7773582090507" lon="9.960030947662334"><ele>263.0</ele><time>2026-04-11T13:23:49Z</time></trkpt><trkpt lat="44.777281418341566" lon="9.960164345276967"><ele>264.0</ele><time>2026-04-11T13:23:50Z</time></trkpt><trkpt lat="44.77720660953548" lon="9.960297339026416"><ele>266.0</ele><time>2026-04-11T13:23:51Z</time></trkpt><trkpt lat="44.777129737651215" lon="9.960402534809674"><ele>268.0</ele><time>2026-04-11T13:23:52Z</time></trkpt><trkpt lat="44.77703725851756" lon="9.960484865982366"><ele>270.0</ele><time>2026-04-11T13:23:53Z</time></trkpt><trkpt lat="44.776921488499596" lon="9.96052711011412"><ele>272.0</ele><time>2026-04-11T13:23:54Z</time></trkpt><trkpt lat="44.77680153363907" lon="9.960558939373225"><ele>272.0</ele><time>2026-04-11T13:23:55Z</time></trkpt><trkpt lat="44.77666350005661" lon="9.96059415384442"><ele>272.0</ele><time>2026-04-11T13:23:56Z</time></trkpt><trkpt lat="44.77650243719751" lon="9.960630071452346"><ele>272.0</ele><time>2026-04-11T13:23:57Z</time></trkpt><trkpt lat="44.77633924684396" lon="9.960669857181149"><ele>272.0</ele><time>2026-04-11T13:23:58Z</time></trkpt><trkpt lat="44.77620073822827" lon="9.96070828194387"><ele>272.0</ele><time>2026-04-11T13:23:59Z</time></trkpt><trkpt lat="44.77606351291815" lon="9.960739761775244"><ele>272.0</ele><time>2026-04-11T13:24:00.001Z</time></trkpt><trkpt lat="44.77592100710032" lon="9.960744188100795"><ele>272.0</ele><time>2026-04-11T13:24:01.001Z</time></trkpt><trkpt lat="44.77578044689015" lon="9.960770173152403"><ele>272.75</ele><time>2026-04-11T13:24:02.001Z</time></trkpt><trkpt lat="44.77563994052414" lon="9.960796738208357"><ele>273.5</ele><time>2026-04-11T13:24:03.001Z</time></trkpt><trkpt lat="44.775497147645495" lon="9.960823735576591"><ele>274.25</ele><time>2026-04-11T13:24:04.001Z</time></trkpt><trkpt lat="44.77535362023491" lon="9.960850199130569"><ele>275.0</ele><time>2026-04-11T13:24:05.001Z</time></trkpt><trkpt lat="44.77521543246523" lon="9.960875263407738"><ele>279.75</ele><time>2026-04-11T13:24:06.001Z</time></trkpt><trkpt lat="44.77507504840805" lon="9.960899597952437"><ele>284.5</ele><time>2026-04-11T13:24:07.001Z</time></trkpt><trkpt lat="44.774935227464425" lon="9.960922133449206"><ele>289.25</ele><time>2026-04-11T13:24:08.001Z</time></trkpt><trkpt lat="44.77480882420504" lon="9.960942506217426"><ele>294.0</ele><time>2026-04-11T13:24:09.001Z</time></trkpt><trkpt lat="44.77467920011529" lon="9.960961201190118"><ele>294.0</ele><time>2026-04-11T13:24:10.001Z</time></trkpt><trkpt lat="44.77455555288169" lon="9.960978235448675"><ele>294.0</ele><time>2026-04-11T13:24:11.001Z</time></trkpt><trkpt lat="44.77444102110564" lon="9.960991851466867"><ele>294.0</ele><time>2026-04-11T13:24:12.001Z</time></trkpt><trkpt lat="44.77432697827641" lon="9.96098129440685"><ele>294.0</ele><time>2026-04-11T13:24:13.001Z</time></trkpt><trkpt lat="44.77421160239564" lon="9.960952018684978"><ele>294.75</ele><time>2026-04-11T13:24:14.001Z</time></trkpt><trkpt lat="44.774085501495286" lon="9.9609245538628"><ele>295.5</ele><time>2026-04-11T13:24:15.001Z</time></trkpt><trkpt lat="44.77396432671158" lon="9.960885162726923"><ele>296.25</ele><time>2026-04-11T13:24:16.001Z</time></trkpt><trkpt lat="44.77385120160333" lon="9.960823020889189"><ele>297.0</ele><time>2026-04-11T13:24:17.001Z</time></trkpt><trkpt lat="44.77374400139183" lon="9.960779014959083"><ele>297.0</ele><time>2026-04-11T13:24:18.001Z</time></trkpt><trkpt lat="44.77363502187751" lon="9.960751031309576"><ele>297.0</ele><time>2026-04-11T13:24:19.001Z</time></trkpt><trkpt lat="44.773527085337285" lon="9.960691795569355"><ele>297.0</ele><time>2026-04-11T13:24:20.001Z</time></trkpt><trkpt lat="44.77341755376984" lon="9.960641394097124"><ele>297.0</ele><time>2026-04-11T13:24:21.001Z</time></trkpt><trkpt lat="44.773309513436374" lon="9.960603348090618"><ele>300.75</ele><time>2026-04-11T13:24:22.001Z</time></trkpt><trkpt lat="44.77319511203331" lon="9.960585491122385"><ele>304.5</ele><time>2026-04-11T13:24:23.001Z</time></trkpt><trkpt lat="44.77307691068576" lon="9.960579233942088"><ele>308.25</ele><time>2026-04-11T13:24:24.001Z</time></trkpt><trkpt lat="44.772959154778036" lon="9.960573244237109"><ele>312.0</ele><time>2026-04-11T13:24:25.001Z</time></trkpt><trkpt lat="44.77282705677902" lon="9.960589933445366"><ele>312.0</ele><time>2026-04-11T13:24:26.001Z</time></trkpt><trkpt lat="44.772702182214786" lon="9.960591234521033"><ele>312.0</ele><time>2026-04-11T13:24:27.001Z</time></trkpt><trkpt lat="44.772624638732175" lon="9.960636747467538"><ele>312.0</ele><time>2026-04-11T13:24:28.001Z</time></trkpt><trkpt lat="44.77256214912212" lon="9.960719550726676"><ele>312.0</ele><time>2026-04-11T13:24:30.001Z</time></trkpt><trkpt lat="44.77255918714412" lon="9.96088407822144"><ele>312.0</ele><time>2026-04-11T13:24:32.001Z</time></trkpt><trkpt lat="44.77263734878742" lon="9.960937766356667"><ele>314.2</ele><time>2026-04-11T13:24:33.001Z</time></trkpt><trkpt lat="44.7727123366019" lon="9.960980908653072"><ele>316.4</ele><time>2026-04-11T13:24:34.001Z</time></trkpt><trkpt lat="44.77279793204632" lon="9.961045676374543"><ele>318.59999999999997</ele><time>2026-04-11T13:24:35.001Z</time></trkpt><trkpt lat="44.77288211246614" lon="9.961122352141286"><ele>320.79999999999995</ele><time>2026-04-11T13:24:36.001Z</time></trkpt><trkpt lat="44.77295082666116" lon="9.961215736275985"><ele>323.0</ele><time>2026-04-11T13:24:37.001Z</time></trkpt><trkpt lat="44.773020489500965" lon="9.961329261981316"><ele>323.0</ele><time>2026-04-11T13:24:38.001Z</time></trkpt><trkpt lat="44.773088572574906" lon="9.961446730782301"><ele>323.0</ele><time>2026-04-11T13:24:39.001Z</time></trkpt><trkpt lat="44.77317734295397" lon="9.961562258878356"><ele>323.0</ele><time>2026-04-11T13:24:40.001Z</time></trkpt><trkpt lat="44.77324605223034" lon="9.961719823352706"><ele>323.0</ele><time>2026-04-11T13:24:41.001Z</time></trkpt><trkpt lat="44.77333066182303" lon="9.961891196783718"><ele>323.0</ele><time>2026-04-11T13:24:42.001Z</time></trkpt><trkpt lat="44.77341166572054" lon="9.962051899494336"><ele>323.0</ele><time>2026-04-11T13:24:43.001Z</time></trkpt><trkpt lat="44.77347889320015" lon="9.962230286808685"><ele>323.0</ele><time>2026-04-11T13:24:44.001Z</time></trkpt><trkpt lat="44.77352551580175" lon="9.962409941616325"><ele>323.0</ele><time>2026-04-11T13:24:45.001Z</time></trkpt><trkpt lat="44.77356781393848" lon="9.962586417375364"><ele>325.0</ele><time>2026-04-11T13:24:46.001Z</time></trkpt><trkpt lat="44.773586064637044" lon="9.962774452566942"><ele>327.0</ele><time>2026-04-11T13:24:47.002Z</time></trkpt><trkpt lat="44.77362568244896" lon="9.96294799197619"><ele>329.0</ele><time>2026-04-11T13:24:48.002Z</time></trkpt><trkpt lat="44.77365159389627" lon="9.96310831616241"><ele>331.0</ele><time>2026-04-11T13:24:49.002Z</time></trkpt><trkpt lat="44.773673385833895" lon="9.96323090044673"><ele>331.0</ele><time>2026-04-11T13:24:50.002Z</time></trkpt><trkpt lat="44.773697790629406" lon="9.963325410694486"><ele>331.0</ele><time>2026-04-11T13:24:51.002Z</time></trkpt><trkpt lat="44.77374303287066" lon="9.96344632528321"><ele>331.0</ele><time>2026-04-11T13:24:53.002Z</time></trkpt><trkpt lat="44.773657100422355" lon="9.963551017371143"><ele>331.0</ele><time>2026-04-11T13:24:56.002Z</time></trkpt><trkpt lat="44.77361410557317" lon="9.963625199318537"><ele>331.0</ele><time>2026-04-11T13:24:57.002Z</time></trkpt><trkpt lat="44.77354572843597" lon="9.96367547292202"><ele>331.0</ele><time>2026-04-11T13:24:58.002Z</time></trkpt><trkpt lat="44.77345955293406" lon="9.963748961587802"><ele>331.0</ele><time>2026-04-11T13:24:59.002Z</time></trkpt><trkpt lat="44.77339848696037" lon="9.963780032777331"><ele>331.0</ele><time>2026-04-11T13:25:00.002Z</time></trkpt><trkpt lat="44.77332692309627" lon="9.963725903964823"><ele>331.0</ele><time>2026-04-11T13:25:02.002Z</time></trkpt><trkpt lat="44.773312976040884" lon="9.9635670095258"><ele>331.0</ele><time>2026-04-11T13:25:06.002Z</time></trkpt><trkpt lat="44.77333059742644" lon="9.9633964217419"><ele>331.0</ele><time>2026-04-11T13:25:08.002Z</time></trkpt><trkpt lat="44.773347842788674" lon="9.963217768150201"><ele>334.0</ele><time>2026-04-11T13:25:10Z</time></trkpt><trkpt lat="44.773315508002476" lon="9.963116626369569"><ele>337.0</ele><time>2026-04-11T13:25:11Z</time></trkpt><trkpt lat="44.77326226431792" lon="9.963019292857785"><ele>340.0</ele><time>2026-04-11T13:25:12Z</time></trkpt><trkpt lat="44.773212236118546" lon="9.962932811396488"><ele>343.0</ele><time>2026-04-11T13:25:13Z</time></trkpt><trkpt lat="44.77315790048301" lon="9.96285042998636"><ele>346.0</ele><time>2026-04-11T13:25:14Z</time></trkpt><trkpt lat="44.77310648417811" lon="9.96276833994348"><ele>349.0</ele><time>2026-04-11T13:25:15Z</time></trkpt><trkpt lat="44.77305694489269" lon="9.962683058320668"><ele>349.0</ele><time>2026-04-11T13:25:16Z</time></trkpt><trkpt lat="44.77301329531087" lon="9.962616791975567"><ele>349.0</ele><time>2026-04-11T13:25:17Z</time></trkpt><trkpt lat="44.772925598481216" lon="9.96252922020455"><ele>349.0</ele><time>2026-04-11T13:25:19Z</time></trkpt><trkpt lat="44.77285360143354" lon="9.962584667052166"><ele>349.0</ele><time>2026-04-11T13:25:21Z</time></trkpt><trkpt lat="44.772814519946316" lon="9.962657538527756"><ele>349.0</ele><time>2026-04-11T13:25:24Z</time></trkpt><trkpt lat="44.77288287409086" lon="9.962799790825013"><ele>349.0</ele><time>2026-04-11T13:26:19.001Z</time></trkpt><trkpt lat="44.77296408056524" lon="9.962901486451868"><ele>349.0</ele><time>2026-04-11T13:26:21.001Z</time></trkpt><trkpt lat="44.772995303414625" lon="9.96298250115051"><ele>349.0</ele><time>2026-04-11T13:26:22.001Z</time></trkpt><trkpt lat="44.77301246554504" lon="9.963124415512683"><ele>349.0</ele><time>2026-04-11T13:26:24.001Z</time></trkpt><trkpt lat="44.77295454246113" lon="9.963205286468199"><ele>349.0</ele><time>2026-04-11T13:26:26.001Z</time></trkpt><trkpt lat="44.77286170948102" lon="9.963248073598397"><ele>349.0</ele><time>2026-04-11T13:26:28.001Z</time></trkpt><trkpt lat="44.772762274209434" lon="9.963255646668081"><ele>349.0</ele><time>2026-04-11T13:26:30.001Z</time></trkpt><trkpt lat="44.772672917381946" lon="9.963338989302038"><ele>351.3333333333333</ele><time>2026-04-11T13:26:32.001Z</time></trkpt><trkpt lat="44.77261164337298" lon="9.963387278296484"><ele>353.66666666666663</ele><time>2026-04-11T13:26:33.001Z</time></trkpt><trkpt lat="44.77254735623619" lon="9.96341483743813"><ele>356.0</ele><time>2026-04-11T13:26:34.001Z</time></trkpt><trkpt lat="44.77250462101326" lon="9.963480949724056"><ele>358.3333333333333</ele><time>2026-04-11T13:26:35.001Z</time></trkpt><trkpt lat="44.77245618895712" lon="9.963542028701122"><ele>360.6666666666667</ele><time>2026-04-11T13:26:36.001Z</time></trkpt><trkpt lat="44.77240315707178" lon="9.96369201513426"><ele>363.0</ele><time>2026-04-11T13:26:38.002Z</time></trkpt><trkpt lat="44.772339468045374" lon="9.963840349633712"><ele>363.0</ele><time>2026-04-11T13:26:40.002Z</time></trkpt><trkpt lat="44.772285100922375" lon="9.96398866423533"><ele>363.0</ele><time>2026-04-11T13:26:42.002Z</time></trkpt><trkpt lat="44.772227609117635" lon="9.964119924627841"><ele>363.0</ele><time>2026-04-11T13:26:44.002Z</time></trkpt><trkpt lat="44.77218676794082" lon="9.964200310047666"><ele>363.0</ele><time>2026-04-11T13:26:45.002Z</time></trkpt><trkpt lat="44.77214941284272" lon="9.96428323688803"><ele>363.0</ele><time>2026-04-11T13:26:46.002Z</time></trkpt><trkpt lat="44.77211007476806" lon="9.964365750087977"><ele>363.0</ele><time>2026-04-11T13:26:47.002Z</time></trkpt><trkpt lat="44.77207212206263" lon="9.96444547616114"><ele>360.2</ele><time>2026-04-11T13:26:48.002Z</time></trkpt><trkpt lat="44.7719992418977" lon="9.964582128517655"><ele>357.4</ele><time>2026-04-11T13:26:50.002Z</time></trkpt><trkpt lat="44.77196157373361" lon="9.964658722450782"><ele>354.59999999999997</ele><time>2026-04-11T13:26:51.002Z</time></trkpt><trkpt lat="44.77191659463444" lon="9.964743218032012"><ele>351.79999999999995</ele><time>2026-04-11T13:26:52.002Z</time></trkpt><trkpt lat="44.771851077950814" lon="9.96486143312407"><ele>349.0</ele><time>2026-04-11T13:26:54.002Z</time></trkpt><trkpt lat="44.77178467343388" lon="9.96499607057555"><ele>353.4</ele><time>2026-04-11T13:26:56.002Z</time></trkpt><trkpt lat="44.77169956150902" lon="9.9651405334023"><ele>357.79999999999995</ele><time>2026-04-11T13:26:58.002Z</time></trkpt><trkpt lat="44.77162903670927" lon="9.965210953809068"><ele>362.20000000000005</ele><time>2026-04-11T13:27:00.002Z</time></trkpt><trkpt lat="44.77151725667118" lon="9.965259819552934"><ele>366.6</ele><time>2026-04-11T13:27:02.002Z</time></trkpt><trkpt lat="44.77147120133162" lon="9.965337356543824"><ele>371.0</ele><time>2026-04-11T13:27:03.002Z</time></trkpt><trkpt lat="44.77142421748861" lon="9.965402613013897"><ele>371.0</ele><time>2026-04-11T13:27:07.002Z</time></trkpt><trkpt lat="44.77137273016067" lon="9.965470835069658"><ele>371.0</ele><time>2026-04-11T13:27:09.002Z</time></trkpt><trkpt lat="44.77132538746527" lon="9.96553910793584"><ele>371.0</ele><time>2026-04-11T13:27:10.002Z</time></trkpt><trkpt lat="44.771250744393676" lon="9.96560012145691"><ele>371.0</ele><time>2026-04-11T13:27:12.002Z</time></trkpt><trkpt lat="44.77116042334755" lon="9.965626553479593"><ele>371.0</ele><time>2026-04-11T13:27:14.002Z</time></trkpt><trkpt lat="44.77109021308252" lon="9.965628458905067"><ele>371.0</ele><time>2026-04-11T13:27:15Z</time></trkpt><trkpt lat="44.77100788115523" lon="9.965644464679091"><ele>373.1666666666667</ele><time>2026-04-11T13:27:16Z</time></trkpt><trkpt lat="44.770943766232556" lon="9.965681495046262"><ele>375.33333333333337</ele><time>2026-04-11T13:27:17Z</time></trkpt><trkpt lat="44.770833189108686" lon="9.965694768137766"><ele>377.5</ele><time>2026-04-11T13:27:19Z</time></trkpt><trkpt lat="44.77073214924114" lon="9.965690927790932"><ele>379.6666666666667</ele><time>2026-04-11T13:27:21Z</time></trkpt><trkpt lat="44.77065093607268" lon="9.965678603880699"><ele>381.8333333333333</ele><time>2026-04-11T13:27:23Z</time></trkpt><trkpt lat="44.77058611399916" lon="9.965622796570633"><ele>384.0</ele><time>2026-04-11T13:27:25Z</time></trkpt><trkpt lat="44.77051881791997" lon="9.9656209202427"><ele>384.0</ele><time>2026-04-11T13:27:28Z</time></trkpt><trkpt lat="44.770599273492934" lon="9.965598643429999"><ele>384.0</ele><time>2026-04-11T13:28:24.001Z</time></trkpt><trkpt lat="44.77068463772351" lon="9.965644912054337"><ele>384.0</ele><time>2026-04-11T13:28:26.001Z</time></trkpt><trkpt lat="44.77076212320207" lon="9.965663606226007"><ele>384.0</ele><time>2026-04-11T13:28:28.001Z</time></trkpt><trkpt lat="44.770841321402095" lon="9.965439486492764"><ele>384.0</ele><time>2026-04-11T13:28:29.001Z</time></trkpt><trkpt lat="44.77090283634163" lon="9.965318120948167"><ele>384.0</ele><time>2026-04-11T13:28:31.001Z</time></trkpt><trkpt lat="44.77096308850139" lon="9.965233449182909"><ele>384.0</ele><time>2026-04-11T13:28:33.002Z</time></trkpt><trkpt lat="44.770968941992805" lon="9.965067334155492"><ele>384.0</ele><time>2026-04-11T13:28:35.002Z</time></trkpt><trkpt lat="44.770976504624755" lon="9.964957964755882"><ele>384.0</ele><time>2026-04-11T13:28:37.002Z</time></trkpt><trkpt lat="44.77095395776135" lon="9.964826369508277"><ele>384.0</ele><time>2026-04-11T13:28:39.002Z</time></trkpt><trkpt lat="44.77088665670456" lon="9.964782366471926"><ele>386.5</ele><time>2026-04-11T13:28:42.002Z</time></trkpt><trkpt lat="44.770810534866186" lon="9.964842386631275"><ele>389.0</ele><time>2026-04-11T13:28:44.002Z</time></trkpt><trkpt lat="44.770732097654715" lon="9.964865152577136"><ele>391.5</ele><time>2026-04-11T13:28:46.002Z</time></trkpt><trkpt lat="44.77063947156637" lon="9.964876146405091"><ele>394.0</ele><time>2026-04-11T13:28:48.002Z</time></trkpt><trkpt lat="44.770589341602886" lon="9.964820145847355"><ele>396.5</ele><time>2026-04-11T13:28:50.002Z</time></trkpt><trkpt lat="44.770538100311114" lon="9.964662848475621"><ele>399.0</ele><time>2026-04-11T13:28:52.002Z</time></trkpt><trkpt lat="44.770457460519836" lon="9.964570826193945"><ele>399.0</ele><time>2026-04-11T13:28:54.002Z</time></trkpt><trkpt lat="44.77034460765824" lon="9.964560159061739"><ele>399.0</ele><time>2026-04-11T13:28:56.002Z</time></trkpt><trkpt lat="44.770251750378065" lon="9.964506010632295"><ele>399.0</ele><time>2026-04-11T13:28:58.002Z</time></trkpt><trkpt lat="44.77018700613481" lon="9.964417674366157"><ele>399.0</ele><time>2026-04-11T13:29:00.002Z</time></trkpt><trkpt lat="44.77008010210654" lon="9.964362365046721"><ele>399.0</ele><time>2026-04-11T13:29:02.002Z</time></trkpt><trkpt lat="44.769966788195894" lon="9.964369824175275"><ele>401.14285714285717</ele><time>2026-04-11T13:29:04.002Z</time></trkpt><trkpt lat="44.769877478199376" lon="9.964382618128319"><ele>403.2857142857143</ele><time>2026-04-11T13:29:06.002Z</time></trkpt><trkpt lat="44.76980580690928" lon="9.964412569768637"><ele>405.42857142857144</ele><time>2026-04-11T13:29:09.002Z</time></trkpt><trkpt lat="44.76973515766307" lon="9.964426450973903"><ele>407.57142857142856</ele><time>2026-04-11T13:29:12.002Z</time></trkpt><trkpt lat="44.769667570374295" lon="9.964427347178004"><ele>409.7142857142857</ele><time>2026-04-11T13:29:16.002Z</time></trkpt><trkpt lat="44.769596592465874" lon="9.964452714906786"><ele>411.8571428571429</ele><time>2026-04-11T13:29:20.002Z</time></trkpt><trkpt lat="44.76953312228758" lon="9.964492512298454"><ele>414.0</ele><time>2026-04-11T13:29:22.001Z</time></trkpt><trkpt lat="44.76946892624877" lon="9.964518436261722"><ele>414.0</ele><time>2026-04-11T13:29:26.001Z</time></trkpt><trkpt lat="44.76959872644619" lon="9.964461247206623"><ele>414.0</ele><time>2026-04-11T13:29:43.001Z</time></trkpt><trkpt lat="44.76967031170568" lon="9.964445841183489"><ele>414.0</ele><time>2026-04-11T13:29:44.001Z</time></trkpt><trkpt lat="44.769735546787885" lon="9.964433627135078"><ele>414.0</ele><time>2026-04-11T13:29:45.001Z</time></trkpt><trkpt lat="44.76981454558256" lon="9.964437525617877"><ele>414.0</ele><time>2026-04-11T13:29:46.001Z</time></trkpt><trkpt lat="44.769881617207616" lon="9.96440698892861"><ele>414.0</ele><time>2026-04-11T13:29:48.001Z</time></trkpt><trkpt lat="44.769879908562025" lon="9.964299386547461"><ele>414.0</ele><time>2026-04-11T13:29:59.001Z</time></trkpt><trkpt lat="44.76981837174844" lon="9.96421450225852"><ele>414.0</ele><time>2026-04-11T13:30:01.001Z</time></trkpt><trkpt lat="44.76977434534567" lon="9.964148747175509"><ele>414.0</ele><time>2026-04-11T13:30:02.001Z</time></trkpt><trkpt lat="44.76971510393666" lon="9.9640458115965"><ele>414.0</ele><time>2026-04-11T13:30:04.001Z</time></trkpt><trkpt lat="44.76967507103328" lon="9.963971353802236"><ele>414.0</ele><time>2026-04-11T13:30:06.001Z</time></trkpt><trkpt lat="44.76964322188499" lon="9.963876523024313"><ele>414.0</ele><time>2026-04-11T13:30:08.001Z</time></trkpt><trkpt lat="44.769580381803706" lon="9.963781244328985"><ele>416.14285714285717</ele><time>2026-04-11T13:30:11.001Z</time></trkpt><trkpt lat="44.76957921550751" lon="9.963691413480072"><ele>418.2857142857143</ele><time>2026-04-11T13:30:14.001Z</time></trkpt><trkpt lat="44.76957726874409" lon="9.963596377519414"><ele>420.42857142857144</ele><time>2026-04-11T13:30:24.001Z</time></trkpt><trkpt lat="44.76957354970512" lon="9.963507084433749"><ele>422.57142857142856</ele><time>2026-04-11T13:30:34.002Z</time></trkpt><trkpt lat="44.769578545461506" lon="9.963400329908893"><ele>424.7142857142857</ele><time>2026-04-11T13:30:40.002Z</time></trkpt><trkpt lat="44.769560806037504" lon="9.963297254080192"><ele>426.8571428571429</ele><time>2026-04-11T13:30:44.002Z</time></trkpt><trkpt lat="44.76954360265047" lon="9.963182981208405"><ele>429.0</ele><time>2026-04-11T13:30:47.002Z</time></trkpt><trkpt lat="44.769562220543" lon="9.963069151319171"><ele>429.0</ele><time>2026-04-11T13:30:50.002Z</time></trkpt><trkpt lat="44.769572629519196" lon="9.962945468889119"><ele>429.0</ele><time>2026-04-11T13:30:53.002Z</time></trkpt><trkpt lat="44.769558226637" lon="9.962829670946455"><ele>429.0</ele><time>2026-04-11T13:30:55.002Z</time></trkpt><trkpt lat="44.7695583072738" lon="9.962740521639393"><ele>429.0</ele><time>2026-04-11T13:30:57.002Z</time></trkpt><trkpt lat="44.76955216913231" lon="9.962643410263526"><ele>429.0</ele><time>2026-04-11T13:31:00.002Z</time></trkpt><trkpt lat="44.769533328666895" lon="9.962556548501066"><ele>429.0</ele><time>2026-04-11T13:31:04.002Z</time></trkpt><trkpt lat="44.769485482946145" lon="9.962487950674237"><ele>429.0</ele><time>2026-04-11T13:31:19.002Z</time></trkpt><trkpt lat="44.76941894458436" lon="9.96246493749948"><ele>430.42857142857144</ele><time>2026-04-11T13:31:25.002Z</time></trkpt><trkpt lat="44.76934605624261" lon="9.962465684046489"><ele>431.8571428571429</ele><time>2026-04-11T13:31:31.001Z</time></trkpt><trkpt lat="44.76927479864607" lon="9.962495258565562"><ele>433.2857142857143</ele><time>2026-04-11T13:31:34.001Z</time></trkpt><trkpt lat="44.76920563548623" lon="9.962527948454088"><ele>434.7142857142857</ele><time>2026-04-11T13:31:38.001Z</time></trkpt><trkpt lat="44.769132411481934" lon="9.962548560386777"><ele>436.1428571428571</ele><time>2026-04-11T13:31:41.001Z</time></trkpt><trkpt lat="44.76906696456379" lon="9.962567486755807"><ele>437.57142857142856</ele><time>2026-04-11T13:31:52.001Z</time></trkpt><trkpt lat="44.76899612295615" lon="9.962588479188152"><ele>439.0</ele><time>2026-04-11T13:31:55.001Z</time></trkpt><trkpt lat="44.76892708142606" lon="9.962589510816171"><ele>441.2</ele><time>2026-04-11T13:31:57.001Z</time></trkpt><trkpt lat="44.76883008251358" lon="9.962607102305148"><ele>443.4</ele><time>2026-04-11T13:32:00.001Z</time></trkpt><trkpt lat="44.76874742417957" lon="9.9626217911802"><ele>445.6</ele><time>2026-04-11T13:32:02.001Z</time></trkpt><trkpt lat="44.7686640763155" lon="9.962685278004859"><ele>447.8</ele><time>2026-04-11T13:32:06.001Z</time></trkpt><trkpt lat="44.76858134127823" lon="9.962721204010379"><ele>450.0</ele><time>2026-04-11T13:32:08.001Z</time></trkpt><trkpt lat="44.76851596440095" lon="9.96280810347566"><ele>450.0</ele><time>2026-04-11T13:32:10.001Z</time></trkpt><trkpt lat="44.76843558136839" lon="9.962840858512136"><ele>450.0</ele><time>2026-04-11T13:32:12.001Z</time></trkpt><trkpt lat="44.76833971748963" lon="9.962854607070462"><ele>450.0</ele><time>2026-04-11T13:32:14.001Z</time></trkpt><trkpt lat="44.768255585460636" lon="9.962870970033617"><ele>450.0</ele><time>2026-04-11T13:32:17.001Z</time></trkpt><trkpt lat="44.76815294371893" lon="9.962864088561895"><ele>450.0</ele><time>2026-04-11T13:32:20.001Z</time></trkpt><trkpt lat="44.76807359577409" lon="9.962893726343742"><ele>450.0</ele><time>2026-04-11T13:32:22.001Z</time></trkpt><trkpt lat="44.76799069539696" lon="9.962870876430516"><ele>450.0</ele><time>2026-04-11T13:32:24.001Z</time></trkpt><trkpt lat="44.76790393636547" lon="9.962883887592133"><ele>450.0</ele><time>2026-04-11T13:32:26.001Z</time></trkpt><trkpt lat="44.767800289374584" lon="9.962861121155957"><ele>450.0</ele><time>2026-04-11T13:32:28.001Z</time></trkpt><trkpt lat="44.76773148462761" lon="9.962877281856805"><ele>450.0</ele><time>2026-04-11T13:32:29.001Z</time></trkpt><trkpt lat="44.767661966814984" lon="9.96289583270983"><ele>450.0</ele><time>2026-04-11T13:32:30.001Z</time></trkpt><trkpt lat="44.767552623519975" lon="9.962873320778591"><ele>446.5</ele><time>2026-04-11T13:32:32.001Z</time></trkpt><trkpt lat="44.76748759852277" lon="9.962757387621608"><ele>443.0</ele><time>2026-04-11T13:32:34.001Z</time></trkpt><trkpt lat="44.767464286964916" lon="9.962647615804961"><ele>439.5</ele><time>2026-04-11T13:32:35.001Z</time></trkpt><trkpt lat="44.76739250545169" lon="9.962569178259988"><ele>436.0</ele><time>2026-04-11T13:32:36.001Z</time></trkpt><trkpt lat="44.76732367011257" lon="9.962506108817617"><ele>432.5</ele><time>2026-04-11T13:32:37.001Z</time></trkpt><trkpt lat="44.76724665146214" lon="9.962454519598992"><ele>429.0</ele><time>2026-04-11T13:32:38.001Z</time></trkpt><trkpt lat="44.76717409738599" lon="9.962390442190424"><ele>428.0</ele><time>2026-04-11T13:32:39.001Z</time></trkpt><trkpt lat="44.76710947963241" lon="9.962322283514018"><ele>427.0</ele><time>2026-04-11T13:32:40.001Z</time></trkpt><trkpt lat="44.76704441766765" lon="9.962251590697537"><ele>426.0</ele><time>2026-04-11T13:32:41.001Z</time></trkpt><trkpt lat="44.76697212302011" lon="9.962171855644831"><ele>425.0</ele><time>2026-04-11T13:32:42.001Z</time></trkpt><trkpt lat="44.76690315502028" lon="9.962095789606439"><ele>424.0</ele><time>2026-04-11T13:32:43.001Z</time></trkpt><trkpt lat="44.76683218539283" lon="9.962018344596165"><ele>423.0</ele><time>2026-04-11T13:32:44.001Z</time></trkpt><trkpt lat="44.76676751240888" lon="9.961948055160379"><ele>421.5</ele><time>2026-04-11T13:32:45.001Z</time></trkpt><trkpt lat="44.766689594683626" lon="9.96188752178627"><ele>420.0</ele><time>2026-04-11T13:32:46.002Z</time></trkpt><trkpt lat="44.766631967184175" lon="9.961807602769651"><ele>418.5</ele><time>2026-04-11T13:32:47.002Z</time></trkpt><trkpt lat="44.76655088292487" lon="9.961767748476067"><ele>417.0</ele><time>2026-04-11T13:32:48.002Z</time></trkpt><trkpt lat="44.76648347757632" lon="9.961709428263191"><ele>415.5</ele><time>2026-04-11T13:32:49.002Z</time></trkpt><trkpt lat="44.76638714610549" lon="9.96171909140217"><ele>414.0</ele><time>2026-04-11T13:32:50.002Z</time></trkpt><trkpt lat="44.766363499722374" lon="9.961583430317617"><ele>413.8333333333333</ele><time>2026-04-11T13:32:51.002Z</time></trkpt><trkpt lat="44.76631711916733" lon="9.96151852123308"><ele>413.66666666666663</ele><time>2026-04-11T13:32:52.002Z</time></trkpt><trkpt lat="44.76627380899527" lon="9.961438963560001"><ele>413.5</ele><time>2026-04-11T13:32:53.002Z</time></trkpt><trkpt lat="44.76623931727006" lon="9.961358701691593"><ele>413.3333333333333</ele><time>2026-04-11T13:32:54.002Z</time></trkpt><trkpt lat="44.7662364646886" lon="9.961193984521397"><ele>413.16666666666663</ele><time>2026-04-11T13:32:56.002Z</time></trkpt><trkpt lat="44.76627168993273" lon="9.961049339391588"><ele>413.0</ele><time>2026-04-11T13:32:58.002Z</time></trkpt><trkpt lat="44.766294524445776" lon="9.96094075578271"><ele>412.0</ele><time>2026-04-11T13:33:00.002Z</time></trkpt><trkpt lat="44.76630829214629" lon="9.96078306013162"><ele>411.0</ele><time>2026-04-11T13:33:03.002Z</time></trkpt><trkpt lat="44.766306714681235" lon="9.960643577261376"><ele>410.0</ele><time>2026-04-11T13:33:04.002Z</time></trkpt><trkpt lat="44.766307726749154" lon="9.960473442175543"><ele>409.0</ele><time>2026-04-11T13:33:05.002Z</time></trkpt><trkpt lat="44.76631024509167" lon="9.960264790428884"><ele>407.33333333333337</ele><time>2026-04-11T13:33:06.002Z</time></trkpt><trkpt lat="44.76632471874317" lon="9.960025490750128"><ele>405.66666666666663</ele><time>2026-04-11T13:33:07.002Z</time></trkpt><trkpt lat="44.7663226101767" lon="9.959807867469994"><ele>404.0</ele><time>2026-04-11T13:33:08.002Z</time></trkpt><trkpt lat="44.76631044499235" lon="9.959626738799606"><ele>404.0</ele><time>2026-04-11T13:33:09.002Z</time></trkpt><trkpt lat="44.766284438926164" lon="9.959468289693119"><ele>404.0</ele><time>2026-04-11T13:33:10.002Z</time></trkpt><trkpt lat="44.766264175077765" lon="9.959355209842965"><ele>404.0</ele><time>2026-04-11T13:33:11.002Z</time></trkpt><trkpt lat="44.766300257595915" lon="9.959444636333123"><ele>404.0</ele><time>2026-04-11T13:33:21.002Z</time></trkpt><trkpt lat="44.766307691551376" lon="9.959638919019413"><ele>404.0</ele><time>2026-04-11T13:33:22.002Z</time></trkpt><trkpt lat="44.76632361264712" lon="9.959818570012281"><ele>404.0</ele><time>2026-04-11T13:33:23.002Z</time></trkpt><trkpt lat="44.766329462458124" lon="9.960002366452226"><ele>404.0</ele><time>2026-04-11T13:33:24.002Z</time></trkpt><trkpt lat="44.7662969958203" lon="9.960169951703588"><ele>404.0</ele><time>2026-04-11T13:33:25.002Z</time></trkpt><trkpt lat="44.76628928794734" lon="9.960341829125067"><ele>404.0</ele><time>2026-04-11T13:33:26.002Z</time></trkpt><trkpt lat="44.76628561568028" lon="9.96051486084957"><ele>405.0</ele><time>2026-04-11T13:33:27.002Z</time></trkpt><trkpt lat="44.766297464280676" lon="9.960669596232819"><ele>406.0</ele><time>2026-04-11T13:33:28.002Z</time></trkpt><trkpt lat="44.766292025430765" lon="9.960804914804532"><ele>407.0</ele><time>2026-04-11T13:33:29.002Z</time></trkpt><trkpt lat="44.76626090663257" lon="9.96092249857795"><ele>408.0</ele><time>2026-04-11T13:33:30.002Z</time></trkpt><trkpt lat="44.76623325083806" lon="9.961039287463889"><ele>409.0</ele><time>2026-04-11T13:33:31.002Z</time></trkpt><trkpt lat="44.766213502033715" lon="9.961162757650106"><ele>409.6666666666667</ele><time>2026-04-11T13:33:32.002Z</time></trkpt><trkpt lat="44.76620673294114" lon="9.961285027835254"><ele>410.33333333333337</ele><time>2026-04-11T13:33:33.001Z</time></trkpt><trkpt lat="44.76622699251534" lon="9.961415972800054"><ele>411.0</ele><time>2026-04-11T13:33:34.001Z</time></trkpt><trkpt lat="44.766289426547175" lon="9.961522688247255"><ele>411.66666666666663</ele><time>2026-04-11T13:33:35.001Z</time></trkpt><trkpt lat="44.76635729386825" lon="9.96160339556355"><ele>412.3333333333333</ele><time>2026-04-11T13:33:36.001Z</time></trkpt><trkpt lat="44.76640930084647" lon="9.961689173684395"><ele>413.0</ele><time>2026-04-11T13:33:37.001Z</time></trkpt><trkpt lat="44.766457783707125" lon="9.961792546912402"><ele>412.99999999999994</ele><time>2026-04-11T13:33:39.001Z</time></trkpt><trkpt lat="44.76639797548304" lon="9.961712058821147"><ele>413.0</ele><time>2026-04-11T13:33:44.001Z</time></trkpt><trkpt lat="44.76634560040279" lon="9.961625113414728"><ele>413.0</ele><time>2026-04-11T13:33:45.001Z</time></trkpt><trkpt lat="44.76628605903061" lon="9.961545136596133"><ele>413.0</ele><time>2026-04-11T13:33:46.001Z</time></trkpt><trkpt lat="44.76617210482241" lon="9.961563949067143"><ele>412.99999999999994</ele><time>2026-04-11T13:33:47.001Z</time></trkpt><trkpt lat="44.76610301402322" lon="9.96154558698874"><ele>413.0</ele><time>2026-04-11T13:33:48.001Z</time></trkpt><trkpt lat="44.76602968628598" lon="9.961531532310234"><ele>412.0</ele><time>2026-04-11T13:33:49.001Z</time></trkpt><trkpt lat="44.76596142987391" lon="9.961608438948666"><ele>411.0</ele><time>2026-04-11T13:33:50.001Z</time></trkpt><trkpt lat="44.76590148701384" lon="9.961680246377064"><ele>410.0</ele><time>2026-04-11T13:33:51.001Z</time></trkpt><trkpt lat="44.7658490984791" lon="9.961771944462852"><ele>409.0</ele><time>2026-04-11T13:33:52.001Z</time></trkpt><trkpt lat="44.76578589459164" lon="9.961891821522844"><ele>408.0</ele><time>2026-04-11T13:33:53.001Z</time></trkpt><trkpt lat="44.76569814236585" lon="9.96200144850125"><ele>407.0</ele><time>2026-04-11T13:33:54.001Z</time></trkpt><trkpt lat="44.765626312516815" lon="9.96210986265554"><ele>406.0</ele><time>2026-04-11T13:33:55.001Z</time></trkpt><trkpt lat="44.7655503299856" lon="9.962224544522709"><ele>405.0</ele><time>2026-04-11T13:33:56.001Z</time></trkpt><trkpt lat="44.76547295226224" lon="9.962341902186271"><ele>404.0</ele><time>2026-04-11T13:33:57.001Z</time></trkpt><trkpt lat="44.76539349413301" lon="9.962464494720972"><ele>403.0</ele><time>2026-04-11T13:33:58.001Z</time></trkpt><trkpt lat="44.76532618717789" lon="9.962600474591197"><ele>401.2</ele><time>2026-04-11T13:33:59.001Z</time></trkpt><trkpt lat="44.76524688595085" lon="9.962713362857393"><ele>399.4</ele><time>2026-04-11T13:34:00.001Z</time></trkpt><trkpt lat="44.76517554537656" lon="9.962828400469602"><ele>397.59999999999997</ele><time>2026-04-11T13:34:01.001Z</time></trkpt><trkpt lat="44.76510011015428" lon="9.962944843139066"><ele>395.79999999999995</ele><time>2026-04-11T13:34:02.001Z</time></trkpt><trkpt lat="44.76503755403894" lon="9.963052187680082"><ele>394.0</ele><time>2026-04-11T13:34:03.001Z</time></trkpt><trkpt lat="44.764966747657255" lon="9.963142010954085"><ele>392.83333333333337</ele><time>2026-04-11T13:34:04.001Z</time></trkpt><trkpt lat="44.76487080520599" lon="9.963180007967928"><ele>391.6666666666667</ele><time>2026-04-11T13:34:05.001Z</time></trkpt><trkpt lat="44.764790483729875" lon="9.963216679679535"><ele>390.5</ele><time>2026-04-11T13:34:06.001Z</time></trkpt><trkpt lat="44.76472051422502" lon="9.963261954132603"><ele>389.33333333333337</ele><time>2026-04-11T13:34:07.001Z</time></trkpt><trkpt lat="44.76466299857371" lon="9.963311578058457"><ele>388.1666666666667</ele><time>2026-04-11T13:34:08.001Z</time></trkpt><trkpt lat="44.76461241398531" lon="9.963364962446095"><ele>387.0</ele><time>2026-04-11T13:34:09.001Z</time></trkpt><trkpt lat="44.76458353292911" lon="9.963465462303413"><ele>386.1666666666667</ele><time>2026-04-11T13:34:10.001Z</time></trkpt><trkpt lat="44.764540469333234" lon="9.963555063819182"><ele>385.3333333333333</ele><time>2026-04-11T13:34:11.001Z</time></trkpt><trkpt lat="44.76449374720145" lon="9.96364541591529"><ele>384.5</ele><time>2026-04-11T13:34:12.001Z</time></trkpt><trkpt lat="44.764454726975984" lon="9.963747775992434"><ele>383.66666666666663</ele><time>2026-04-11T13:34:13.001Z</time></trkpt><trkpt lat="44.76439265146974" lon="9.963843359540927"><ele>382.8333333333333</ele><time>2026-04-11T13:34:14.001Z</time></trkpt><trkpt lat="44.76434591141734" lon="9.963941545860852"><ele>382.0</ele><time>2026-04-11T13:34:15.001Z</time></trkpt><trkpt lat="44.76429684592696" lon="9.964042779970312"><ele>382.0</ele><time>2026-04-11T13:34:16.001Z</time></trkpt><trkpt lat="44.76425390810324" lon="9.964149757104872"><ele>382.0</ele><time>2026-04-11T13:34:17.001Z</time></trkpt><trkpt lat="44.764201643536715" lon="9.964251754325279"><ele>382.0</ele><time>2026-04-11T13:34:18.001Z</time></trkpt><trkpt lat="44.764148277550134" lon="9.96434855257613"><ele>382.0</ele><time>2026-04-11T13:34:19.001Z</time></trkpt><trkpt lat="44.76408453430482" lon="9.964450404092693"><ele>382.0</ele><time>2026-04-11T13:34:20.001Z</time></trkpt><trkpt lat="44.76402067914528" lon="9.964546654700351"><ele>381.0</ele><time>2026-04-11T13:34:21.001Z</time></trkpt><trkpt lat="44.76395262931036" lon="9.964636348299516"><ele>380.0</ele><time>2026-04-11T13:34:22.001Z</time></trkpt><trkpt lat="44.76388904443067" lon="9.964727232429118"><ele>379.0</ele><time>2026-04-11T13:34:23.001Z</time></trkpt><trkpt lat="44.76382163380654" lon="9.964785749675658"><ele>378.0</ele><time>2026-04-11T13:34:24.001Z</time></trkpt><trkpt lat="44.76376588718205" lon="9.964885817074647"><ele>377.0</ele><time>2026-04-11T13:34:25.001Z</time></trkpt><trkpt lat="44.76370429798227" lon="9.964969304452753"><ele>376.0</ele><time>2026-04-11T13:34:26.001Z</time></trkpt><trkpt lat="44.76363972001556" lon="9.965055476200725"><ele>375.0</ele><time>2026-04-11T13:34:27.001Z</time></trkpt><trkpt lat="44.76357978665819" lon="9.965137633082433"><ele>374.0</ele><time>2026-04-11T13:34:28.001Z</time></trkpt><trkpt lat="44.76352275166147" lon="9.965226018955299"><ele>373.0</ele><time>2026-04-11T13:34:29.001Z</time></trkpt><trkpt lat="44.76347068071198" lon="9.965309753260662"><ele>372.0</ele><time>2026-04-11T13:34:30.001Z</time></trkpt><trkpt lat="44.76342831884556" lon="9.965405538902155"><ele>371.0</ele><time>2026-04-11T13:34:31.001Z</time></trkpt><trkpt lat="44.763396444618074" lon="9.965506713902371"><ele>370.0</ele><time>2026-04-11T13:34:32.001Z</time></trkpt><trkpt lat="44.76337582649775" lon="9.965609756478766"><ele>370.0</ele><time>2026-04-11T13:34:33.001Z</time></trkpt><trkpt lat="44.76336160881732" lon="9.965723959404825"><ele>370.0</ele><time>2026-04-11T13:34:34.001Z</time></trkpt><trkpt lat="44.7633615413471" lon="9.965833278980623"><ele>370.0</ele><time>2026-04-11T13:34:35.001Z</time></trkpt><trkpt lat="44.7633663090684" lon="9.9659414098872"><ele>370.0</ele><time>2026-04-11T13:34:36.001Z</time></trkpt><trkpt lat="44.76336674969777" lon="9.966052911434586"><ele>370.0</ele><time>2026-04-11T13:34:37.001Z</time></trkpt><trkpt lat="44.76336643348425" lon="9.966169618027088"><ele>370.0</ele><time>2026-04-11T13:34:38.001Z</time></trkpt><trkpt lat="44.763361777283855" lon="9.96628090928032"><ele>369.0</ele><time>2026-04-11T13:34:39.001Z</time></trkpt><trkpt lat="44.7633550273648" lon="9.96638916331389"><ele>368.0</ele><time>2026-04-11T13:34:40.001Z</time></trkpt><trkpt lat="44.76335338537738" lon="9.966500470090166"><ele>367.0</ele><time>2026-04-11T13:34:41.001Z</time></trkpt><trkpt lat="44.7633490669878" lon="9.966621542272907"><ele>366.0</ele><time>2026-04-11T13:34:42.001Z</time></trkpt><trkpt lat="44.763345077494094" lon="9.966742830124332"><ele>365.0</ele><time>2026-04-11T13:34:43.001Z</time></trkpt><trkpt lat="44.763340804503386" lon="9.966882021522915"><ele>364.0</ele><time>2026-04-11T13:34:44.001Z</time></trkpt><trkpt lat="44.763336247907226" lon="9.967009948925067"><ele>363.25</ele><time>2026-04-11T13:34:45.001Z</time></trkpt><trkpt lat="44.76333772099553" lon="9.967145315551043"><ele>362.5</ele><time>2026-04-11T13:34:46.001Z</time></trkpt><trkpt lat="44.76333059709072" lon="9.967302752250166"><ele>361.75</ele><time>2026-04-11T13:34:47.001Z</time></trkpt><trkpt lat="44.76332194947221" lon="9.967485592304337"><ele>361.0</ele><time>2026-04-11T13:34:48.001Z</time></trkpt><trkpt lat="44.76331054783795" lon="9.967666540357575"><ele>360.0</ele><time>2026-04-11T13:34:49.001Z</time></trkpt><trkpt lat="44.76323657109208" lon="9.967981926516233"><ele>359.0</ele><time>2026-04-11T13:34:51.001Z</time></trkpt><trkpt lat="44.763181193417985" lon="9.968141337580422"><ele>358.0</ele><time>2026-04-11T13:34:52.001Z</time></trkpt><trkpt lat="44.7631225314798" lon="9.968301361961256"><ele>357.5</ele><time>2026-04-11T13:34:53.001Z</time></trkpt><trkpt lat="44.76306267839123" lon="9.968465054650634"><ele>357.0</ele><time>2026-04-11T13:34:54.001Z</time></trkpt><trkpt lat="44.76299965494809" lon="9.968651131812937"><ele>356.5</ele><time>2026-04-11T13:34:55.001Z</time></trkpt><trkpt lat="44.76293940126593" lon="9.968828776550804"><ele>356.0</ele><time>2026-04-11T13:34:56.001Z</time></trkpt><trkpt lat="44.76287194610334" lon="9.96900772440411"><ele>356.0</ele><time>2026-04-11T13:34:57.001Z</time></trkpt><trkpt lat="44.762806794270794" lon="9.969173293530444"><ele>356.0</ele><time>2026-04-11T13:34:58.001Z</time></trkpt><trkpt lat="44.76275501275379" lon="9.969326235044761"><ele>356.0</ele><time>2026-04-11T13:34:59.001Z</time></trkpt><trkpt lat="44.762710306577034" lon="9.969475010779703"><ele>356.0</ele><time>2026-04-11T13:35:00.001Z</time></trkpt><trkpt lat="44.76265952252564" lon="9.969614454415954"><ele>358.6</ele><time>2026-04-11T13:35:01.001Z</time></trkpt><trkpt lat="44.762623302048155" lon="9.969749495511367"><ele>361.20000000000005</ele><time>2026-04-11T13:35:02.001Z</time></trkpt><trkpt lat="44.76261220330568" lon="9.969882320782185"><ele>363.79999999999995</ele><time>2026-04-11T13:35:03.001Z</time></trkpt><trkpt lat="44.76260439598388" lon="9.969984432828182"><ele>366.4</ele><time>2026-04-11T13:35:04.001Z</time></trkpt><trkpt lat="44.76266173258589" lon="9.970102195101088"><ele>369.0</ele><time>2026-04-11T13:35:05.001Z</time></trkpt><trkpt lat="44.76269660429529" lon="9.97020659641267"><ele>371.5</ele><time>2026-04-11T13:35:06.001Z</time></trkpt><trkpt lat="44.76275357142969" lon="9.970312893069144"><ele>374.0</ele><time>2026-04-11T13:35:07.001Z</time></trkpt><trkpt lat="44.7628263690119" lon="9.97043247590446"><ele>376.5</ele><time>2026-04-11T13:35:08.001Z</time></trkpt><trkpt lat="44.762901542508075" lon="9.970563673603202"><ele>379.0</ele><time>2026-04-11T13:35:09.001Z</time></trkpt><trkpt lat="44.762975719466354" lon="9.970708753660583"><ele>379.0</ele><time>2026-04-11T13:35:10.001Z</time></trkpt><trkpt lat="44.763055253146945" lon="9.970842718709093"><ele>379.0</ele><time>2026-04-11T13:35:11.001Z</time></trkpt><trkpt lat="44.76313464688094" lon="9.970916360317865"><ele>379.0</ele><time>2026-04-11T13:35:12.001Z</time></trkpt><trkpt lat="44.76321123192295" lon="9.97094428469903"><ele>379.0</ele><time>2026-04-11T13:35:13.001Z</time></trkpt><trkpt lat="44.76329482622156" lon="9.97093960405705"><ele>379.0</ele><time>2026-04-11T13:35:14.001Z</time></trkpt><trkpt lat="44.763373282490974" lon="9.970920544585825"><ele>380.79999999999995</ele><time>2026-04-11T13:35:15.001Z</time></trkpt><trkpt lat="44.76343910412452" lon="9.970924608257562"><ele>382.59999999999997</ele><time>2026-04-11T13:35:16.002Z</time></trkpt><trkpt lat="44.76353018604872" lon="9.971026418401696"><ele>384.4</ele><time>2026-04-11T13:35:18.002Z</time></trkpt><trkpt lat="44.763590981847635" lon="9.971172534751885"><ele>386.2</ele><time>2026-04-11T13:35:20.002Z</time></trkpt><trkpt lat="44.763577413576776" lon="9.971340777018103"><ele>388.0</ele><time>2026-04-11T13:35:22.002Z</time></trkpt><trkpt lat="44.76354546329029" lon="9.971430646331953"><ele>388.0</ele><time>2026-04-11T13:35:23.002Z</time></trkpt><trkpt lat="44.76348394967275" lon="9.971509923601634"><ele>388.0</ele><time>2026-04-11T13:35:24.002Z</time></trkpt><trkpt lat="44.763409791396455" lon="9.971604182312532"><ele>388.0</ele><time>2026-04-11T13:35:25.002Z</time></trkpt><trkpt lat="44.76334404040112" lon="9.971711757266974"><ele>388.0</ele><time>2026-04-11T13:35:26.002Z</time></trkpt><trkpt lat="44.76328745716139" lon="9.971820421834256"><ele>388.0</ele><time>2026-04-11T13:35:27.002Z</time></trkpt><trkpt lat="44.76322931388238" lon="9.971923918419764"><ele>387.75</ele><time>2026-04-11T13:35:28.002Z</time></trkpt><trkpt lat="44.763183109912305" lon="9.972044299563834"><ele>387.5</ele><time>2026-04-11T13:35:29.002Z</time></trkpt><trkpt lat="44.76314447628861" lon="9.972208913632576"><ele>387.25</ele><time>2026-04-11T13:35:30.002Z</time></trkpt><trkpt lat="44.76310240750386" lon="9.972400602577927"><ele>387.0</ele><time>2026-04-11T13:35:31.002Z</time></trkpt><trkpt lat="44.7630609475837" lon="9.972650421463495"><ele>387.66666666666663</ele><time>2026-04-11T13:35:32.002Z</time></trkpt><trkpt lat="44.76303427846469" lon="9.972888662103184"><ele>388.3333333333333</ele><time>2026-04-11T13:35:33.002Z</time></trkpt><trkpt lat="44.76303432461932" lon="9.973149323029089"><ele>389.0</ele><time>2026-04-11T13:35:34.002Z</time></trkpt><trkpt lat="44.763022471945206" lon="9.973398774581614"><ele>391.0</ele><time>2026-04-11T13:35:35.002Z</time></trkpt><trkpt lat="44.76301024628132" lon="9.973588275320433"><ele>393.0</ele><time>2026-04-11T13:35:36.002Z</time></trkpt><trkpt lat="44.763002027121196" lon="9.973739013304527"><ele>395.0</ele><time>2026-04-11T13:35:37.002Z</time></trkpt><trkpt lat="44.76301606442019" lon="9.973861824582091"><ele>397.0</ele><time>2026-04-11T13:35:38.002Z</time></trkpt><trkpt lat="44.76305005873892" lon="9.97396946246622"><ele>399.0</ele><time>2026-04-11T13:35:39Z</time></trkpt><trkpt lat="44.76308220752189" lon="9.974059378818128"><ele>398.6</ele><time>2026-04-11T13:35:40Z</time></trkpt><trkpt lat="44.76311549947777" lon="9.974192719744357"><ele>398.2</ele><time>2026-04-11T13:35:42Z</time></trkpt><trkpt lat="44.763110135237895" lon="9.974310625016988"><ele>397.8</ele><time>2026-04-11T13:35:44Z</time></trkpt><trkpt lat="44.763093387058795" lon="9.97443203675678"><ele>397.40000000000003</ele><time>2026-04-11T13:35:47Z</time></trkpt><trkpt lat="44.763047802392364" lon="9.974545413562968"><ele>397.0</ele><time>2026-04-11T13:35:49Z</time></trkpt><trkpt lat="44.76299967069357" lon="9.974665490980659"><ele>397.00000000000006</ele><time>2026-04-11T13:35:51Z</time></trkpt><trkpt lat="44.76296799977621" lon="9.97477221526627"><ele>397.0</ele><time>2026-04-11T13:35:53Z</time></trkpt><trkpt lat="44.76300532145249" lon="9.97488168832722"><ele>397.0</ele><time>2026-04-11T13:35:55Z</time></trkpt><trkpt lat="44.76308807606025" lon="9.974963736212956"><ele>397.0</ele><time>2026-04-11T13:35:57Z</time></trkpt><trkpt lat="44.763135908344736" lon="9.97505231673257"><ele>397.00000000000006</ele><time>2026-04-11T13:35:58Z</time></trkpt><trkpt lat="44.76319092895517" lon="9.975130885270998"><ele>397.0</ele><time>2026-04-11T13:35:59Z</time></trkpt><trkpt lat="44.76325187459203" lon="9.975195847925766"><ele>395.00000000000006</ele><time>2026-04-11T13:36:00Z</time></trkpt><trkpt lat="44.763293613042556" lon="9.975282586937885"><ele>393.0</ele><time>2026-04-11T13:36:01Z</time></trkpt><trkpt lat="44.76333598854773" lon="9.975382492257602"><ele>391.0</ele><time>2026-04-11T13:36:02Z</time></trkpt><trkpt lat="44.76337332531387" lon="9.975474096020655"><ele>389.0</ele><time>2026-04-11T13:36:03Z</time></trkpt><trkpt lat="44.76340878971138" lon="9.975577745639463"><ele>387.00000000000006</ele><time>2026-04-11T13:36:04Z</time></trkpt><trkpt lat="44.76341524933439" lon="9.975688465864495"><ele>385.0</ele><time>2026-04-11T13:36:05Z</time></trkpt><trkpt lat="44.76343161134119" lon="9.975802704482446"><ele>384.6666666666667</ele><time>2026-04-11T13:36:06Z</time></trkpt><trkpt lat="44.763447093002085" lon="9.975908459655265"><ele>384.33333333333337</ele><time>2026-04-11T13:36:07Z</time></trkpt><trkpt lat="44.763419295172724" lon="9.97602268018801"><ele>384.0</ele><time>2026-04-11T13:36:08Z</time></trkpt><trkpt lat="44.76335854944595" lon="9.976116836809286"><ele>383.6666666666667</ele><time>2026-04-11T13:36:09Z</time></trkpt><trkpt lat="44.76328946692248" lon="9.976214673219474"><ele>383.33333333333337</ele><time>2026-04-11T13:36:10Z</time></trkpt><trkpt lat="44.76323682559353" lon="9.97630997235006"><ele>383.0</ele><time>2026-04-11T13:36:11Z</time></trkpt><trkpt lat="44.76320662435458" lon="9.976421235955852"><ele>383.0</ele><time>2026-04-11T13:36:12Z</time></trkpt><trkpt lat="44.76321251580694" lon="9.976523777254151"><ele>383.0</ele><time>2026-04-11T13:36:13Z</time></trkpt><trkpt lat="44.76325190689368" lon="9.976642239403722"><ele>383.0</ele><time>2026-04-11T13:36:14Z</time></trkpt><trkpt lat="44.76333556331009" lon="9.976737618817307"><ele>383.0</ele><time>2026-04-11T13:36:15Z</time></trkpt><trkpt lat="44.76342516079081" lon="9.976848464545888"><ele>383.0</ele><time>2026-04-11T13:36:16Z</time></trkpt><trkpt lat="44.76351290148006" lon="9.977018062143767"><ele>383.33333333333337</ele><time>2026-04-11T13:36:17Z</time></trkpt><trkpt lat="44.76360225890057" lon="9.97719944642954"><ele>383.6666666666667</ele><time>2026-04-11T13:36:18Z</time></trkpt><trkpt lat="44.7636862979853" lon="9.97740177715033"><ele>384.0</ele><time>2026-04-11T13:36:19Z</time></trkpt><trkpt lat="44.76376654382742" lon="9.977630254310958"><ele>386.66666666666663</ele><time>2026-04-11T13:36:20Z</time></trkpt><trkpt lat="44.76385216898432" lon="9.977888628246397"><ele>389.3333333333333</ele><time>2026-04-11T13:36:21Z</time></trkpt><trkpt lat="44.76393081591956" lon="9.978128234534136"><ele>392.0</ele><time>2026-04-11T13:36:22Z</time></trkpt><trkpt lat="44.76399109210076" lon="9.978324253957737"><ele>393.0</ele><time>2026-04-11T13:36:23Z</time></trkpt><trkpt lat="44.76403669801663" lon="9.978487542550011"><ele>394.0</ele><time>2026-04-11T13:36:24Z</time></trkpt><trkpt lat="44.76406931029818" lon="9.978635279475565"><ele>395.0</ele><time>2026-04-11T13:36:25Z</time></trkpt><trkpt lat="44.764090252078404" lon="9.978785298735172"><ele>396.0</ele><time>2026-04-11T13:36:26Z</time></trkpt><trkpt lat="44.764105783716914" lon="9.978950978821468"><ele>396.0</ele><time>2026-04-11T13:36:27Z</time></trkpt><trkpt lat="44.76410945345469" lon="9.97911172486701"><ele>396.0</ele><time>2026-04-11T13:36:28.001Z</time></trkpt><trkpt lat="44.76409581004324" lon="9.979271658367695"><ele>396.0</ele><time>2026-04-11T13:36:29.001Z</time></trkpt><trkpt lat="44.76408997820268" lon="9.979438605607355"><ele>396.0</ele><time>2026-04-11T13:36:30.001Z</time></trkpt><trkpt lat="44.76410346980676" lon="9.979608254257746"><ele>396.0</ele><time>2026-04-11T13:36:31.001Z</time></trkpt><trkpt lat="44.76410704006085" lon="9.979791621306209"><ele>396.0</ele><time>2026-04-11T13:36:32.001Z</time></trkpt><trkpt lat="44.76415106613018" lon="9.979965596367835"><ele>396.0</ele><time>2026-04-11T13:36:33.001Z</time></trkpt><trkpt lat="44.76418755016291" lon="9.980145736587106"><ele>396.0</ele><time>2026-04-11T13:36:34.001Z</time></trkpt><trkpt lat="44.76422942438993" lon="9.98031660445902"><ele>394.5</ele><time>2026-04-11T13:36:35.001Z</time></trkpt><trkpt lat="44.76428246958653" lon="9.980481309858613"><ele>393.0</ele><time>2026-04-11T13:36:36.001Z</time></trkpt><trkpt lat="44.76432818308924" lon="9.980649798679218"><ele>391.5</ele><time>2026-04-11T13:36:37.001Z</time></trkpt><trkpt lat="44.76439658272427" lon="9.980814029293656"><ele>390.0</ele><time>2026-04-11T13:36:38.001Z</time></trkpt><trkpt lat="44.764479175552616" lon="9.980948308846617"><ele>387.5</ele><time>2026-04-11T13:36:39.001Z</time></trkpt><trkpt lat="44.764557296977586" lon="9.981100091367251"><ele>385.0</ele><time>2026-04-11T13:36:40.001Z</time></trkpt><trkpt lat="44.76462888690176" lon="9.981255453589522"><ele>382.5</ele><time>2026-04-11T13:36:41.001Z</time></trkpt><trkpt lat="44.76466171208588" lon="9.981421498794308"><ele>380.0</ele><time>2026-04-11T13:36:42.001Z</time></trkpt><trkpt lat="44.76469518235109" lon="9.98158464291046"><ele>378.4</ele><time>2026-04-11T13:36:43.001Z</time></trkpt><trkpt lat="44.764706742059474" lon="9.981748585727457"><ele>376.8</ele><time>2026-04-11T13:36:44.001Z</time></trkpt><trkpt lat="44.76471583764325" lon="9.981892863234455"><ele>375.20000000000005</ele><time>2026-04-11T13:36:45.001Z</time></trkpt><trkpt lat="44.76472405022325" lon="9.98201723841577"><ele>373.6</ele><time>2026-04-11T13:36:46.001Z</time></trkpt><trkpt lat="44.76473402475619" lon="9.982128604161625"><ele>372.0</ele><time>2026-04-11T13:36:47.001Z</time></trkpt><trkpt lat="44.76474498989794" lon="9.982237513575773"><ele>372.0</ele><time>2026-04-11T13:36:48.001Z</time></trkpt><trkpt lat="44.76475671192136" lon="9.982353940633399"><ele>372.0</ele><time>2026-04-11T13:36:49.001Z</time></trkpt><trkpt lat="44.76476727023477" lon="9.982471082796362"><ele>372.0</ele><time>2026-04-11T13:36:50.001Z</time></trkpt><trkpt lat="44.76478190814495" lon="9.98258939254854"><ele>372.0</ele><time>2026-04-11T13:36:51.001Z</time></trkpt><trkpt lat="44.764824099494625" lon="9.982722477623675"><ele>372.0</ele><time>2026-04-11T13:36:52.001Z</time></trkpt><trkpt lat="44.76490840870099" lon="9.982828411059614"><ele>370.6</ele><time>2026-04-11T13:36:53.001Z</time></trkpt><trkpt lat="44.76500702264757" lon="9.982873572598033"><ele>369.20000000000005</ele><time>2026-04-11T13:36:54.001Z</time></trkpt><trkpt lat="44.76509257731518" lon="9.98292588493238"><ele>367.8</ele><time>2026-04-11T13:36:55.001Z</time></trkpt><trkpt lat="44.765174427581094" lon="9.982995308994775"><ele>366.4</ele><time>2026-04-11T13:36:56.001Z</time></trkpt><trkpt lat="44.76525970400476" lon="9.983071197035608"><ele>365.0</ele><time>2026-04-11T13:36:57.001Z</time></trkpt><trkpt lat="44.76533190108029" lon="9.983168781645459"><ele>362.8</ele><time>2026-04-11T13:36:58.001Z</time></trkpt><trkpt lat="44.76539103825856" lon="9.983288594007282"><ele>360.6</ele><time>2026-04-11T13:36:59.001Z</time></trkpt><trkpt lat="44.76543967701451" lon="9.983426267047935"><ele>358.4</ele><time>2026-04-11T13:37:00.001Z</time></trkpt><trkpt lat="44.765482085688454" lon="9.983575244490078"><ele>356.2</ele><time>2026-04-11T13:37:01.001Z</time></trkpt><trkpt lat="44.76549492276113" lon="9.983738586253965"><ele>354.0</ele><time>2026-04-11T13:37:02.001Z</time></trkpt><trkpt lat="44.76549344110384" lon="9.983902250789882"><ele>353.0</ele><time>2026-04-11T13:37:03.001Z</time></trkpt><trkpt lat="44.76550787006576" lon="9.984058902966975"><ele>352.0</ele><time>2026-04-11T13:37:04.001Z</time></trkpt><trkpt lat="44.76552957225929" lon="9.984223720613263"><ele>351.0</ele><time>2026-04-11T13:37:05.001Z</time></trkpt><trkpt lat="44.76555424761238" lon="9.984386736340479"><ele>350.0</ele><time>2026-04-11T13:37:06.001Z</time></trkpt><trkpt lat="44.765579747345676" lon="9.984529262465301"><ele>348.25</ele><time>2026-04-11T13:37:07.001Z</time></trkpt><trkpt lat="44.76555052576895" lon="9.984680641732124"><ele>346.5</ele><time>2026-04-11T13:37:08.001Z</time></trkpt><trkpt lat="44.765497094937544" lon="9.98483426906407"><ele>344.75</ele><time>2026-04-11T13:37:09.001Z</time></trkpt><trkpt lat="44.7654258027112" lon="9.98497901968325"><ele>343.0</ele><time>2026-04-11T13:37:10.001Z</time></trkpt><trkpt lat="44.765356416006966" lon="9.985130698528504"><ele>342.0</ele><time>2026-04-11T13:37:11.001Z</time></trkpt><trkpt lat="44.76530912055589" lon="9.985310517045537"><ele>341.0</ele><time>2026-04-11T13:37:12.001Z</time></trkpt><trkpt lat="44.765284818867116" lon="9.985523087199539"><ele>340.0</ele><time>2026-04-11T13:37:13.001Z</time></trkpt><trkpt lat="44.76527356203902" lon="9.985762095021643"><ele>338.66666666666663</ele><time>2026-04-11T13:37:14.001Z</time></trkpt><trkpt lat="44.765263160927894" lon="9.986013281423904"><ele>337.3333333333333</ele><time>2026-04-11T13:37:15.001Z</time></trkpt><trkpt lat="44.76525079220934" lon="9.98626920822091"><ele>336.0</ele><time>2026-04-11T13:37:16.001Z</time></trkpt><trkpt lat="44.76523454616348" lon="9.98652692027845"><ele>336.3333333333333</ele><time>2026-04-11T13:37:17.001Z</time></trkpt><trkpt lat="44.765218348400346" lon="9.98677242496437"><ele>336.66666666666663</ele><time>2026-04-11T13:37:18.001Z</time></trkpt><trkpt lat="44.765191191584314" lon="9.986997831728617"><ele>337.0</ele><time>2026-04-11T13:37:19.001Z</time></trkpt><trkpt lat="44.76517650225441" lon="9.987205227188875"><ele>337.75</ele><time>2026-04-11T13:37:20.001Z</time></trkpt><trkpt lat="44.765176437087895" lon="9.98740880757278"><ele>338.5</ele><time>2026-04-11T13:37:21.001Z</time></trkpt><trkpt lat="44.76516302586664" lon="9.987595004582728"><ele>339.25</ele><time>2026-04-11T13:37:22.001Z</time></trkpt><trkpt lat="44.765145409376146" lon="9.987765899704975"><ele>340.0</ele><time>2026-04-11T13:37:23.001Z</time></trkpt><trkpt lat="44.76513413919284" lon="9.987911387507271"><ele>340.0</ele><time>2026-04-11T13:37:24.001Z</time></trkpt><trkpt lat="44.76511645248471" lon="9.988019099096912"><ele>340.0</ele><time>2026-04-11T13:37:25.001Z</time></trkpt><trkpt lat="44.76506854732734" lon="9.988093210104429"><ele>340.0</ele><time>2026-04-11T13:37:26.001Z</time></trkpt><trkpt lat="44.76499073634643" lon="9.988130271694043"><ele>340.0</ele><time>2026-04-11T13:37:27.001Z</time></trkpt><trkpt lat="44.76489681346033" lon="9.988124200238012"><ele>340.0</ele><time>2026-04-11T13:37:28.001Z</time></trkpt><trkpt lat="44.764810255288246" lon="9.988031962228456"><ele>340.0</ele><time>2026-04-11T13:37:29.001Z</time></trkpt><trkpt lat="44.76470582729263" lon="9.987964023361116"><ele>340.0</ele><time>2026-04-11T13:37:30.001Z</time></trkpt><trkpt lat="44.764602701235184" lon="9.987916023474448"><ele>340.0</ele><time>2026-04-11T13:37:31.001Z</time></trkpt><trkpt lat="44.76448156661099" lon="9.987872817723865"><ele>340.0</ele><time>2026-04-11T13:37:32.001Z</time></trkpt><trkpt lat="44.764343656403526" lon="9.987872205710683"><ele>340.0</ele><time>2026-04-11T13:37:33.001Z</time></trkpt><trkpt lat="44.76421797961255" lon="9.987891749245046"><ele>338.2</ele><time>2026-04-11T13:37:34.001Z</time></trkpt><trkpt lat="44.76410512545386" lon="9.987912196160739"><ele>336.4</ele><time>2026-04-11T13:37:35.001Z</time></trkpt><trkpt lat="44.76400087780067" lon="9.987922546126645"><ele>334.6</ele><time>2026-04-11T13:37:36.001Z</time></trkpt><trkpt lat="44.76389252676199" lon="9.987930889851551"><ele>332.8</ele><time>2026-04-11T13:37:37.001Z</time></trkpt><trkpt lat="44.76380075900728" lon="9.987923498816599"><ele>331.0</ele><time>2026-04-11T13:37:38.001Z</time></trkpt><trkpt lat="44.763736624564146" lon="9.987864251024762"><ele>331.0</ele><time>2026-04-11T13:37:39.001Z</time></trkpt><trkpt lat="44.76370309809968" lon="9.98775323127852"><ele>331.0</ele><time>2026-04-11T13:37:40.001Z</time></trkpt><trkpt lat="44.76370254007348" lon="9.987598376891887"><ele>331.0</ele><time>2026-04-11T13:37:41.001Z</time></trkpt><trkpt lat="44.76375563444674" lon="9.987442486391947"><ele>331.0</ele><time>2026-04-11T13:37:42.001Z</time></trkpt><trkpt lat="44.76379377122574" lon="9.987262467041923"><ele>332.5</ele><time>2026-04-11T13:37:43.001Z</time></trkpt><trkpt lat="44.76384815813582" lon="9.987078157734787"><ele>334.0</ele><time>2026-04-11T13:37:44.001Z</time></trkpt><trkpt lat="44.76390490469191" lon="9.986879123805517"><ele>335.5</ele><time>2026-04-11T13:37:45Z</time></trkpt><trkpt lat="44.7639697521796" lon="9.986681250945361"><ele>337.0</ele><time>2026-04-11T13:37:46Z</time></trkpt><trkpt lat="44.764037846137214" lon="9.986509763671663"><ele>337.0</ele><time>2026-04-11T13:37:47Z</time></trkpt><trkpt lat="44.76410590790908" lon="9.986360485401113"><ele>337.0</ele><time>2026-04-11T13:37:48Z</time></trkpt><trkpt lat="44.7641607275614" lon="9.98621841879263"><ele>337.0</ele><time>2026-04-11T13:37:49Z</time></trkpt><trkpt lat="44.76418358877406" lon="9.986072260890625"><ele>337.0</ele><time>2026-04-11T13:37:50Z</time></trkpt><trkpt lat="44.76418264203336" lon="9.985916288469268"><ele>336.6</ele><time>2026-04-11T13:37:51Z</time></trkpt><trkpt lat="44.76414658156137" lon="9.985768684713122"><ele>336.20000000000005</ele><time>2026-04-11T13:37:52Z</time></trkpt><trkpt lat="44.76410403939079" lon="9.985619737775014"><ele>335.8</ele><time>2026-04-11T13:37:53Z</time></trkpt><trkpt lat="44.76406772222451" lon="9.985473412092444"><ele>335.4</ele><time>2026-04-11T13:37:54Z</time></trkpt><trkpt lat="44.76403656823909" lon="9.985332579465021"><ele>335.0</ele><time>2026-04-11T13:37:55Z</time></trkpt><trkpt lat="44.764004256740044" lon="9.985195704910598"><ele>335.0</ele><time>2026-04-11T13:37:56Z</time></trkpt><trkpt lat="44.763951988933734" lon="9.985064723620283"><ele>335.0</ele><time>2026-04-11T13:37:57Z</time></trkpt><trkpt lat="44.763870531622736" lon="9.984972493701273"><ele>335.0</ele><time>2026-04-11T13:37:58Z</time></trkpt><trkpt lat="44.76376848190265" lon="9.984895801495439"><ele>335.0</ele><time>2026-04-11T13:37:59Z</time></trkpt><trkpt lat="44.7636718521293" lon="9.984828695153807"><ele>335.0</ele><time>2026-04-11T13:38:00Z</time></trkpt><trkpt lat="44.76358476405319" lon="9.984743059175084"><ele>331.25</ele><time>2026-04-11T13:38:01Z</time></trkpt><trkpt lat="44.76350217434041" lon="9.98464416080748"><ele>327.5</ele><time>2026-04-11T13:38:02Z</time></trkpt><trkpt lat="44.76340983835648" lon="9.984536806686855"><ele>323.75</ele><time>2026-04-11T13:38:03Z</time></trkpt><trkpt lat="44.76330784571834" lon="9.984437690387468"><ele>320.0</ele><time>2026-04-11T13:38:04Z</time></trkpt><trkpt lat="44.763195094035744" lon="9.984352193438072"><ele>320.0</ele><time>2026-04-11T13:38:05Z</time></trkpt><trkpt lat="44.7630801153452" lon="9.98427030086365"><ele>320.0</ele><time>2026-04-11T13:38:06Z</time></trkpt><trkpt lat="44.76296937395422" lon="9.984182244421694"><ele>320.0</ele><time>2026-04-11T13:38:07Z</time></trkpt><trkpt lat="44.762862096297646" lon="9.98407093215187"><ele>320.0</ele><time>2026-04-11T13:38:08Z</time></trkpt><trkpt lat="44.76276293598334" lon="9.983937754893807"><ele>320.25</ele><time>2026-04-11T13:38:09Z</time></trkpt><trkpt lat="44.76267035175664" lon="9.983795649272315"><ele>320.5</ele><time>2026-04-11T13:38:10Z</time></trkpt><trkpt lat="44.762581134488684" lon="9.983673281301318"><ele>320.75</ele><time>2026-04-11T13:38:11Z</time></trkpt><trkpt lat="44.762495979686825" lon="9.983590055632925"><ele>321.0</ele><time>2026-04-11T13:38:12Z</time></trkpt><trkpt lat="44.762408310482456" lon="9.983563826911231"><ele>321.0</ele><time>2026-04-11T13:38:13Z</time></trkpt><trkpt lat="44.762313543895544" lon="9.98359450831582"><ele>321.0</ele><time>2026-04-11T13:38:14Z</time></trkpt><trkpt lat="44.76221706759563" lon="9.983676119764924"><ele>321.0</ele><time>2026-04-11T13:38:15Z</time></trkpt><trkpt lat="44.76212311863999" lon="9.983776135354535"><ele>321.0</ele><time>2026-04-11T13:38:16Z</time></trkpt><trkpt lat="44.7620607214172" lon="9.983929575660314"><ele>321.0</ele><time>2026-04-11T13:38:17Z</time></trkpt><trkpt lat="44.76201478515112" lon="9.984070054339938"><ele>321.0</ele><time>2026-04-11T13:38:18Z</time></trkpt><trkpt lat="44.76196390557071" lon="9.984200734677255"><ele>321.0</ele><time>2026-04-11T13:38:19Z</time></trkpt><trkpt lat="44.76192609614253" lon="9.984312263328581"><ele>321.0</ele><time>2026-04-11T13:38:20Z</time></trkpt><trkpt lat="44.76188640092168" lon="9.984410381682508"><ele>321.0</ele><time>2026-04-11T13:38:21Z</time></trkpt><trkpt lat="44.76179950667188" lon="9.984453939959813"><ele>320.5</ele><time>2026-04-11T13:38:22Z</time></trkpt><trkpt lat="44.76170365130394" lon="9.984417965198407"><ele>320.0</ele><time>2026-04-11T13:38:23Z</time></trkpt><trkpt lat="44.76159933693092" lon="9.984378815254585"><ele>319.5</ele><time>2026-04-11T13:38:24Z</time></trkpt><trkpt lat="44.76151705571039" lon="9.98425597997961"><ele>319.0</ele><time>2026-04-11T13:38:25Z</time></trkpt><trkpt lat="44.76140887300183" lon="9.984146083772236"><ele>319.0</ele><time>2026-04-11T13:38:26Z</time></trkpt><trkpt lat="44.761312822919265" lon="9.984031445599378"><ele>319.0</ele><time>2026-04-11T13:38:27Z</time></trkpt><trkpt lat="44.76122284906989" lon="9.983920915559658"><ele>319.0</ele><time>2026-04-11T13:38:28Z</time></trkpt><trkpt lat="44.761141093214626" lon="9.983810153985296"><ele>319.0</ele><time>2026-04-11T13:38:29Z</time></trkpt><trkpt lat="44.761060874770436" lon="9.983701027928227"><ele>317.59999999999997</ele><time>2026-04-11T13:38:30Z</time></trkpt><trkpt lat="44.76097676227906" lon="9.983602748944156"><ele>316.2</ele><time>2026-04-11T13:38:31Z</time></trkpt><trkpt lat="44.76088762689622" lon="9.983529645363609"><ele>314.79999999999995</ele><time>2026-04-11T13:38:32Z</time></trkpt><trkpt lat="44.76078682809078" lon="9.983509403112436"><ele>313.4</ele><time>2026-04-11T13:38:33Z</time></trkpt><trkpt lat="44.76068299309003" lon="9.98355501791168"><ele>312.0</ele><time>2026-04-11T13:38:34Z</time></trkpt><trkpt lat="44.76057792826722" lon="9.98365474095681"><ele>312.0</ele><time>2026-04-11T13:38:35Z</time></trkpt><trkpt lat="44.76047491768438" lon="9.983778737307393"><ele>312.0</ele><time>2026-04-11T13:38:36Z</time></trkpt><trkpt lat="44.76036567742822" lon="9.98386277250766"><ele>312.0</ele><time>2026-04-11T13:38:37Z</time></trkpt><trkpt lat="44.760274000514855" lon="9.983954872746613"><ele>312.0</ele><time>2026-04-11T13:38:38Z</time></trkpt><trkpt lat="44.760197638025915" lon="9.984054282127467"><ele>311.4</ele><time>2026-04-11T13:38:39Z</time></trkpt><trkpt lat="44.760111458120925" lon="9.984128795413643"><ele>310.79999999999995</ele><time>2026-04-11T13:38:40Z</time></trkpt><trkpt lat="44.76003522272681" lon="9.984202488985968"><ele>310.2</ele><time>2026-04-11T13:38:41Z</time></trkpt><trkpt lat="44.75996206197752" lon="9.984272654136733"><ele>309.59999999999997</ele><time>2026-04-11T13:38:42Z</time></trkpt><trkpt lat="44.75989230711439" lon="9.98434139954199"><ele>309.0</ele><time>2026-04-11T13:38:43Z</time></trkpt><trkpt lat="44.759825119530944" lon="9.984421256533432"><ele>308.0</ele><time>2026-04-11T13:38:44Z</time></trkpt><trkpt lat="44.7597706747624" lon="9.984525092643018"><ele>307.0</ele><time>2026-04-11T13:38:45.001Z</time></trkpt><trkpt lat="44.7597360244269" lon="9.984664253241831"><ele>306.0</ele><time>2026-04-11T13:38:46.001Z</time></trkpt><trkpt lat="44.759724860839306" lon="9.984822381150536"><ele>305.0</ele><time>2026-04-11T13:38:47.001Z</time></trkpt><trkpt lat="44.759742655047084" lon="9.98498585482183"><ele>304.0</ele><time>2026-04-11T13:38:48.001Z</time></trkpt><trkpt lat="44.75979032005765" lon="9.985159038066701"><ele>303.5</ele><time>2026-04-11T13:38:49.001Z</time></trkpt><trkpt lat="44.75985208953091" lon="9.985312651393567"><ele>303.0</ele><time>2026-04-11T13:38:50.001Z</time></trkpt><trkpt lat="44.75990033706306" lon="9.98546191363947"><ele>302.5</ele><time>2026-04-11T13:38:51.001Z</time></trkpt><trkpt lat="44.75992353107864" lon="9.98563300399202"><ele>302.0</ele><time>2026-04-11T13:38:52.001Z</time></trkpt><trkpt lat="44.75989294631258" lon="9.985812894458514"><ele>301.25</ele><time>2026-04-11T13:38:53.001Z</time></trkpt><trkpt lat="44.75986491361017" lon="9.98599393997692"><ele>300.5</ele><time>2026-04-11T13:38:54.001Z</time></trkpt><trkpt lat="44.75982666284941" lon="9.986169340407724"><ele>299.75</ele><time>2026-04-11T13:38:55.001Z</time></trkpt><trkpt lat="44.75980256752463" lon="9.98634774256177"><ele>299.0</ele><time>2026-04-11T13:38:56.001Z</time></trkpt><trkpt lat="44.75975533637409" lon="9.986510425706683"><ele>297.75</ele><time>2026-04-11T13:38:57.001Z</time></trkpt><trkpt lat="44.75970759692805" lon="9.98668155786806"><ele>296.5</ele><time>2026-04-11T13:38:58.001Z</time></trkpt><trkpt lat="44.75967109029138" lon="9.986849279077644"><ele>295.25</ele><time>2026-04-11T13:38:59.001Z</time></trkpt><trkpt lat="44.759654102207094" lon="9.987009766941153"><ele>294.0</ele><time>2026-04-11T13:39:00.001Z</time></trkpt><trkpt lat="44.759656005489354" lon="9.987170636166665"><ele>294.0</ele><time>2026-04-11T13:39:01.001Z</time></trkpt><trkpt lat="44.75967444497801" lon="9.98732584448947"><ele>294.0</ele><time>2026-04-11T13:39:02.001Z</time></trkpt><trkpt lat="44.75968705114936" lon="9.987471312093684"><ele>294.0</ele><time>2026-04-11T13:39:03.001Z</time></trkpt><trkpt lat="44.75967999248354" lon="9.987613457159375"><ele>294.0</ele><time>2026-04-11T13:39:04.001Z</time></trkpt><trkpt lat="44.75964322783546" lon="9.987747010751331"><ele>294.0</ele><time>2026-04-11T13:39:05.001Z</time></trkpt><trkpt lat="44.759559492876065" lon="9.98784029737281"><ele>292.75</ele><time>2026-04-11T13:39:06.001Z</time></trkpt><trkpt lat="44.75947173765976" lon="9.987948182234584"><ele>291.5</ele><time>2026-04-11T13:39:07.001Z</time></trkpt><trkpt lat="44.75939910108566" lon="9.98808259099883"><ele>290.25</ele><time>2026-04-11T13:39:08.001Z</time></trkpt><trkpt lat="44.75933842431587" lon="9.988231594723647"><ele>289.0</ele><time>2026-04-11T13:39:09.001Z</time></trkpt><trkpt lat="44.75930063556306" lon="9.988387431226107"><ele>289.0</ele><time>2026-04-11T13:39:10.001Z</time></trkpt><trkpt lat="44.759264881263704" lon="9.988533270739609"><ele>289.0</ele><time>2026-04-11T13:39:11.001Z</time></trkpt><trkpt lat="44.75922823598586" lon="9.988671795428614"><ele>289.0</ele><time>2026-04-11T13:39:12.001Z</time></trkpt><trkpt lat="44.75919250245056" lon="9.98880615617839"><ele>289.0</ele><time>2026-04-11T13:39:13.001Z</time></trkpt><trkpt lat="44.75915605526047" lon="9.98893032247027"><ele>289.0</ele><time>2026-04-11T13:39:14.001Z</time></trkpt><trkpt lat="44.759109089313526" lon="9.989026372889665"><ele>289.0</ele><time>2026-04-11T13:39:15.001Z</time></trkpt><trkpt lat="44.75904470314514" lon="9.989077115026499"><ele>289.0</ele><time>2026-04-11T13:39:16.001Z</time></trkpt><trkpt lat="44.75897150265556" lon="9.989070048574888"><ele>289.0</ele><time>2026-04-11T13:39:17.001Z</time></trkpt><trkpt lat="44.758902865364774" lon="9.989009174295484"><ele>289.0</ele><time>2026-04-11T13:39:18.001Z</time></trkpt><trkpt lat="44.7588522499055" lon="9.988874573164939"><ele>289.0</ele><time>2026-04-11T13:39:19.001Z</time></trkpt><trkpt lat="44.75876696612163" lon="9.9887392195208"><ele>289.0</ele><time>2026-04-11T13:39:20.001Z</time></trkpt><trkpt lat="44.75868759413561" lon="9.988577336857738"><ele>289.0</ele><time>2026-04-11T13:39:21.001Z</time></trkpt><trkpt lat="44.75860017842252" lon="9.988417972734668"><ele>289.0</ele><time>2026-04-11T13:39:22.001Z</time></trkpt><trkpt lat="44.75852637749891" lon="9.98824878787323"><ele>289.0</ele><time>2026-04-11T13:39:23.001Z</time></trkpt><trkpt lat="44.75846039404858" lon="9.988088181475852"><ele>288.25</ele><time>2026-04-11T13:39:24.001Z</time></trkpt><trkpt lat="44.75840455405073" lon="9.987923459893914"><ele>287.5</ele><time>2026-04-11T13:39:25.001Z</time></trkpt><trkpt lat="44.7583643061522" lon="9.987742908262868"><ele>286.75</ele><time>2026-04-11T13:39:26.001Z</time></trkpt><trkpt lat="44.7583427194601" lon="9.98756338399049"><ele>286.0</ele><time>2026-04-11T13:39:27.001Z</time></trkpt><trkpt lat="44.758315904555154" lon="9.987397656973785"><ele>287.40000000000003</ele><time>2026-04-11T13:39:28.001Z</time></trkpt><trkpt lat="44.75827533317854" lon="9.987262720191993"><ele>288.8</ele><time>2026-04-11T13:39:29.001Z</time></trkpt><trkpt lat="44.75821661684335" lon="9.987159189522098"><ele>290.20000000000005</ele><time>2026-04-11T13:39:30.001Z</time></trkpt><trkpt lat="44.758123222104075" lon="9.987074569701242"><ele>291.6</ele><time>2026-04-11T13:39:31.001Z</time></trkpt><trkpt lat="44.75801418379096" lon="9.98703857957582"><ele>293.0</ele><time>2026-04-11T13:39:32.001Z</time></trkpt><trkpt lat="44.75790321157811" lon="9.986977631277297"><ele>293.0</ele><time>2026-04-11T13:39:33.001Z</time></trkpt><trkpt lat="44.757791126225484" lon="9.986914730040137"><ele>293.0</ele><time>2026-04-11T13:39:34.001Z</time></trkpt><trkpt lat="44.757687357110534" lon="9.98684846958499"><ele>293.0</ele><time>2026-04-11T13:39:35.001Z</time></trkpt><trkpt lat="44.75757985296311" lon="9.986816572377366"><ele>293.0</ele><time>2026-04-11T13:39:36.001Z</time></trkpt><trkpt lat="44.75746368135687" lon="9.98681730101477"><ele>288.75</ele><time>2026-04-11T13:39:37.001Z</time></trkpt><trkpt lat="44.757341459711775" lon="9.986868551177466"><ele>284.5</ele><time>2026-04-11T13:39:38.001Z</time></trkpt><trkpt lat="44.75721581152202" lon="9.9869580886322"><ele>280.25</ele><time>2026-04-11T13:39:39.001Z</time></trkpt><trkpt lat="44.75710389261583" lon="9.987076385003485"><ele>276.0</ele><time>2026-04-11T13:39:40.001Z</time></trkpt><trkpt lat="44.756994379467834" lon="9.987181948421785"><ele>276.0</ele><time>2026-04-11T13:39:41.001Z</time></trkpt><trkpt lat="44.75689002641725" lon="9.987268860309204"><ele>276.0</ele><time>2026-04-11T13:39:42.001Z</time></trkpt><trkpt lat="44.75677920188401" lon="9.987352250115473"><ele>276.0</ele><time>2026-04-11T13:39:43.001Z</time></trkpt><trkpt lat="44.75665931772491" lon="9.987425475362352"><ele>276.0</ele><time>2026-04-11T13:39:44.001Z</time></trkpt><trkpt lat="44.75653615557425" lon="9.987493883732629"><ele>272.5</ele><time>2026-04-11T13:39:45.001Z</time></trkpt><trkpt lat="44.756411060889526" lon="9.987553260554037"><ele>269.0</ele><time>2026-04-11T13:39:46.001Z</time></trkpt><trkpt lat="44.75628990169896" lon="9.987604460917177"><ele>265.5</ele><time>2026-04-11T13:39:47.001Z</time></trkpt><trkpt lat="44.75616438189663" lon="9.987649046545954"><ele>262.0</ele><time>2026-04-11T13:39:48.001Z</time></trkpt><trkpt lat="44.75604553497209" lon="9.987631863435023"><ele>261.2</ele><time>2026-04-11T13:39:49.001Z</time></trkpt><trkpt lat="44.7559272682712" lon="9.987621734862639"><ele>260.4</ele><time>2026-04-11T13:39:50.001Z</time></trkpt><trkpt lat="44.755820589623475" lon="9.987618167768645"><ele>259.6</ele><time>2026-04-11T13:39:51Z</time></trkpt><trkpt lat="44.755729317340766" lon="9.987597774994187"><ele>258.8</ele><time>2026-04-11T13:39:52Z</time></trkpt><trkpt lat="44.755641678689344" lon="9.987592510527836"><ele>258.0</ele><time>2026-04-11T13:39:53Z</time></trkpt><trkpt lat="44.75556904223118" lon="9.987611754619314"><ele>258.0</ele><time>2026-04-11T13:39:54Z</time></trkpt><trkpt lat="44.755509482111584" lon="9.987734065583977"><ele>258.0</ele><time>2026-04-11T13:39:56Z</time></trkpt><trkpt lat="44.755523693465406" lon="9.987821904438626"><ele>258.0</ele><time>2026-04-11T13:39:57Z</time></trkpt><trkpt lat="44.755570267291894" lon="9.987906329750864"><ele>258.0</ele><time>2026-04-11T13:39:58Z</time></trkpt><trkpt lat="44.755672391205195" lon="9.98797596107003"><ele>258.0</ele><time>2026-04-11T13:39:59Z</time></trkpt><trkpt lat="44.75578740014295" lon="9.988036636710836"><ele>258.0</ele><time>2026-04-11T13:40:00Z</time></trkpt><trkpt lat="44.75590615983543" lon="9.988113958698042"><ele>258.0</ele><time>2026-04-11T13:40:01Z</time></trkpt><trkpt lat="44.75605159920936" lon="9.988209654959519"><ele>258.0</ele><time>2026-04-11T13:40:02Z</time></trkpt><trkpt lat="44.756205658651304" lon="9.988317064665429"><ele>256.75</ele><time>2026-04-11T13:40:03Z</time></trkpt><trkpt lat="44.75634554792674" lon="9.988410972837878"><ele>255.5</ele><time>2026-04-11T13:40:04Z</time></trkpt><trkpt lat="44.756476113789574" lon="9.988512180289382"><ele>254.25</ele><time>2026-04-11T13:40:05Z</time></trkpt><trkpt lat="44.75661230516088" lon="9.988565410220678"><ele>253.0</ele><time>2026-04-11T13:40:06Z</time></trkpt><trkpt lat="44.75674449258025" lon="9.988580541088885"><ele>253.0</ele><time>2026-04-11T13:40:07Z</time></trkpt><trkpt lat="44.75685556368875" lon="9.988617981258882"><ele>253.0</ele><time>2026-04-11T13:40:08Z</time></trkpt><trkpt lat="44.75694893322742" lon="9.988674328902821"><ele>253.0</ele><time>2026-04-11T13:40:09Z</time></trkpt><trkpt lat="44.7570226424114" lon="9.988773383996373"><ele>253.0</ele><time>2026-04-11T13:40:10Z</time></trkpt><trkpt lat="44.757049485172885" lon="9.988930551255043"><ele>253.0</ele><time>2026-04-11T13:40:11Z</time></trkpt><trkpt lat="44.75706340376047" lon="9.9890855569651"><ele>254.2</ele><time>2026-04-11T13:40:12Z</time></trkpt><trkpt lat="44.75708030367826" lon="9.989246409627446"><ele>255.4</ele><time>2026-04-11T13:40:13Z</time></trkpt><trkpt lat="44.757072152775606" lon="9.9893921767307"><ele>256.59999999999997</ele><time>2026-04-11T13:40:14Z</time></trkpt><trkpt lat="44.75708157584166" lon="9.989530906685234"><ele>257.8</ele><time>2026-04-11T13:40:15Z</time></trkpt><trkpt lat="44.75710859389529" lon="9.989668936205451"><ele>259.0</ele><time>2026-04-11T13:40:16Z</time></trkpt><trkpt lat="44.75715208253182" lon="9.989808473311678"><ele>259.0</ele><time>2026-04-11T13:40:17Z</time></trkpt><trkpt lat="44.757207271803225" lon="9.989956867176684"><ele>259.0</ele><time>2026-04-11T13:40:18Z</time></trkpt><trkpt lat="44.75726952468831" lon="9.990104483889999"><ele>259.0</ele><time>2026-04-11T13:40:19Z</time></trkpt><trkpt lat="44.75733504203063" lon="9.99023519634146"><ele>259.0</ele><time>2026-04-11T13:40:20Z</time></trkpt><trkpt lat="44.75740427602734" lon="9.99035780847953"><ele>257.0</ele><time>2026-04-11T13:40:21Z</time></trkpt><trkpt lat="44.75745922793915" lon="9.990490242694035"><ele>255.0</ele><time>2026-04-11T13:40:22Z</time></trkpt><trkpt lat="44.75749770283809" lon="9.990642685231494"><ele>253.0</ele><time>2026-04-11T13:40:23Z</time></trkpt><trkpt lat="44.75752488462598" lon="9.990808246554405"><ele>251.0</ele><time>2026-04-11T13:40:24Z</time></trkpt><trkpt lat="44.7575473512522" lon="9.990966029529933"><ele>250.8</ele><time>2026-04-11T13:40:25Z</time></trkpt><trkpt lat="44.757580046232384" lon="9.991116293385875"><ele>250.60000000000002</ele><time>2026-04-11T13:40:26Z</time></trkpt><trkpt lat="44.75763353509504" lon="9.991242245979508"><ele>250.4</ele><time>2026-04-11T13:40:27Z</time></trkpt><trkpt lat="44.75771747240529" lon="9.99133632485829"><ele>250.2</ele><time>2026-04-11T13:40:28Z</time></trkpt><trkpt lat="44.757827531863164" lon="9.991407225853022"><ele>250.0</ele><time>2026-04-11T13:40:29Z</time></trkpt><trkpt lat="44.75792850211024" lon="9.991465998290344"><ele>250.0</ele><time>2026-04-11T13:40:30Z</time></trkpt><trkpt lat="44.75800871267325" lon="9.99155578130036"><ele>250.0</ele><time>2026-04-11T13:40:31Z</time></trkpt><trkpt lat="44.75805606313111" lon="9.991688969177972"><ele>250.0</ele><time>2026-04-11T13:40:32Z</time></trkpt><trkpt lat="44.758031453043415" lon="9.991843736342853"><ele>250.0</ele><time>2026-04-11T13:40:33Z</time></trkpt><trkpt lat="44.75801567983762" lon="9.991982533133983"><ele>250.0</ele><time>2026-04-11T13:40:34Z</time></trkpt><trkpt lat="44.75800123152767" lon="9.992113263213865"><ele>248.0</ele><time>2026-04-11T13:40:35Z</time></trkpt><trkpt lat="44.758026076689376" lon="9.992270973222515"><ele>246.0</ele><time>2026-04-11T13:40:36Z</time></trkpt><trkpt lat="44.758081762528874" lon="9.992428464467993"><ele>244.0</ele><time>2026-04-11T13:40:37Z</time></trkpt><trkpt lat="44.75814243598526" lon="9.99256929574396"><ele>242.0</ele><time>2026-04-11T13:40:38Z</time></trkpt><trkpt lat="44.75819852826009" lon="9.992700811523965"><ele>241.0</ele><time>2026-04-11T13:40:39Z</time></trkpt><trkpt lat="44.75825328578246" lon="9.992811947794815"><ele>240.0</ele><time>2026-04-11T13:40:40Z</time></trkpt><trkpt lat="44.75832047460482" lon="9.992899328836542"><ele>239.0</ele><time>2026-04-11T13:40:41Z</time></trkpt><trkpt lat="44.75840156626241" lon="9.992959801297703"><ele>238.0</ele><time>2026-04-11T13:40:42Z</time></trkpt><trkpt lat="44.758523220431435" lon="9.993008554385169"><ele>237.0</ele><time>2026-04-11T13:40:43Z</time></trkpt><trkpt lat="44.75866108536478" lon="9.993047124739618"><ele>237.0</ele><time>2026-04-11T13:40:44Z</time></trkpt><trkpt lat="44.7587868370072" lon="9.993103557552217"><ele>237.0</ele><time>2026-04-11T13:40:45.001Z</time></trkpt><trkpt lat="44.758906870999844" lon="9.993118112618983"><ele>237.0</ele><time>2026-04-11T13:40:46.001Z</time></trkpt><trkpt lat="44.75901274171898" lon="9.993167878344336"><ele>237.0</ele><time>2026-04-11T13:40:47.001Z</time></trkpt><trkpt lat="44.75912398251425" lon="9.993198426886368"><ele>237.0</ele><time>2026-04-11T13:40:48.001Z</time></trkpt><trkpt lat="44.75924348291687" lon="9.99322979713891"><ele>237.0</ele><time>2026-04-11T13:40:49.001Z</time></trkpt><trkpt lat="44.75935360537673" lon="9.993264771425258"><ele>237.0</ele><time>2026-04-11T13:40:50.001Z</time></trkpt><trkpt lat="44.7594544422399" lon="9.993311434589302"><ele>237.0</ele><time>2026-04-11T13:40:51.001Z</time></trkpt><trkpt lat="44.759548193372126" lon="9.99339369576408"><ele>237.5</ele><time>2026-04-11T13:40:52.001Z</time></trkpt><trkpt lat="44.75962133580866" lon="9.99351441241559"><ele>238.0</ele><time>2026-04-11T13:40:53.001Z</time></trkpt><trkpt lat="44.75966488248132" lon="9.99366644563398"><ele>238.5</ele><time>2026-04-11T13:40:54.001Z</time></trkpt><trkpt lat="44.75966980123889" lon="9.993838384320485"><ele>239.0</ele><time>2026-04-11T13:40:55.001Z</time></trkpt><trkpt lat="44.75970899828057" lon="9.994014082153637"><ele>238.25</ele><time>2026-04-11T13:40:56.001Z</time></trkpt><trkpt lat="44.75973942420699" lon="9.994208914364565"><ele>237.5</ele><time>2026-04-11T13:40:57.001Z</time></trkpt><trkpt lat="44.75977297502927" lon="9.994414414073436"><ele>236.75</ele><time>2026-04-11T13:40:58.001Z</time></trkpt><trkpt lat="44.75980214399452" lon="9.994625819555688"><ele>236.0</ele><time>2026-04-11T13:40:59.001Z</time></trkpt><trkpt lat="44.759815229698454" lon="9.994808692743302"><ele>236.0</ele><time>2026-04-11T13:41:00.001Z</time></trkpt><trkpt lat="44.759812870265236" lon="9.99498118624214"><ele>236.0</ele><time>2026-04-11T13:41:01.001Z</time></trkpt><trkpt lat="44.7597961671306" lon="9.995142931077307"><ele>236.0</ele><time>2026-04-11T13:41:02.001Z</time></trkpt><trkpt lat="44.75977115075161" lon="9.99528825825732"><ele>236.0</ele><time>2026-04-11T13:41:03.001Z</time></trkpt><trkpt lat="44.7597438124027" lon="9.995432304210729"><ele>235.20000000000002</ele><time>2026-04-11T13:41:04.001Z</time></trkpt><trkpt lat="44.759716460089976" lon="9.99559508027886"><ele>234.40000000000003</ele><time>2026-04-11T13:41:05.001Z</time></trkpt><trkpt lat="44.75969129585257" lon="9.995752918464326"><ele>233.6</ele><time>2026-04-11T13:41:06.001Z</time></trkpt><trkpt lat="44.75966665386787" lon="9.995893448813296"><ele>232.8</ele><time>2026-04-11T13:41:07.001Z</time></trkpt><trkpt lat="44.759639830464394" lon="9.996024812780524"><ele>232.0</ele><time>2026-04-11T13:41:08.001Z</time></trkpt><trkpt lat="44.75961080439306" lon="9.996165075328024"><ele>231.5</ele><time>2026-04-11T13:41:09.001Z</time></trkpt><trkpt lat="44.75958659319018" lon="9.99631728749835"><ele>231.0</ele><time>2026-04-11T13:41:10.001Z</time></trkpt><trkpt lat="44.7595732017345" lon="9.99647919855401"><ele>230.5</ele><time>2026-04-11T13:41:11.001Z</time></trkpt><trkpt lat="44.7595844543834" lon="9.9966454196802"><ele>230.0</ele><time>2026-04-11T13:41:12.001Z</time></trkpt><trkpt lat="44.759618993728765" lon="9.996810237332971"><ele>231.25</ele><time>2026-04-11T13:41:13.001Z</time></trkpt><trkpt lat="44.75967848489246" lon="9.996972609409298"><ele>232.5</ele><time>2026-04-11T13:41:14.001Z</time></trkpt><trkpt lat="44.75974161198497" lon="9.997142059782309"><ele>233.75</ele><time>2026-04-11T13:41:15.001Z</time></trkpt><trkpt lat="44.75981090327128" lon="9.997307563776099"><ele>235.0</ele><time>2026-04-11T13:41:16.001Z</time></trkpt><trkpt lat="44.759892574594566" lon="9.997474083226134"><ele>234.0</ele><time>2026-04-11T13:41:17.001Z</time></trkpt><trkpt lat="44.75998130489124" lon="9.997631778438967"><ele>233.0</ele><time>2026-04-11T13:41:18.001Z</time></trkpt><trkpt lat="44.76008915597199" lon="9.997777059558635"><ele>232.0</ele><time>2026-04-11T13:41:19.001Z</time></trkpt><trkpt lat="44.76019155901183" lon="9.99788855703997"><ele>231.0</ele><time>2026-04-11T13:41:20.001Z</time></trkpt><trkpt lat="44.76027709498333" lon="9.997986341116409"><ele>231.0</ele><time>2026-04-11T13:41:21.001Z</time></trkpt><trkpt lat="44.76035173690241" lon="9.99808665186622"><ele>231.00000000000003</ele><time>2026-04-11T13:41:22.001Z</time></trkpt><trkpt lat="44.76040643477315" lon="9.998183643899845"><ele>231.00000000000003</ele><time>2026-04-11T13:41:23.001Z</time></trkpt><trkpt lat="44.76044605432868" lon="9.998283637091832"><ele>231.0</ele><time>2026-04-11T13:41:24.001Z</time></trkpt><trkpt lat="44.76046053179694" lon="9.998407905596752"><ele>231.0</ele><time>2026-04-11T13:41:25.001Z</time></trkpt><trkpt lat="44.76044849750103" lon="9.99856814679035"><ele>232.0</ele><time>2026-04-11T13:41:26.001Z</time></trkpt><trkpt lat="44.760431807227604" lon="9.998752162222058"><ele>233.0</ele><time>2026-04-11T13:41:27.001Z</time></trkpt><trkpt lat="44.76040653769282" lon="9.998965581954378"><ele>234.0</ele><time>2026-04-11T13:41:28.001Z</time></trkpt><trkpt lat="44.76038327073133" lon="9.999199700668253"><ele>234.66666666666669</ele><time>2026-04-11T13:41:29.001Z</time></trkpt><trkpt lat="44.760373153603524" lon="9.999469502304747"><ele>235.33333333333334</ele><time>2026-04-11T13:41:30.001Z</time></trkpt><trkpt lat="44.7603678410569" lon="9.999768828293295"><ele>236.0</ele><time>2026-04-11T13:41:31.001Z</time></trkpt><trkpt lat="44.7603585493014" lon="10.000078858569962"><ele>236.0</ele><time>2026-04-11T13:41:32.001Z</time></trkpt><trkpt lat="44.76034159322157" lon="10.000330646175414"><ele>236.0</ele><time>2026-04-11T13:41:33.001Z</time></trkpt><trkpt lat="44.76032232450879" lon="10.000583643537025"><ele>236.0</ele><time>2026-04-11T13:41:34.001Z</time></trkpt><trkpt lat="44.76032365541569" lon="10.000841516346277"><ele>239.0</ele><time>2026-04-11T13:41:35.001Z</time></trkpt><trkpt lat="44.76033093071427" lon="10.001090876666257"><ele>242.0</ele><time>2026-04-11T13:41:36.001Z</time></trkpt><trkpt lat="44.760328102150794" lon="10.001308743634498"><ele>245.0</ele><time>2026-04-11T13:41:37.001Z</time></trkpt><trkpt lat="44.76031716882396" lon="10.001500567003863"><ele>245.0</ele><time>2026-04-11T13:41:38.001Z</time></trkpt><trkpt lat="44.76027385986987" lon="10.001657477119888"><ele>245.0</ele><time>2026-04-11T13:41:39.001Z</time></trkpt><trkpt lat="44.76021623572897" lon="10.001802871822052"><ele>245.0</ele><time>2026-04-11T13:41:40.001Z</time></trkpt><trkpt lat="44.760175017002894" lon="10.001963607763063"><ele>245.0</ele><time>2026-04-11T13:41:41.001Z</time></trkpt><trkpt lat="44.76016630044861" lon="10.002123930501782"><ele>245.0</ele><time>2026-04-11T13:41:42.001Z</time></trkpt><trkpt lat="44.76020618452954" lon="10.002302600084914"><ele>245.0</ele><time>2026-04-11T13:41:43.001Z</time></trkpt><trkpt lat="44.76027084753437" lon="10.002471914953855"><ele>245.0</ele><time>2026-04-11T13:41:44.001Z</time></trkpt><trkpt lat="44.760332999150464" lon="10.002640104686867"><ele>245.0</ele><time>2026-04-11T13:41:45.001Z</time></trkpt><trkpt lat="44.76037313542724" lon="10.002815506363742"><ele>245.66666666666669</ele><time>2026-04-11T13:41:46.001Z</time></trkpt><trkpt lat="44.76038154838289" lon="10.003011835677555"><ele>246.33333333333331</ele><time>2026-04-11T13:41:47.001Z</time></trkpt><trkpt lat="44.76037163840809" lon="10.003246753804293"><ele>247.0</ele><time>2026-04-11T13:41:48.001Z</time></trkpt><trkpt lat="44.760352818771395" lon="10.003496162999706"><ele>248.0</ele><time>2026-04-11T13:41:49.001Z</time></trkpt><trkpt lat="44.76033589224894" lon="10.003691541531547"><ele>249.0</ele><time>2026-04-11T13:41:50.001Z</time></trkpt><trkpt lat="44.760322061735934" lon="10.003846904339524"><ele>250.0</ele><time>2026-04-11T13:41:51.001Z</time></trkpt><trkpt lat="44.76030666613411" lon="10.00397274429827"><ele>251.0</ele><time>2026-04-11T13:41:52.001Z</time></trkpt><trkpt lat="44.760267835534165" lon="10.004062583477268"><ele>252.0</ele><time>2026-04-11T13:41:53.001Z</time></trkpt><trkpt lat="44.760201359090665" lon="10.004099298640998"><ele>254.2</ele><time>2026-04-11T13:41:54.001Z</time></trkpt><trkpt lat="44.76012835040065" lon="10.004081878427488"><ele>256.4</ele><time>2026-04-11T13:41:55.001Z</time></trkpt><trkpt lat="44.76006767445506" lon="10.003993223074403"><ele>258.6</ele><time>2026-04-11T13:41:56.001Z</time></trkpt><trkpt lat="44.76008152416768" lon="10.00382909640596"><ele>260.8</ele><time>2026-04-11T13:41:57Z</time></trkpt><trkpt lat="44.76006293507778" lon="10.003643236417968"><ele>263.0</ele><time>2026-04-11T13:41:58Z</time></trkpt><trkpt lat="44.75997415231234" lon="10.003362455678943"><ele>261.6</ele><time>2026-04-11T13:42:00Z</time></trkpt><trkpt lat="44.75990229244242" lon="10.003255205650612"><ele>260.20000000000005</ele><time>2026-04-11T13:42:01Z</time></trkpt><trkpt lat="44.7598050097605" lon="10.003177816188387"><ele>258.8</ele><time>2026-04-11T13:42:02Z</time></trkpt><trkpt lat="44.75969819961734" lon="10.003122664291487"><ele>257.40000000000003</ele><time>2026-04-11T13:42:03Z</time></trkpt><trkpt lat="44.75959315347839" lon="10.003091573527147"><ele>256.0</ele><time>2026-04-11T13:42:04Z</time></trkpt><trkpt lat="44.75950690422293" lon="10.003091097602285"><ele>256.0</ele><time>2026-04-11T13:42:05Z</time></trkpt><trkpt lat="44.759433701009876" lon="10.0031285728486"><ele>256.0</ele><time>2026-04-11T13:42:06Z</time></trkpt><trkpt lat="44.75938591824138" lon="10.003194428668113"><ele>256.0</ele><time>2026-04-11T13:42:07Z</time></trkpt><trkpt lat="44.75937972932062" lon="10.003389234745907"><ele>256.0</ele><time>2026-04-11T13:42:09Z</time></trkpt><trkpt lat="44.75943778637023" lon="10.003508612895427"><ele>256.0</ele><time>2026-04-11T13:42:10Z</time></trkpt><trkpt lat="44.75953988846332" lon="10.003619934087315"><ele>257.75</ele><time>2026-04-11T13:42:11Z</time></trkpt><trkpt lat="44.759637334217445" lon="10.003731273854223"><ele>259.5</ele><time>2026-04-11T13:42:12Z</time></trkpt><trkpt lat="44.75968542853875" lon="10.003851180360638"><ele>261.25</ele><time>2026-04-11T13:42:13Z</time></trkpt><trkpt lat="44.75969985209373" lon="10.004006192114277"><ele>263.0</ele><time>2026-04-11T13:42:14Z</time></trkpt><trkpt lat="44.75968454088018" lon="10.004195221283705"><ele>265.33333333333337</ele><time>2026-04-11T13:42:15Z</time></trkpt><trkpt lat="44.7596410463996" lon="10.004414922665424"><ele>267.6666666666667</ele><time>2026-04-11T13:42:16Z</time></trkpt><trkpt lat="44.75959593366793" lon="10.004640550549102"><ele>270.0</ele><time>2026-04-11T13:42:17Z</time></trkpt><trkpt lat="44.75955826645994" lon="10.004869097713355"><ele>271.0</ele><time>2026-04-11T13:42:18Z</time></trkpt><trkpt lat="44.759538297668335" lon="10.005063045011322"><ele>272.0</ele><time>2026-04-11T13:42:19Z</time></trkpt><trkpt lat="44.75954739121034" lon="10.005251601400104"><ele>273.0</ele><time>2026-04-11T13:42:20Z</time></trkpt><trkpt lat="44.75959644558954" lon="10.00544419320481"><ele>274.0</ele><time>2026-04-11T13:42:21Z</time></trkpt><trkpt lat="44.759645052024" lon="10.005618136449767"><ele>274.0</ele><time>2026-04-11T13:42:22Z</time></trkpt><trkpt lat="44.75969915454112" lon="10.005757816500045"><ele>274.0</ele><time>2026-04-11T13:42:23Z</time></trkpt><trkpt lat="44.759739629522045" lon="10.005877069322255"><ele>274.0</ele><time>2026-04-11T13:42:24Z</time></trkpt><trkpt lat="44.75975397796302" lon="10.005991206557376"><ele>274.0</ele><time>2026-04-11T13:42:25Z</time></trkpt><trkpt lat="44.7597301436161" lon="10.006077577639896"><ele>274.0</ele><time>2026-04-11T13:42:26Z</time></trkpt><trkpt lat="44.7596140749969" lon="10.00607252904473"><ele>274.0</ele><time>2026-04-11T13:42:28Z</time></trkpt><trkpt lat="44.75956023910241" lon="10.005972767620216"><ele>274.0</ele><time>2026-04-11T13:42:29Z</time></trkpt><trkpt lat="44.7595567192971" lon="10.005790561291953"><ele>274.0</ele><time>2026-04-11T13:42:30Z</time></trkpt><trkpt lat="44.75949167495569" lon="10.005624178116166"><ele>274.0</ele><time>2026-04-11T13:42:31Z</time></trkpt><trkpt lat="44.759418853706265" lon="10.005456275222695"><ele>277.59999999999997</ele><time>2026-04-11T13:42:32Z</time></trkpt><trkpt lat="44.75935689068719" lon="10.005319521945752"><ele>281.2</ele><time>2026-04-11T13:42:33Z</time></trkpt><trkpt lat="44.759290698975036" lon="10.005228448300413"><ele>284.79999999999995</ele><time>2026-04-11T13:42:34Z</time></trkpt><trkpt lat="44.7592369124969" lon="10.005148795939547"><ele>288.4</ele><time>2026-04-11T13:42:35Z</time></trkpt><trkpt lat="44.75916335708715" lon="10.005085118902853"><ele>292.0</ele><time>2026-04-11T13:42:36Z</time></trkpt><trkpt lat="44.759067688000535" lon="10.005058966274666"><ele>292.0</ele><time>2026-04-11T13:42:37Z</time></trkpt><trkpt lat="44.75895705891633" lon="10.005082181340425"><ele>292.0</ele><time>2026-04-11T13:42:38Z</time></trkpt><trkpt lat="44.758840137562764" lon="10.00514396964143"><ele>292.0</ele><time>2026-04-11T13:42:39Z</time></trkpt><trkpt lat="44.758705380899194" lon="10.005211361285761"><ele>292.0</ele><time>2026-04-11T13:42:40Z</time></trkpt><trkpt lat="44.75856725474408" lon="10.005261384182413"><ele>293.0</ele><time>2026-04-11T13:42:41Z</time></trkpt><trkpt lat="44.75844509335431" lon="10.005315219044544"><ele>294.0</ele><time>2026-04-11T13:42:42Z</time></trkpt><trkpt lat="44.75834541843328" lon="10.005396485360077"><ele>295.0</ele><time>2026-04-11T13:42:43Z</time></trkpt><trkpt lat="44.75826193620824" lon="10.00551693201394"><ele>296.0</ele><time>2026-04-11T13:42:44Z</time></trkpt><trkpt lat="44.75821645454499" lon="10.005643476779817"><ele>296.0</ele><time>2026-04-11T13:42:45Z</time></trkpt><trkpt lat="44.758211114847334" lon="10.005761056831108"><ele>296.0</ele><time>2026-04-11T13:42:46Z</time></trkpt><trkpt lat="44.75824606454434" lon="10.005856366290258"><ele>296.0</ele><time>2026-04-11T13:42:47Z</time></trkpt><trkpt lat="44.758320390132795" lon="10.005908920480241"><ele>296.0</ele><time>2026-04-11T13:42:48Z</time></trkpt><trkpt lat="44.75842414646968" lon="10.005897886837475"><ele>296.0</ele><time>2026-04-11T13:42:49Z</time></trkpt><trkpt lat="44.7585381247403" lon="10.005841151215307"><ele>296.8</ele><time>2026-04-11T13:42:50Z</time></trkpt><trkpt lat="44.75864281660895" lon="10.005848459003456"><ele>297.6</ele><time>2026-04-11T13:42:51Z</time></trkpt><trkpt lat="44.75873462872693" lon="10.005883641753151"><ele>298.4</ele><time>2026-04-11T13:42:52Z</time></trkpt><trkpt lat="44.75878897562493" lon="10.00602184871159"><ele>299.2</ele><time>2026-04-11T13:42:53Z</time></trkpt><trkpt lat="44.75884619798847" lon="10.006186110192681"><ele>300.0</ele><time>2026-04-11T13:42:54Z</time></trkpt><trkpt lat="44.758921777476964" lon="10.006375053773645"><ele>300.0</ele><time>2026-04-11T13:42:55Z</time></trkpt><trkpt lat="44.758979934216065" lon="10.00655053509434"><ele>300.0</ele><time>2026-04-11T13:42:56Z</time></trkpt><trkpt lat="44.75899412994018" lon="10.006717948567841"><ele>300.0</ele><time>2026-04-11T13:42:57.001Z</time></trkpt><trkpt lat="44.75899017564147" lon="10.006892067144033"><ele>300.0</ele><time>2026-04-11T13:42:58.001Z</time></trkpt><trkpt lat="44.758988054078095" lon="10.007069805630925"><ele>302.0</ele><time>2026-04-11T13:42:59.001Z</time></trkpt><trkpt lat="44.75897236052493" lon="10.007213552813909"><ele>304.0</ele><time>2026-04-11T13:43:00.001Z</time></trkpt><trkpt lat="44.75898654493169" lon="10.00733369139751"><ele>306.0</ele><time>2026-04-11T13:43:01.001Z</time></trkpt><trkpt lat="44.759029725473475" lon="10.007441439492325"><ele>308.0</ele><time>2026-04-11T13:43:02.001Z</time></trkpt><trkpt lat="44.75910106631388" lon="10.007535789634925"><ele>310.0</ele><time>2026-04-11T13:43:03.001Z</time></trkpt><trkpt lat="44.75918375963054" lon="10.007615015150668"><ele>309.5</ele><time>2026-04-11T13:43:04.001Z</time></trkpt><trkpt lat="44.75926654522494" lon="10.007691675197632"><ele>309.0</ele><time>2026-04-11T13:43:05.001Z</time></trkpt><trkpt lat="44.75933354763666" lon="10.00776652290011"><ele>308.5</ele><time>2026-04-11T13:43:06.001Z</time></trkpt><trkpt lat="44.759376835153546" lon="10.007845553652599"><ele>308.0</ele><time>2026-04-11T13:43:07.001Z</time></trkpt><trkpt lat="44.7593382109679" lon="10.007980971346509"><ele>307.5</ele><time>2026-04-11T13:43:09.001Z</time></trkpt><trkpt lat="44.75927483959782" lon="10.007980909909161"><ele>307.0</ele><time>2026-04-11T13:43:10.001Z</time></trkpt><trkpt lat="44.7592214559127" lon="10.007894310163824"><ele>309.4</ele><time>2026-04-11T13:43:11.001Z</time></trkpt><trkpt lat="44.75916754555914" lon="10.007819467490508"><ele>311.79999999999995</ele><time>2026-04-11T13:43:12.001Z</time></trkpt><trkpt lat="44.7590891376344" lon="10.007763687563058"><ele>314.2</ele><time>2026-04-11T13:43:13.001Z</time></trkpt><trkpt lat="44.758997143599956" lon="10.007682869592555"><ele>316.59999999999997</ele><time>2026-04-11T13:43:14.001Z</time></trkpt><trkpt lat="44.75889352099259" lon="10.007603141098603"><ele>319.0</ele><time>2026-04-11T13:43:15.001Z</time></trkpt><trkpt lat="44.758787623680895" lon="10.007519332950363"><ele>319.75</ele><time>2026-04-11T13:43:16.001Z</time></trkpt><trkpt lat="44.758686514609586" lon="10.007455256223244"><ele>320.5</ele><time>2026-04-11T13:43:17.001Z</time></trkpt><trkpt lat="44.75857482828802" lon="10.00743675272176"><ele>321.25</ele><time>2026-04-11T13:43:18.001Z</time></trkpt><trkpt lat="44.758454062793234" lon="10.007454399266562"><ele>322.0</ele><time>2026-04-11T13:43:19.001Z</time></trkpt><trkpt lat="44.75830981785926" lon="10.007491158916945"><ele>325.3333333333333</ele><time>2026-04-11T13:43:20.001Z</time></trkpt><trkpt lat="44.758150737863375" lon="10.007526497686607"><ele>328.6666666666667</ele><time>2026-04-11T13:43:21.001Z</time></trkpt><trkpt lat="44.75798661219237" lon="10.007543570934056"><ele>332.0</ele><time>2026-04-11T13:43:22.001Z</time></trkpt><trkpt lat="44.75784468750139" lon="10.007562680608276"><ele>332.0</ele><time>2026-04-11T13:43:23.001Z</time></trkpt><trkpt lat="44.75772855556703" lon="10.00760672757642"><ele>332.0</ele><time>2026-04-11T13:43:24.001Z</time></trkpt><trkpt lat="44.75763531892229" lon="10.007669375373856"><ele>332.0</ele><time>2026-04-11T13:43:25.001Z</time></trkpt><trkpt lat="44.757562857737966" lon="10.007756014135436"><ele>332.0</ele><time>2026-04-11T13:43:26.001Z</time></trkpt><trkpt lat="44.75751591869614" lon="10.007874870334367"><ele>332.0</ele><time>2026-04-11T13:43:27.001Z</time></trkpt><trkpt lat="44.75750289786016" lon="10.00802342675658"><ele>332.75</ele><time>2026-04-11T13:43:28.001Z</time></trkpt><trkpt lat="44.75753140344979" lon="10.008174467823087"><ele>333.5</ele><time>2026-04-11T13:43:29.001Z</time></trkpt><trkpt lat="44.75760361471756" lon="10.00830650267488"><ele>334.25</ele><time>2026-04-11T13:43:30.001Z</time></trkpt><trkpt lat="44.75771352442637" lon="10.00841680066899"><ele>335.0</ele><time>2026-04-11T13:43:31.001Z</time></trkpt><trkpt lat="44.757853407034005" lon="10.00851811279518"><ele>336.0</ele><time>2026-04-11T13:43:32.001Z</time></trkpt><trkpt lat="44.75799693847423" lon="10.008631390278792"><ele>337.0</ele><time>2026-04-11T13:43:33.001Z</time></trkpt><trkpt lat="44.75811561454127" lon="10.0087214392364"><ele>338.0</ele><time>2026-04-11T13:43:34.001Z</time></trkpt><trkpt lat="44.75819731866397" lon="10.008804532663692"><ele>339.0</ele><time>2026-04-11T13:43:35.001Z</time></trkpt><trkpt lat="44.75823582166255" lon="10.008894984381156"><ele>339.0</ele><time>2026-04-11T13:43:36.001Z</time></trkpt><trkpt lat="44.75823329090796" lon="10.009013438716137"><ele>339.0</ele><time>2026-04-11T13:43:37.001Z</time></trkpt><trkpt lat="44.758191322112395" lon="10.009150400263252"><ele>339.0</ele><time>2026-04-11T13:43:38.001Z</time></trkpt><trkpt lat="44.75809400519928" lon="10.009278130274856"><ele>339.0</ele><time>2026-04-11T13:43:39.001Z</time></trkpt><trkpt lat="44.7580076977865" lon="10.009469402528525"><ele>340.0</ele><time>2026-04-11T13:43:40.001Z</time></trkpt><trkpt lat="44.75789775550354" lon="10.009659102313547"><ele>341.0</ele><time>2026-04-11T13:43:41.001Z</time></trkpt><trkpt lat="44.75781475732018" lon="10.009815209088059"><ele>342.0</ele><time>2026-04-11T13:43:42.001Z</time></trkpt><trkpt lat="44.75773534156832" lon="10.009926655667469"><ele>343.0</ele><time>2026-04-11T13:43:43.001Z</time></trkpt><trkpt lat="44.75764814543538" lon="10.009987760651445"><ele>344.0</ele><time>2026-04-11T13:43:44.001Z</time></trkpt><trkpt lat="44.757557025323635" lon="10.009991056875318"><ele>345.0</ele><time>2026-04-11T13:43:45.001Z</time></trkpt><trkpt lat="44.757469470091166" lon="10.009927755249256"><ele>346.0</ele><time>2026-04-11T13:43:46.001Z</time></trkpt><trkpt lat="44.75740092258042" lon="10.009783950146995"><ele>347.0</ele><time>2026-04-11T13:43:47.001Z</time></trkpt><trkpt lat="44.757331690925895" lon="10.009629463435457"><ele>348.0</ele><time>2026-04-11T13:43:48.001Z</time></trkpt><trkpt lat="44.757282505025756" lon="10.009454467951196"><ele>348.0</ele><time>2026-04-11T13:43:49.001Z</time></trkpt><trkpt lat="44.75723793485681" lon="10.009295523826404"><ele>348.0</ele><time>2026-04-11T13:43:50.001Z</time></trkpt><trkpt lat="44.757186631714056" lon="10.009178288807476"><ele>348.0</ele><time>2026-04-11T13:43:51.001Z</time></trkpt><trkpt lat="44.75704794088352" lon="10.00905453752051"><ele>348.0</ele><time>2026-04-11T13:43:53.001Z</time></trkpt><trkpt lat="44.75694877233258" lon="10.009072697819624"><ele>348.5</ele><time>2026-04-11T13:43:54.001Z</time></trkpt><trkpt lat="44.756843949158316" lon="10.009144135869622"><ele>349.0</ele><time>2026-04-11T13:43:55.001Z</time></trkpt><trkpt lat="44.756730234856285" lon="10.00923503496884"><ele>349.5</ele><time>2026-04-11T13:43:56.001Z</time></trkpt><trkpt lat="44.75659102972873" lon="10.00933270943237"><ele>350.0</ele><time>2026-04-11T13:43:57.001Z</time></trkpt><trkpt lat="44.75645601431374" lon="10.009404507505876"><ele>350.0</ele><time>2026-04-11T13:43:58.001Z</time></trkpt><trkpt lat="44.75635118104724" lon="10.009380374161431"><ele>350.0</ele><time>2026-04-11T13:43:59.001Z</time></trkpt><trkpt lat="44.75626645908529" lon="10.009320188785871"><ele>350.0</ele><time>2026-04-11T13:44:00.001Z</time></trkpt><trkpt lat="44.75619880462386" lon="10.009207707568239"><ele>350.0</ele><time>2026-04-11T13:44:01.001Z</time></trkpt><trkpt lat="44.756141369924855" lon="10.009065768887025"><ele>350.0</ele><time>2026-04-11T13:44:02.001Z</time></trkpt><trkpt lat="44.75608581285662" lon="10.008882319329427"><ele>357.0</ele><time>2026-04-11T13:44:03Z</time></trkpt><trkpt lat="44.75602785394286" lon="10.008679207522436"><ele>364.0</ele><time>2026-04-11T13:44:04Z</time></trkpt><trkpt lat="44.75596842147884" lon="10.008471271284339"><ele>371.0</ele><time>2026-04-11T13:44:05Z</time></trkpt><trkpt lat="44.7559072646647" lon="10.00826037314004"><ele>371.0</ele><time>2026-04-11T13:44:06Z</time></trkpt><trkpt lat="44.75585515884325" lon="10.008067071756393"><ele>371.0</ele><time>2026-04-11T13:44:07Z</time></trkpt><trkpt lat="44.7558059067674" lon="10.007909873092595"><ele>371.0</ele><time>2026-04-11T13:44:08Z</time></trkpt><trkpt lat="44.7557952806658" lon="10.007749516393943"><ele>371.0</ele><time>2026-04-11T13:44:09Z</time></trkpt><trkpt lat="44.75577330643171" lon="10.00760943021323"><ele>369.6666666666667</ele><time>2026-04-11T13:44:10Z</time></trkpt><trkpt lat="44.755744683010526" lon="10.007479434739647"><ele>368.33333333333337</ele><time>2026-04-11T13:44:11Z</time></trkpt><trkpt lat="44.75570288106096" lon="10.00737189876409"><ele>367.0</ele><time>2026-04-11T13:44:12Z</time></trkpt><trkpt lat="44.755632788974836" lon="10.007306196303782"><ele>365.6666666666667</ele><time>2026-04-11T13:44:13Z</time></trkpt><trkpt lat="44.75556211747511" lon="10.007274096760053"><ele>364.3333333333333</ele><time>2026-04-11T13:44:14Z</time></trkpt><trkpt lat="44.75547969661051" lon="10.007286458394653"><ele>363.0</ele><time>2026-04-11T13:44:15Z</time></trkpt><trkpt lat="44.75538356564734" lon="10.007324576668694"><ele>363.0</ele><time>2026-04-11T13:44:16Z</time></trkpt><trkpt lat="44.75528435222905" lon="10.007360420366366"><ele>363.0</ele><time>2026-04-11T13:44:17Z</time></trkpt><trkpt lat="44.75517835972263" lon="10.00739647301353"><ele>363.0</ele><time>2026-04-11T13:44:18Z</time></trkpt><trkpt lat="44.75506898219692" lon="10.007432563371342"><ele>363.0</ele><time>2026-04-11T13:44:19Z</time></trkpt><trkpt lat="44.75496931294804" lon="10.007472911917798"><ele>363.0</ele><time>2026-04-11T13:44:20Z</time></trkpt><trkpt lat="44.75488391835712" lon="10.007520948747981"><ele>366.0</ele><time>2026-04-11T13:44:21Z</time></trkpt><trkpt lat="44.75481281562523" lon="10.007589958464258"><ele>369.0</ele><time>2026-04-11T13:44:22Z</time></trkpt><trkpt lat="44.75477198939951" lon="10.007692075708286"><ele>372.0</ele><time>2026-04-11T13:44:23Z</time></trkpt><trkpt lat="44.75475796405855" lon="10.007816026183407"><ele>375.0</ele><time>2026-04-11T13:44:24Z</time></trkpt><trkpt lat="44.75476458413247" lon="10.007948833881725"><ele>378.0</ele><time>2026-04-11T13:44:25Z</time></trkpt><trkpt lat="44.75477618294816" lon="10.008101694471316"><ele>378.0</ele><time>2026-04-11T13:44:26Z</time></trkpt><trkpt lat="44.75479237450029" lon="10.008258019303886"><ele>378.0</ele><time>2026-04-11T13:44:27Z</time></trkpt><trkpt lat="44.75481005043009" lon="10.008431158305415"><ele>378.0</ele><time>2026-04-11T13:44:28Z</time></trkpt><trkpt lat="44.75483839145726" lon="10.008626640423223"><ele>378.0</ele><time>2026-04-11T13:44:29Z</time></trkpt><trkpt lat="44.75488303716026" lon="10.00882636369983"><ele>378.0</ele><time>2026-04-11T13:44:30Z</time></trkpt><trkpt lat="44.754937477699876" lon="10.009036262732849"><ele>378.0</ele><time>2026-04-11T13:44:31Z</time></trkpt><trkpt lat="44.75497959075058" lon="10.009257296334692"><ele>378.0</ele><time>2026-04-11T13:44:32Z</time></trkpt><trkpt lat="44.754998099142476" lon="10.00946562499623"><ele>378.0</ele><time>2026-04-11T13:44:33Z</time></trkpt><trkpt lat="44.75500201387799" lon="10.009653854365506"><ele>378.0</ele><time>2026-04-11T13:44:34Z</time></trkpt><trkpt lat="44.75500854355324" lon="10.009828991145111"><ele>378.0</ele><time>2026-04-11T13:44:35Z</time></trkpt><trkpt lat="44.755037954589746" lon="10.009982307417209"><ele>378.0</ele><time>2026-04-11T13:44:36Z</time></trkpt><trkpt lat="44.755086654648196" lon="10.010128997161488"><ele>377.2</ele><time>2026-04-11T13:44:37Z</time></trkpt><trkpt lat="44.75512964284507" lon="10.01026087341938"><ele>376.4</ele><time>2026-04-11T13:44:38Z</time></trkpt><trkpt lat="44.75518391293722" lon="10.01038329689136"><ele>375.59999999999997</ele><time>2026-04-11T13:44:39Z</time></trkpt><trkpt lat="44.755225823365414" lon="10.010504883912967"><ele>374.79999999999995</ele><time>2026-04-11T13:44:40Z</time></trkpt><trkpt lat="44.755273935972895" lon="10.01061919869013"><ele>374.0</ele><time>2026-04-11T13:44:41Z</time></trkpt><trkpt lat="44.755332848002176" lon="10.010718304728636"><ele>375.5</ele><time>2026-04-11T13:44:42Z</time></trkpt><trkpt lat="44.75537481408739" lon="10.01085947467443"><ele>377.0</ele><time>2026-04-11T13:44:43Z</time></trkpt><trkpt lat="44.755433058323106" lon="10.01101280050554"><ele>378.5</ele><time>2026-04-11T13:44:44Z</time></trkpt><trkpt lat="44.75547026875111" lon="10.01117395280658"><ele>380.0</ele><time>2026-04-11T13:44:45Z</time></trkpt><trkpt lat="44.755496416538435" lon="10.011326219279162"><ele>380.0</ele><time>2026-04-11T13:44:46Z</time></trkpt><trkpt lat="44.755524725814716" lon="10.011469499269097"><ele>380.0</ele><time>2026-04-11T13:44:47Z</time></trkpt><trkpt lat="44.755568952543335" lon="10.011599252679046"><ele>380.0</ele><time>2026-04-11T13:44:48Z</time></trkpt><trkpt lat="44.75563649765758" lon="10.011716269049874"><ele>380.0</ele><time>2026-04-11T13:44:49Z</time></trkpt><trkpt lat="44.75573477998904" lon="10.011809542255255"><ele>380.0</ele><time>2026-04-11T13:44:50Z</time></trkpt><trkpt lat="44.75582130049822" lon="10.011897617000354"><ele>378.2</ele><time>2026-04-11T13:44:51Z</time></trkpt><trkpt lat="44.755886196584775" lon="10.012010821642885"><ele>376.4</ele><time>2026-04-11T13:44:52Z</time></trkpt><trkpt lat="44.75592802918457" lon="10.01214316095824"><ele>374.6</ele><time>2026-04-11T13:44:53Z</time></trkpt><trkpt lat="44.755944825126555" lon="10.012292781244968"><ele>372.8</ele><time>2026-04-11T13:44:54Z</time></trkpt><trkpt lat="44.75594448697522" lon="10.012450942605701"><ele>371.0</ele><time>2026-04-11T13:44:55.001Z</time></trkpt><trkpt lat="44.75593607197211" lon="10.012617811901897"><ele>368.5</ele><time>2026-04-11T13:44:56.001Z</time></trkpt><trkpt lat="44.755924118254654" lon="10.012796787150949"><ele>366.0</ele><time>2026-04-11T13:44:57.001Z</time></trkpt><trkpt lat="44.75591553144687" lon="10.013000721992624"><ele>363.5</ele><time>2026-04-11T13:44:58.001Z</time></trkpt><trkpt lat="44.7559099723757" lon="10.013211279071179"><ele>361.0</ele><time>2026-04-11T13:44:59.001Z</time></trkpt><trkpt lat="44.755893368019876" lon="10.01340917883771"><ele>359.75</ele><time>2026-04-11T13:45:00.001Z</time></trkpt><trkpt lat="44.755866615203004" lon="10.013597706047818"><ele>358.5</ele><time>2026-04-11T13:45:01.001Z</time></trkpt><trkpt lat="44.75583419139307" lon="10.013768719941856"><ele>357.25</ele><time>2026-04-11T13:45:02.001Z</time></trkpt><trkpt lat="44.755803981876106" lon="10.013929207714765"><ele>356.0</ele><time>2026-04-11T13:45:03.001Z</time></trkpt><trkpt lat="44.7557879522938" lon="10.014080066971426"><ele>355.8</ele><time>2026-04-11T13:45:04.001Z</time></trkpt><trkpt lat="44.75579790730016" lon="10.014225234153058"><ele>355.6</ele><time>2026-04-11T13:45:05.001Z</time></trkpt><trkpt lat="44.75583230973474" lon="10.014361362363582"><ele>355.4</ele><time>2026-04-11T13:45:06.001Z</time></trkpt><trkpt lat="44.755889453858934" lon="10.014459086166509"><ele>355.2</ele><time>2026-04-11T13:45:07.001Z</time></trkpt><trkpt lat="44.7559669498599" lon="10.014503425251462"><ele>355.0</ele><time>2026-04-11T13:45:08.001Z</time></trkpt><trkpt lat="44.75606307604426" lon="10.014501541754187"><ele>355.0</ele><time>2026-04-11T13:45:09.001Z</time></trkpt><trkpt lat="44.7561716785628" lon="10.014448448029068"><ele>355.0</ele><time>2026-04-11T13:45:10.001Z</time></trkpt><trkpt lat="44.75630601616211" lon="10.014419164673704"><ele>355.0</ele><time>2026-04-11T13:45:11.001Z</time></trkpt><trkpt lat="44.75642260259379" lon="10.014379144249453"><ele>355.0</ele><time>2026-04-11T13:45:12.001Z</time></trkpt><trkpt lat="44.75653490295581" lon="10.014356896267826"><ele>355.0</ele><time>2026-04-11T13:45:13.001Z</time></trkpt><trkpt lat="44.75664835625656" lon="10.01435368499213"><ele>355.0</ele><time>2026-04-11T13:45:14.001Z</time></trkpt><trkpt lat="44.756762223456775" lon="10.014398162941312"><ele>355.0</ele><time>2026-04-11T13:45:15.001Z</time></trkpt><trkpt lat="44.75687028818822" lon="10.014497906350755"><ele>355.0</ele><time>2026-04-11T13:45:16.001Z</time></trkpt><trkpt lat="44.756973847020355" lon="10.014628306910062"><ele>356.0</ele><time>2026-04-11T13:45:17.001Z</time></trkpt><trkpt lat="44.757088359188124" lon="10.014720587614427"><ele>357.0</ele><time>2026-04-11T13:45:18.001Z</time></trkpt><trkpt lat="44.75719584429523" lon="10.014798184525674"><ele>358.0</ele><time>2026-04-11T13:45:19.001Z</time></trkpt><trkpt lat="44.75730695436303" lon="10.014867914910996"><ele>359.0</ele><time>2026-04-11T13:45:20.001Z</time></trkpt><trkpt lat="44.75741127968551" lon="10.014913003134533"><ele>359.0</ele><time>2026-04-11T13:45:21.001Z</time></trkpt><trkpt lat="44.75750241193929" lon="10.014962837611014"><ele>359.0</ele><time>2026-04-11T13:45:22.001Z</time></trkpt><trkpt lat="44.75756043466211" lon="10.015057052085943"><ele>359.0</ele><time>2026-04-11T13:45:23.001Z</time></trkpt><trkpt lat="44.757572864605066" lon="10.01518692232907"><ele>359.0</ele><time>2026-04-11T13:45:24.001Z</time></trkpt><trkpt lat="44.75756973689973" lon="10.015318576260857"><ele>359.0</ele><time>2026-04-11T13:45:25.001Z</time></trkpt><trkpt lat="44.75752986060615" lon="10.01545167983771"><ele>358.75</ele><time>2026-04-11T13:45:26.001Z</time></trkpt><trkpt lat="44.75747883244573" lon="10.01559827700899"><ele>358.5</ele><time>2026-04-11T13:45:27.001Z</time></trkpt><trkpt lat="44.75739471844704" lon="10.015744093059704"><ele>358.25</ele><time>2026-04-11T13:45:28.001Z</time></trkpt><trkpt lat="44.75731072134285" lon="10.015917553387531"><ele>358.0</ele><time>2026-04-11T13:45:29.001Z</time></trkpt><trkpt lat="44.757218384052045" lon="10.016107852476273"><ele>358.0</ele><time>2026-04-11T13:45:30.001Z</time></trkpt><trkpt lat="44.75711467205963" lon="10.016304695584987"><ele>358.0</ele><time>2026-04-11T13:45:31.001Z</time></trkpt><trkpt lat="44.75697944208328" lon="10.016482493452012"><ele>358.0</ele><time>2026-04-11T13:45:32.001Z</time></trkpt><trkpt lat="44.75687616574979" lon="10.016666141445674"><ele>352.75</ele><time>2026-04-11T13:45:33.001Z</time></trkpt><trkpt lat="44.75676707338087" lon="10.016821161323735"><ele>347.5</ele><time>2026-04-11T13:45:34.001Z</time></trkpt><trkpt lat="44.75666733707235" lon="10.016967518598197"><ele>342.25</ele><time>2026-04-11T13:45:35.001Z</time></trkpt><trkpt lat="44.756571997800876" lon="10.017109020010022"><ele>337.0</ele><time>2026-04-11T13:45:36.001Z</time></trkpt><trkpt lat="44.756458685654835" lon="10.017214955037602"><ele>337.0</ele><time>2026-04-11T13:45:37.001Z</time></trkpt><trkpt lat="44.7563587902049" lon="10.017352241534663"><ele>337.0</ele><time>2026-04-11T13:45:38.001Z</time></trkpt><trkpt lat="44.75627692110612" lon="10.0175366403167"><ele>337.0</ele><time>2026-04-11T13:45:39.001Z</time></trkpt><trkpt lat="44.75618660208683" lon="10.017729186625251"><ele>340.25</ele><time>2026-04-11T13:45:40.001Z</time></trkpt><trkpt lat="44.75609010384101" lon="10.017888424515657"><ele>343.5</ele><time>2026-04-11T13:45:41.001Z</time></trkpt><trkpt lat="44.75601251453794" lon="10.018052412225202"><ele>346.75</ele><time>2026-04-11T13:45:42.001Z</time></trkpt><trkpt lat="44.7559451086283" lon="10.018195413333457"><ele>350.0</ele><time>2026-04-11T13:45:43.001Z</time></trkpt><trkpt lat="44.75590899262388" lon="10.018317796399334"><ele>346.0</ele><time>2026-04-11T13:45:44.001Z</time></trkpt><trkpt lat="44.755865256042895" lon="10.018386411057108"><ele>342.0</ele><time>2026-04-11T13:45:45.001Z</time></trkpt><trkpt lat="44.75577996506556" lon="10.018365647053129"><ele>338.0</ele><time>2026-04-11T13:45:47.001Z</time></trkpt><trkpt lat="44.75580074452434" lon="10.018170293104161"><ele>334.0</ele><time>2026-04-11T13:45:49.001Z</time></trkpt><trkpt lat="44.75587800271342" lon="10.018046239343105"><ele>330.0</ele><time>2026-04-11T13:45:50.001Z</time></trkpt><trkpt lat="44.755935828456636" lon="10.017919435180254"><ele>331.4</ele><time>2026-04-11T13:45:51.001Z</time></trkpt><trkpt lat="44.755989155786345" lon="10.017805097392953"><ele>332.8</ele><time>2026-04-11T13:45:52.001Z</time></trkpt><trkpt lat="44.75603017828571" lon="10.017709119094732"><ele>334.20000000000005</ele><time>2026-04-11T13:45:53.001Z</time></trkpt><trkpt lat="44.756063610654245" lon="10.017622651299387"><ele>335.6</ele><time>2026-04-11T13:45:54.001Z</time></trkpt><trkpt lat="44.75609367152303" lon="10.017469052518283"><ele>337.0</ele><time>2026-04-11T13:45:56.001Z</time></trkpt><trkpt lat="44.75600431223831" lon="10.017394718834922"><ele>332.8</ele><time>2026-04-11T13:45:58.001Z</time></trkpt><trkpt lat="44.75594506173625" lon="10.017456599380376"><ele>328.6</ele><time>2026-04-11T13:45:59.001Z</time></trkpt><trkpt lat="44.75589767823524" lon="10.017574077490544"><ele>324.40000000000003</ele><time>2026-04-11T13:46:00.001Z</time></trkpt><trkpt lat="44.75583038357112" lon="10.01770679154353"><ele>320.20000000000005</ele><time>2026-04-11T13:46:01.001Z</time></trkpt><trkpt lat="44.75575334688781" lon="10.017850789326909"><ele>316.0</ele><time>2026-04-11T13:46:02.002Z</time></trkpt><trkpt lat="44.75565569025142" lon="10.018002858899147"><ele>315.75</ele><time>2026-04-11T13:46:03.002Z</time></trkpt><trkpt lat="44.755564121863294" lon="10.018145832859767"><ele>315.5</ele><time>2026-04-11T13:46:04.002Z</time></trkpt><trkpt lat="44.755496286110706" lon="10.018311884518775"><ele>315.25</ele><time>2026-04-11T13:46:05.002Z</time></trkpt><trkpt lat="44.755410306082055" lon="10.018453748289744"><ele>315.0</ele><time>2026-04-11T13:46:06.002Z</time></trkpt><trkpt lat="44.755353111096184" lon="10.018599044485098"><ele>318.75</ele><time>2026-04-11T13:46:07.002Z</time></trkpt><trkpt lat="44.75528880168958" lon="10.018686699368708"><ele>322.5</ele><time>2026-04-11T13:46:08.002Z</time></trkpt><trkpt lat="44.755207395906325" lon="10.018742276775813"><ele>326.25</ele><time>2026-04-11T13:46:09Z</time></trkpt><trkpt lat="44.75504170857969" lon="10.018840043061198"><ele>330.0</ele><time>2026-04-11T13:46:10Z</time></trkpt><trkpt lat="44.75493322865172" lon="10.018921055476746"><ele>326.0</ele><time>2026-04-11T13:46:11Z</time></trkpt><trkpt lat="44.75484393646813" lon="10.019045777240677"><ele>322.0</ele><time>2026-04-11T13:46:12Z</time></trkpt><trkpt lat="44.7547618585599" lon="10.019157639448343"><ele>318.0</ele><time>2026-04-11T13:46:13Z</time></trkpt><trkpt lat="44.75470043380076" lon="10.0192747303341"><ele>314.0</ele><time>2026-04-11T13:46:14Z</time></trkpt><trkpt lat="44.75464738770719" lon="10.019387293594772"><ele>310.0</ele><time>2026-04-11T13:46:15Z</time></trkpt><trkpt lat="44.75458621895989" lon="10.019456853929832"><ele>310.0</ele><time>2026-04-11T13:46:16Z</time></trkpt><trkpt lat="44.75450743432639" lon="10.019494465667915"><ele>310.0</ele><time>2026-04-11T13:46:18Z</time></trkpt><trkpt lat="44.75448209471556" lon="10.019410403418261"><ele>310.0</ele><time>2026-04-11T13:46:19Z</time></trkpt><trkpt lat="44.75450366235514" lon="10.019294292279453"><ele>310.0</ele><time>2026-04-11T13:46:20Z</time></trkpt><trkpt lat="44.75460007536382" lon="10.019200370216865"><ele>310.0</ele><time>2026-04-11T13:46:21Z</time></trkpt><trkpt lat="44.754669038950105" lon="10.01904752147654"><ele>307.5</ele><time>2026-04-11T13:46:22Z</time></trkpt><trkpt lat="44.75475989239604" lon="10.018892356611062"><ele>305.0</ele><time>2026-04-11T13:46:23Z</time></trkpt><trkpt lat="44.75484614358163" lon="10.018724078303956"><ele>302.5</ele><time>2026-04-11T13:46:24Z</time></trkpt><trkpt lat="44.75494406350111" lon="10.018613834837314"><ele>300.0</ele><time>2026-04-11T13:46:25Z</time></trkpt><trkpt lat="44.75503080259956" lon="10.018511344547713"><ele>300.0</ele><time>2026-04-11T13:46:26Z</time></trkpt><trkpt lat="44.75507976471573" lon="10.01841499865388"><ele>300.0</ele><time>2026-04-11T13:46:27Z</time></trkpt><trkpt lat="44.75507502921722" lon="10.018295220877866"><ele>300.0</ele><time>2026-04-11T13:46:29Z</time></trkpt><trkpt lat="44.75496409856564" lon="10.018281094352341"><ele>300.0</ele><time>2026-04-11T13:46:31Z</time></trkpt><trkpt lat="44.75488267207897" lon="10.018331296400978"><ele>300.0</ele><time>2026-04-11T13:46:33Z</time></trkpt><trkpt lat="44.75481675079781" lon="10.018422619319464"><ele>300.0</ele><time>2026-04-11T13:46:36Z</time></trkpt><trkpt lat="44.75474564190742" lon="10.018494837668309"><ele>300.0</ele><time>2026-04-11T13:46:38Z</time></trkpt><trkpt lat="44.75468130117373" lon="10.01856131922939"><ele>300.0</ele><time>2026-04-11T13:46:39Z</time></trkpt><trkpt lat="44.75460437406194" lon="10.01865351145942"><ele>300.0</ele><time>2026-04-11T13:46:40Z</time></trkpt><trkpt lat="44.75452294856316" lon="10.018771283604828"><ele>300.0</ele><time>2026-04-11T13:46:41Z</time></trkpt><trkpt lat="44.75443539918882" lon="10.018898115970627"><ele>295.75</ele><time>2026-04-11T13:46:42Z</time></trkpt><trkpt lat="44.75434357972501" lon="10.019036784254066"><ele>291.5</ele><time>2026-04-11T13:46:43Z</time></trkpt><trkpt lat="44.75423937485626" lon="10.019188899071706"><ele>287.25</ele><time>2026-04-11T13:46:44Z</time></trkpt><trkpt lat="44.754136996787395" lon="10.019348947221916"><ele>283.0</ele><time>2026-04-11T13:46:45Z</time></trkpt><trkpt lat="44.75404203358736" lon="10.019495703509412"><ele>283.0</ele><time>2026-04-11T13:46:46Z</time></trkpt><trkpt lat="44.753950618198544" lon="10.019636211281236"><ele>283.0</ele><time>2026-04-11T13:46:47Z</time></trkpt><trkpt lat="44.75385148121209" lon="10.019754948220875"><ele>283.0</ele><time>2026-04-11T13:46:48Z</time></trkpt><trkpt lat="44.753761998830534" lon="10.019883935927146"><ele>283.0</ele><time>2026-04-11T13:46:49Z</time></trkpt><trkpt lat="44.7536930867484" lon="10.020022826026985"><ele>286.0</ele><time>2026-04-11T13:46:50Z</time></trkpt><trkpt lat="44.75360061126694" lon="10.020135361448009"><ele>289.0</ele><time>2026-04-11T13:46:51Z</time></trkpt><trkpt lat="44.75352398467187" lon="10.020263421648066"><ele>292.0</ele><time>2026-04-11T13:46:52Z</time></trkpt><trkpt lat="44.75343721007907" lon="10.02039863618725"><ele>295.0</ele><time>2026-04-11T13:46:53Z</time></trkpt><trkpt lat="44.753350859797834" lon="10.020529241326118"><ele>291.0</ele><time>2026-04-11T13:46:54Z</time></trkpt><trkpt lat="44.75326424301338" lon="10.020661725354756"><ele>287.0</ele><time>2026-04-11T13:46:55Z</time></trkpt><trkpt lat="44.75318247291268" lon="10.020793795823165"><ele>283.0</ele><time>2026-04-11T13:46:56Z</time></trkpt><trkpt lat="44.75309626726928" lon="10.020933856144739"><ele>279.0</ele><time>2026-04-11T13:46:57Z</time></trkpt><trkpt lat="44.7530150406354" lon="10.021104020540353"><ele>279.0</ele><time>2026-04-11T13:46:58Z</time></trkpt><trkpt lat="44.75293921249757" lon="10.021315665108379"><ele>279.0</ele><time>2026-04-11T13:46:59Z</time></trkpt><trkpt lat="44.752869175875375" lon="10.021564322597936"><ele>279.0</ele><time>2026-04-11T13:47:00.001Z</time></trkpt><trkpt lat="44.752794983724264" lon="10.021808325964743"><ele>282.3333333333333</ele><time>2026-04-11T13:47:01.001Z</time></trkpt><trkpt lat="44.752722701399605" lon="10.022024601384615"><ele>285.66666666666663</ele><time>2026-04-11T13:47:02.001Z</time></trkpt><trkpt lat="44.75265675319899" lon="10.022237420890011"><ele>289.0</ele><time>2026-04-11T13:47:03.001Z</time></trkpt><trkpt lat="44.752600577880365" lon="10.022441726116744"><ele>282.0</ele><time>2026-04-11T13:47:04.001Z</time></trkpt><trkpt lat="44.75255152151352" lon="10.022638283160726"><ele>275.0</ele><time>2026-04-11T13:47:05.001Z</time></trkpt><trkpt lat="44.75248458331895" lon="10.022796283470484"><ele>268.0</ele><time>2026-04-11T13:47:06.001Z</time></trkpt><trkpt lat="44.75241124518523" lon="10.022945076698903"><ele>261.0</ele><time>2026-04-11T13:47:07.001Z</time></trkpt><trkpt lat="44.75233189839052" lon="10.02308852965297"><ele>261.0</ele><time>2026-04-11T13:47:08.001Z</time></trkpt><trkpt lat="44.752258752865586" lon="10.023220202289366"><ele>261.0</ele><time>2026-04-11T13:47:09.001Z</time></trkpt><trkpt lat="44.7521828406352" lon="10.023370371530124"><ele>261.0</ele><time>2026-04-11T13:47:10.001Z</time></trkpt><trkpt lat="44.75209884265347" lon="10.023502892838026"><ele>261.0</ele><time>2026-04-11T13:47:11.001Z</time></trkpt><trkpt lat="44.75203218641846" lon="10.023668946544593"><ele>261.75</ele><time>2026-04-11T13:47:12.001Z</time></trkpt><trkpt lat="44.75196287877369" lon="10.023832923934078"><ele>262.5</ele><time>2026-04-11T13:47:13.001Z</time></trkpt><trkpt lat="44.751909261129335" lon="10.024016742375437"><ele>263.25</ele><time>2026-04-11T13:47:14.001Z</time></trkpt><trkpt lat="44.751868999089815" lon="10.02423793707743"><ele>264.0</ele><time>2026-04-11T13:47:15.001Z</time></trkpt><trkpt lat="44.75182870895328" lon="10.024474644461138"><ele>264.0</ele><time>2026-04-11T13:47:16.001Z</time></trkpt><trkpt lat="44.75178884697816" lon="10.024703089793627"><ele>264.0</ele><time>2026-04-11T13:47:17.001Z</time></trkpt><trkpt lat="44.7517501539944" lon="10.024909705955483"><ele>264.0</ele><time>2026-04-11T13:47:18.001Z</time></trkpt><trkpt lat="44.75170905887655" lon="10.025103327647798"><ele>262.75</ele><time>2026-04-11T13:47:19.001Z</time></trkpt><trkpt lat="44.75168726029617" lon="10.025297036316788"><ele>261.5</ele><time>2026-04-11T13:47:20.001Z</time></trkpt><trkpt lat="44.7516518281457" lon="10.025479814380601"><ele>260.25</ele><time>2026-04-11T13:47:21.001Z</time></trkpt><trkpt lat="44.75164875223235" lon="10.0256690890527"><ele>259.0</ele><time>2026-04-11T13:47:22.001Z</time></trkpt><trkpt lat="44.751638192728905" lon="10.025845530275328"><ele>257.75</ele><time>2026-04-11T13:47:23.001Z</time></trkpt><trkpt lat="44.75162655795433" lon="10.02603151016646"><ele>256.5</ele><time>2026-04-11T13:47:24.001Z</time></trkpt><trkpt lat="44.7516072936634" lon="10.026212080026095"><ele>255.25</ele><time>2026-04-11T13:47:25.001Z</time></trkpt><trkpt lat="44.751558272670515" lon="10.026366704154611"><ele>254.0</ele><time>2026-04-11T13:47:26.001Z</time></trkpt><trkpt lat="44.751494022651634" lon="10.026500581599702"><ele>254.0</ele><time>2026-04-11T13:47:27.001Z</time></trkpt><trkpt lat="44.75142120705756" lon="10.026632065379316"><ele>254.0</ele><time>2026-04-11T13:47:28.001Z</time></trkpt><trkpt lat="44.75134412002691" lon="10.02676181674248"><ele>254.0</ele><time>2026-04-11T13:47:29.001Z</time></trkpt><trkpt lat="44.751254439191875" lon="10.026881125509764"><ele>254.0</ele><time>2026-04-11T13:47:30.001Z</time></trkpt><trkpt lat="44.75117560967918" lon="10.02699809179535"><ele>254.0</ele><time>2026-04-11T13:47:31.001Z</time></trkpt><trkpt lat="44.75108799812672" lon="10.02710839510841"><ele>253.99999999999997</ele><time>2026-04-11T13:47:32.001Z</time></trkpt><trkpt lat="44.75101453995799" lon="10.027219057889416"><ele>253.99999999999997</ele><time>2026-04-11T13:47:33.001Z</time></trkpt><trkpt lat="44.75093781699695" lon="10.027326589985204"><ele>254.0</ele><time>2026-04-11T13:47:34.001Z</time></trkpt><trkpt lat="44.75086208437899" lon="10.02743301099154"><ele>254.0</ele><time>2026-04-11T13:47:35.001Z</time></trkpt><trkpt lat="44.75080240081929" lon="10.027553563275555"><ele>251.0</ele><time>2026-04-11T13:47:36.001Z</time></trkpt><trkpt lat="44.75076053290325" lon="10.027678206479706"><ele>247.99999999999997</ele><time>2026-04-11T13:47:37.001Z</time></trkpt><trkpt lat="44.750733738811014" lon="10.027812446179228"><ele>244.99999999999997</ele><time>2026-04-11T13:47:38.001Z</time></trkpt><trkpt lat="44.75072183712332" lon="10.02795147218135"><ele>242.0</ele><time>2026-04-11T13:47:39.001Z</time></trkpt><trkpt lat="44.7507269918027" lon="10.028083248252846"><ele>239.0</ele><time>2026-04-11T13:47:40.001Z</time></trkpt><trkpt lat="44.750730014322826" lon="10.028207658372121"><ele>238.16666666666669</ele><time>2026-04-11T13:47:41.001Z</time></trkpt><trkpt lat="44.75071281221039" lon="10.028326889582903"><ele>237.33333333333334</ele><time>2026-04-11T13:47:42.001Z</time></trkpt><trkpt lat="44.75067209792124" lon="10.028435281451644"><ele>236.5</ele><time>2026-04-11T13:47:43.001Z</time></trkpt><trkpt lat="44.75061794509259" lon="10.028519188953391"><ele>235.66666666666669</ele><time>2026-04-11T13:47:44.001Z</time></trkpt><trkpt lat="44.750557366434606" lon="10.02859821459033"><ele>234.83333333333334</ele><time>2026-04-11T13:47:45.001Z</time></trkpt><trkpt lat="44.75051098828498" lon="10.028662973704575"><ele>234.0</ele><time>2026-04-11T13:47:46.001Z</time></trkpt><trkpt lat="44.750452141028674" lon="10.028734493305212"><ele>234.0</ele><time>2026-04-11T13:47:48.001Z</time></trkpt><trkpt lat="44.75040101925103" lon="10.028849055084637"><ele>234.0</ele><time>2026-04-11T13:47:54.001Z</time></trkpt><trkpt lat="44.75049860877157" lon="10.029002269866348"><ele>234.0</ele><time>2026-04-11T13:47:55.001Z</time></trkpt><trkpt lat="44.750552584507865" lon="10.029127910828985"><ele>234.0</ele><time>2026-04-11T13:47:56.001Z</time></trkpt><trkpt lat="44.750608071094" lon="10.029259732546793"><ele>233.75</ele><time>2026-04-11T13:47:57.001Z</time></trkpt><trkpt lat="44.75067009376402" lon="10.029399920312757"><ele>233.5</ele><time>2026-04-11T13:47:58.001Z</time></trkpt><trkpt lat="44.7507373104029" lon="10.029554278489421"><ele>233.25</ele><time>2026-04-11T13:47:59.001Z</time></trkpt><trkpt lat="44.750801530256645" lon="10.0296872790276"><ele>233.0</ele><time>2026-04-11T13:48:00.001Z</time></trkpt><trkpt lat="44.75085290024099" lon="10.029792380504158"><ele>233.00000000000003</ele><time>2026-04-11T13:48:01.001Z</time></trkpt><trkpt lat="44.75090089126257" lon="10.02989760282152"><ele>233.0</ele><time>2026-04-11T13:48:02.001Z</time></trkpt><trkpt lat="44.75094452747529" lon="10.029999453152048"><ele>233.0</ele><time>2026-04-11T13:48:03.001Z</time></trkpt><trkpt lat="44.750995318880484" lon="10.030099512552384"><ele>233.0</ele><time>2026-04-11T13:48:04.001Z</time></trkpt><trkpt lat="44.7510573764061" lon="10.030194573722971"><ele>233.00000000000003</ele><time>2026-04-11T13:48:05.001Z</time></trkpt><trkpt lat="44.75112551670184" lon="10.030292052920258"><ele>233.0</ele><time>2026-04-11T13:48:06.002Z</time></trkpt><trkpt lat="44.75120140779484" lon="10.030383976728084"><ele>233.0</ele><time>2026-04-11T13:48:07.002Z</time></trkpt><trkpt lat="44.751285350886576" lon="10.030463503598959"><ele>233.0</ele><time>2026-04-11T13:48:08.002Z</time></trkpt><trkpt lat="44.751374991692515" lon="10.030536961708568"><ele>233.0</ele><time>2026-04-11T13:48:09.002Z</time></trkpt><trkpt lat="44.7514705679215" lon="10.030617103121859"><ele>233.0</ele><time>2026-04-11T13:48:10.002Z</time></trkpt><trkpt lat="44.751567136968234" lon="10.030687762081369"><ele>233.0</ele><time>2026-04-11T13:48:11.002Z</time></trkpt><trkpt lat="44.751666759963456" lon="10.030758938952781"><ele>232.25</ele><time>2026-04-11T13:48:12.002Z</time></trkpt><trkpt lat="44.75175799293533" lon="10.030838973837774"><ele>231.5</ele><time>2026-04-11T13:48:13.002Z</time></trkpt><trkpt lat="44.7518554308072" lon="10.030926214729188"><ele>230.75</ele><time>2026-04-11T13:48:14.002Z</time></trkpt><trkpt lat="44.75196235330593" lon="10.0310316871096"><ele>230.0</ele><time>2026-04-11T13:48:15Z</time></trkpt><trkpt lat="44.75205202182718" lon="10.03113534817898"><ele>230.0</ele><time>2026-04-11T13:48:16Z</time></trkpt><trkpt lat="44.75212665961816" lon="10.031252822459852"><ele>230.0</ele><time>2026-04-11T13:48:17Z</time></trkpt><trkpt lat="44.75219466600467" lon="10.031383127279865"><ele>230.0</ele><time>2026-04-11T13:48:18Z</time></trkpt><trkpt lat="44.752262884422315" lon="10.031514742706962"><ele>230.0</ele><time>2026-04-11T13:48:19Z</time></trkpt><trkpt lat="44.75232639393141" lon="10.031658939496262"><ele>229.8</ele><time>2026-04-11T13:48:20Z</time></trkpt><trkpt lat="44.75238269094028" lon="10.031796777974844"><ele>229.6</ele><time>2026-04-11T13:48:21Z</time></trkpt><trkpt lat="44.752440815018836" lon="10.031928204509242"><ele>229.39999999999998</ele><time>2026-04-11T13:48:22Z</time></trkpt><trkpt lat="44.75249723099121" lon="10.032044817192643"><ele>229.2</ele><time>2026-04-11T13:48:23Z</time></trkpt><trkpt lat="44.75254818682728" lon="10.032153479343576"><ele>229.0</ele><time>2026-04-11T13:48:24Z</time></trkpt><trkpt lat="44.752594835393566" lon="10.032254127485649"><ele>229.0</ele><time>2026-04-11T13:48:25Z</time></trkpt><trkpt lat="44.75263680914349" lon="10.032349404986869"><ele>229.0</ele><time>2026-04-11T13:48:26Z</time></trkpt><trkpt lat="44.75267061315513" lon="10.032436906805529"><ele>229.0</ele><time>2026-04-11T13:48:27Z</time></trkpt><trkpt lat="44.75270435329702" lon="10.03251832842511"><ele>229.0</ele><time>2026-04-11T13:48:28Z</time></trkpt><trkpt lat="44.752737748175655" lon="10.032601477717023"><ele>229.0</ele><time>2026-04-11T13:48:29Z</time></trkpt><trkpt lat="44.75277793796515" lon="10.032691394618181"><ele>229.0</ele><time>2026-04-11T13:48:30Z</time></trkpt><trkpt lat="44.75281786234633" lon="10.032785740335385"><ele>229.0</ele><time>2026-04-11T13:48:31Z</time></trkpt><trkpt lat="44.752862423028" lon="10.03288425511175"><ele>228.99999999999997</ele><time>2026-04-11T13:48:32Z</time></trkpt><trkpt lat="44.752896127380005" lon="10.032989246368066"><ele>229.0</ele><time>2026-04-11T13:48:33Z</time></trkpt><trkpt lat="44.75292475095392" lon="10.033105513636512"><ele>229.0</ele><time>2026-04-11T13:48:34Z</time></trkpt><trkpt lat="44.752943508019" lon="10.033222915172797"><ele>229.0</ele><time>2026-04-11T13:48:35Z</time></trkpt><trkpt lat="44.75293881730701" lon="10.033343814752259"><ele>228.99999999999997</ele><time>2026-04-11T13:48:36Z</time></trkpt><trkpt lat="44.752917525909325" lon="10.033456320244145"><ele>229.0</ele><time>2026-04-11T13:48:37Z</time></trkpt><trkpt lat="44.75289305175279" lon="10.033558708298925"><ele>228.99999999999997</ele><time>2026-04-11T13:48:38Z</time></trkpt><trkpt lat="44.752869041279276" lon="10.033658771830016"><ele>229.0</ele><time>2026-04-11T13:48:39Z</time></trkpt><trkpt lat="44.75284611752013" lon="10.033758992432738"><ele>229.0</ele><time>2026-04-11T13:48:40Z</time></trkpt><trkpt lat="44.752829122912296" lon="10.033857604847732"><ele>229.0</ele><time>2026-04-11T13:48:41Z</time></trkpt><trkpt lat="44.75281575186075" lon="10.033958523116615"><ele>228.99999999999997</ele><time>2026-04-11T13:48:42Z</time></trkpt><trkpt lat="44.75280521374263" lon="10.034070147482685"><ele>229.0</ele><time>2026-04-11T13:48:43Z</time></trkpt><trkpt lat="44.75280344082777" lon="10.034190361078618"><ele>228.2</ele><time>2026-04-11T13:48:44Z</time></trkpt><trkpt lat="44.752813504915345" lon="10.034326347233861"><ele>227.39999999999998</ele><time>2026-04-11T13:48:45Z</time></trkpt><trkpt lat="44.75283345332874" lon="10.034469002865015"><ele>226.6</ele><time>2026-04-11T13:48:46Z</time></trkpt><trkpt lat="44.75287644683846" lon="10.034609308518055"><ele>225.8</ele><time>2026-04-11T13:48:47Z</time></trkpt><trkpt lat="44.75294016439265" lon="10.034741626085307"><ele>225.0</ele><time>2026-04-11T13:48:48Z</time></trkpt><trkpt lat="44.75302097215184" lon="10.034855597230573"><ele>225.0</ele><time>2026-04-11T13:48:49Z</time></trkpt><trkpt lat="44.75310992471119" lon="10.034960596019408"><ele>225.0</ele><time>2026-04-11T13:48:50Z</time></trkpt><trkpt lat="44.75320015766167" lon="10.035056553097714"><ele>225.0</ele><time>2026-04-11T13:48:51Z</time></trkpt><trkpt lat="44.75329006338873" lon="10.035158613018112"><ele>225.0</ele><time>2026-04-11T13:48:52Z</time></trkpt><trkpt lat="44.753371101671924" lon="10.03524994805657"><ele>225.0</ele><time>2026-04-11T13:48:53Z</time></trkpt><trkpt lat="44.75345228409155" lon="10.035342424627773"><ele>224.8</ele><time>2026-04-11T13:48:54Z</time></trkpt><trkpt lat="44.75353458581935" lon="10.035427250565542"><ele>224.6</ele><time>2026-04-11T13:48:55Z</time></trkpt><trkpt lat="44.75361475507647" lon="10.035511509880083"><ele>224.39999999999998</ele><time>2026-04-11T13:48:56Z</time></trkpt><trkpt lat="44.75369201849893" lon="10.035600409450618"><ele>224.2</ele><time>2026-04-11T13:48:57Z</time></trkpt><trkpt lat="44.75376743316781" lon="10.035682195050965"><ele>224.0</ele><time>2026-04-11T13:48:58Z</time></trkpt><trkpt lat="44.753840759025756" lon="10.035762609383408"><ele>223.16666666666669</ele><time>2026-04-11T13:48:59Z</time></trkpt><trkpt lat="44.75391226263204" lon="10.035844520669691"><ele>222.33333333333334</ele><time>2026-04-11T13:49:00Z</time></trkpt><trkpt lat="44.753978347182915" lon="10.03592095575764"><ele>221.5</ele><time>2026-04-11T13:49:01Z</time></trkpt><trkpt lat="44.75404362992102" lon="10.035998131797177"><ele>220.66666666666669</ele><time>2026-04-11T13:49:02Z</time></trkpt><trkpt lat="44.7541131419257" lon="10.036075825936415"><ele>219.83333333333334</ele><time>2026-04-11T13:49:03.001Z</time></trkpt><trkpt lat="44.7541789889716" lon="10.03615207411746"><ele>219.0</ele><time>2026-04-11T13:49:04.001Z</time></trkpt><trkpt lat="44.75423872566814" lon="10.036221285367517"><ele>219.0</ele><time>2026-04-11T13:49:05.001Z</time></trkpt><trkpt lat="44.75428938830991" lon="10.036284364682238"><ele>218.99999999999997</ele><time>2026-04-11T13:49:06.001Z</time></trkpt><trkpt lat="44.75435432265988" lon="10.036377476865876"><ele>218.99999999999997</ele><time>2026-04-11T13:49:08.001Z</time></trkpt><trkpt lat="44.754241998667574" lon="10.036219868698145"><ele>219.0</ele><time>2026-04-11T13:49:16.001Z</time></trkpt><trkpt lat="44.75415685604686" lon="10.03609675200593"><ele>219.0</ele><time>2026-04-11T13:49:17.001Z</time></trkpt><trkpt lat="44.754038831329815" lon="10.036007886251337"><ele>219.0</ele><time>2026-04-11T13:49:18.001Z</time></trkpt><trkpt lat="44.75393833338953" lon="10.035873948108218"><ele>219.0</ele><time>2026-04-11T13:49:19.001Z</time></trkpt><trkpt lat="44.7538213696867" lon="10.035743122979222"><ele>219.0</ele><time>2026-04-11T13:49:20.001Z</time></trkpt><trkpt lat="44.75370207030653" lon="10.03559833955089"><ele>219.0</ele><time>2026-04-11T13:49:21.001Z</time></trkpt><trkpt lat="44.75356790403096" lon="10.035451778272469"><ele>219.0</ele><time>2026-04-11T13:49:22.001Z</time></trkpt><trkpt lat="44.753449014122914" lon="10.035317630911344"><ele>219.0</ele><time>2026-04-11T13:49:23.001Z</time></trkpt><trkpt lat="44.75333510992278" lon="10.03519426082645"><ele>219.0</ele><time>2026-04-11T13:49:24.001Z</time></trkpt><trkpt lat="44.75322870626339" lon="10.035076960054152"><ele>219.0</ele><time>2026-04-11T13:49:25.001Z</time></trkpt><trkpt lat="44.753117929759654" lon="10.034959143236799"><ele>220.5</ele><time>2026-04-11T13:49:26.001Z</time></trkpt><trkpt lat="44.753014605045394" lon="10.03483916173221"><ele>222.0</ele><time>2026-04-11T13:49:27.001Z</time></trkpt><trkpt lat="44.7529226330161" lon="10.034703392132846"><ele>223.5</ele><time>2026-04-11T13:49:28.001Z</time></trkpt><trkpt lat="44.75288019031323" lon="10.03450971414189"><ele>225.0</ele><time>2026-04-11T13:49:29.001Z</time></trkpt><trkpt lat="44.7528459746397" lon="10.034322968141504"><ele>225.0</ele><time>2026-04-11T13:49:30.001Z</time></trkpt><trkpt lat="44.752837743018155" lon="10.034141209036544"><ele>225.0</ele><time>2026-04-11T13:49:31.001Z</time></trkpt><trkpt lat="44.752857970545804" lon="10.033968418830417"><ele>225.0</ele><time>2026-04-11T13:49:32.001Z</time></trkpt><trkpt lat="44.752886023905795" lon="10.033779633452065"><ele>225.0</ele><time>2026-04-11T13:49:33.001Z</time></trkpt><trkpt lat="44.752921883953526" lon="10.033590447885409"><ele>226.0</ele><time>2026-04-11T13:49:34.001Z</time></trkpt><trkpt lat="44.75295064181787" lon="10.033398803800479"><ele>227.0</ele><time>2026-04-11T13:49:35.001Z</time></trkpt><trkpt lat="44.75297650060903" lon="10.033208294839609"><ele>228.0</ele><time>2026-04-11T13:49:36.001Z</time></trkpt><trkpt lat="44.752941760287996" lon="10.033019489190934"><ele>229.0</ele><time>2026-04-11T13:49:37.001Z</time></trkpt><trkpt lat="44.752893045865086" lon="10.032835205931416"><ele>229.0</ele><time>2026-04-11T13:49:38.001Z</time></trkpt><trkpt lat="44.75281680329312" lon="10.032655776175792"><ele>229.0</ele><time>2026-04-11T13:49:39.001Z</time></trkpt><trkpt lat="44.752719087445655" lon="10.032467727004496"><ele>229.0</ele><time>2026-04-11T13:49:40.001Z</time></trkpt><trkpt lat="44.75262235816525" lon="10.03227327275577"><ele>229.0</ele><time>2026-04-11T13:49:41.001Z</time></trkpt><trkpt lat="44.75253571183272" lon="10.03207750997654"><ele>229.0</ele><time>2026-04-11T13:49:42.001Z</time></trkpt><trkpt lat="44.7524561655077" lon="10.031900719568958"><ele>229.0</ele><time>2026-04-11T13:49:43.001Z</time></trkpt><trkpt lat="44.75238524291752" lon="10.031735146985802"><ele>229.25</ele><time>2026-04-11T13:49:44.001Z</time></trkpt><trkpt lat="44.75231062525727" lon="10.03157380615382"><ele>229.5</ele><time>2026-04-11T13:49:45.001Z</time></trkpt><trkpt lat="44.75224041389892" lon="10.031425471189507"><ele>229.75</ele><time>2026-04-11T13:49:46.001Z</time></trkpt><trkpt lat="44.752173100785114" lon="10.031285128434536"><ele>230.0</ele><time>2026-04-11T13:49:47.001Z</time></trkpt><trkpt lat="44.75209859021868" lon="10.031148653551133"><ele>230.0</ele><time>2026-04-11T13:49:48.001Z</time></trkpt><trkpt lat="44.752011110457765" lon="10.031023479357481"><ele>230.0</ele><time>2026-04-11T13:49:49.001Z</time></trkpt><trkpt lat="44.751904918815" lon="10.0309115789196"><ele>230.0</ele><time>2026-04-11T13:49:50.001Z</time></trkpt><trkpt lat="44.75178397472989" lon="10.030816063487636"><ele>230.0</ele><time>2026-04-11T13:49:51.001Z</time></trkpt><trkpt lat="44.75165221557953" lon="10.030727446196527"><ele>230.75</ele><time>2026-04-11T13:49:52.001Z</time></trkpt><trkpt lat="44.75152569717504" lon="10.030632574264803"><ele>231.5</ele><time>2026-04-11T13:49:53.001Z</time></trkpt><trkpt lat="44.751395126878336" lon="10.030534788174204"><ele>232.25</ele><time>2026-04-11T13:49:54.001Z</time></trkpt><trkpt lat="44.751272112856306" lon="10.030425662287218"><ele>233.0</ele><time>2026-04-11T13:49:55.001Z</time></trkpt><trkpt lat="44.75115485018335" lon="10.030300214595014"><ele>233.0</ele><time>2026-04-11T13:49:56.001Z</time></trkpt><trkpt lat="44.75104985462434" lon="10.030154973582556"><ele>233.0</ele><time>2026-04-11T13:49:57.001Z</time></trkpt><trkpt lat="44.75096336580409" lon="10.029989838440414"><ele>233.0</ele><time>2026-04-11T13:49:58.001Z</time></trkpt><trkpt lat="44.75087816757987" lon="10.02981759765117"><ele>233.0</ele><time>2026-04-11T13:49:59.001Z</time></trkpt><trkpt lat="44.75079143868664" lon="10.029637772332777"><ele>233.0</ele><time>2026-04-11T13:50:00.001Z</time></trkpt><trkpt lat="44.750722165254004" lon="10.029434934711672"><ele>233.0</ele><time>2026-04-11T13:50:01.001Z</time></trkpt><trkpt lat="44.75064178696594" lon="10.029236773314633"><ele>233.0</ele><time>2026-04-11T13:50:02.001Z</time></trkpt><trkpt lat="44.7505603068548" lon="10.029038381122591"><ele>233.33333333333334</ele><time>2026-04-11T13:50:03.001Z</time></trkpt><trkpt lat="44.75047364403159" lon="10.028847973974964"><ele>233.66666666666669</ele><time>2026-04-11T13:50:04.001Z</time></trkpt><trkpt lat="44.750388449207676" lon="10.028659023540502"><ele>234.0</ele><time>2026-04-11T13:50:05.001Z</time></trkpt><trkpt lat="44.750303315741085" lon="10.028471229531446"><ele>235.0</ele><time>2026-04-11T13:50:06.001Z</time></trkpt><trkpt lat="44.75021275543642" lon="10.028289102229067"><ele>236.0</ele><time>2026-04-11T13:50:07.001Z</time></trkpt><trkpt lat="44.7501164858533" lon="10.028104236368542"><ele>237.0</ele><time>2026-04-11T13:50:08.001Z</time></trkpt><trkpt lat="44.750019582507065" lon="10.027926709529881"><ele>237.0</ele><time>2026-04-11T13:50:09.002Z</time></trkpt><trkpt lat="44.74991732514853" lon="10.027759417698798"><ele>237.0</ele><time>2026-04-11T13:50:10.002Z</time></trkpt><trkpt lat="44.749812677175676" lon="10.02759885083486"><ele>237.0</ele><time>2026-04-11T13:50:11.002Z</time></trkpt><trkpt lat="44.749708016200955" lon="10.027449918518766"><ele>237.0</ele><time>2026-04-11T13:50:12.002Z</time></trkpt><trkpt lat="44.74960175452993" lon="10.027301144425495"><ele>237.0</ele><time>2026-04-11T13:50:13.002Z</time></trkpt><trkpt lat="44.74949888905013" lon="10.027153451315117"><ele>237.0</ele><time>2026-04-11T13:50:14.002Z</time></trkpt><trkpt lat="44.74940126919368" lon="10.027002819026007"><ele>237.0</ele><time>2026-04-11T13:50:15.002Z</time></trkpt><trkpt lat="44.749309591503724" lon="10.026846771037224"><ele>237.0</ele><time>2026-04-11T13:50:16.002Z</time></trkpt><trkpt lat="44.74922443018193" lon="10.026689470736557"><ele>237.0</ele><time>2026-04-11T13:50:17.002Z</time></trkpt><trkpt lat="44.74914320520999" lon="10.026543536107186"><ele>237.0</ele><time>2026-04-11T13:50:18.002Z</time></trkpt><trkpt lat="44.74905747068301" lon="10.02641944414575"><ele>237.0</ele><time>2026-04-11T13:50:19.002Z</time></trkpt><trkpt lat="44.74897770985083" lon="10.026294449847416"><ele>238.25</ele><time>2026-04-11T13:50:20.002Z</time></trkpt><trkpt lat="44.748864475987" lon="10.026243048687931"><ele>239.5</ele><time>2026-04-11T13:50:21Z</time></trkpt><trkpt lat="44.748821177723656" lon="10.026053256763603"><ele>240.75</ele><time>2026-04-11T13:50:22Z</time></trkpt><trkpt lat="44.748756061385855" lon="10.025884658287078"><ele>242.0</ele><time>2026-04-11T13:50:23Z</time></trkpt><trkpt lat="44.748679414500124" lon="10.02569619671457"><ele>240.75</ele><time>2026-04-11T13:50:24Z</time></trkpt><trkpt lat="44.74859883376574" lon="10.025524062445141"><ele>239.5</ele><time>2026-04-11T13:50:25Z</time></trkpt><trkpt lat="44.74851222923735" lon="10.025383487654036"><ele>238.25</ele><time>2026-04-11T13:50:26Z</time></trkpt><trkpt lat="44.74841751163317" lon="10.025281312398677"><ele>237.0</ele><time>2026-04-11T13:50:27Z</time></trkpt><trkpt lat="44.74830170687081" lon="10.025216221473412"><ele>237.0</ele><time>2026-04-11T13:50:28Z</time></trkpt><trkpt lat="44.74817560264266" lon="10.02519929707782"><ele>237.0</ele><time>2026-04-11T13:50:29Z</time></trkpt><trkpt lat="44.74805158795715" lon="10.02524078498598"><ele>237.0</ele><time>2026-04-11T13:50:30Z</time></trkpt><trkpt lat="44.74792871289327" lon="10.025327655404938"><ele>237.0</ele><time>2026-04-11T13:50:31Z</time></trkpt><trkpt lat="44.74780090342635" lon="10.025460547893033"><ele>237.33333333333331</ele><time>2026-04-11T13:50:32Z</time></trkpt><trkpt lat="44.747665954622185" lon="10.025615744832201"><ele>237.66666666666666</ele><time>2026-04-11T13:50:33Z</time></trkpt><trkpt lat="44.747516771165" lon="10.025743295654097"><ele>238.0</ele><time>2026-04-11T13:50:34Z</time></trkpt><trkpt lat="44.747362655256076" lon="10.025841019183163"><ele>237.33333333333331</ele><time>2026-04-11T13:50:35Z</time></trkpt><trkpt lat="44.747204996894624" lon="10.025915846252959"><ele>236.66666666666669</ele><time>2026-04-11T13:50:36Z</time></trkpt><trkpt lat="44.7470311291589" lon="10.025924631582338"><ele>236.0</ele><time>2026-04-11T13:50:37Z</time></trkpt><trkpt lat="44.74684681717313" lon="10.025932322339054"><ele>235.66666666666669</ele><time>2026-04-11T13:50:38Z</time></trkpt><trkpt lat="44.74665620826331" lon="10.025897881306653"><ele>235.33333333333331</ele><time>2026-04-11T13:50:39Z</time></trkpt><trkpt lat="44.746471184184415" lon="10.025848333619338"><ele>235.0</ele><time>2026-04-11T13:50:40Z</time></trkpt><trkpt lat="44.746279466091146" lon="10.025779740534285"><ele>236.0</ele><time>2026-04-11T13:50:41Z</time></trkpt><trkpt lat="44.74609332604491" lon="10.025666769209632"><ele>237.0</ele><time>2026-04-11T13:50:42Z</time></trkpt><trkpt lat="44.74590244371745" lon="10.02557779081705"><ele>238.0</ele><time>2026-04-11T13:50:43Z</time></trkpt><trkpt lat="44.74571855297795" lon="10.025453192568401"><ele>238.0</ele><time>2026-04-11T13:50:44Z</time></trkpt><trkpt lat="44.74553742052836" lon="10.025324082962298"><ele>238.0</ele><time>2026-04-11T13:50:45Z</time></trkpt><trkpt lat="44.74535405528383" lon="10.025184685974352"><ele>238.0</ele><time>2026-04-11T13:50:46Z</time></trkpt><trkpt lat="44.74518314808002" lon="10.025005369327307"><ele>239.33333333333331</ele><time>2026-04-11T13:50:47Z</time></trkpt><trkpt lat="44.74501024697115" lon="10.024840682690462"><ele>240.66666666666669</ele><time>2026-04-11T13:50:48Z</time></trkpt><trkpt lat="44.744837595972115" lon="10.024674084219786"><ele>242.0</ele><time>2026-04-11T13:50:49Z</time></trkpt><trkpt lat="44.74465724024308" lon="10.024521400300454"><ele>242.0</ele><time>2026-04-11T13:50:50Z</time></trkpt><trkpt lat="44.744482803049124" lon="10.024349070280001"><ele>242.0</ele><time>2026-04-11T13:50:51Z</time></trkpt><trkpt lat="44.74430932238072" lon="10.024178447937341"><ele>242.0</ele><time>2026-04-11T13:50:52Z</time></trkpt><trkpt lat="44.744148017294485" lon="10.024017640812039"><ele>243.0</ele><time>2026-04-11T13:50:53Z</time></trkpt><trkpt lat="44.744003881402925" lon="10.023872582702042"><ele>244.0</ele><time>2026-04-11T13:50:54Z</time></trkpt><trkpt lat="44.74386723237995" lon="10.023737416187952"><ele>245.0</ele><time>2026-04-11T13:50:55Z</time></trkpt><trkpt lat="44.7437402899872" lon="10.023609364261647"><ele>245.0</ele><time>2026-04-11T13:50:56Z</time></trkpt><trkpt lat="44.74361566217914" lon="10.023480145293952"><ele>245.0</ele><time>2026-04-11T13:50:57Z</time></trkpt><trkpt lat="44.743500350785595" lon="10.023362603095585"><ele>245.0</ele><time>2026-04-11T13:50:58Z</time></trkpt><trkpt lat="44.74338521477026" lon="10.023244406208153"><ele>245.0</ele><time>2026-04-11T13:50:59Z</time></trkpt><trkpt lat="44.74327044324995" lon="10.023133358963305"><ele>247.25</ele><time>2026-04-11T13:51:00Z</time></trkpt><trkpt lat="44.74315985866036" lon="10.023026084367425"><ele>249.5</ele><time>2026-04-11T13:51:01Z</time></trkpt><trkpt lat="44.743053034693595" lon="10.02292164248186"><ele>251.75</ele><time>2026-04-11T13:51:02Z</time></trkpt><trkpt lat="44.74294318054815" lon="10.02282303571792"><ele>254.0</ele><time>2026-04-11T13:51:03.001Z</time></trkpt><trkpt lat="44.74282798632114" lon="10.0227319034357"><ele>254.0</ele><time>2026-04-11T13:51:04.001Z</time></trkpt><trkpt lat="44.74271086936427" lon="10.022654956545496"><ele>254.0</ele><time>2026-04-11T13:51:05.001Z</time></trkpt><trkpt lat="44.742587758662744" lon="10.022592947560172"><ele>254.0</ele><time>2026-04-11T13:51:06.001Z</time></trkpt><trkpt lat="44.7424730354783" lon="10.022537611774448"><ele>254.0</ele><time>2026-04-11T13:51:07.001Z</time></trkpt><trkpt lat="44.742350868323875" lon="10.022482529760525"><ele>261.25</ele><time>2026-04-11T13:51:08.001Z</time></trkpt><trkpt lat="44.74222608728868" lon="10.02242045874406"><ele>268.5</ele><time>2026-04-11T13:51:09.001Z</time></trkpt><trkpt lat="44.74209413387866" lon="10.022359033194041"><ele>275.75</ele><time>2026-04-11T13:51:10.001Z</time></trkpt><trkpt lat="44.741959945885014" lon="10.022294308654496"><ele>283.0</ele><time>2026-04-11T13:51:11.001Z</time></trkpt><trkpt lat="44.74181993480127" lon="10.02223721297254"><ele>285.75</ele><time>2026-04-11T13:51:12.001Z</time></trkpt><trkpt lat="44.74168223821585" lon="10.022159011291858"><ele>288.5</ele><time>2026-04-11T13:51:13.001Z</time></trkpt><trkpt lat="44.74154332602726" lon="10.022107908299855"><ele>291.25</ele><time>2026-04-11T13:51:14.001Z</time></trkpt><trkpt lat="44.74139452426406" lon="10.022048952391858"><ele>294.0</ele><time>2026-04-11T13:51:15.001Z</time></trkpt><trkpt lat="44.7412481794511" lon="10.02198722161553"><ele>294.0</ele><time>2026-04-11T13:51:16.001Z</time></trkpt><trkpt lat="44.74110564395726" lon="10.021916677963137"><ele>294.0</ele><time>2026-04-11T13:51:17.001Z</time></trkpt><trkpt lat="44.74095293501586" lon="10.021821896462072"><ele>294.0</ele><time>2026-04-11T13:51:18.001Z</time></trkpt><trkpt lat="44.74080209969946" lon="10.021699334311208"><ele>301.6666666666667</ele><time>2026-04-11T13:51:19.001Z</time></trkpt><trkpt lat="44.74062624932089" lon="10.021585768108197"><ele>309.33333333333337</ele><time>2026-04-11T13:51:20.001Z</time></trkpt><trkpt lat="44.74046792517217" lon="10.021501937138966"><ele>317.0</ele><time>2026-04-11T13:51:21.001Z</time></trkpt><trkpt lat="44.7403363182048" lon="10.021442992964399"><ele>317.0</ele><time>2026-04-11T13:51:22.001Z</time></trkpt><trkpt lat="44.74021751915065" lon="10.021391887745892"><ele>317.0</ele><time>2026-04-11T13:51:23.001Z</time></trkpt><trkpt lat="44.740120851711055" lon="10.021333874933818"><ele>317.0</ele><time>2026-04-11T13:51:24.001Z</time></trkpt><trkpt lat="44.74004540442269" lon="10.021238267036843"><ele>317.0</ele><time>2026-04-11T13:51:25.001Z</time></trkpt><trkpt lat="44.74000746718149" lon="10.021103990118204"><ele>317.0</ele><time>2026-04-11T13:51:26.001Z</time></trkpt><trkpt lat="44.739990180507455" lon="10.020966397397107"><ele>312.4</ele><time>2026-04-11T13:51:27.001Z</time></trkpt><trkpt lat="44.7399625723251" lon="10.020817141932985"><ele>307.79999999999995</ele><time>2026-04-11T13:51:28.001Z</time></trkpt><trkpt lat="44.73994948439592" lon="10.020674723431423"><ele>303.2</ele><time>2026-04-11T13:51:29.001Z</time></trkpt><trkpt lat="44.739924384397455" lon="10.020545578512644"><ele>298.59999999999997</ele><time>2026-04-11T13:51:30.001Z</time></trkpt><trkpt lat="44.73987216997196" lon="10.020442786180126"><ele>294.0</ele><time>2026-04-11T13:51:31.001Z</time></trkpt><trkpt lat="44.73979855985669" lon="10.020364095022265"><ele>294.0</ele><time>2026-04-11T13:51:32.001Z</time></trkpt><trkpt lat="44.739708011102486" lon="10.020260079709296"><ele>294.0</ele><time>2026-04-11T13:51:33.001Z</time></trkpt><trkpt lat="44.739614054677226" lon="10.020127712573238"><ele>294.0</ele><time>2026-04-11T13:51:34.001Z</time></trkpt><trkpt lat="44.73951783981502" lon="10.019969983322332"><ele>294.0</ele><time>2026-04-11T13:51:35.001Z</time></trkpt><trkpt lat="44.739439307957106" lon="10.01982454939067"><ele>294.2</ele><time>2026-04-11T13:51:36.001Z</time></trkpt><trkpt lat="44.73939384834429" lon="10.01967039552833"><ele>294.4</ele><time>2026-04-11T13:51:37.001Z</time></trkpt><trkpt lat="44.73932460898261" lon="10.01956218600692"><ele>294.6</ele><time>2026-04-11T13:51:38.001Z</time></trkpt><trkpt lat="44.73924399743384" lon="10.019487489085247"><ele>294.8</ele><time>2026-04-11T13:51:39.001Z</time></trkpt><trkpt lat="44.739150476237974" lon="10.019453423870033"><ele>295.0</ele><time>2026-04-11T13:51:40.001Z</time></trkpt><trkpt lat="44.7390630492663" lon="10.019385719161761"><ele>293.0</ele><time>2026-04-11T13:51:41.001Z</time></trkpt><trkpt lat="44.738971418340284" lon="10.019305713093903"><ele>291.0</ele><time>2026-04-11T13:51:42.001Z</time></trkpt><trkpt lat="44.73888509326514" lon="10.019213019301402"><ele>289.0</ele><time>2026-04-11T13:51:43.001Z</time></trkpt><trkpt lat="44.738779330895476" lon="10.019101675872882"><ele>287.0</ele><time>2026-04-11T13:51:44.001Z</time></trkpt><trkpt lat="44.7386773820277" lon="10.01899008785149"><ele>287.0</ele><time>2026-04-11T13:51:45.001Z</time></trkpt><trkpt lat="44.73859194467523" lon="10.018884802291915"><ele>287.0</ele><time>2026-04-11T13:51:46.001Z</time></trkpt><trkpt lat="44.738518910151846" lon="10.018769912091578"><ele>287.0</ele><time>2026-04-11T13:51:47.001Z</time></trkpt><trkpt lat="44.738470820785906" lon="10.018591861409746"><ele>287.0</ele><time>2026-04-11T13:51:48.001Z</time></trkpt><trkpt lat="44.73837236057695" lon="10.01847438303403"><ele>285.8</ele><time>2026-04-11T13:51:49.001Z</time></trkpt><trkpt lat="44.7382911305523" lon="10.018358448880338"><ele>284.6</ele><time>2026-04-11T13:51:50.001Z</time></trkpt><trkpt lat="44.73822468607037" lon="10.018226010170734"><ele>283.40000000000003</ele><time>2026-04-11T13:51:51.001Z</time></trkpt><trkpt lat="44.73817912349451" lon="10.018092970291484"><ele>282.2</ele><time>2026-04-11T13:51:52.001Z</time></trkpt><trkpt lat="44.73815055331769" lon="10.01795549596267"><ele>281.0</ele><time>2026-04-11T13:51:53.001Z</time></trkpt><trkpt lat="44.73814867246823" lon="10.01778826053779"><ele>281.5</ele><time>2026-04-11T13:51:54.001Z</time></trkpt><trkpt lat="44.73816157221783" lon="10.01762806351186"><ele>282.0</ele><time>2026-04-11T13:51:55.001Z</time></trkpt><trkpt lat="44.73816981610611" lon="10.017476972398622"><ele>282.5</ele><time>2026-04-11T13:51:56.001Z</time></trkpt><trkpt lat="44.73815442503364" lon="10.017310909773796"><ele>283.0</ele><time>2026-04-11T13:51:57.001Z</time></trkpt><trkpt lat="44.738078657221216" lon="10.017146896118504"><ele>283.0</ele><time>2026-04-11T13:51:58.001Z</time></trkpt><trkpt lat="44.73798519413602" lon="10.016994415249005"><ele>283.0</ele><time>2026-04-11T13:51:59.001Z</time></trkpt><trkpt lat="44.737863939838675" lon="10.016861065965019"><ele>283.0</ele><time>2026-04-11T13:52:00.001Z</time></trkpt><trkpt lat="44.73778761226059" lon="10.016684793073628"><ele>283.0</ele><time>2026-04-11T13:52:01.001Z</time></trkpt><trkpt lat="44.737713445830295" lon="10.016485384348181"><ele>280.66666666666663</ele><time>2026-04-11T13:52:02.001Z</time></trkpt><trkpt lat="44.73762948587643" lon="10.016283504480427"><ele>278.3333333333333</ele><time>2026-04-11T13:52:03.001Z</time></trkpt><trkpt lat="44.737551650816336" lon="10.016075920104898"><ele>276.0</ele><time>2026-04-11T13:52:04.001Z</time></trkpt><trkpt lat="44.737467323277286" lon="10.0158631850743"><ele>276.6666666666667</ele><time>2026-04-11T13:52:05.001Z</time></trkpt><trkpt lat="44.737388192011615" lon="10.015650861607714"><ele>277.33333333333337</ele><time>2026-04-11T13:52:06.001Z</time></trkpt><trkpt lat="44.73731048980039" lon="10.015463964097746"><ele>278.0</ele><time>2026-04-11T13:52:07.001Z</time></trkpt><trkpt lat="44.737232227832735" lon="10.015291787884982"><ele>278.0</ele><time>2026-04-11T13:52:08.001Z</time></trkpt><trkpt lat="44.73716362812729" lon="10.015109514732428"><ele>278.0</ele><time>2026-04-11T13:52:09.001Z</time></trkpt><trkpt lat="44.73711112368026" lon="10.01492096610338"><ele>278.0</ele><time>2026-04-11T13:52:10.002Z</time></trkpt><trkpt lat="44.73706501888909" lon="10.014733142474304"><ele>278.0</ele><time>2026-04-11T13:52:11.002Z</time></trkpt><trkpt lat="44.737041550573544" lon="10.014544138906532"><ele>277.75</ele><time>2026-04-11T13:52:12.002Z</time></trkpt><trkpt lat="44.737015184623075" lon="10.014366755860905"><ele>277.5</ele><time>2026-04-11T13:52:13.002Z</time></trkpt><trkpt lat="44.73697380950155" lon="10.014191837156236"><ele>277.25</ele><time>2026-04-11T13:52:14.002Z</time></trkpt><trkpt lat="44.73694815262169" lon="10.014025057560755"><ele>277.0</ele><time>2026-04-11T13:52:15.002Z</time></trkpt><trkpt lat="44.73691682620104" lon="10.01386916586394"><ele>277.66666666666663</ele><time>2026-04-11T13:52:16.002Z</time></trkpt><trkpt lat="44.736898028978864" lon="10.013742123972632"><ele>278.3333333333333</ele><time>2026-04-11T13:52:17.002Z</time></trkpt><trkpt lat="44.736893099117516" lon="10.01364130723695"><ele>279.0</ele><time>2026-04-11T13:52:18.002Z</time></trkpt><trkpt lat="44.736910912554976" lon="10.013545721700929"><ele>279.6666666666667</ele><time>2026-04-11T13:52:19.002Z</time></trkpt><trkpt lat="44.7369845383322" lon="10.013467623164546"><ele>280.33333333333337</ele><time>2026-04-11T13:52:20.002Z</time></trkpt><trkpt lat="44.737042750874224" lon="10.013371142109435"><ele>281.0</ele><time>2026-04-11T13:52:21.002Z</time></trkpt><trkpt lat="44.73711804025027" lon="10.01329652872834"><ele>281.0</ele><time>2026-04-11T13:52:22.002Z</time></trkpt><trkpt lat="44.73720160344376" lon="10.013254748999659"><ele>281.0</ele><time>2026-04-11T13:52:23.002Z</time></trkpt><trkpt lat="44.737289363955334" lon="10.013234846983357"><ele>281.0</ele><time>2026-04-11T13:52:24.002Z</time></trkpt><trkpt lat="44.737384149052026" lon="10.013237173753536"><ele>281.0</ele><time>2026-04-11T13:52:25.002Z</time></trkpt><trkpt lat="44.73747622196587" lon="10.013292738633124"><ele>281.0</ele><time>2026-04-11T13:52:26.002Z</time></trkpt><trkpt lat="44.73757511478411" lon="10.013362152999361"><ele>281.0</ele><time>2026-04-11T13:52:27Z</time></trkpt><trkpt lat="44.73769745777325" lon="10.01343654923649"><ele>281.0</ele><time>2026-04-11T13:52:28Z</time></trkpt><trkpt lat="44.73781742491902" lon="10.013508157508042"><ele>281.0</ele><time>2026-04-11T13:52:29Z</time></trkpt><trkpt lat="44.73793023931331" lon="10.013543637579849"><ele>281.0</ele><time>2026-04-11T13:52:30Z</time></trkpt><trkpt lat="44.7380310682558" lon="10.013546373985598"><ele>282.2</ele><time>2026-04-11T13:52:31Z</time></trkpt><trkpt lat="44.738129204347835" lon="10.013534841331534"><ele>283.40000000000003</ele><time>2026-04-11T13:52:32Z</time></trkpt><trkpt lat="44.73821611798897" lon="10.013534380442822"><ele>284.6</ele><time>2026-04-11T13:52:33Z</time></trkpt><trkpt lat="44.73828356903335" lon="10.013521416385384"><ele>285.8</ele><time>2026-04-11T13:52:34Z</time></trkpt><trkpt lat="44.73839530045517" lon="10.013493985874174"><ele>287.0</ele><time>2026-04-11T13:52:36Z</time></trkpt><trkpt lat="44.738508331494785" lon="10.013444469502533"><ele>291.6</ele><time>2026-04-11T13:52:38Z</time></trkpt><trkpt lat="44.73861182449717" lon="10.013342146240472"><ele>296.2</ele><time>2026-04-11T13:52:40Z</time></trkpt><trkpt lat="44.73865279619223" lon="10.013248222475896"><ele>300.8</ele><time>2026-04-11T13:52:41Z</time></trkpt><trkpt lat="44.73866032681483" lon="10.013117127210327"><ele>305.4</ele><time>2026-04-11T13:52:42Z</time></trkpt><trkpt lat="44.73869832120867" lon="10.012992100653676"><ele>310.0</ele><time>2026-04-11T13:52:43Z</time></trkpt><trkpt lat="44.73872301746837" lon="10.0128688884246"><ele>310.0</ele><time>2026-04-11T13:52:44Z</time></trkpt><trkpt lat="44.73875297952564" lon="10.012705728683205"><ele>310.0</ele><time>2026-04-11T13:52:45Z</time></trkpt><trkpt lat="44.73878792816128" lon="10.012515414241662"><ele>310.0</ele><time>2026-04-11T13:52:46Z</time></trkpt><trkpt lat="44.738829236571526" lon="10.012307648548134"><ele>310.0</ele><time>2026-04-11T13:52:47Z</time></trkpt><trkpt lat="44.73887513310264" lon="10.012091312749583"><ele>309.3333333333333</ele><time>2026-04-11T13:52:48Z</time></trkpt><trkpt lat="44.738926165562724" lon="10.01186228749691"><ele>308.6666666666667</ele><time>2026-04-11T13:52:49Z</time></trkpt><trkpt lat="44.73897406981552" lon="10.01158640573634"><ele>308.0</ele><time>2026-04-11T13:52:50Z</time></trkpt><trkpt lat="44.739015348568785" lon="10.011340980047066"><ele>308.0</ele><time>2026-04-11T13:52:51Z</time></trkpt><trkpt lat="44.739040150151354" lon="10.011132375132732"><ele>308.0</ele><time>2026-04-11T13:52:52Z</time></trkpt><trkpt lat="44.7390398340497" lon="10.010912321275603"><ele>308.0</ele><time>2026-04-11T13:52:53Z</time></trkpt><trkpt lat="44.73901453262168" lon="10.010671781489282"><ele>307.6666666666667</ele><time>2026-04-11T13:52:54Z</time></trkpt><trkpt lat="44.73895997717324" lon="10.010397996975763"><ele>307.3333333333333</ele><time>2026-04-11T13:52:55Z</time></trkpt><trkpt lat="44.73891787846536" lon="10.010143486573545"><ele>307.0</ele><time>2026-04-11T13:52:56Z</time></trkpt><trkpt lat="44.73890234032845" lon="10.009938025930973"><ele>307.0</ele><time>2026-04-11T13:52:57Z</time></trkpt><trkpt lat="44.73891198160222" lon="10.009781182205185"><ele>307.0</ele><time>2026-04-11T13:52:58Z</time></trkpt><trkpt lat="44.73894894572915" lon="10.009670958931592"><ele>307.0</ele><time>2026-04-11T13:52:59Z</time></trkpt><trkpt lat="44.73904556511664" lon="10.00960493347741"><ele>307.0</ele><time>2026-04-11T13:53:00Z</time></trkpt><trkpt lat="44.739122131139936" lon="10.009471826205845"><ele>307.0</ele><time>2026-04-11T13:53:01Z</time></trkpt><trkpt lat="44.73918062296196" lon="10.009339330251576"><ele>304.25</ele><time>2026-04-11T13:53:02Z</time></trkpt><trkpt lat="44.739208305692095" lon="10.009153677112474"><ele>301.5</ele><time>2026-04-11T13:53:03Z</time></trkpt><trkpt lat="44.739213723827916" lon="10.00892953069237"><ele>298.75</ele><time>2026-04-11T13:53:04Z</time></trkpt><trkpt lat="44.73922281045041" lon="10.008726657074792"><ele>296.0</ele><time>2026-04-11T13:53:05Z</time></trkpt><trkpt lat="44.7392481265894" lon="10.008573012329988"><ele>296.0</ele><time>2026-04-11T13:53:06.001Z</time></trkpt><trkpt lat="44.739313945807474" lon="10.008449150648062"><ele>296.0</ele><time>2026-04-11T13:53:07.001Z</time></trkpt><trkpt lat="44.739377086124165" lon="10.00830169924653"><ele>296.0</ele><time>2026-04-11T13:53:08.001Z</time></trkpt><trkpt lat="44.73944644132514" lon="10.008146109567337"><ele>296.0</ele><time>2026-04-11T13:53:09.001Z</time></trkpt><trkpt lat="44.739524664634764" lon="10.007991437073594"><ele>300.5</ele><time>2026-04-11T13:53:10.001Z</time></trkpt><trkpt lat="44.73960357838386" lon="10.007830695007748"><ele>305.0</ele><time>2026-04-11T13:53:11.001Z</time></trkpt><trkpt lat="44.73969939001225" lon="10.007694634833431"><ele>309.5</ele><time>2026-04-11T13:53:12.001Z</time></trkpt><trkpt lat="44.73982357044036" lon="10.007621988778244"><ele>314.0</ele><time>2026-04-11T13:53:13.001Z</time></trkpt><trkpt lat="44.73990941662962" lon="10.007536524139944"><ele>313.0</ele><time>2026-04-11T13:53:14.001Z</time></trkpt><trkpt lat="44.73999261199169" lon="10.007453460853187"><ele>312.0</ele><time>2026-04-11T13:53:15.001Z</time></trkpt><trkpt lat="44.740035841203245" lon="10.007316007496218"><ele>311.0</ele><time>2026-04-11T13:53:16.001Z</time></trkpt><trkpt lat="44.7400495611681" lon="10.007152382342268"><ele>310.0</ele><time>2026-04-11T13:53:17.001Z</time></trkpt><trkpt lat="44.74005775213648" lon="10.006978126583164"><ele>310.0</ele><time>2026-04-11T13:53:18.001Z</time></trkpt><trkpt lat="44.740105605447106" lon="10.00682844046879"><ele>310.0</ele><time>2026-04-11T13:53:19.001Z</time></trkpt><trkpt lat="44.740203816320054" lon="10.006688183451327"><ele>310.0</ele><time>2026-04-11T13:53:20.001Z</time></trkpt><trkpt lat="44.740315760234026" lon="10.006547424073512"><ele>310.0</ele><time>2026-04-11T13:53:21.001Z</time></trkpt><trkpt lat="44.74043146280976" lon="10.006384132999532"><ele>317.0</ele><time>2026-04-11T13:53:22.001Z</time></trkpt><trkpt lat="44.74054493829861" lon="10.006199937159057"><ele>324.0</ele><time>2026-04-11T13:53:23.001Z</time></trkpt><trkpt lat="44.74064974953851" lon="10.006004042100523"><ele>331.0</ele><time>2026-04-11T13:53:24.001Z</time></trkpt><trkpt lat="44.74072602744055" lon="10.00583339916943"><ele>332.8</ele><time>2026-04-11T13:53:25.001Z</time></trkpt><trkpt lat="44.74077292667813" lon="10.005678374059745"><ele>334.6</ele><time>2026-04-11T13:53:26.001Z</time></trkpt><trkpt lat="44.74081751886673" lon="10.00556001080037"><ele>336.4</ele><time>2026-04-11T13:53:27.001Z</time></trkpt><trkpt lat="44.7409069057761" lon="10.005482167176647"><ele>338.2</ele><time>2026-04-11T13:53:28.001Z</time></trkpt><trkpt lat="44.74103152908478" lon="10.005498194314153"><ele>340.0</ele><time>2026-04-11T13:53:29.001Z</time></trkpt><trkpt lat="44.741162887001394" lon="10.005485718798683"><ele>340.0</ele><time>2026-04-11T13:53:30.001Z</time></trkpt><trkpt lat="44.74128930179174" lon="10.005461347804605"><ele>340.0</ele><time>2026-04-11T13:53:31.001Z</time></trkpt><trkpt lat="44.741436895159595" lon="10.005449985640528"><ele>340.0</ele><time>2026-04-11T13:53:32.001Z</time></trkpt><trkpt lat="44.74156850017011" lon="10.005427678073358"><ele>340.0</ele><time>2026-04-11T13:53:33.001Z</time></trkpt><trkpt lat="44.74166902913205" lon="10.005392381771125"><ele>340.0</ele><time>2026-04-11T13:53:34.001Z</time></trkpt><trkpt lat="44.741757249040404" lon="10.005278913303009"><ele>340.0</ele><time>2026-04-11T13:53:36.001Z</time></trkpt><trkpt lat="44.741772577628495" lon="10.00516879140471"><ele>340.0</ele><time>2026-04-11T13:53:37.001Z</time></trkpt><trkpt lat="44.74175447858282" lon="10.005043141802412"><ele>340.0</ele><time>2026-04-11T13:53:38.001Z</time></trkpt><trkpt lat="44.74169553344632" lon="10.0049164921464"><ele>340.0</ele><time>2026-04-11T13:53:39.001Z</time></trkpt><trkpt lat="44.741599931734136" lon="10.004797561203025"><ele>341.4</ele><time>2026-04-11T13:53:40.001Z</time></trkpt><trkpt lat="44.74150265181544" lon="10.004683051807499"><ele>342.8</ele><time>2026-04-11T13:53:41.001Z</time></trkpt><trkpt lat="44.74144547237559" lon="10.004561760135088"><ele>344.20000000000005</ele><time>2026-04-11T13:53:42.001Z</time></trkpt><trkpt lat="44.74142145806755" lon="10.004431793832767"><ele>345.6</ele><time>2026-04-11T13:53:43.001Z</time></trkpt><trkpt lat="44.74142669162272" lon="10.004277212905537"><ele>347.0</ele><time>2026-04-11T13:53:44.001Z</time></trkpt><trkpt lat="44.741482440018636" lon="10.004133671078362"><ele>347.25</ele><time>2026-04-11T13:53:45.001Z</time></trkpt><trkpt lat="44.741548198780855" lon="10.003981430386368"><ele>347.5</ele><time>2026-04-11T13:53:46.001Z</time></trkpt><trkpt lat="44.74159561591745" lon="10.003815063090638"><ele>347.75</ele><time>2026-04-11T13:53:47.001Z</time></trkpt><trkpt lat="44.741617269409886" lon="10.003650900926086"><ele>348.0</ele><time>2026-04-11T13:53:48.001Z</time></trkpt><trkpt lat="44.741581264343964" lon="10.003511348026315"><ele>348.0</ele><time>2026-04-11T13:53:49.001Z</time></trkpt><trkpt lat="44.74150509694886" lon="10.003372468319192"><ele>348.0</ele><time>2026-04-11T13:53:50.001Z</time></trkpt><trkpt lat="44.74143040825848" lon="10.0032214644596"><ele>348.0</ele><time>2026-04-11T13:53:51.001Z</time></trkpt><trkpt lat="44.741410416796995" lon="10.00310360567244"><ele>348.0</ele><time>2026-04-11T13:53:52.001Z</time></trkpt><trkpt lat="44.74145561775955" lon="10.00299803279255"><ele>348.0</ele><time>2026-04-11T13:53:53.001Z</time></trkpt><trkpt lat="44.74151732133992" lon="10.002890928439108"><ele>349.4</ele><time>2026-04-11T13:53:54.001Z</time></trkpt><trkpt lat="44.741594792316874" lon="10.002804406784843"><ele>350.79999999999995</ele><time>2026-04-11T13:53:55.001Z</time></trkpt><trkpt lat="44.74169108833221" lon="10.002747014191984"><ele>352.2</ele><time>2026-04-11T13:53:56.001Z</time></trkpt><trkpt lat="44.74179574305022" lon="10.002784578459243"><ele>353.6</ele><time>2026-04-11T13:53:57.001Z</time></trkpt><trkpt lat="44.74191903088498" lon="10.002821060437684"><ele>355.0</ele><time>2026-04-11T13:53:58.001Z</time></trkpt><trkpt lat="44.742095295243736" lon="10.002845056304547"><ele>355.0</ele><time>2026-04-11T13:53:59.001Z</time></trkpt><trkpt lat="44.742287904361845" lon="10.002805946626891"><ele>355.0</ele><time>2026-04-11T13:54:00.001Z</time></trkpt><trkpt lat="44.74245209898056" lon="10.002749222298249"><ele>355.0</ele><time>2026-04-11T13:54:01.001Z</time></trkpt><trkpt lat="44.74258723808775" lon="10.002685446981376"><ele>355.0</ele><time>2026-04-11T13:54:02.001Z</time></trkpt><trkpt lat="44.74271065329847" lon="10.002618941477545"><ele>355.0</ele><time>2026-04-11T13:54:03.001Z</time></trkpt><trkpt lat="44.74281005127384" lon="10.002540506573439"><ele>355.0</ele><time>2026-04-11T13:54:04.001Z</time></trkpt><trkpt lat="44.74289909974855" lon="10.002468437121765"><ele>355.0</ele><time>2026-04-11T13:54:05.001Z</time></trkpt><trkpt lat="44.74299229451579" lon="10.00246667509266"><ele>355.0</ele><time>2026-04-11T13:54:06.001Z</time></trkpt><trkpt lat="44.74307808793213" lon="10.002416406531491"><ele>358.4</ele><time>2026-04-11T13:54:07.001Z</time></trkpt><trkpt lat="44.7431487427472" lon="10.002348081379102"><ele>361.8</ele><time>2026-04-11T13:54:08.001Z</time></trkpt><trkpt lat="44.743190928725795" lon="10.002237516838132"><ele>365.20000000000005</ele><time>2026-04-11T13:54:09.001Z</time></trkpt><trkpt lat="44.743157074521356" lon="10.0020825686387"><ele>368.6</ele><time>2026-04-11T13:54:10.001Z</time></trkpt><trkpt lat="44.74310835620017" lon="10.001953429118291"><ele>372.0</ele><time>2026-04-11T13:54:11.001Z</time></trkpt><trkpt lat="44.743041259126066" lon="10.001838204963123"><ele>372.0</ele><time>2026-04-11T13:54:12.001Z</time></trkpt><trkpt lat="44.74297327207306" lon="10.001723950160741"><ele>372.0</ele><time>2026-04-11T13:54:13.001Z</time></trkpt><trkpt lat="44.742951758664745" lon="10.001602646878741"><ele>372.0</ele><time>2026-04-11T13:54:14.001Z</time></trkpt><trkpt lat="44.74294196771057" lon="10.001476160846153"><ele>372.0</ele><time>2026-04-11T13:54:15.001Z</time></trkpt><trkpt lat="44.74295332707753" lon="10.001350026577967"><ele>372.0</ele><time>2026-04-11T13:54:16.001Z</time></trkpt><trkpt lat="44.74299892529987" lon="10.001233756230834"><ele>372.0</ele><time>2026-04-11T13:54:17.001Z</time></trkpt><trkpt lat="44.743054991065485" lon="10.001115926733277"><ele>372.0</ele><time>2026-04-11T13:54:18.002Z</time></trkpt><trkpt lat="44.74311979290505" lon="10.000999858314144"><ele>372.0</ele><time>2026-04-11T13:54:19.002Z</time></trkpt><trkpt lat="44.74317922528196" lon="10.00089088457341"><ele>372.0</ele><time>2026-04-11T13:54:20.002Z</time></trkpt><trkpt lat="44.74321167325736" lon="10.000776883877261"><ele>372.0</ele><time>2026-04-11T13:54:21.002Z</time></trkpt><trkpt lat="44.74323924255235" lon="10.00067796825602"><ele>372.0</ele><time>2026-04-11T13:54:22.002Z</time></trkpt><trkpt lat="44.7431824777064" lon="10.000563095995563"><ele>372.0</ele><time>2026-04-11T13:54:23.002Z</time></trkpt><trkpt lat="44.74310680396874" lon="10.00047520547171"><ele>372.0</ele><time>2026-04-11T13:54:24.002Z</time></trkpt><trkpt lat="44.74300526483727" lon="10.000421822125741"><ele>372.0</ele><time>2026-04-11T13:54:25.002Z</time></trkpt><trkpt lat="44.74289509748628" lon="10.000376920484817"><ele>372.0</ele><time>2026-04-11T13:54:26.002Z</time></trkpt><trkpt lat="44.74279573515733" lon="10.000282835074463"><ele>368.5</ele><time>2026-04-11T13:54:27.002Z</time></trkpt><trkpt lat="44.7426954465189" lon="10.000182476519356"><ele>365.0</ele><time>2026-04-11T13:54:28.002Z</time></trkpt><trkpt lat="44.742592758549605" lon="10.000068191507264"><ele>361.5</ele><time>2026-04-11T13:54:29.002Z</time></trkpt><trkpt lat="44.742477671461565" lon="9.999996905203838"><ele>358.0</ele><time>2026-04-11T13:54:30.002Z</time></trkpt><trkpt lat="44.742381408722416" lon="9.999940535240016"><ele>358.0</ele><time>2026-04-11T13:54:31.002Z</time></trkpt><trkpt lat="44.74229121376506" lon="9.999933196023564"><ele>358.0</ele><time>2026-04-11T13:54:32.002Z</time></trkpt><trkpt lat="44.742221904279276" lon="9.99988259714966"><ele>358.0</ele><time>2026-04-11T13:54:33Z</time></trkpt><trkpt lat="44.74215977019862" lon="9.999820105633205"><ele>358.0</ele><time>2026-04-11T13:54:34Z</time></trkpt><trkpt lat="44.74210904520135" lon="9.999723252776018"><ele>358.0</ele><time>2026-04-11T13:54:35Z</time></trkpt><trkpt lat="44.74207505913593" lon="9.999603089842164"><ele>358.0</ele><time>2026-04-11T13:54:36Z</time></trkpt><trkpt lat="44.74219081153994" lon="9.999437228340044"><ele>358.0</ele><time>2026-04-11T13:54:37Z</time></trkpt><trkpt lat="44.742205685381904" lon="9.999298640941538"><ele>358.0</ele><time>2026-04-11T13:54:38Z</time></trkpt><trkpt lat="44.74223299994945" lon="9.999169549815734"><ele>358.0</ele><time>2026-04-11T13:54:39Z</time></trkpt><trkpt lat="44.74228638434511" lon="9.999048172456806"><ele>358.0</ele><time>2026-04-11T13:54:40Z</time></trkpt><trkpt lat="44.74236146542211" lon="9.998913545198523"><ele>358.0</ele><time>2026-04-11T13:54:41Z</time></trkpt><trkpt lat="44.74244684547428" lon="9.99876797000943"><ele>360.0</ele><time>2026-04-11T13:54:42Z</time></trkpt><trkpt lat="44.74253061681742" lon="9.998607649674906"><ele>362.0</ele><time>2026-04-11T13:54:43Z</time></trkpt><trkpt lat="44.74258034714225" lon="9.998431925476005"><ele>364.0</ele><time>2026-04-11T13:54:44Z</time></trkpt><trkpt lat="44.74263407930287" lon="9.998247277911634"><ele>366.0</ele><time>2026-04-11T13:54:45Z</time></trkpt><trkpt lat="44.74271772225729" lon="9.998100116623744"><ele>370.5</ele><time>2026-04-11T13:54:46Z</time></trkpt><trkpt lat="44.74281615870315" lon="9.997991983264571"><ele>375.0</ele><time>2026-04-11T13:54:47Z</time></trkpt><trkpt lat="44.74292891272003" lon="9.997854118450926"><ele>379.5</ele><time>2026-04-11T13:54:48Z</time></trkpt><trkpt lat="44.74301038199902" lon="9.997675214664724"><ele>384.0</ele><time>2026-04-11T13:54:49Z</time></trkpt><trkpt lat="44.743076488177266" lon="9.997490708108447"><ele>384.0</ele><time>2026-04-11T13:54:50Z</time></trkpt><trkpt lat="44.743150037646366" lon="9.997315198149817"><ele>384.0</ele><time>2026-04-11T13:54:51Z</time></trkpt><trkpt lat="44.74322409204523" lon="9.997147859141887"><ele>384.0</ele><time>2026-04-11T13:54:52Z</time></trkpt><trkpt lat="44.743282199265366" lon="9.996975881447796"><ele>384.0</ele><time>2026-04-11T13:54:53Z</time></trkpt><trkpt lat="44.743337162055" lon="9.996783067477597"><ele>383.6666666666667</ele><time>2026-04-11T13:54:54Z</time></trkpt><trkpt lat="44.74337199397813" lon="9.996576859223323"><ele>383.33333333333337</ele><time>2026-04-11T13:54:55Z</time></trkpt><trkpt lat="44.74341533376735" lon="9.996373859986754"><ele>383.0</ele><time>2026-04-11T13:54:56Z</time></trkpt><trkpt lat="44.74347137346628" lon="9.996167472759081"><ele>383.0</ele><time>2026-04-11T13:54:57Z</time></trkpt><trkpt lat="44.74353376781806" lon="9.995942513715665"><ele>383.0</ele><time>2026-04-11T13:54:58Z</time></trkpt><trkpt lat="44.74360179132381" lon="9.99570766912093"><ele>383.0</ele><time>2026-04-11T13:54:59Z</time></trkpt><trkpt lat="44.74367813370542" lon="9.995460338733194"><ele>387.33333333333337</ele><time>2026-04-11T13:55:00Z</time></trkpt><trkpt lat="44.74377868471778" lon="9.99520918432969"><ele>391.6666666666667</ele><time>2026-04-11T13:55:01Z</time></trkpt><trkpt lat="44.74386260074426" lon="9.99499199262374"><ele>396.0</ele><time>2026-04-11T13:55:02Z</time></trkpt><trkpt lat="44.74391990021983" lon="9.994798918738896"><ele>396.0</ele><time>2026-04-11T13:55:03Z</time></trkpt><trkpt lat="44.74396340158888" lon="9.994633977373848"><ele>396.0</ele><time>2026-04-11T13:55:04Z</time></trkpt><trkpt lat="44.74400119525689" lon="9.994486174328141"><ele>396.0</ele><time>2026-04-11T13:55:05Z</time></trkpt><trkpt lat="44.744035235895005" lon="9.994364529473662"><ele>396.0</ele><time>2026-04-11T13:55:06Z</time></trkpt><trkpt lat="44.74404611932852" lon="9.99425089528435"><ele>396.0</ele><time>2026-04-11T13:55:07Z</time></trkpt><trkpt lat="44.744065618852204" lon="9.994082321341688"><ele>395.1666666666667</ele><time>2026-04-11T13:55:09Z</time></trkpt><trkpt lat="44.74400935438456" lon="9.993996649841419"><ele>394.33333333333337</ele><time>2026-04-11T13:55:10Z</time></trkpt><trkpt lat="44.74395873046045" lon="9.99392340268906"><ele>393.5</ele><time>2026-04-11T13:55:11Z</time></trkpt><trkpt lat="44.74391032974815" lon="9.993831258985818"><ele>392.6666666666667</ele><time>2026-04-11T13:55:12Z</time></trkpt><trkpt lat="44.743827237504384" lon="9.993757242589998"><ele>391.83333333333337</ele><time>2026-04-11T13:55:13Z</time></trkpt><trkpt lat="44.74372458430695" lon="9.993722818080455"><ele>391.0</ele><time>2026-04-11T13:55:14Z</time></trkpt><trkpt lat="44.743626111041806" lon="9.99367749321579"><ele>388.5</ele><time>2026-04-11T13:55:15Z</time></trkpt><trkpt lat="44.74353107757583" lon="9.993611126642191"><ele>386.0</ele><time>2026-04-11T13:55:16Z</time></trkpt><trkpt lat="44.74342249854957" lon="9.993552122895567"><ele>383.5</ele><time>2026-04-11T13:55:17Z</time></trkpt><trkpt lat="44.74331058476595" lon="9.993467815323822"><ele>381.0</ele><time>2026-04-11T13:55:18.001Z</time></trkpt><trkpt lat="44.74319371650054" lon="9.993361569105353"><ele>380.75</ele><time>2026-04-11T13:55:19.001Z</time></trkpt><trkpt lat="44.74308090070981" lon="9.99325157964568"><ele>380.5</ele><time>2026-04-11T13:55:20.001Z</time></trkpt><trkpt lat="44.74296837424408" lon="9.993125348494058"><ele>380.25</ele><time>2026-04-11T13:55:21.001Z</time></trkpt><trkpt lat="44.742876533447806" lon="9.9929754917359"><ele>380.0</ele><time>2026-04-11T13:55:22.001Z</time></trkpt><trkpt lat="44.74279123964894" lon="9.99280123560014"><ele>380.0</ele><time>2026-04-11T13:55:23.001Z</time></trkpt><trkpt lat="44.74271876473068" lon="9.992626145800708"><ele>380.0</ele><time>2026-04-11T13:55:24.001Z</time></trkpt><trkpt lat="44.742661959116475" lon="9.992447995833729"><ele>380.0</ele><time>2026-04-11T13:55:25.001Z</time></trkpt><trkpt lat="44.74263152225389" lon="9.992272797579806"><ele>380.0</ele><time>2026-04-11T13:55:26.001Z</time></trkpt><trkpt lat="44.742577339626386" lon="9.992135406233947"><ele>380.2</ele><time>2026-04-11T13:55:27.001Z</time></trkpt><trkpt lat="44.74253339282355" lon="9.992056248096478"><ele>380.4</ele><time>2026-04-11T13:55:28.001Z</time></trkpt><trkpt lat="44.742465413465965" lon="9.99203876222628"><ele>380.6</ele><time>2026-04-11T13:55:29.001Z</time></trkpt><trkpt lat="44.74237879608947" lon="9.992068018715713"><ele>380.8</ele><time>2026-04-11T13:55:30.001Z</time></trkpt><trkpt lat="44.74227445462683" lon="9.992127153361716"><ele>381.0</ele><time>2026-04-11T13:55:31.001Z</time></trkpt><trkpt lat="44.74215452124298" lon="9.992178956522872"><ele>381.0</ele><time>2026-04-11T13:55:32.001Z</time></trkpt><trkpt lat="44.74202049220385" lon="9.992209334183027"><ele>381.0</ele><time>2026-04-11T13:55:33.001Z</time></trkpt><trkpt lat="44.74189849649474" lon="9.992235446780674"><ele>381.0</ele><time>2026-04-11T13:55:34.001Z</time></trkpt><trkpt lat="44.74180064541183" lon="9.992258533647098"><ele>381.0</ele><time>2026-04-11T13:55:35.001Z</time></trkpt><trkpt lat="44.74171920027859" lon="9.992277585061274"><ele>381.0</ele><time>2026-04-11T13:55:36.001Z</time></trkpt><trkpt lat="44.7416485421004" lon="9.99228179417729"><ele>382.1666666666667</ele><time>2026-04-11T13:55:37.001Z</time></trkpt><trkpt lat="44.7415359691062" lon="9.992207006293429"><ele>383.33333333333337</ele><time>2026-04-11T13:55:39.001Z</time></trkpt><trkpt lat="44.74148387901541" lon="9.99215012678602"><ele>384.5</ele><time>2026-04-11T13:55:40.001Z</time></trkpt><trkpt lat="44.74142858595151" lon="9.99208708736912"><ele>385.6666666666667</ele><time>2026-04-11T13:55:41.001Z</time></trkpt><trkpt lat="44.74137768284216" lon="9.992012297769818"><ele>386.83333333333337</ele><time>2026-04-11T13:55:42.001Z</time></trkpt><trkpt lat="44.741324942039945" lon="9.991932488295319"><ele>388.0</ele><time>2026-04-11T13:55:43.001Z</time></trkpt><trkpt lat="44.74127400358399" lon="9.991849045239425"><ele>388.00000000000006</ele><time>2026-04-11T13:55:44.001Z</time></trkpt><trkpt lat="44.741230580567574" lon="9.991769193797943"><ele>388.0</ele><time>2026-04-11T13:55:45.001Z</time></trkpt><trkpt lat="44.74119582475114" lon="9.991625779288086"><ele>388.0</ele><time>2026-04-11T13:55:47.001Z</time></trkpt><trkpt lat="44.741185563414284" lon="9.991532099847538"><ele>388.0</ele><time>2026-04-11T13:55:48.001Z</time></trkpt><trkpt lat="44.74119526342685" lon="9.991428578767533"><ele>388.00000000000006</ele><time>2026-04-11T13:55:49.001Z</time></trkpt><trkpt lat="44.7412133652182" lon="9.991320979118221"><ele>388.0</ele><time>2026-04-11T13:55:50.001Z</time></trkpt><trkpt lat="44.74123326268625" lon="9.991200871063747"><ele>389.0</ele><time>2026-04-11T13:55:51.001Z</time></trkpt><trkpt lat="44.741254933987555" lon="9.991073918970267"><ele>390.0</ele><time>2026-04-11T13:55:52.001Z</time></trkpt><trkpt lat="44.741277817250484" lon="9.990938027255508"><ele>391.0</ele><time>2026-04-11T13:55:53.001Z</time></trkpt><trkpt lat="44.74130079570007" lon="9.99079738745725"><ele>392.0</ele><time>2026-04-11T13:55:54.001Z</time></trkpt><trkpt lat="44.74132397481697" lon="9.990648355971574"><ele>393.0</ele><time>2026-04-11T13:55:55.001Z</time></trkpt><trkpt lat="44.74134392092031" lon="9.990493237185737"><ele>393.0</ele><time>2026-04-11T13:55:56.001Z</time></trkpt><trkpt lat="44.74135617234221" lon="9.990338818435319"><ele>393.0</ele><time>2026-04-11T13:55:57.001Z</time></trkpt><trkpt lat="44.74135246620475" lon="9.99018336530043"><ele>393.0</ele><time>2026-04-11T13:55:58.001Z</time></trkpt><trkpt lat="44.74132519571143" lon="9.99002603380552"><ele>393.0</ele><time>2026-04-11T13:55:59.001Z</time></trkpt><trkpt lat="44.74127931394187" lon="9.98987346556128"><ele>393.25</ele><time>2026-04-11T13:56:00.001Z</time></trkpt><trkpt lat="44.74121926511612" lon="9.989723567697407"><ele>393.5</ele><time>2026-04-11T13:56:01.001Z</time></trkpt><trkpt lat="44.74114858938687" lon="9.989578160369348"><ele>393.75</ele><time>2026-04-11T13:56:02.001Z</time></trkpt><trkpt lat="44.74108009513981" lon="9.989432492465331"><ele>394.0</ele><time>2026-04-11T13:56:03.001Z</time></trkpt><trkpt lat="44.740994604788945" lon="9.9892844910983"><ele>396.5</ele><time>2026-04-11T13:56:04.001Z</time></trkpt><trkpt lat="44.74093266980928" lon="9.989123350617032"><ele>399.0</ele><time>2026-04-11T13:56:05.001Z</time></trkpt><trkpt lat="44.740890616234616" lon="9.988956932137524"><ele>401.5</ele><time>2026-04-11T13:56:06.001Z</time></trkpt><trkpt lat="44.74081861880896" lon="9.988813146857119"><ele>404.0</ele><time>2026-04-11T13:56:07.001Z</time></trkpt><trkpt lat="44.74076677892001" lon="9.988660480310081"><ele>404.0</ele><time>2026-04-11T13:56:08.001Z</time></trkpt><trkpt lat="44.740673172825524" lon="9.988553045832582"><ele>404.0</ele><time>2026-04-11T13:56:09.001Z</time></trkpt><trkpt lat="44.74057845684455" lon="9.988437016469007"><ele>404.0</ele><time>2026-04-11T13:56:10.001Z</time></trkpt><trkpt lat="44.74049393472475" lon="9.988300143556762"><ele>404.0</ele><time>2026-04-11T13:56:11.001Z</time></trkpt><trkpt lat="44.74040836189558" lon="9.98816017043543"><ele>406.0</ele><time>2026-04-11T13:56:12.001Z</time></trkpt><trkpt lat="44.74032950564892" lon="9.988024940068657"><ele>408.0</ele><time>2026-04-11T13:56:13.001Z</time></trkpt><trkpt lat="44.74025225263678" lon="9.987893723471533"><ele>410.0</ele><time>2026-04-11T13:56:14.001Z</time></trkpt><trkpt lat="44.74017538384428" lon="9.987763822922966"><ele>412.0</ele><time>2026-04-11T13:56:15.001Z</time></trkpt><trkpt lat="44.740099088879354" lon="9.987628799824991"><ele>410.5</ele><time>2026-04-11T13:56:16.001Z</time></trkpt><trkpt lat="44.740024533507835" lon="9.987492104626659"><ele>409.0</ele><time>2026-04-11T13:56:17.001Z</time></trkpt><trkpt lat="44.73994205817021" lon="9.987370898355298"><ele>407.5</ele><time>2026-04-11T13:56:18.001Z</time></trkpt><trkpt lat="44.73987047563157" lon="9.98722561696452"><ele>406.0</ele><time>2026-04-11T13:56:19.001Z</time></trkpt><trkpt lat="44.73978023771076" lon="9.987092684590783"><ele>406.0</ele><time>2026-04-11T13:56:20.001Z</time></trkpt><trkpt lat="44.73969906432465" lon="9.986965479643013"><ele>406.0</ele><time>2026-04-11T13:56:21.001Z</time></trkpt><trkpt lat="44.739616395189344" lon="9.986842308112601"><ele>406.0</ele><time>2026-04-11T13:56:22.001Z</time></trkpt><trkpt lat="44.73951878849432" lon="9.986741469244528"><ele>406.0</ele><time>2026-04-11T13:56:23.001Z</time></trkpt><trkpt lat="44.739395872950126" lon="9.98666349411131"><ele>406.0</ele><time>2026-04-11T13:56:24.001Z</time></trkpt><trkpt lat="44.73927155578938" lon="9.986617829707667"><ele>406.0</ele><time>2026-04-11T13:56:25.001Z</time></trkpt><trkpt lat="44.73915428296786" lon="9.98658817280244"><ele>406.0</ele><time>2026-04-11T13:56:26.001Z</time></trkpt><trkpt lat="44.739055581068925" lon="9.986566418840834"><ele>406.0</ele><time>2026-04-11T13:56:27.001Z</time></trkpt><trkpt lat="44.738964531404676" lon="9.986546227108933"><ele>406.0</ele><time>2026-04-11T13:56:28.001Z</time></trkpt><trkpt lat="44.73888074384622" lon="9.986516156950824"><ele>406.0</ele><time>2026-04-11T13:56:29.001Z</time></trkpt><trkpt lat="44.73879966822886" lon="9.986476237695278"><ele>406.0</ele><time>2026-04-11T13:56:30.001Z</time></trkpt><trkpt lat="44.73871329119201" lon="9.986443541885125"><ele>406.0</ele><time>2026-04-11T13:56:31.001Z</time></trkpt><trkpt lat="44.73863131562249" lon="9.9864451771301"><ele>406.0</ele><time>2026-04-11T13:56:32.001Z</time></trkpt><trkpt lat="44.73854441773851" lon="9.986490132748257"><ele>406.0</ele><time>2026-04-11T13:56:33.002Z</time></trkpt><trkpt lat="44.738458506202306" lon="9.98657000645146"><ele>405.0</ele><time>2026-04-11T13:56:34.002Z</time></trkpt><trkpt lat="44.738372214467184" lon="9.986660874403961"><ele>404.0</ele><time>2026-04-11T13:56:35.002Z</time></trkpt><trkpt lat="44.73828656001983" lon="9.986768208901465"><ele>403.0</ele><time>2026-04-11T13:56:36.002Z</time></trkpt><trkpt lat="44.7382021975861" lon="9.986874500236805"><ele>402.0</ele><time>2026-04-11T13:56:37.002Z</time></trkpt><trkpt lat="44.73811496506828" lon="9.986967517605565"><ele>401.0</ele><time>2026-04-11T13:56:38.002Z</time></trkpt><trkpt lat="44.73802042449278" lon="9.987034776550345"><ele>401.0</ele><time>2026-04-11T13:56:39Z</time></trkpt><trkpt lat="44.737918608648" lon="9.987077747112364"><ele>401.0</ele><time>2026-04-11T13:56:40Z</time></trkpt><trkpt lat="44.73780985951145" lon="9.98710721214487"><ele>401.0</ele><time>2026-04-11T13:56:41Z</time></trkpt><trkpt lat="44.737696902775234" lon="9.987116252928958"><ele>401.0</ele><time>2026-04-11T13:56:42Z</time></trkpt><trkpt lat="44.73757570459996" lon="9.987113413487357"><ele>404.0</ele><time>2026-04-11T13:56:43Z</time></trkpt><trkpt lat="44.737453009054555" lon="9.987111440732047"><ele>407.0</ele><time>2026-04-11T13:56:44Z</time></trkpt><trkpt lat="44.73732723853018" lon="9.987116257164192"><ele>410.0</ele><time>2026-04-11T13:56:45Z</time></trkpt><trkpt lat="44.73720297864705" lon="9.987116160858283"><ele>413.0</ele><time>2026-04-11T13:56:46Z</time></trkpt><trkpt lat="44.737090946429966" lon="9.987070332538158"><ele>413.0</ele><time>2026-04-11T13:56:47Z</time></trkpt><trkpt lat="44.73698568746229" lon="9.987021422798698"><ele>413.0</ele><time>2026-04-11T13:56:48Z</time></trkpt><trkpt lat="44.73689300480693" lon="9.986955890891851"><ele>413.0</ele><time>2026-04-11T13:56:49Z</time></trkpt><trkpt lat="44.73681924633226" lon="9.986883789561949"><ele>413.0</ele><time>2026-04-11T13:56:50Z</time></trkpt><trkpt lat="44.73675226877686" lon="9.986797942125776"><ele>413.0</ele><time>2026-04-11T13:56:51Z</time></trkpt><trkpt lat="44.736698596917606" lon="9.986694710583096"><ele>416.2</ele><time>2026-04-11T13:56:52Z</time></trkpt><trkpt lat="44.73664088472088" lon="9.986585932123562"><ele>419.4</ele><time>2026-04-11T13:56:53Z</time></trkpt><trkpt lat="44.73658359459243" lon="9.986479390776749"><ele>422.59999999999997</ele><time>2026-04-11T13:56:54Z</time></trkpt><trkpt lat="44.73652441193459" lon="9.986369842795456"><ele>425.79999999999995</ele><time>2026-04-11T13:56:55Z</time></trkpt><trkpt lat="44.736458820623014" lon="9.986248432379668"><ele>429.0</ele><time>2026-04-11T13:56:56Z</time></trkpt><trkpt lat="44.73638956091027" lon="9.986124464699094"><ele>429.0</ele><time>2026-04-11T13:56:57Z</time></trkpt><trkpt lat="44.73632160111624" lon="9.986006022679236"><ele>429.0</ele><time>2026-04-11T13:56:58Z</time></trkpt><trkpt lat="44.736250304092884" lon="9.985885210729993"><ele>429.0</ele><time>2026-04-11T13:56:59Z</time></trkpt><trkpt lat="44.73615814928183" lon="9.985790986052333"><ele>429.0</ele><time>2026-04-11T13:57:00Z</time></trkpt><trkpt lat="44.73606993766386" lon="9.98570289127491"><ele>429.0</ele><time>2026-04-11T13:57:01Z</time></trkpt><trkpt lat="44.7359708848089" lon="9.985643952436165"><ele>430.79999999999995</ele><time>2026-04-11T13:57:02Z</time></trkpt><trkpt lat="44.735877736446845" lon="9.985640774678817"><ele>432.59999999999997</ele><time>2026-04-11T13:57:03Z</time></trkpt><trkpt lat="44.735785934041886" lon="9.985685977059862"><ele>434.4</ele><time>2026-04-11T13:57:04Z</time></trkpt><trkpt lat="44.735704953628755" lon="9.9857790013934"><ele>436.2</ele><time>2026-04-11T13:57:05Z</time></trkpt><trkpt lat="44.73565755531256" lon="9.985907795461921"><ele>438.0</ele><time>2026-04-11T13:57:06Z</time></trkpt><trkpt lat="44.73564264556007" lon="9.986063031161304"><ele>438.0</ele><time>2026-04-11T13:57:07Z</time></trkpt><trkpt lat="44.73564334749987" lon="9.986221104463217"><ele>437.99999999999994</ele><time>2026-04-11T13:57:08Z</time></trkpt><trkpt lat="44.735636030154694" lon="9.98637471191241"><ele>437.99999999999994</ele><time>2026-04-11T13:57:09Z</time></trkpt><trkpt lat="44.735599332162835" lon="9.986505727876795"><ele>438.0</ele><time>2026-04-11T13:57:10Z</time></trkpt><trkpt lat="44.73551765587836" lon="9.986594970532307"><ele>438.0</ele><time>2026-04-11T13:57:11Z</time></trkpt><trkpt lat="44.73544822095716" lon="9.986712349003133"><ele>437.4</ele><time>2026-04-11T13:57:12Z</time></trkpt><trkpt lat="44.73536145108301" lon="9.986819003457269"><ele>436.79999999999995</ele><time>2026-04-11T13:57:13Z</time></trkpt><trkpt lat="44.73527968903868" lon="9.986924751711598"><ele>436.2</ele><time>2026-04-11T13:57:14Z</time></trkpt><trkpt lat="44.73521385620771" lon="9.987011123826527"><ele>435.6</ele><time>2026-04-11T13:57:15Z</time></trkpt><trkpt lat="44.735153916672374" lon="9.987060761238633"><ele>435.0</ele><time>2026-04-11T13:57:16Z</time></trkpt><trkpt lat="44.735028522803844" lon="9.98706056283924"><ele>436.8</ele><time>2026-04-11T13:57:18Z</time></trkpt><trkpt lat="44.734967284809485" lon="9.986969825160951"><ele>438.6</ele><time>2026-04-11T13:57:19.001Z</time></trkpt><trkpt lat="44.73489293372586" lon="9.986901350675318"><ele>440.4</ele><time>2026-04-11T13:57:20.001Z</time></trkpt><trkpt lat="44.734808252842946" lon="9.98682521003108"><ele>442.2</ele><time>2026-04-11T13:57:21.001Z</time></trkpt><trkpt lat="44.73471608757638" lon="9.986771589658932"><ele>444.0</ele><time>2026-04-11T13:57:22.001Z</time></trkpt><trkpt lat="44.734619069704166" lon="9.986715421633619"><ele>444.0</ele><time>2026-04-11T13:57:23.001Z</time></trkpt><trkpt lat="44.73451225155574" lon="9.986696493019236"><ele>444.0</ele><time>2026-04-11T13:57:24.001Z</time></trkpt><trkpt lat="44.73440459002629" lon="9.986735782479691"><ele>444.0</ele><time>2026-04-11T13:57:25.001Z</time></trkpt><trkpt lat="44.734302188544525" lon="9.986819914655253"><ele>444.0</ele><time>2026-04-11T13:57:26.001Z</time></trkpt><trkpt lat="44.73418391208942" lon="9.9868386507025"><ele>445.5</ele><time>2026-04-11T13:57:27.001Z</time></trkpt><trkpt lat="44.73405616627126" lon="9.98683774913061"><ele>447.0</ele><time>2026-04-11T13:57:28.001Z</time></trkpt><trkpt lat="44.73391526854635" lon="9.986841044023437"><ele>448.5</ele><time>2026-04-11T13:57:29.001Z</time></trkpt><trkpt lat="44.73378537644909" lon="9.986845662942763"><ele>450.0</ele><time>2026-04-11T13:57:30.001Z</time></trkpt><trkpt lat="44.73367722468398" lon="9.986845532634597"><ele>450.0</ele><time>2026-04-11T13:57:31.001Z</time></trkpt><trkpt lat="44.7335865816387" lon="9.986829619023231"><ele>450.0</ele><time>2026-04-11T13:57:32.001Z</time></trkpt><trkpt lat="44.73351448050981" lon="9.986780200547322"><ele>450.0</ele><time>2026-04-11T13:57:33.001Z</time></trkpt><trkpt lat="44.733453197624335" lon="9.986703931276"><ele>450.0</ele><time>2026-04-11T13:57:34.001Z</time></trkpt><trkpt lat="44.73340347256004" lon="9.986592420105248"><ele>450.0</ele><time>2026-04-11T13:57:35.001Z</time></trkpt><trkpt lat="44.73336052503739" lon="9.986465106493954"><ele>450.0</ele><time>2026-04-11T13:57:36.001Z</time></trkpt><trkpt lat="44.73332230774442" lon="9.98630205413582"><ele>456.66666666666663</ele><time>2026-04-11T13:57:37.001Z</time></trkpt><trkpt lat="44.73329756063205" lon="9.986110228984494"><ele>463.3333333333333</ele><time>2026-04-11T13:57:38.001Z</time></trkpt><trkpt lat="44.73327506656108" lon="9.98589354359949"><ele>470.0</ele><time>2026-04-11T13:57:39.001Z</time></trkpt><trkpt lat="44.73325407504643" lon="9.985669095955444"><ele>472.75</ele><time>2026-04-11T13:57:40.001Z</time></trkpt><trkpt lat="44.73324047827078" lon="9.98547194043371"><ele>475.5</ele><time>2026-04-11T13:57:41.001Z</time></trkpt><trkpt lat="44.73323448345122" lon="9.985282665958948"><ele>478.25</ele><time>2026-04-11T13:57:42.001Z</time></trkpt><trkpt lat="44.73324118769882" lon="9.98509721134354"><ele>481.0</ele><time>2026-04-11T13:57:43.001Z</time></trkpt><trkpt lat="44.73326018868067" lon="9.984914811511812"><ele>482.75</ele><time>2026-04-11T13:57:44.001Z</time></trkpt><trkpt lat="44.73328656668039" lon="9.984722649384528"><ele>484.5</ele><time>2026-04-11T13:57:45.001Z</time></trkpt><trkpt lat="44.73331264671142" lon="9.984526934748047"><ele>486.25</ele><time>2026-04-11T13:57:46.001Z</time></trkpt><trkpt lat="44.73333761171408" lon="9.984338851610932"><ele>488.0</ele><time>2026-04-11T13:57:47.001Z</time></trkpt><trkpt lat="44.73336076175746" lon="9.984164442277859"><ele>488.8333333333333</ele><time>2026-04-11T13:57:48.001Z</time></trkpt><trkpt lat="44.733383073301084" lon="9.98403555172191"><ele>489.66666666666663</ele><time>2026-04-11T13:57:49.001Z</time></trkpt><trkpt lat="44.733431511978" lon="9.983912993475856"><ele>490.5</ele><time>2026-04-11T13:57:51.001Z</time></trkpt><trkpt lat="44.73353344505044" lon="9.983959731141256"><ele>491.33333333333337</ele><time>2026-04-11T13:57:53.001Z</time></trkpt><trkpt lat="44.73355557007112" lon="9.984051948767409"><ele>492.1666666666667</ele><time>2026-04-11T13:57:54.001Z</time></trkpt><trkpt lat="44.73356026518648" lon="9.984155401016293"><ele>493.0</ele><time>2026-04-11T13:57:55.001Z</time></trkpt><trkpt lat="44.73356047227881" lon="9.984257969657381"><ele>495.83333333333337</ele><time>2026-04-11T13:57:56.001Z</time></trkpt><trkpt lat="44.7335605353077" lon="9.984364938085905"><ele>498.6666666666667</ele><time>2026-04-11T13:57:57.001Z</time></trkpt><trkpt lat="44.733569716559614" lon="9.984482013549199"><ele>501.5</ele><time>2026-04-11T13:57:58.001Z</time></trkpt><trkpt lat="44.73358919465546" lon="9.984607153701004"><ele>504.33333333333337</ele><time>2026-04-11T13:57:59.001Z</time></trkpt><trkpt lat="44.73360341856847" lon="9.98474707967568"><ele>507.1666666666667</ele><time>2026-04-11T13:58:00.001Z</time></trkpt><trkpt lat="44.73362230315451" lon="9.984871820412934"><ele>510.0</ele><time>2026-04-11T13:58:01.001Z</time></trkpt><trkpt lat="44.73365080686281" lon="9.98495757918558"><ele>510.0</ele><time>2026-04-11T13:58:02.001Z</time></trkpt><trkpt lat="44.73375220777663" lon="9.985016506863385"><ele>510.0</ele><time>2026-04-11T13:58:04.001Z</time></trkpt><trkpt lat="44.73384694365254" lon="9.984949072673615"><ele>510.0</ele><time>2026-04-11T13:58:06.001Z</time></trkpt><trkpt lat="44.73386506917735" lon="9.98483591826118"><ele>510.0</ele><time>2026-04-11T13:58:07.001Z</time></trkpt><trkpt lat="44.733850246348105" lon="9.984717561412262"><ele>510.0</ele><time>2026-04-11T13:58:08.001Z</time></trkpt><trkpt lat="44.733841755266745" lon="9.984584630381065"><ele>510.0</ele><time>2026-04-11T13:58:09.001Z</time></trkpt><trkpt lat="44.733844190968135" lon="9.984436577099192"><ele>510.0</ele><time>2026-04-11T13:58:10.001Z</time></trkpt><trkpt lat="44.73385916625609" lon="9.984283977119636"><ele>510.0</ele><time>2026-04-11T13:58:11.001Z</time></trkpt><trkpt lat="44.73389198324981" lon="9.984114151641375"><ele>510.0</ele><time>2026-04-11T13:58:12.001Z</time></trkpt><trkpt lat="44.73393251236828" lon="9.98392917832866"><ele>512.0</ele><time>2026-04-11T13:58:13.001Z</time></trkpt><trkpt lat="44.733952930444005" lon="9.983729736248245"><ele>514.0</ele><time>2026-04-11T13:58:14.001Z</time></trkpt><trkpt lat="44.73400575963042" lon="9.983533821863151"><ele>516.0</ele><time>2026-04-11T13:58:15.001Z</time></trkpt><trkpt lat="44.7340603616698" lon="9.983340260854131"><ele>518.0</ele><time>2026-04-11T13:58:16.001Z</time></trkpt><trkpt lat="44.734126331675725" lon="9.983146080780815"><ele>519.0</ele><time>2026-04-11T13:58:17.001Z</time></trkpt><trkpt lat="44.734173471123654" lon="9.982908105694213"><ele>520.0</ele><time>2026-04-11T13:58:18.001Z</time></trkpt><trkpt lat="44.73423941977366" lon="9.982670710041685"><ele>521.0</ele><time>2026-04-11T13:58:19.001Z</time></trkpt><trkpt lat="44.73434309917217" lon="9.982470467288067"><ele>525.0</ele><time>2026-04-11T13:58:20.001Z</time></trkpt><trkpt lat="44.73442370972292" lon="9.982297102898212"><ele>529.0</ele><time>2026-04-11T13:58:21.001Z</time></trkpt><trkpt lat="44.734484711833694" lon="9.982153970253398"><ele>533.0</ele><time>2026-04-11T13:58:22.001Z</time></trkpt><trkpt lat="44.73451934750137" lon="9.982011948873144"><ele>537.0</ele><time>2026-04-11T13:58:23.001Z</time></trkpt><trkpt lat="44.7345672774414" lon="9.981890486272905"><ele>536.9999999999999</ele><time>2026-04-11T13:58:24.001Z</time></trkpt><trkpt lat="44.73459736497476" lon="9.981776293576967"><ele>537.0</ele><time>2026-04-11T13:58:25.001Z</time></trkpt><trkpt lat="44.734618008842844" lon="9.98167382854367"><ele>537.0</ele><time>2026-04-11T13:58:26.001Z</time></trkpt><trkpt lat="44.7346292431784" lon="9.981571560486357"><ele>537.0</ele><time>2026-04-11T13:58:27.001Z</time></trkpt><trkpt lat="44.73462678766891" lon="9.981480092779528"><ele>537.0</ele><time>2026-04-11T13:58:28.001Z</time></trkpt><trkpt lat="44.73458819937897" lon="9.981400582846192"><ele>536.9999999999999</ele><time>2026-04-11T13:58:29.001Z</time></trkpt><trkpt lat="44.73456614101381" lon="9.98131651468057"><ele>537.0</ele><time>2026-04-11T13:58:30.001Z</time></trkpt><trkpt lat="44.73454018273845" lon="9.981229306900733"><ele>537.1666666666666</ele><time>2026-04-11T13:58:31.001Z</time></trkpt><trkpt lat="44.73452725125843" lon="9.981127389415445"><ele>537.3333333333334</ele><time>2026-04-11T13:58:32.001Z</time></trkpt><trkpt lat="44.734497160188404" lon="9.981029842695666"><ele>537.5</ele><time>2026-04-11T13:58:33.001Z</time></trkpt><trkpt lat="44.734449981681415" lon="9.980932373138627"><ele>537.6666666666667</ele><time>2026-04-11T13:58:34.001Z</time></trkpt><trkpt lat="44.734422819616434" lon="9.980827594825193"><ele>537.8333333333334</ele><time>2026-04-11T13:58:35.001Z</time></trkpt><trkpt lat="44.73439331931579" lon="9.980736003920597"><ele>538.0</ele><time>2026-04-11T13:58:36.002Z</time></trkpt><trkpt lat="44.734363562395544" lon="9.980642803579938"><ele>537.4</ele><time>2026-04-11T13:58:37.002Z</time></trkpt><trkpt lat="44.734328170193486" lon="9.980526934985829"><ele>536.8</ele><time>2026-04-11T13:58:38.002Z</time></trkpt><trkpt lat="44.73431813972022" lon="9.980386751901976"><ele>536.2</ele><time>2026-04-11T13:58:39.002Z</time></trkpt><trkpt lat="44.734302042596816" lon="9.980236700759834"><ele>535.6</ele><time>2026-04-11T13:58:40.002Z</time></trkpt><trkpt lat="44.73428748380783" lon="9.980073023927876"><ele>535.0</ele><time>2026-04-11T13:58:41.002Z</time></trkpt><trkpt lat="44.734254891586566" lon="9.979919898036295"><ele>535.0</ele><time>2026-04-11T13:58:42.002Z</time></trkpt><trkpt lat="44.734236866712436" lon="9.979786343573279"><ele>535.0</ele><time>2026-04-11T13:58:43.002Z</time></trkpt><trkpt lat="44.734232015806256" lon="9.979669495188164"><ele>535.0</ele><time>2026-04-11T13:58:44.002Z</time></trkpt><trkpt lat="44.73417479409887" lon="9.979595928102533"><ele>535.0</ele><time>2026-04-11T13:58:45.001Z</time></trkpt><trkpt lat="44.734109826661964" lon="9.979519816320392"><ele>535.0</ele><time>2026-04-11T13:58:46.001Z</time></trkpt><trkpt lat="44.73406067714012" lon="9.979427451516539"><ele>535.0</ele><time>2026-04-11T13:58:47.001Z</time></trkpt><trkpt lat="44.73403489433244" lon="9.979305089946168"><ele>535.0</ele><time>2026-04-11T13:58:48.001Z</time></trkpt><trkpt lat="44.7340464462456" lon="9.979191143993638"><ele>535.0</ele><time>2026-04-11T13:58:49.001Z</time></trkpt><trkpt lat="44.734087027806375" lon="9.979074996219627"><ele>535.0</ele><time>2026-04-11T13:58:50.001Z</time></trkpt><trkpt lat="44.734114957403534" lon="9.978929467601679"><ele>535.0</ele><time>2026-04-11T13:58:51.001Z</time></trkpt><trkpt lat="44.734141279989466" lon="9.978762079911162"><ele>535.0</ele><time>2026-04-11T13:58:52.001Z</time></trkpt><trkpt lat="44.73416569469759" lon="9.978611420686025"><ele>535.6</ele><time>2026-04-11T13:58:53.001Z</time></trkpt><trkpt lat="44.73418439012139" lon="9.97847434028089"><ele>536.2</ele><time>2026-04-11T13:58:54.001Z</time></trkpt><trkpt lat="44.734176272939514" lon="9.978338433557422"><ele>536.8</ele><time>2026-04-11T13:58:55.001Z</time></trkpt><trkpt lat="44.73416256197407" lon="9.978181850771653"><ele>537.4</ele><time>2026-04-11T13:58:56.001Z</time></trkpt><trkpt lat="44.734131764619185" lon="9.978009559235543"><ele>538.0</ele><time>2026-04-11T13:58:57.001Z</time></trkpt><trkpt lat="44.73409400725732" lon="9.977834773916085"><ele>538.0</ele><time>2026-04-11T13:58:58.001Z</time></trkpt><trkpt lat="44.734056360737924" lon="9.9776781955196"><ele>538.0</ele><time>2026-04-11T13:58:59.001Z</time></trkpt><trkpt lat="44.73404172399605" lon="9.977522522457535"><ele>538.0</ele><time>2026-04-11T13:59:00.001Z</time></trkpt><trkpt lat="44.73401242611437" lon="9.97737414460987"><ele>538.0</ele><time>2026-04-11T13:59:01.001Z</time></trkpt><trkpt lat="44.73398282424494" lon="9.97722294979536"><ele>536.8</ele><time>2026-04-11T13:59:02.001Z</time></trkpt><trkpt lat="44.73393685804009" lon="9.977070565348049"><ele>535.5999999999999</ele><time>2026-04-11T13:59:03.001Z</time></trkpt><trkpt lat="44.733911349822016" lon="9.976911622835711"><ele>534.4000000000001</ele><time>2026-04-11T13:59:04.001Z</time></trkpt><trkpt lat="44.733907750519414" lon="9.976755360673673"><ele>533.2</ele><time>2026-04-11T13:59:05.001Z</time></trkpt><trkpt lat="44.73387896129219" lon="9.976618899418122"><ele>532.0</ele><time>2026-04-11T13:59:06.001Z</time></trkpt><trkpt lat="44.73385900416989" lon="9.976488760059288"><ele>531.0</ele><time>2026-04-11T13:59:07.001Z</time></trkpt><trkpt lat="44.73381570128381" lon="9.976359906458429"><ele>530.0</ele><time>2026-04-11T13:59:08.001Z</time></trkpt><trkpt lat="44.73374033345692" lon="9.976219338249376"><ele>529.0</ele><time>2026-04-11T13:59:09.001Z</time></trkpt><trkpt lat="44.73365177328266" lon="9.976064656398492"><ele>528.0</ele><time>2026-04-11T13:59:10.001Z</time></trkpt><trkpt lat="44.7336062657702" lon="9.97589715067217"><ele>528.0</ele><time>2026-04-11T13:59:11.001Z</time></trkpt><trkpt lat="44.73356625322034" lon="9.975721657854487"><ele>528.0</ele><time>2026-04-11T13:59:12.001Z</time></trkpt><trkpt lat="44.73353489159225" lon="9.975536177888376"><ele>528.0</ele><time>2026-04-11T13:59:13.001Z</time></trkpt><trkpt lat="44.73350339766053" lon="9.975363296917354"><ele>528.0</ele><time>2026-04-11T13:59:14.001Z</time></trkpt><trkpt lat="44.73345033488727" lon="9.975211910079047"><ele>528.0</ele><time>2026-04-11T13:59:15.001Z</time></trkpt><trkpt lat="44.73335109212673" lon="9.975098520692558"><ele>528.0</ele><time>2026-04-11T13:59:16.001Z</time></trkpt><trkpt lat="44.73326541614393" lon="9.974994112403529"><ele>528.0</ele><time>2026-04-11T13:59:17.001Z</time></trkpt><trkpt lat="44.73321658817892" lon="9.97487364975064"><ele>528.0</ele><time>2026-04-11T13:59:18.001Z</time></trkpt><trkpt lat="44.733194990260735" lon="9.97474697922823"><ele>528.0</ele><time>2026-04-11T13:59:19.001Z</time></trkpt><trkpt lat="44.73320624498338" lon="9.974611433980035"><ele>528.0</ele><time>2026-04-11T13:59:20.001Z</time></trkpt><trkpt lat="44.73321144028249" lon="9.974465173444303"><ele>528.0</ele><time>2026-04-11T13:59:21.001Z</time></trkpt><trkpt lat="44.733216041561064" lon="9.974331072078016"><ele>528.0</ele><time>2026-04-11T13:59:22.001Z</time></trkpt><trkpt lat="44.73321879863222" lon="9.974209576144688"><ele>528.0</ele><time>2026-04-11T13:59:23.001Z</time></trkpt><trkpt lat="44.733195682683835" lon="9.974097322246152"><ele>528.0</ele><time>2026-04-11T13:59:24.001Z</time></trkpt><trkpt lat="44.73316891044469" lon="9.973993985240464"><ele>528.0</ele><time>2026-04-11T13:59:25.001Z</time></trkpt><trkpt lat="44.73311336547914" lon="9.97390788620328"><ele>526.8</ele><time>2026-04-11T13:59:26.001Z</time></trkpt><trkpt lat="44.7330464220781" lon="9.973847123032986"><ele>525.5999999999999</ele><time>2026-04-11T13:59:27.001Z</time></trkpt><trkpt lat="44.73296912315116" lon="9.973813262901592"><ele>524.4000000000001</ele><time>2026-04-11T13:59:28.001Z</time></trkpt><trkpt lat="44.73289601337157" lon="9.973732350795897"><ele>523.2</ele><time>2026-04-11T13:59:29.001Z</time></trkpt><trkpt lat="44.732808635398996" lon="9.973667847207505"><ele>522.0</ele><time>2026-04-11T13:59:30.001Z</time></trkpt><trkpt lat="44.732711218596386" lon="9.973613814541936"><ele>518.0</ele><time>2026-04-11T13:59:31.001Z</time></trkpt><trkpt lat="44.7326090372725" lon="9.973596148345978"><ele>514.0</ele><time>2026-04-11T13:59:32.001Z</time></trkpt><trkpt lat="44.732495351045664" lon="9.973570846412231"><ele>510.0</ele><time>2026-04-11T13:59:33.001Z</time></trkpt><trkpt lat="44.73237237181994" lon="9.973565951073583"><ele>506.0</ele><time>2026-04-11T13:59:34.001Z</time></trkpt><trkpt lat="44.73224853547968" lon="9.973582688214508"><ele>506.0</ele><time>2026-04-11T13:59:35.001Z</time></trkpt><trkpt lat="44.732136850481105" lon="9.973608890876399"><ele>506.0</ele><time>2026-04-11T13:59:36.001Z</time></trkpt><trkpt lat="44.73203845129172" lon="9.973621168611896"><ele>506.0</ele><time>2026-04-11T13:59:37.001Z</time></trkpt><trkpt lat="44.731958717731864" lon="9.973575994120939"><ele>506.0</ele><time>2026-04-11T13:59:38.001Z</time></trkpt><trkpt lat="44.73188827429691" lon="9.973519700434949"><ele>506.0</ele><time>2026-04-11T13:59:39.001Z</time></trkpt><trkpt lat="44.731822004932084" lon="9.973441074423917"><ele>505.6</ele><time>2026-04-11T13:59:40.001Z</time></trkpt><trkpt lat="44.73174338688695" lon="9.973368745974229"><ele>505.20000000000005</ele><time>2026-04-11T13:59:41.001Z</time></trkpt><trkpt lat="44.73166696187456" lon="9.973290746244137"><ele>504.79999999999995</ele><time>2026-04-11T13:59:42.001Z</time></trkpt><trkpt lat="44.731586364738895" lon="9.973217918814079"><ele>504.4</ele><time>2026-04-11T13:59:43.001Z</time></trkpt><trkpt lat="44.73148107524363" lon="9.97319500011436"><ele>504.0</ele><time>2026-04-11T13:59:44.001Z</time></trkpt><trkpt lat="44.73137603373805" lon="9.973215450042536"><ele>506.6</ele><time>2026-04-11T13:59:45.001Z</time></trkpt><trkpt lat="44.73127863535367" lon="9.97326170527776"><ele>509.2</ele><time>2026-04-11T13:59:46.001Z</time></trkpt><trkpt lat="44.73118872053195" lon="9.97326889075289"><ele>511.80000000000007</ele><time>2026-04-11T13:59:47.001Z</time></trkpt><trkpt lat="44.731113477408535" lon="9.973203969638515"><ele>514.4</ele><time>2026-04-11T13:59:48.001Z</time></trkpt><trkpt lat="44.731036230877066" lon="9.973122777860041"><ele>517.0</ele><time>2026-04-11T13:59:49.001Z</time></trkpt><trkpt lat="44.7309442784865" lon="9.973053306254485"><ele>517.0</ele><time>2026-04-11T13:59:50.001Z</time></trkpt><trkpt lat="44.73086199755455" lon="9.972970642583807"><ele>517.0</ele><time>2026-04-11T13:59:51.001Z</time></trkpt><trkpt lat="44.7307841426879" lon="9.972865752949678"><ele>517.0</ele><time>2026-04-11T13:59:52.001Z</time></trkpt><trkpt lat="44.73068884067218" lon="9.972790605545416"><ele>517.0</ele><time>2026-04-11T13:59:53.001Z</time></trkpt><trkpt lat="44.73060962901472" lon="9.972702643504947"><ele>517.0</ele><time>2026-04-11T13:59:54.001Z</time></trkpt><trkpt lat="44.730528133780155" lon="9.972607400842568"><ele>517.0</ele><time>2026-04-11T13:59:55.001Z</time></trkpt><trkpt lat="44.730450935854506" lon="9.972526649428767"><ele>517.0</ele><time>2026-04-11T13:59:56.001Z</time></trkpt><trkpt lat="44.73036913569107" lon="9.972446589936018"><ele>517.0</ele><time>2026-04-11T13:59:57.001Z</time></trkpt><trkpt lat="44.73028708896535" lon="9.972376729163232"><ele>517.0</ele><time>2026-04-11T13:59:58.001Z</time></trkpt><trkpt lat="44.730186975880976" lon="9.972327535044627"><ele>517.0</ele><time>2026-04-11T13:59:59.001Z</time></trkpt><trkpt lat="44.73008090266242" lon="9.97228633760188"><ele>519.3333333333334</ele><time>2026-04-11T14:00:00.001Z</time></trkpt><trkpt lat="44.72998365709725" lon="9.972257741352145"><ele>521.6666666666667</ele><time>2026-04-11T14:00:01.001Z</time></trkpt><trkpt lat="44.72988628739157" lon="9.972236591540637"><ele>524.0</ele><time>2026-04-11T14:00:02.001Z</time></trkpt><trkpt lat="44.72979693841502" lon="9.972215491220078"><ele>526.3333333333334</ele><time>2026-04-11T14:00:03.001Z</time></trkpt><trkpt lat="44.729729460132305" lon="9.972193478447565"><ele>528.6666666666666</ele><time>2026-04-11T14:00:04.001Z</time></trkpt><trkpt lat="44.72964716549168" lon="9.972172240717377"><ele>531.0</ele><time>2026-04-11T14:00:06.001Z</time></trkpt><trkpt lat="44.72954829379405" lon="9.972373067720586"><ele>531.0</ele><time>2026-04-11T14:00:09.001Z</time></trkpt><trkpt lat="44.72952982936979" lon="9.972509297435852"><ele>531.0</ele><time>2026-04-11T14:00:10.001Z</time></trkpt><trkpt lat="44.72949617468725" lon="9.972656998698104"><ele>531.0</ele><time>2026-04-11T14:00:11.001Z</time></trkpt><trkpt lat="44.72944611345099" lon="9.972818916220849"><ele>531.0</ele><time>2026-04-11T14:00:12.001Z</time></trkpt><trkpt lat="44.72938737742" lon="9.97298508607155"><ele>531.0</ele><time>2026-04-11T14:00:13.001Z</time></trkpt><trkpt lat="44.72932323212298" lon="9.973136540646863"><ele>531.0</ele><time>2026-04-11T14:00:14.001Z</time></trkpt><trkpt lat="44.72924858446221" lon="9.973277001036186"><ele>531.0</ele><time>2026-04-11T14:00:15.001Z</time></trkpt><trkpt lat="44.7291609276374" lon="9.973386659179909"><ele>531.0</ele><time>2026-04-11T14:00:16.001Z</time></trkpt><trkpt lat="44.72906317087502" lon="9.973469917958072"><ele>530.6</ele><time>2026-04-11T14:00:17.001Z</time></trkpt><trkpt lat="44.72897337471783" lon="9.973547478566354"><ele>530.2</ele><time>2026-04-11T14:00:18.001Z</time></trkpt><trkpt lat="44.72891512641304" lon="9.973650401405433"><ele>529.8</ele><time>2026-04-11T14:00:19.001Z</time></trkpt><trkpt lat="44.72889510443566" lon="9.973790580930405"><ele>529.4</ele><time>2026-04-11T14:00:20.001Z</time></trkpt><trkpt lat="44.72889684792722" lon="9.97393668521493"><ele>529.0</ele><time>2026-04-11T14:00:21.001Z</time></trkpt><trkpt lat="44.72890415802825" lon="9.974082589276916"><ele>527.25</ele><time>2026-04-11T14:00:22.001Z</time></trkpt><trkpt lat="44.72889908101118" lon="9.974226297052674"><ele>525.5</ele><time>2026-04-11T14:00:23.001Z</time></trkpt><trkpt lat="44.72885700877409" lon="9.974364656911687"><ele>523.75</ele><time>2026-04-11T14:00:24.001Z</time></trkpt><trkpt lat="44.728764360716006" lon="9.974501620020664"><ele>522.0</ele><time>2026-04-11T14:00:25.001Z</time></trkpt><trkpt lat="44.72864565341" lon="9.974670169943368"><ele>523.6666666666666</ele><time>2026-04-11T14:00:26.001Z</time></trkpt><trkpt lat="44.728521415310006" lon="9.974882174800781"><ele>525.3333333333333</ele><time>2026-04-11T14:00:27.001Z</time></trkpt><trkpt lat="44.72842954299167" lon="9.975104300428804"><ele>527.0</ele><time>2026-04-11T14:00:28.001Z</time></trkpt><trkpt lat="44.7283605889384" lon="9.975321312560455"><ele>527.0</ele><time>2026-04-11T14:00:29.001Z</time></trkpt><trkpt lat="44.72830491106613" lon="9.975540941286154"><ele>527.0</ele><time>2026-04-11T14:00:30.001Z</time></trkpt><trkpt lat="44.728263584116284" lon="9.97576399091856"><ele>527.0</ele><time>2026-04-11T14:00:31.001Z</time></trkpt><trkpt lat="44.728239377831706" lon="9.975972545935266"><ele>525.75</ele><time>2026-04-11T14:00:32.001Z</time></trkpt><trkpt lat="44.7282284508168" lon="9.976167282111046"><ele>524.5</ele><time>2026-04-11T14:00:33.001Z</time></trkpt><trkpt lat="44.72823040609772" lon="9.976355566885434"><ele>523.25</ele><time>2026-04-11T14:00:34.001Z</time></trkpt><trkpt lat="44.72825841745299" lon="9.976531817461465"><ele>522.0</ele><time>2026-04-11T14:00:35.001Z</time></trkpt><trkpt lat="44.72830180605257" lon="9.976682447537378"><ele>520.25</ele><time>2026-04-11T14:00:36.001Z</time></trkpt><trkpt lat="44.72833488683981" lon="9.976811351079505"><ele>518.5</ele><time>2026-04-11T14:00:37.001Z</time></trkpt><trkpt lat="44.72835943686699" lon="9.976912444577415"><ele>516.75</ele><time>2026-04-11T14:00:38.001Z</time></trkpt><trkpt lat="44.72835012890208" lon="9.977162995074645"><ele>515.0</ele><time>2026-04-11T14:00:39.001Z</time></trkpt><trkpt lat="44.72829835185397" lon="9.977280929549412"><ele>515.0</ele><time>2026-04-11T14:00:40.001Z</time></trkpt><trkpt lat="44.72818342425044" lon="9.977319644185545"><ele>515.0</ele><time>2026-04-11T14:00:41.001Z</time></trkpt><trkpt lat="44.72806642084184" lon="9.97739016195797"><ele>515.0</ele><time>2026-04-11T14:00:42.001Z</time></trkpt><trkpt lat="44.7279330340922" lon="9.97747002062112"><ele>515.0</ele><time>2026-04-11T14:00:43.001Z</time></trkpt><trkpt lat="44.72781801680421" lon="9.977557622936468"><ele>514.2</ele><time>2026-04-11T14:00:44.001Z</time></trkpt><trkpt lat="44.72770391488031" lon="9.977605772721393"><ele>513.4</ele><time>2026-04-11T14:00:45.001Z</time></trkpt><trkpt lat="44.72759416215649" lon="9.977580393142865"><ele>512.6</ele><time>2026-04-11T14:00:46.001Z</time></trkpt><trkpt lat="44.72750453868144" lon="9.977511466801861"><ele>511.8</ele><time>2026-04-11T14:00:47.001Z</time></trkpt><trkpt lat="44.72741140568577" lon="9.977421307834897"><ele>511.0</ele><time>2026-04-11T14:00:48.001Z</time></trkpt><trkpt lat="44.72719218266836" lon="9.977276065434435"><ele>511.0</ele><time>2026-04-11T14:00:50.001Z</time></trkpt><trkpt lat="44.727077556231926" lon="9.97720849390396"><ele>511.0</ele><time>2026-04-11T14:00:51.001Z</time></trkpt><trkpt lat="44.72695415577404" lon="9.977164377402552"><ele>511.0</ele><time>2026-04-11T14:00:52.001Z</time></trkpt><trkpt lat="44.72682721939863" lon="9.977135729891545"><ele>511.0</ele><time>2026-04-11T14:00:53.001Z</time></trkpt><trkpt lat="44.72669693937329" lon="9.977122487132116"><ele>508.75</ele><time>2026-04-11T14:00:54.001Z</time></trkpt><trkpt lat="44.726572996387056" lon="9.977106867905585"><ele>506.5</ele><time>2026-04-11T14:00:55.001Z</time></trkpt><trkpt lat="44.7264558565739" lon="9.977100943831106"><ele>504.25</ele><time>2026-04-11T14:00:56.001Z</time></trkpt><trkpt lat="44.72634428387913" lon="9.97712190638605"><ele>502.0</ele><time>2026-04-11T14:00:57.001Z</time></trkpt><trkpt lat="44.7262344274343" lon="9.977145362423386"><ele>502.0</ele><time>2026-04-11T14:00:58.001Z</time></trkpt><trkpt lat="44.72612927957315" lon="9.977164788000463"><ele>502.00000000000006</ele><time>2026-04-11T14:00:59.001Z</time></trkpt><trkpt lat="44.72602715572095" lon="9.977162201198883"><ele>502.00000000000006</ele><time>2026-04-11T14:01:00Z</time></trkpt><trkpt lat="44.7259276614081" lon="9.977125124360004"><ele>502.0</ele><time>2026-04-11T14:01:01Z</time></trkpt><trkpt lat="44.72584650541444" lon="9.977019544321548"><ele>502.0</ele><time>2026-04-11T14:01:02Z</time></trkpt><trkpt lat="44.72576209106201" lon="9.976928144808168"><ele>501.8</ele><time>2026-04-11T14:01:03Z</time></trkpt><trkpt lat="44.7256838629872" lon="9.976835024257788"><ele>501.6</ele><time>2026-04-11T14:01:04Z</time></trkpt><trkpt lat="44.725603263077424" lon="9.976756115908676"><ele>501.40000000000003</ele><time>2026-04-11T14:01:05Z</time></trkpt><trkpt lat="44.72552984739964" lon="9.976676155989578"><ele>501.20000000000005</ele><time>2026-04-11T14:01:06Z</time></trkpt><trkpt lat="44.72546527934336" lon="9.976614331085818"><ele>501.0</ele><time>2026-04-11T14:01:07Z</time></trkpt><trkpt lat="44.72539386076874" lon="9.976563027984428"><ele>501.0</ele><time>2026-04-11T14:01:08Z</time></trkpt><trkpt lat="44.72531094421621" lon="9.976531106011265"><ele>501.0</ele><time>2026-04-11T14:01:09Z</time></trkpt><trkpt lat="44.72522641515687" lon="9.976540115673926"><ele>501.0</ele><time>2026-04-11T14:01:10Z</time></trkpt><trkpt lat="44.72514681852496" lon="9.97659682967351"><ele>501.0</ele><time>2026-04-11T14:01:11Z</time></trkpt><trkpt lat="44.725092495040606" lon="9.97669604338143"><ele>501.0</ele><time>2026-04-11T14:01:12Z</time></trkpt><trkpt lat="44.72505484550404" lon="9.976815454285957"><ele>501.0</ele><time>2026-04-11T14:01:13Z</time></trkpt><trkpt lat="44.72503524065897" lon="9.976946580560268"><ele>498.8333333333333</ele><time>2026-04-11T14:01:14Z</time></trkpt><trkpt lat="44.725018868635026" lon="9.97707592267303"><ele>496.66666666666663</ele><time>2026-04-11T14:01:15Z</time></trkpt><trkpt lat="44.72499642091992" lon="9.977200554861355"><ele>494.5</ele><time>2026-04-11T14:01:16Z</time></trkpt><trkpt lat="44.72497473055864" lon="9.977318905799661"><ele>492.3333333333333</ele><time>2026-04-11T14:01:17Z</time></trkpt><trkpt lat="44.724956624129454" lon="9.97742253447652"><ele>490.16666666666663</ele><time>2026-04-11T14:01:18Z</time></trkpt><trkpt lat="44.724939815742054" lon="9.97751482312776"><ele>488.0</ele><time>2026-04-11T14:01:19Z</time></trkpt><trkpt lat="44.724915625895264" lon="9.977653473391982"><ele>487.66666666666663</ele><time>2026-04-11T14:01:21Z</time></trkpt><trkpt lat="44.72488956146672" lon="9.977751490323143"><ele>487.3333333333333</ele><time>2026-04-11T14:01:23Z</time></trkpt><trkpt lat="44.72484887394618" lon="9.97787802783001"><ele>487.0</ele><time>2026-04-11T14:01:25.001Z</time></trkpt><trkpt lat="44.72480149810672" lon="9.977937443291838"><ele>486.66666666666663</ele><time>2026-04-11T14:01:29.001Z</time></trkpt><trkpt lat="44.72476060992209" lon="9.978026259310615"><ele>486.3333333333333</ele><time>2026-04-11T14:01:31.001Z</time></trkpt><trkpt lat="44.72471426192233" lon="9.97810974774949"><ele>486.0</ele><time>2026-04-11T14:01:32.001Z</time></trkpt><trkpt lat="44.724652998178335" lon="9.978199262876114"><ele>486.0</ele><time>2026-04-11T14:01:33.001Z</time></trkpt><trkpt lat="44.7245790275194" lon="9.978293953369326"><ele>486.0</ele><time>2026-04-11T14:01:34.001Z</time></trkpt><trkpt lat="44.7244965946785" lon="9.978391896949145"><ele>486.0</ele><time>2026-04-11T14:01:35.001Z</time></trkpt><trkpt lat="44.72441083241535" lon="9.978490305937267"><ele>486.0</ele><time>2026-04-11T14:01:36.001Z</time></trkpt><trkpt lat="44.72432196231337" lon="9.97859228103959"><ele>486.0</ele><time>2026-04-11T14:01:37.001Z</time></trkpt><trkpt lat="44.72423695771423" lon="9.97869274601811"><ele>484.20000000000005</ele><time>2026-04-11T14:01:38.001Z</time></trkpt><trkpt lat="44.72415408361086" lon="9.978766465297312"><ele>482.40000000000003</ele><time>2026-04-11T14:01:39.001Z</time></trkpt><trkpt lat="44.72409342007123" lon="9.97888076218905"><ele>480.6</ele><time>2026-04-11T14:01:40.001Z</time></trkpt><trkpt lat="44.7240184762176" lon="9.97898868735299"><ele>478.8</ele><time>2026-04-11T14:01:41.001Z</time></trkpt><trkpt lat="44.72392908731371" lon="9.979118907933731"><ele>477.0</ele><time>2026-04-11T14:01:42.001Z</time></trkpt><trkpt lat="44.72384996875187" lon="9.979235682809296"><ele>477.20000000000005</ele><time>2026-04-11T14:01:43.001Z</time></trkpt><trkpt lat="44.72379103757713" lon="9.979323640497316"><ele>477.40000000000003</ele><time>2026-04-11T14:01:44.001Z</time></trkpt><trkpt lat="44.7237394200837" lon="9.979401762165187"><ele>477.59999999999997</ele><time>2026-04-11T14:01:45.001Z</time></trkpt><trkpt lat="44.7236924574295" lon="9.979472838672551"><ele>477.79999999999995</ele><time>2026-04-11T14:01:46.001Z</time></trkpt><trkpt lat="44.72363067966429" lon="9.979566337744465"><ele>478.0</ele><time>2026-04-11T14:01:48.001Z</time></trkpt><trkpt lat="44.72334131332821" lon="9.979333872302645"><ele>478.0</ele><time>2026-04-11T14:01:50.001Z</time></trkpt><trkpt lat="44.723288582343876" lon="9.979402591888523"><ele>478.0</ele><time>2026-04-11T14:01:52.001Z</time></trkpt></trkseg></trk></gpx>